<?xml version="1.0" encoding="UTF-8" standalone="no" ?>
<gpx xmlns="http://www.topografix.com/GPX/1/1" xmlns:xsi="http://www.w3.org/2001/XMLSchema-instance" xsi:schemaLocation="http://www.topografix.com/GPX/1/1 http://www.topografix.com/GPX/1/1/gpx.xsd" version="1.1" creator="VisuGPX - https://www.visugpx.com">
  <metadata>
    <name>TALMONT LE BRANDAIS-lac Finfarine</name>
    <desc><![CDATA[Randonnee de 11km+ depuis le Brandais vers le lac de Finfarine a travers de jolis chemins et tour partiel du lac.  ]]></desc>
  </metadata>
  <trk>
    <name><![CDATA[20190321220022-RtvcS]]></name>
    <trkseg>
      <trkpt lat="46.46849" lon="-1.57123">
        <ele>21</ele>
        <time>2019-03-21T13:59:33Z</time>
      </trkpt>
      <trkpt lat="46.46847" lon="-1.57127">
        <ele>21</ele>
        <time>2019-03-21T13:59:35Z</time>
      </trkpt>
      <trkpt lat="46.46846" lon="-1.57133">
        <ele>21</ele>
        <time>2019-03-21T13:59:37Z</time>
      </trkpt>
      <trkpt lat="46.46845" lon="-1.57137">
        <ele>21</ele>
        <time>2019-03-21T13:59:40Z</time>
      </trkpt>
      <trkpt lat="46.46844" lon="-1.57143">
        <ele>21</ele>
        <time>2019-03-21T13:59:42Z</time>
      </trkpt>
      <trkpt lat="46.46843" lon="-1.57147">
        <ele>21</ele>
        <time>2019-03-21T13:59:45Z</time>
      </trkpt>
      <trkpt lat="46.46842" lon="-1.57153">
        <ele>21</ele>
        <time>2019-03-21T13:59:48Z</time>
      </trkpt>
      <trkpt lat="46.4684" lon="-1.57158">
        <ele>20</ele>
        <time>2019-03-21T13:59:50Z</time>
      </trkpt>
      <trkpt lat="46.46839" lon="-1.57162">
        <ele>20</ele>
        <time>2019-03-21T13:59:53Z</time>
      </trkpt>
      <trkpt lat="46.46838" lon="-1.57167">
        <ele>20</ele>
        <time>2019-03-21T13:59:55Z</time>
      </trkpt>
      <trkpt lat="46.46835" lon="-1.57172">
        <ele>20</ele>
        <time>2019-03-21T13:59:58Z</time>
      </trkpt>
      <trkpt lat="46.46835" lon="-1.57175">
        <ele>20</ele>
        <time>2019-03-21T14:00:01Z</time>
      </trkpt>
      <trkpt lat="46.46833" lon="-1.57181">
        <ele>20</ele>
        <time>2019-03-21T14:00:03Z</time>
      </trkpt>
      <trkpt lat="46.46831" lon="-1.57184">
        <ele>20</ele>
        <time>2019-03-21T14:00:06Z</time>
      </trkpt>
      <trkpt lat="46.46829" lon="-1.57188">
        <ele>20</ele>
        <time>2019-03-21T14:00:08Z</time>
      </trkpt>
      <trkpt lat="46.46828" lon="-1.5719">
        <ele>20</ele>
        <time>2019-03-21T14:00:11Z</time>
      </trkpt>
      <trkpt lat="46.46826" lon="-1.57192">
        <ele>20</ele>
        <time>2019-03-21T14:00:14Z</time>
      </trkpt>
      <trkpt lat="46.46825" lon="-1.57193">
        <ele>20</ele>
        <time>2019-03-21T14:00:16Z</time>
      </trkpt>
      <trkpt lat="46.46824" lon="-1.57194">
        <ele>20</ele>
        <time>2019-03-21T14:00:19Z</time>
      </trkpt>
      <trkpt lat="46.46824" lon="-1.57195">
        <ele>20</ele>
        <time>2019-03-21T14:00:21Z</time>
      </trkpt>
      <trkpt lat="46.46823" lon="-1.57195">
        <ele>20</ele>
        <time>2019-03-21T14:00:24Z</time>
      </trkpt>
      <trkpt lat="46.46822" lon="-1.57196">
        <ele>20</ele>
        <time>2019-03-21T14:00:26Z</time>
      </trkpt>
      <trkpt lat="46.46821" lon="-1.57197">
        <ele>20</ele>
        <time>2019-03-21T14:00:29Z</time>
      </trkpt>
      <trkpt lat="46.46819" lon="-1.572">
        <ele>19</ele>
        <time>2019-03-21T14:00:31Z</time>
      </trkpt>
      <trkpt lat="46.46816" lon="-1.57204">
        <ele>19</ele>
        <time>2019-03-21T14:00:34Z</time>
      </trkpt>
      <trkpt lat="46.46814" lon="-1.57206">
        <ele>19</ele>
        <time>2019-03-21T14:00:37Z</time>
      </trkpt>
      <trkpt lat="46.46811" lon="-1.5721">
        <ele>19</ele>
        <time>2019-03-21T14:00:39Z</time>
      </trkpt>
      <trkpt lat="46.4681" lon="-1.57213">
        <ele>19</ele>
        <time>2019-03-21T14:00:42Z</time>
      </trkpt>
      <trkpt lat="46.46807" lon="-1.57217">
        <ele>19</ele>
        <time>2019-03-21T14:00:45Z</time>
      </trkpt>
      <trkpt lat="46.46804" lon="-1.57221">
        <ele>19</ele>
        <time>2019-03-21T14:00:47Z</time>
      </trkpt>
      <trkpt lat="46.46802" lon="-1.57224">
        <ele>19</ele>
        <time>2019-03-21T14:00:50Z</time>
      </trkpt>
      <trkpt lat="46.46798" lon="-1.57229">
        <ele>19</ele>
        <time>2019-03-21T14:00:52Z</time>
      </trkpt>
      <trkpt lat="46.46796" lon="-1.57231">
        <ele>19</ele>
        <time>2019-03-21T14:00:55Z</time>
      </trkpt>
      <trkpt lat="46.46793" lon="-1.57235">
        <ele>19</ele>
        <time>2019-03-21T14:00:58Z</time>
      </trkpt>
      <trkpt lat="46.46789" lon="-1.57239">
        <ele>19</ele>
        <time>2019-03-21T14:01:00Z</time>
      </trkpt>
      <trkpt lat="46.46787" lon="-1.57241">
        <ele>19</ele>
        <time>2019-03-21T14:01:03Z</time>
      </trkpt>
      <trkpt lat="46.46783" lon="-1.57245">
        <ele>18</ele>
        <time>2019-03-21T14:01:05Z</time>
      </trkpt>
      <trkpt lat="46.46779" lon="-1.57249">
        <ele>18</ele>
        <time>2019-03-21T14:01:08Z</time>
      </trkpt>
      <trkpt lat="46.46776" lon="-1.57252">
        <ele>18</ele>
        <time>2019-03-21T14:01:11Z</time>
      </trkpt>
      <trkpt lat="46.46772" lon="-1.57255">
        <ele>18</ele>
        <time>2019-03-21T14:01:13Z</time>
      </trkpt>
      <trkpt lat="46.4677" lon="-1.57258">
        <ele>18</ele>
        <time>2019-03-21T14:01:16Z</time>
      </trkpt>
      <trkpt lat="46.46766" lon="-1.57262">
        <ele>18</ele>
        <time>2019-03-21T14:01:19Z</time>
      </trkpt>
      <trkpt lat="46.46762" lon="-1.57266">
        <ele>18</ele>
        <time>2019-03-21T14:01:21Z</time>
      </trkpt>
      <trkpt lat="46.4676" lon="-1.57268">
        <ele>18</ele>
        <time>2019-03-21T14:01:24Z</time>
      </trkpt>
      <trkpt lat="46.46756" lon="-1.57271">
        <ele>18</ele>
        <time>2019-03-21T14:01:26Z</time>
      </trkpt>
      <trkpt lat="46.46753" lon="-1.57273">
        <ele>18</ele>
        <time>2019-03-21T14:01:29Z</time>
      </trkpt>
      <trkpt lat="46.46749" lon="-1.57277">
        <ele>17</ele>
        <time>2019-03-21T14:01:32Z</time>
      </trkpt>
      <trkpt lat="46.46746" lon="-1.57279">
        <ele>17</ele>
        <time>2019-03-21T14:01:34Z</time>
      </trkpt>
      <trkpt lat="46.46744" lon="-1.5728">
        <ele>17</ele>
        <time>2019-03-21T14:01:37Z</time>
      </trkpt>
      <trkpt lat="46.46742" lon="-1.57281">
        <ele>17</ele>
        <time>2019-03-21T14:01:39Z</time>
      </trkpt>
      <trkpt lat="46.4674" lon="-1.57282">
        <ele>17</ele>
        <time>2019-03-21T14:01:42Z</time>
      </trkpt>
      <trkpt lat="46.46737" lon="-1.57284">
        <ele>17</ele>
        <time>2019-03-21T14:01:44Z</time>
      </trkpt>
      <trkpt lat="46.46733" lon="-1.57286">
        <ele>17</ele>
        <time>2019-03-21T14:01:47Z</time>
      </trkpt>
      <trkpt lat="46.4673" lon="-1.57288">
        <ele>17</ele>
        <time>2019-03-21T14:01:50Z</time>
      </trkpt>
      <trkpt lat="46.46727" lon="-1.57291">
        <ele>17</ele>
        <time>2019-03-21T14:01:52Z</time>
      </trkpt>
      <trkpt lat="46.46724" lon="-1.57292">
        <ele>17</ele>
        <time>2019-03-21T14:01:55Z</time>
      </trkpt>
      <trkpt lat="46.4672" lon="-1.57296">
        <ele>17</ele>
        <time>2019-03-21T14:01:58Z</time>
      </trkpt>
      <trkpt lat="46.46717" lon="-1.57298">
        <ele>17</ele>
        <time>2019-03-21T14:02:00Z</time>
      </trkpt>
      <trkpt lat="46.46715" lon="-1.573">
        <ele>17</ele>
        <time>2019-03-21T14:02:03Z</time>
      </trkpt>
      <trkpt lat="46.46711" lon="-1.57303">
        <ele>17</ele>
        <time>2019-03-21T14:02:05Z</time>
      </trkpt>
      <trkpt lat="46.46708" lon="-1.57305">
        <ele>17</ele>
        <time>2019-03-21T14:02:08Z</time>
      </trkpt>
      <trkpt lat="46.46704" lon="-1.57308">
        <ele>17</ele>
        <time>2019-03-21T14:02:10Z</time>
      </trkpt>
      <trkpt lat="46.46702" lon="-1.5731">
        <ele>17</ele>
        <time>2019-03-21T14:02:13Z</time>
      </trkpt>
      <trkpt lat="46.46697" lon="-1.57313">
        <ele>16</ele>
        <time>2019-03-21T14:02:15Z</time>
      </trkpt>
      <trkpt lat="46.46695" lon="-1.57314">
        <ele>16</ele>
        <time>2019-03-21T14:02:18Z</time>
      </trkpt>
      <trkpt lat="46.46691" lon="-1.57317">
        <ele>16</ele>
        <time>2019-03-21T14:02:21Z</time>
      </trkpt>
      <trkpt lat="46.46689" lon="-1.57319">
        <ele>16</ele>
        <time>2019-03-21T14:02:23Z</time>
      </trkpt>
      <trkpt lat="46.46684" lon="-1.57322">
        <ele>16</ele>
        <time>2019-03-21T14:02:28Z</time>
      </trkpt>
      <trkpt lat="46.46684" lon="-1.57321">
        <ele>16</ele>
        <time>2019-03-21T14:02:31Z</time>
      </trkpt>
      <trkpt lat="46.46684" lon="-1.57321">
        <ele>16</ele>
        <time>2019-03-21T14:02:33Z</time>
      </trkpt>
      <trkpt lat="46.46683" lon="-1.57322">
        <ele>16</ele>
        <time>2019-03-21T14:02:36Z</time>
      </trkpt>
      <trkpt lat="46.46681" lon="-1.57323">
        <ele>16</ele>
        <time>2019-03-21T14:02:38Z</time>
      </trkpt>
      <trkpt lat="46.46679" lon="-1.57325">
        <ele>16</ele>
        <time>2019-03-21T14:02:41Z</time>
      </trkpt>
      <trkpt lat="46.46675" lon="-1.57328">
        <ele>16</ele>
        <time>2019-03-21T14:02:43Z</time>
      </trkpt>
      <trkpt lat="46.46673" lon="-1.5733">
        <ele>16</ele>
        <time>2019-03-21T14:02:46Z</time>
      </trkpt>
      <trkpt lat="46.4667" lon="-1.57333">
        <ele>16</ele>
        <time>2019-03-21T14:02:48Z</time>
      </trkpt>
      <trkpt lat="46.46668" lon="-1.57335">
        <ele>16</ele>
        <time>2019-03-21T14:02:51Z</time>
      </trkpt>
      <trkpt lat="46.46663" lon="-1.57338">
        <ele>16</ele>
        <time>2019-03-21T14:02:54Z</time>
      </trkpt>
      <trkpt lat="46.4666" lon="-1.5734">
        <ele>16</ele>
        <time>2019-03-21T14:02:56Z</time>
      </trkpt>
      <trkpt lat="46.46657" lon="-1.57342">
        <ele>16</ele>
        <time>2019-03-21T14:02:59Z</time>
      </trkpt>
      <trkpt lat="46.46654" lon="-1.57344">
        <ele>16</ele>
        <time>2019-03-21T14:03:01Z</time>
      </trkpt>
      <trkpt lat="46.46651" lon="-1.57346">
        <ele>16</ele>
        <time>2019-03-21T14:03:04Z</time>
      </trkpt>
      <trkpt lat="46.46648" lon="-1.57348">
        <ele>16</ele>
        <time>2019-03-21T14:03:06Z</time>
      </trkpt>
      <trkpt lat="46.46646" lon="-1.5735">
        <ele>16</ele>
        <time>2019-03-21T14:03:09Z</time>
      </trkpt>
      <trkpt lat="46.46642" lon="-1.57352">
        <ele>16</ele>
        <time>2019-03-21T14:03:11Z</time>
      </trkpt>
      <trkpt lat="46.4664" lon="-1.57354">
        <ele>16</ele>
        <time>2019-03-21T14:03:14Z</time>
      </trkpt>
      <trkpt lat="46.46636" lon="-1.57357">
        <ele>16</ele>
        <time>2019-03-21T14:03:16Z</time>
      </trkpt>
      <trkpt lat="46.46634" lon="-1.57359">
        <ele>16</ele>
        <time>2019-03-21T14:03:19Z</time>
      </trkpt>
      <trkpt lat="46.4663" lon="-1.57362">
        <ele>16</ele>
        <time>2019-03-21T14:03:22Z</time>
      </trkpt>
      <trkpt lat="46.46626" lon="-1.57365">
        <ele>16</ele>
        <time>2019-03-21T14:03:24Z</time>
      </trkpt>
      <trkpt lat="46.46624" lon="-1.57366">
        <ele>16</ele>
        <time>2019-03-21T14:03:27Z</time>
      </trkpt>
      <trkpt lat="46.4662" lon="-1.57368">
        <ele>16</ele>
        <time>2019-03-21T14:03:29Z</time>
      </trkpt>
      <trkpt lat="46.46618" lon="-1.5737">
        <ele>16</ele>
        <time>2019-03-21T14:03:32Z</time>
      </trkpt>
      <trkpt lat="46.46614" lon="-1.57373">
        <ele>16</ele>
        <time>2019-03-21T14:03:34Z</time>
      </trkpt>
      <trkpt lat="46.46611" lon="-1.57374">
        <ele>16</ele>
        <time>2019-03-21T14:03:37Z</time>
      </trkpt>
      <trkpt lat="46.46607" lon="-1.57376">
        <ele>16</ele>
        <time>2019-03-21T14:03:39Z</time>
      </trkpt>
      <trkpt lat="46.46605" lon="-1.57378">
        <ele>16</ele>
        <time>2019-03-21T14:03:42Z</time>
      </trkpt>
      <trkpt lat="46.46601" lon="-1.5738">
        <ele>16</ele>
        <time>2019-03-21T14:03:44Z</time>
      </trkpt>
      <trkpt lat="46.46599" lon="-1.57381">
        <ele>16</ele>
        <time>2019-03-21T14:03:47Z</time>
      </trkpt>
      <trkpt lat="46.46595" lon="-1.57384">
        <ele>16</ele>
        <time>2019-03-21T14:03:49Z</time>
      </trkpt>
      <trkpt lat="46.46593" lon="-1.57385">
        <ele>16</ele>
        <time>2019-03-21T14:03:52Z</time>
      </trkpt>
      <trkpt lat="46.46589" lon="-1.57387">
        <ele>16</ele>
        <time>2019-03-21T14:03:55Z</time>
      </trkpt>
      <trkpt lat="46.46586" lon="-1.57391">
        <ele>16</ele>
        <time>2019-03-21T14:03:57Z</time>
      </trkpt>
      <trkpt lat="46.46583" lon="-1.57392">
        <ele>16</ele>
        <time>2019-03-21T14:04:00Z</time>
      </trkpt>
      <trkpt lat="46.4658" lon="-1.57394">
        <ele>16</ele>
        <time>2019-03-21T14:04:02Z</time>
      </trkpt>
      <trkpt lat="46.46578" lon="-1.57396">
        <ele>16</ele>
        <time>2019-03-21T14:04:05Z</time>
      </trkpt>
      <trkpt lat="46.46575" lon="-1.57398">
        <ele>15</ele>
        <time>2019-03-21T14:04:07Z</time>
      </trkpt>
      <trkpt lat="46.46572" lon="-1.574">
        <ele>15</ele>
        <time>2019-03-21T14:04:10Z</time>
      </trkpt>
      <trkpt lat="46.46569" lon="-1.57403">
        <ele>16</ele>
        <time>2019-03-21T14:04:13Z</time>
      </trkpt>
      <trkpt lat="46.46565" lon="-1.57405">
        <ele>15</ele>
        <time>2019-03-21T14:04:15Z</time>
      </trkpt>
      <trkpt lat="46.46563" lon="-1.57407">
        <ele>15</ele>
        <time>2019-03-21T14:04:18Z</time>
      </trkpt>
      <trkpt lat="46.46559" lon="-1.57409">
        <ele>15</ele>
        <time>2019-03-21T14:04:20Z</time>
      </trkpt>
      <trkpt lat="46.46556" lon="-1.57411">
        <ele>16</ele>
        <time>2019-03-21T14:04:23Z</time>
      </trkpt>
      <trkpt lat="46.46553" lon="-1.57414">
        <ele>15</ele>
        <time>2019-03-21T14:04:25Z</time>
      </trkpt>
      <trkpt lat="46.4655" lon="-1.57415">
        <ele>15</ele>
        <time>2019-03-21T14:04:28Z</time>
      </trkpt>
      <trkpt lat="46.46547" lon="-1.57418">
        <ele>16</ele>
        <time>2019-03-21T14:04:30Z</time>
      </trkpt>
      <trkpt lat="46.46546" lon="-1.57418">
        <ele>16</ele>
        <time>2019-03-21T14:04:33Z</time>
      </trkpt>
      <trkpt lat="46.46544" lon="-1.5742">
        <ele>16</ele>
        <time>2019-03-21T14:04:35Z</time>
      </trkpt>
      <trkpt lat="46.46542" lon="-1.57421">
        <ele>16</ele>
        <time>2019-03-21T14:04:38Z</time>
      </trkpt>
      <trkpt lat="46.46538" lon="-1.57423">
        <ele>15</ele>
        <time>2019-03-21T14:04:41Z</time>
      </trkpt>
      <trkpt lat="46.46534" lon="-1.57425">
        <ele>16</ele>
        <time>2019-03-21T14:04:43Z</time>
      </trkpt>
      <trkpt lat="46.46532" lon="-1.57427">
        <ele>16</ele>
        <time>2019-03-21T14:04:46Z</time>
      </trkpt>
      <trkpt lat="46.46528" lon="-1.5743">
        <ele>16</ele>
        <time>2019-03-21T14:04:48Z</time>
      </trkpt>
      <trkpt lat="46.46526" lon="-1.57431">
        <ele>15</ele>
        <time>2019-03-21T14:04:51Z</time>
      </trkpt>
      <trkpt lat="46.46522" lon="-1.57433">
        <ele>16</ele>
        <time>2019-03-21T14:04:53Z</time>
      </trkpt>
      <trkpt lat="46.46519" lon="-1.57435">
        <ele>16</ele>
        <time>2019-03-21T14:04:56Z</time>
      </trkpt>
      <trkpt lat="46.46516" lon="-1.57438">
        <ele>16</ele>
        <time>2019-03-21T14:04:58Z</time>
      </trkpt>
      <trkpt lat="46.46514" lon="-1.57439">
        <ele>16</ele>
        <time>2019-03-21T14:05:01Z</time>
      </trkpt>
      <trkpt lat="46.4651" lon="-1.57441">
        <ele>15</ele>
        <time>2019-03-21T14:05:03Z</time>
      </trkpt>
      <trkpt lat="46.46507" lon="-1.57443">
        <ele>15</ele>
        <time>2019-03-21T14:05:06Z</time>
      </trkpt>
      <trkpt lat="46.46504" lon="-1.57446">
        <ele>15</ele>
        <time>2019-03-21T14:05:08Z</time>
      </trkpt>
      <trkpt lat="46.46502" lon="-1.57448">
        <ele>15</ele>
        <time>2019-03-21T14:05:11Z</time>
      </trkpt>
      <trkpt lat="46.46498" lon="-1.57451">
        <ele>15</ele>
        <time>2019-03-21T14:05:14Z</time>
      </trkpt>
      <trkpt lat="46.46494" lon="-1.57454">
        <ele>15</ele>
        <time>2019-03-21T14:05:16Z</time>
      </trkpt>
      <trkpt lat="46.46491" lon="-1.57456">
        <ele>15</ele>
        <time>2019-03-21T14:05:19Z</time>
      </trkpt>
      <trkpt lat="46.46483" lon="-1.57461">
        <ele>15</ele>
        <time>2019-03-21T14:05:24Z</time>
      </trkpt>
      <trkpt lat="46.4648" lon="-1.57463">
        <ele>15</ele>
        <time>2019-03-21T14:05:27Z</time>
      </trkpt>
      <trkpt lat="46.46476" lon="-1.57466">
        <ele>15</ele>
        <time>2019-03-21T14:05:29Z</time>
      </trkpt>
      <trkpt lat="46.46474" lon="-1.57468">
        <ele>15</ele>
        <time>2019-03-21T14:05:32Z</time>
      </trkpt>
      <trkpt lat="46.4647" lon="-1.57471">
        <ele>15</ele>
        <time>2019-03-21T14:05:34Z</time>
      </trkpt>
      <trkpt lat="46.46466" lon="-1.57474">
        <ele>15</ele>
        <time>2019-03-21T14:05:37Z</time>
      </trkpt>
      <trkpt lat="46.46464" lon="-1.57476">
        <ele>15</ele>
        <time>2019-03-21T14:05:40Z</time>
      </trkpt>
      <trkpt lat="46.4646" lon="-1.5748">
        <ele>15</ele>
        <time>2019-03-21T14:05:42Z</time>
      </trkpt>
      <trkpt lat="46.46458" lon="-1.57482">
        <ele>15</ele>
        <time>2019-03-21T14:05:45Z</time>
      </trkpt>
      <trkpt lat="46.46455" lon="-1.57483">
        <ele>14</ele>
        <time>2019-03-21T14:05:47Z</time>
      </trkpt>
      <trkpt lat="46.46454" lon="-1.57484">
        <ele>14</ele>
        <time>2019-03-21T14:05:50Z</time>
      </trkpt>
      <trkpt lat="46.46452" lon="-1.57485">
        <ele>14</ele>
        <time>2019-03-21T14:05:53Z</time>
      </trkpt>
      <trkpt lat="46.46451" lon="-1.57485">
        <ele>14</ele>
        <time>2019-03-21T14:05:55Z</time>
      </trkpt>
      <trkpt lat="46.4645" lon="-1.57485">
        <ele>14</ele>
        <time>2019-03-21T14:05:58Z</time>
      </trkpt>
      <trkpt lat="46.46448" lon="-1.57486">
        <ele>14</ele>
        <time>2019-03-21T14:06:00Z</time>
      </trkpt>
      <trkpt lat="46.46445" lon="-1.57487">
        <ele>14</ele>
        <time>2019-03-21T14:06:03Z</time>
      </trkpt>
      <trkpt lat="46.46441" lon="-1.5749">
        <ele>14</ele>
        <time>2019-03-21T14:06:05Z</time>
      </trkpt>
      <trkpt lat="46.46439" lon="-1.57491">
        <ele>14</ele>
        <time>2019-03-21T14:06:08Z</time>
      </trkpt>
      <trkpt lat="46.46435" lon="-1.57493">
        <ele>14</ele>
        <time>2019-03-21T14:06:10Z</time>
      </trkpt>
      <trkpt lat="46.46433" lon="-1.57495">
        <ele>14</ele>
        <time>2019-03-21T14:06:13Z</time>
      </trkpt>
      <trkpt lat="46.46429" lon="-1.57496">
        <ele>14</ele>
        <time>2019-03-21T14:06:15Z</time>
      </trkpt>
      <trkpt lat="46.46427" lon="-1.57497">
        <ele>14</ele>
        <time>2019-03-21T14:06:18Z</time>
      </trkpt>
      <trkpt lat="46.46422" lon="-1.57496">
        <ele>14</ele>
        <time>2019-03-21T14:06:21Z</time>
      </trkpt>
      <trkpt lat="46.46419" lon="-1.57492">
        <ele>14</ele>
        <time>2019-03-21T14:06:23Z</time>
      </trkpt>
      <trkpt lat="46.46419" lon="-1.5749">
        <ele>14</ele>
        <time>2019-03-21T14:06:26Z</time>
      </trkpt>
      <trkpt lat="46.46417" lon="-1.57488">
        <ele>14</ele>
        <time>2019-03-21T14:06:28Z</time>
      </trkpt>
      <trkpt lat="46.46417" lon="-1.57485">
        <ele>14</ele>
        <time>2019-03-21T14:06:31Z</time>
      </trkpt>
      <trkpt lat="46.46415" lon="-1.57479">
        <ele>15</ele>
        <time>2019-03-21T14:06:33Z</time>
      </trkpt>
      <trkpt lat="46.46415" lon="-1.57475">
        <ele>15</ele>
        <time>2019-03-21T14:06:36Z</time>
      </trkpt>
      <trkpt lat="46.46413" lon="-1.57469">
        <ele>15</ele>
        <time>2019-03-21T14:06:38Z</time>
      </trkpt>
      <trkpt lat="46.46413" lon="-1.57465">
        <ele>15</ele>
        <time>2019-03-21T14:06:41Z</time>
      </trkpt>
      <trkpt lat="46.46412" lon="-1.57459">
        <ele>15</ele>
        <time>2019-03-21T14:06:44Z</time>
      </trkpt>
      <trkpt lat="46.46411" lon="-1.57455">
        <ele>15</ele>
        <time>2019-03-21T14:06:46Z</time>
      </trkpt>
      <trkpt lat="46.4641" lon="-1.5745">
        <ele>15</ele>
        <time>2019-03-21T14:06:49Z</time>
      </trkpt>
      <trkpt lat="46.46409" lon="-1.57446">
        <ele>15</ele>
        <time>2019-03-21T14:06:51Z</time>
      </trkpt>
      <trkpt lat="46.46408" lon="-1.57441">
        <ele>15</ele>
        <time>2019-03-21T14:06:54Z</time>
      </trkpt>
      <trkpt lat="46.46408" lon="-1.57439">
        <ele>15</ele>
        <time>2019-03-21T14:06:56Z</time>
      </trkpt>
      <trkpt lat="46.46408" lon="-1.57438">
        <ele>16</ele>
        <time>2019-03-21T14:06:59Z</time>
      </trkpt>
      <trkpt lat="46.46408" lon="-1.57433">
        <ele>16</ele>
        <time>2019-03-21T14:07:01Z</time>
      </trkpt>
      <trkpt lat="46.46408" lon="-1.5743">
        <ele>16</ele>
        <time>2019-03-21T14:07:04Z</time>
      </trkpt>
      <trkpt lat="46.46407" lon="-1.57426">
        <ele>16</ele>
        <time>2019-03-21T14:07:06Z</time>
      </trkpt>
      <trkpt lat="46.46406" lon="-1.57421">
        <ele>16</ele>
        <time>2019-03-21T14:07:09Z</time>
      </trkpt>
      <trkpt lat="46.46405" lon="-1.57415">
        <ele>16</ele>
        <time>2019-03-21T14:07:11Z</time>
      </trkpt>
      <trkpt lat="46.46405" lon="-1.57411">
        <ele>16</ele>
        <time>2019-03-21T14:07:14Z</time>
      </trkpt>
      <trkpt lat="46.46404" lon="-1.57405">
        <ele>16</ele>
        <time>2019-03-21T14:07:17Z</time>
      </trkpt>
      <trkpt lat="46.46402" lon="-1.57399">
        <ele>16</ele>
        <time>2019-03-21T14:07:19Z</time>
      </trkpt>
      <trkpt lat="46.46402" lon="-1.57395">
        <ele>16</ele>
        <time>2019-03-21T14:07:22Z</time>
      </trkpt>
      <trkpt lat="46.46402" lon="-1.57389">
        <ele>16</ele>
        <time>2019-03-21T14:07:24Z</time>
      </trkpt>
      <trkpt lat="46.46401" lon="-1.57385">
        <ele>16</ele>
        <time>2019-03-21T14:07:27Z</time>
      </trkpt>
      <trkpt lat="46.46401" lon="-1.57379">
        <ele>17</ele>
        <time>2019-03-21T14:07:29Z</time>
      </trkpt>
      <trkpt lat="46.464" lon="-1.57374">
        <ele>17</ele>
        <time>2019-03-21T14:07:32Z</time>
      </trkpt>
      <trkpt lat="46.46399" lon="-1.5737">
        <ele>17</ele>
        <time>2019-03-21T14:07:35Z</time>
      </trkpt>
      <trkpt lat="46.46399" lon="-1.57365">
        <ele>17</ele>
        <time>2019-03-21T14:07:37Z</time>
      </trkpt>
      <trkpt lat="46.46398" lon="-1.57361">
        <ele>17</ele>
        <time>2019-03-21T14:07:40Z</time>
      </trkpt>
      <trkpt lat="46.46398" lon="-1.57355">
        <ele>17</ele>
        <time>2019-03-21T14:07:42Z</time>
      </trkpt>
      <trkpt lat="46.46398" lon="-1.57351">
        <ele>17</ele>
        <time>2019-03-21T14:07:45Z</time>
      </trkpt>
      <trkpt lat="46.46397" lon="-1.57346">
        <ele>17</ele>
        <time>2019-03-21T14:07:47Z</time>
      </trkpt>
      <trkpt lat="46.46397" lon="-1.57342">
        <ele>17</ele>
        <time>2019-03-21T14:07:50Z</time>
      </trkpt>
      <trkpt lat="46.46396" lon="-1.57336">
        <ele>17</ele>
        <time>2019-03-21T14:07:52Z</time>
      </trkpt>
      <trkpt lat="46.46396" lon="-1.57332">
        <ele>17</ele>
        <time>2019-03-21T14:07:55Z</time>
      </trkpt>
      <trkpt lat="46.46395" lon="-1.57326">
        <ele>17</ele>
        <time>2019-03-21T14:07:57Z</time>
      </trkpt>
      <trkpt lat="46.46395" lon="-1.57322">
        <ele>17</ele>
        <time>2019-03-21T14:08:00Z</time>
      </trkpt>
      <trkpt lat="46.46395" lon="-1.57316">
        <ele>18</ele>
        <time>2019-03-21T14:08:03Z</time>
      </trkpt>
      <trkpt lat="46.46394" lon="-1.5731">
        <ele>18</ele>
        <time>2019-03-21T14:08:05Z</time>
      </trkpt>
      <trkpt lat="46.46394" lon="-1.57306">
        <ele>18</ele>
        <time>2019-03-21T14:08:08Z</time>
      </trkpt>
      <trkpt lat="46.46394" lon="-1.573">
        <ele>18</ele>
        <time>2019-03-21T14:08:10Z</time>
      </trkpt>
      <trkpt lat="46.46393" lon="-1.57296">
        <ele>18</ele>
        <time>2019-03-21T14:08:13Z</time>
      </trkpt>
      <trkpt lat="46.46393" lon="-1.5729">
        <ele>18</ele>
        <time>2019-03-21T14:08:15Z</time>
      </trkpt>
      <trkpt lat="46.46393" lon="-1.57283">
        <ele>18</ele>
        <time>2019-03-21T14:08:21Z</time>
      </trkpt>
      <trkpt lat="46.46393" lon="-1.57279">
        <ele>18</ele>
        <time>2019-03-21T14:08:23Z</time>
      </trkpt>
      <trkpt lat="46.46392" lon="-1.57275">
        <ele>18</ele>
        <time>2019-03-21T14:08:26Z</time>
      </trkpt>
      <trkpt lat="46.46393" lon="-1.57269">
        <ele>18</ele>
        <time>2019-03-21T14:08:28Z</time>
      </trkpt>
      <trkpt lat="46.46393" lon="-1.57265">
        <ele>18</ele>
        <time>2019-03-21T14:08:31Z</time>
      </trkpt>
      <trkpt lat="46.46393" lon="-1.57259">
        <ele>18</ele>
        <time>2019-03-21T14:08:33Z</time>
      </trkpt>
      <trkpt lat="46.46392" lon="-1.57253">
        <ele>19</ele>
        <time>2019-03-21T14:08:36Z</time>
      </trkpt>
      <trkpt lat="46.46392" lon="-1.57249">
        <ele>19</ele>
        <time>2019-03-21T14:08:39Z</time>
      </trkpt>
      <trkpt lat="46.46392" lon="-1.57244">
        <ele>19</ele>
        <time>2019-03-21T14:08:41Z</time>
      </trkpt>
      <trkpt lat="46.46392" lon="-1.57239">
        <ele>19</ele>
        <time>2019-03-21T14:08:44Z</time>
      </trkpt>
      <trkpt lat="46.46392" lon="-1.57234">
        <ele>19</ele>
        <time>2019-03-21T14:08:46Z</time>
      </trkpt>
      <trkpt lat="46.46392" lon="-1.5723">
        <ele>19</ele>
        <time>2019-03-21T14:08:49Z</time>
      </trkpt>
      <trkpt lat="46.46392" lon="-1.57225">
        <ele>19</ele>
        <time>2019-03-21T14:08:52Z</time>
      </trkpt>
      <trkpt lat="46.46392" lon="-1.57219">
        <ele>19</ele>
        <time>2019-03-21T14:08:54Z</time>
      </trkpt>
      <trkpt lat="46.46392" lon="-1.57216">
        <ele>19</ele>
        <time>2019-03-21T14:08:57Z</time>
      </trkpt>
      <trkpt lat="46.46392" lon="-1.5721">
        <ele>19</ele>
        <time>2019-03-21T14:08:59Z</time>
      </trkpt>
      <trkpt lat="46.46392" lon="-1.57207">
        <ele>19</ele>
        <time>2019-03-21T14:09:02Z</time>
      </trkpt>
      <trkpt lat="46.46392" lon="-1.57203">
        <ele>19</ele>
        <time>2019-03-21T14:09:05Z</time>
      </trkpt>
      <trkpt lat="46.46392" lon="-1.57199">
        <ele>19</ele>
        <time>2019-03-21T14:09:07Z</time>
      </trkpt>
      <trkpt lat="46.46392" lon="-1.57195">
        <ele>19</ele>
        <time>2019-03-21T14:09:10Z</time>
      </trkpt>
      <trkpt lat="46.46392" lon="-1.57189">
        <ele>19</ele>
        <time>2019-03-21T14:09:12Z</time>
      </trkpt>
      <trkpt lat="46.46393" lon="-1.57185">
        <ele>19</ele>
        <time>2019-03-21T14:09:15Z</time>
      </trkpt>
      <trkpt lat="46.46393" lon="-1.57179">
        <ele>19</ele>
        <time>2019-03-21T14:09:18Z</time>
      </trkpt>
      <trkpt lat="46.46393" lon="-1.57173">
        <ele>19</ele>
        <time>2019-03-21T14:09:20Z</time>
      </trkpt>
      <trkpt lat="46.46394" lon="-1.57169">
        <ele>19</ele>
        <time>2019-03-21T14:09:23Z</time>
      </trkpt>
      <trkpt lat="46.46394" lon="-1.57164">
        <ele>19</ele>
        <time>2019-03-21T14:09:25Z</time>
      </trkpt>
      <trkpt lat="46.46394" lon="-1.5716">
        <ele>19</ele>
        <time>2019-03-21T14:09:28Z</time>
      </trkpt>
      <trkpt lat="46.46394" lon="-1.57154">
        <ele>19</ele>
        <time>2019-03-21T14:09:30Z</time>
      </trkpt>
      <trkpt lat="46.46394" lon="-1.5715">
        <ele>19</ele>
        <time>2019-03-21T14:09:33Z</time>
      </trkpt>
      <trkpt lat="46.46394" lon="-1.57144">
        <ele>19</ele>
        <time>2019-03-21T14:09:36Z</time>
      </trkpt>
      <trkpt lat="46.46394" lon="-1.57138">
        <ele>19</ele>
        <time>2019-03-21T14:09:38Z</time>
      </trkpt>
      <trkpt lat="46.46394" lon="-1.57134">
        <ele>19</ele>
        <time>2019-03-21T14:09:41Z</time>
      </trkpt>
      <trkpt lat="46.46394" lon="-1.57129">
        <ele>19</ele>
        <time>2019-03-21T14:09:43Z</time>
      </trkpt>
      <trkpt lat="46.46394" lon="-1.57125">
        <ele>19</ele>
        <time>2019-03-21T14:09:46Z</time>
      </trkpt>
      <trkpt lat="46.46395" lon="-1.57119">
        <ele>19</ele>
        <time>2019-03-21T14:09:49Z</time>
      </trkpt>
      <trkpt lat="46.46396" lon="-1.57113">
        <ele>19</ele>
        <time>2019-03-21T14:09:51Z</time>
      </trkpt>
      <trkpt lat="46.46397" lon="-1.57109">
        <ele>19</ele>
        <time>2019-03-21T14:09:54Z</time>
      </trkpt>
      <trkpt lat="46.46397" lon="-1.57103">
        <ele>19</ele>
        <time>2019-03-21T14:09:57Z</time>
      </trkpt>
      <trkpt lat="46.46396" lon="-1.57097">
        <ele>19</ele>
        <time>2019-03-21T14:09:59Z</time>
      </trkpt>
      <trkpt lat="46.46396" lon="-1.57093">
        <ele>19</ele>
        <time>2019-03-21T14:10:02Z</time>
      </trkpt>
      <trkpt lat="46.46396" lon="-1.57087">
        <ele>19</ele>
        <time>2019-03-21T14:10:04Z</time>
      </trkpt>
      <trkpt lat="46.46396" lon="-1.57083">
        <ele>19</ele>
        <time>2019-03-21T14:10:07Z</time>
      </trkpt>
      <trkpt lat="46.46396" lon="-1.57078">
        <ele>19</ele>
        <time>2019-03-21T14:10:10Z</time>
      </trkpt>
      <trkpt lat="46.46396" lon="-1.57072">
        <ele>19</ele>
        <time>2019-03-21T14:10:12Z</time>
      </trkpt>
      <trkpt lat="46.46395" lon="-1.57068">
        <ele>18</ele>
        <time>2019-03-21T14:10:15Z</time>
      </trkpt>
      <trkpt lat="46.46395" lon="-1.57062">
        <ele>18</ele>
        <time>2019-03-21T14:10:18Z</time>
      </trkpt>
      <trkpt lat="46.46395" lon="-1.57057">
        <ele>18</ele>
        <time>2019-03-21T14:10:20Z</time>
      </trkpt>
      <trkpt lat="46.46395" lon="-1.57053">
        <ele>18</ele>
        <time>2019-03-21T14:10:23Z</time>
      </trkpt>
      <trkpt lat="46.46394" lon="-1.57047">
        <ele>18</ele>
        <time>2019-03-21T14:10:26Z</time>
      </trkpt>
      <trkpt lat="46.46393" lon="-1.57041">
        <ele>18</ele>
        <time>2019-03-21T14:10:28Z</time>
      </trkpt>
      <trkpt lat="46.46393" lon="-1.57037">
        <ele>18</ele>
        <time>2019-03-21T14:10:31Z</time>
      </trkpt>
      <trkpt lat="46.46392" lon="-1.57031">
        <ele>18</ele>
        <time>2019-03-21T14:10:33Z</time>
      </trkpt>
      <trkpt lat="46.46392" lon="-1.57027">
        <ele>18</ele>
        <time>2019-03-21T14:10:36Z</time>
      </trkpt>
      <trkpt lat="46.46391" lon="-1.57022">
        <ele>18</ele>
        <time>2019-03-21T14:10:39Z</time>
      </trkpt>
      <trkpt lat="46.4639" lon="-1.57016">
        <ele>17</ele>
        <time>2019-03-21T14:10:41Z</time>
      </trkpt>
      <trkpt lat="46.4639" lon="-1.57012">
        <ele>17</ele>
        <time>2019-03-21T14:10:44Z</time>
      </trkpt>
      <trkpt lat="46.46389" lon="-1.57007">
        <ele>17</ele>
        <time>2019-03-21T14:10:46Z</time>
      </trkpt>
      <trkpt lat="46.46389" lon="-1.57003">
        <ele>17</ele>
        <time>2019-03-21T14:10:49Z</time>
      </trkpt>
      <trkpt lat="46.46388" lon="-1.56997">
        <ele>17</ele>
        <time>2019-03-21T14:10:52Z</time>
      </trkpt>
      <trkpt lat="46.46387" lon="-1.56991">
        <ele>17</ele>
        <time>2019-03-21T14:10:54Z</time>
      </trkpt>
      <trkpt lat="46.46387" lon="-1.56988">
        <ele>17</ele>
        <time>2019-03-21T14:10:57Z</time>
      </trkpt>
      <trkpt lat="46.46386" lon="-1.56982">
        <ele>17</ele>
        <time>2019-03-21T14:10:59Z</time>
      </trkpt>
      <trkpt lat="46.46386" lon="-1.56976">
        <ele>17</ele>
        <time>2019-03-21T14:11:02Z</time>
      </trkpt>
      <trkpt lat="46.46385" lon="-1.56973">
        <ele>17</ele>
        <time>2019-03-21T14:11:05Z</time>
      </trkpt>
      <trkpt lat="46.46384" lon="-1.56967">
        <ele>17</ele>
        <time>2019-03-21T14:11:07Z</time>
      </trkpt>
      <trkpt lat="46.46384" lon="-1.56961">
        <ele>17</ele>
        <time>2019-03-21T14:11:10Z</time>
      </trkpt>
      <trkpt lat="46.46383" lon="-1.56958">
        <ele>17</ele>
        <time>2019-03-21T14:11:13Z</time>
      </trkpt>
      <trkpt lat="46.46382" lon="-1.56952">
        <ele>17</ele>
        <time>2019-03-21T14:11:15Z</time>
      </trkpt>
      <trkpt lat="46.46381" lon="-1.56943">
        <ele>17</ele>
        <time>2019-03-21T14:11:21Z</time>
      </trkpt>
      <trkpt lat="46.4638" lon="-1.56937">
        <ele>17</ele>
        <time>2019-03-21T14:11:23Z</time>
      </trkpt>
      <trkpt lat="46.4638" lon="-1.56932">
        <ele>17</ele>
        <time>2019-03-21T14:11:26Z</time>
      </trkpt>
      <trkpt lat="46.46379" lon="-1.56928">
        <ele>17</ele>
        <time>2019-03-21T14:11:29Z</time>
      </trkpt>
      <trkpt lat="46.46379" lon="-1.56923">
        <ele>17</ele>
        <time>2019-03-21T14:11:32Z</time>
      </trkpt>
      <trkpt lat="46.46377" lon="-1.56921">
        <ele>17</ele>
        <time>2019-03-21T14:11:34Z</time>
      </trkpt>
      <trkpt lat="46.46377" lon="-1.56919">
        <ele>17</ele>
        <time>2019-03-21T14:11:37Z</time>
      </trkpt>
      <trkpt lat="46.46377" lon="-1.56916">
        <ele>17</ele>
        <time>2019-03-21T14:11:39Z</time>
      </trkpt>
      <trkpt lat="46.46377" lon="-1.5691">
        <ele>17</ele>
        <time>2019-03-21T14:11:42Z</time>
      </trkpt>
      <trkpt lat="46.46377" lon="-1.56906">
        <ele>17</ele>
        <time>2019-03-21T14:11:45Z</time>
      </trkpt>
      <trkpt lat="46.46375" lon="-1.569">
        <ele>17</ele>
        <time>2019-03-21T14:11:47Z</time>
      </trkpt>
      <trkpt lat="46.46374" lon="-1.56895">
        <ele>17</ele>
        <time>2019-03-21T14:11:50Z</time>
      </trkpt>
      <trkpt lat="46.46374" lon="-1.56891">
        <ele>17</ele>
        <time>2019-03-21T14:11:53Z</time>
      </trkpt>
      <trkpt lat="46.46372" lon="-1.56885">
        <ele>17</ele>
        <time>2019-03-21T14:11:56Z</time>
      </trkpt>
      <trkpt lat="46.46371" lon="-1.56879">
        <ele>17</ele>
        <time>2019-03-21T14:11:58Z</time>
      </trkpt>
      <trkpt lat="46.4637" lon="-1.56875">
        <ele>17</ele>
        <time>2019-03-21T14:12:01Z</time>
      </trkpt>
      <trkpt lat="46.46369" lon="-1.56869">
        <ele>18</ele>
        <time>2019-03-21T14:12:04Z</time>
      </trkpt>
      <trkpt lat="46.46367" lon="-1.56865">
        <ele>18</ele>
        <time>2019-03-21T14:12:06Z</time>
      </trkpt>
      <trkpt lat="46.46366" lon="-1.5686">
        <ele>18</ele>
        <time>2019-03-21T14:12:09Z</time>
      </trkpt>
      <trkpt lat="46.46365" lon="-1.56856">
        <ele>18</ele>
        <time>2019-03-21T14:12:12Z</time>
      </trkpt>
      <trkpt lat="46.46364" lon="-1.56851">
        <ele>18</ele>
        <time>2019-03-21T14:12:14Z</time>
      </trkpt>
      <trkpt lat="46.46362" lon="-1.56847">
        <ele>18</ele>
        <time>2019-03-21T14:12:17Z</time>
      </trkpt>
      <trkpt lat="46.46361" lon="-1.56844">
        <ele>18</ele>
        <time>2019-03-21T14:12:20Z</time>
      </trkpt>
      <trkpt lat="46.46359" lon="-1.56839">
        <ele>18</ele>
        <time>2019-03-21T14:12:22Z</time>
      </trkpt>
      <trkpt lat="46.46358" lon="-1.56834">
        <ele>18</ele>
        <time>2019-03-21T14:12:25Z</time>
      </trkpt>
      <trkpt lat="46.46357" lon="-1.56831">
        <ele>18</ele>
        <time>2019-03-21T14:12:28Z</time>
      </trkpt>
      <trkpt lat="46.46356" lon="-1.56826">
        <ele>18</ele>
        <time>2019-03-21T14:12:31Z</time>
      </trkpt>
      <trkpt lat="46.46355" lon="-1.56821">
        <ele>19</ele>
        <time>2019-03-21T14:12:33Z</time>
      </trkpt>
      <trkpt lat="46.46354" lon="-1.56818">
        <ele>19</ele>
        <time>2019-03-21T14:12:36Z</time>
      </trkpt>
      <trkpt lat="46.46353" lon="-1.56813">
        <ele>19</ele>
        <time>2019-03-21T14:12:39Z</time>
      </trkpt>
      <trkpt lat="46.46352" lon="-1.56808">
        <ele>19</ele>
        <time>2019-03-21T14:12:41Z</time>
      </trkpt>
      <trkpt lat="46.46351" lon="-1.56805">
        <ele>19</ele>
        <time>2019-03-21T14:12:44Z</time>
      </trkpt>
      <trkpt lat="46.46348" lon="-1.56801">
        <ele>19</ele>
        <time>2019-03-21T14:12:46Z</time>
      </trkpt>
      <trkpt lat="46.46346" lon="-1.56797">
        <ele>19</ele>
        <time>2019-03-21T14:12:49Z</time>
      </trkpt>
      <trkpt lat="46.46345" lon="-1.56794">
        <ele>19</ele>
        <time>2019-03-21T14:12:52Z</time>
      </trkpt>
      <trkpt lat="46.46343" lon="-1.5679">
        <ele>19</ele>
        <time>2019-03-21T14:12:55Z</time>
      </trkpt>
      <trkpt lat="46.46341" lon="-1.56785">
        <ele>19</ele>
        <time>2019-03-21T14:12:57Z</time>
      </trkpt>
      <trkpt lat="46.4634" lon="-1.56783">
        <ele>19</ele>
        <time>2019-03-21T14:13:00Z</time>
      </trkpt>
      <trkpt lat="46.46339" lon="-1.56778">
        <ele>19</ele>
        <time>2019-03-21T14:13:03Z</time>
      </trkpt>
      <trkpt lat="46.46337" lon="-1.56774">
        <ele>19</ele>
        <time>2019-03-21T14:13:05Z</time>
      </trkpt>
      <trkpt lat="46.46337" lon="-1.56771">
        <ele>19</ele>
        <time>2019-03-21T14:13:08Z</time>
      </trkpt>
      <trkpt lat="46.46335" lon="-1.56766">
        <ele>20</ele>
        <time>2019-03-21T14:13:10Z</time>
      </trkpt>
      <trkpt lat="46.46334" lon="-1.56761">
        <ele>20</ele>
        <time>2019-03-21T14:13:13Z</time>
      </trkpt>
      <trkpt lat="46.46332" lon="-1.56758">
        <ele>20</ele>
        <time>2019-03-21T14:13:16Z</time>
      </trkpt>
      <trkpt lat="46.46331" lon="-1.56753">
        <ele>20</ele>
        <time>2019-03-21T14:13:18Z</time>
      </trkpt>
      <trkpt lat="46.4633" lon="-1.5675">
        <ele>20</ele>
        <time>2019-03-21T14:13:21Z</time>
      </trkpt>
      <trkpt lat="46.46328" lon="-1.56744">
        <ele>20</ele>
        <time>2019-03-21T14:13:23Z</time>
      </trkpt>
      <trkpt lat="46.46327" lon="-1.56739">
        <ele>20</ele>
        <time>2019-03-21T14:13:26Z</time>
      </trkpt>
      <trkpt lat="46.46326" lon="-1.56736">
        <ele>20</ele>
        <time>2019-03-21T14:13:29Z</time>
      </trkpt>
      <trkpt lat="46.46325" lon="-1.5673">
        <ele>20</ele>
        <time>2019-03-21T14:13:31Z</time>
      </trkpt>
      <trkpt lat="46.46323" lon="-1.56726">
        <ele>21</ele>
        <time>2019-03-21T14:13:34Z</time>
      </trkpt>
      <trkpt lat="46.46322" lon="-1.56722">
        <ele>21</ele>
        <time>2019-03-21T14:13:37Z</time>
      </trkpt>
      <trkpt lat="46.4632" lon="-1.56717">
        <ele>21</ele>
        <time>2019-03-21T14:13:39Z</time>
      </trkpt>
      <trkpt lat="46.46319" lon="-1.56713">
        <ele>21</ele>
        <time>2019-03-21T14:13:42Z</time>
      </trkpt>
      <trkpt lat="46.46317" lon="-1.56708">
        <ele>21</ele>
        <time>2019-03-21T14:13:45Z</time>
      </trkpt>
      <trkpt lat="46.46316" lon="-1.56703">
        <ele>21</ele>
        <time>2019-03-21T14:13:47Z</time>
      </trkpt>
      <trkpt lat="46.46314" lon="-1.56699">
        <ele>21</ele>
        <time>2019-03-21T14:13:50Z</time>
      </trkpt>
      <trkpt lat="46.46313" lon="-1.56693">
        <ele>21</ele>
        <time>2019-03-21T14:13:52Z</time>
      </trkpt>
      <trkpt lat="46.46311" lon="-1.56688">
        <ele>21</ele>
        <time>2019-03-21T14:13:55Z</time>
      </trkpt>
      <trkpt lat="46.4631" lon="-1.56684">
        <ele>21</ele>
        <time>2019-03-21T14:13:58Z</time>
      </trkpt>
      <trkpt lat="46.46309" lon="-1.56679">
        <ele>21</ele>
        <time>2019-03-21T14:14:00Z</time>
      </trkpt>
      <trkpt lat="46.46307" lon="-1.56674">
        <ele>21</ele>
        <time>2019-03-21T14:14:03Z</time>
      </trkpt>
      <trkpt lat="46.46306" lon="-1.5667">
        <ele>21</ele>
        <time>2019-03-21T14:14:06Z</time>
      </trkpt>
      <trkpt lat="46.46304" lon="-1.56665">
        <ele>21</ele>
        <time>2019-03-21T14:14:08Z</time>
      </trkpt>
      <trkpt lat="46.46303" lon="-1.5666">
        <ele>21</ele>
        <time>2019-03-21T14:14:11Z</time>
      </trkpt>
      <trkpt lat="46.46301" lon="-1.56656">
        <ele>21</ele>
        <time>2019-03-21T14:14:14Z</time>
      </trkpt>
      <trkpt lat="46.463" lon="-1.56651">
        <ele>21</ele>
        <time>2019-03-21T14:14:16Z</time>
      </trkpt>
      <trkpt lat="46.46298" lon="-1.56642">
        <ele>21</ele>
        <time>2019-03-21T14:14:22Z</time>
      </trkpt>
      <trkpt lat="46.46296" lon="-1.56637">
        <ele>21</ele>
        <time>2019-03-21T14:14:24Z</time>
      </trkpt>
      <trkpt lat="46.46295" lon="-1.56631">
        <ele>20</ele>
        <time>2019-03-21T14:14:27Z</time>
      </trkpt>
      <trkpt lat="46.46294" lon="-1.56628">
        <ele>20</ele>
        <time>2019-03-21T14:14:30Z</time>
      </trkpt>
      <trkpt lat="46.46293" lon="-1.56622">
        <ele>20</ele>
        <time>2019-03-21T14:14:32Z</time>
      </trkpt>
      <trkpt lat="46.46292" lon="-1.56618">
        <ele>20</ele>
        <time>2019-03-21T14:14:35Z</time>
      </trkpt>
      <trkpt lat="46.46291" lon="-1.56613">
        <ele>20</ele>
        <time>2019-03-21T14:14:37Z</time>
      </trkpt>
      <trkpt lat="46.4629" lon="-1.56607">
        <ele>20</ele>
        <time>2019-03-21T14:14:40Z</time>
      </trkpt>
      <trkpt lat="46.46289" lon="-1.56603">
        <ele>20</ele>
        <time>2019-03-21T14:14:43Z</time>
      </trkpt>
      <trkpt lat="46.46288" lon="-1.56598">
        <ele>20</ele>
        <time>2019-03-21T14:14:45Z</time>
      </trkpt>
      <trkpt lat="46.46287" lon="-1.56592">
        <ele>20</ele>
        <time>2019-03-21T14:14:48Z</time>
      </trkpt>
      <trkpt lat="46.46287" lon="-1.56589">
        <ele>20</ele>
        <time>2019-03-21T14:14:51Z</time>
      </trkpt>
      <trkpt lat="46.46286" lon="-1.56584">
        <ele>20</ele>
        <time>2019-03-21T14:14:53Z</time>
      </trkpt>
      <trkpt lat="46.46285" lon="-1.5658">
        <ele>20</ele>
        <time>2019-03-21T14:14:56Z</time>
      </trkpt>
      <trkpt lat="46.46283" lon="-1.56575">
        <ele>20</ele>
        <time>2019-03-21T14:14:58Z</time>
      </trkpt>
      <trkpt lat="46.46282" lon="-1.56571">
        <ele>20</ele>
        <time>2019-03-21T14:15:01Z</time>
      </trkpt>
      <trkpt lat="46.46281" lon="-1.56566">
        <ele>20</ele>
        <time>2019-03-21T14:15:04Z</time>
      </trkpt>
      <trkpt lat="46.4628" lon="-1.5656">
        <ele>20</ele>
        <time>2019-03-21T14:15:06Z</time>
      </trkpt>
      <trkpt lat="46.46279" lon="-1.56556">
        <ele>20</ele>
        <time>2019-03-21T14:15:09Z</time>
      </trkpt>
      <trkpt lat="46.46278" lon="-1.56551">
        <ele>20</ele>
        <time>2019-03-21T14:15:12Z</time>
      </trkpt>
      <trkpt lat="46.46278" lon="-1.56546">
        <ele>20</ele>
        <time>2019-03-21T14:15:14Z</time>
      </trkpt>
      <trkpt lat="46.46277" lon="-1.56543">
        <ele>20</ele>
        <time>2019-03-21T14:15:17Z</time>
      </trkpt>
      <trkpt lat="46.46275" lon="-1.56537">
        <ele>20</ele>
        <time>2019-03-21T14:15:19Z</time>
      </trkpt>
      <trkpt lat="46.46275" lon="-1.56536">
        <ele>20</ele>
        <time>2019-03-21T14:15:22Z</time>
      </trkpt>
      <trkpt lat="46.46274" lon="-1.56535">
        <ele>20</ele>
        <time>2019-03-21T14:15:25Z</time>
      </trkpt>
      <trkpt lat="46.46274" lon="-1.56533">
        <ele>20</ele>
        <time>2019-03-21T14:15:27Z</time>
      </trkpt>
      <trkpt lat="46.46274" lon="-1.5653">
        <ele>20</ele>
        <time>2019-03-21T14:15:30Z</time>
      </trkpt>
      <trkpt lat="46.46272" lon="-1.56525">
        <ele>20</ele>
        <time>2019-03-21T14:15:32Z</time>
      </trkpt>
      <trkpt lat="46.46271" lon="-1.56519">
        <ele>20</ele>
        <time>2019-03-21T14:15:35Z</time>
      </trkpt>
      <trkpt lat="46.46271" lon="-1.56516">
        <ele>20</ele>
        <time>2019-03-21T14:15:38Z</time>
      </trkpt>
      <trkpt lat="46.4627" lon="-1.56511">
        <ele>20</ele>
        <time>2019-03-21T14:15:40Z</time>
      </trkpt>
      <trkpt lat="46.46269" lon="-1.56508">
        <ele>19</ele>
        <time>2019-03-21T14:15:43Z</time>
      </trkpt>
      <trkpt lat="46.46268" lon="-1.56503">
        <ele>19</ele>
        <time>2019-03-21T14:15:45Z</time>
      </trkpt>
      <trkpt lat="46.46267" lon="-1.565">
        <ele>19</ele>
        <time>2019-03-21T14:15:48Z</time>
      </trkpt>
      <trkpt lat="46.46266" lon="-1.56495">
        <ele>19</ele>
        <time>2019-03-21T14:15:51Z</time>
      </trkpt>
      <trkpt lat="46.46266" lon="-1.5649">
        <ele>19</ele>
        <time>2019-03-21T14:15:53Z</time>
      </trkpt>
      <trkpt lat="46.46265" lon="-1.56486">
        <ele>19</ele>
        <time>2019-03-21T14:15:56Z</time>
      </trkpt>
      <trkpt lat="46.46265" lon="-1.56481">
        <ele>19</ele>
        <time>2019-03-21T14:15:58Z</time>
      </trkpt>
      <trkpt lat="46.46264" lon="-1.56475">
        <ele>19</ele>
        <time>2019-03-21T14:16:01Z</time>
      </trkpt>
      <trkpt lat="46.46263" lon="-1.56472">
        <ele>19</ele>
        <time>2019-03-21T14:16:04Z</time>
      </trkpt>
      <trkpt lat="46.46262" lon="-1.56466">
        <ele>19</ele>
        <time>2019-03-21T14:16:06Z</time>
      </trkpt>
      <trkpt lat="46.46261" lon="-1.56462">
        <ele>19</ele>
        <time>2019-03-21T14:16:09Z</time>
      </trkpt>
      <trkpt lat="46.4626" lon="-1.56457">
        <ele>19</ele>
        <time>2019-03-21T14:16:11Z</time>
      </trkpt>
      <trkpt lat="46.46259" lon="-1.56453">
        <ele>19</ele>
        <time>2019-03-21T14:16:14Z</time>
      </trkpt>
      <trkpt lat="46.46258" lon="-1.56447">
        <ele>19</ele>
        <time>2019-03-21T14:16:17Z</time>
      </trkpt>
      <trkpt lat="46.46257" lon="-1.56444">
        <ele>19</ele>
        <time>2019-03-21T14:16:19Z</time>
      </trkpt>
      <trkpt lat="46.46257" lon="-1.56441">
        <ele>19</ele>
        <time>2019-03-21T14:16:22Z</time>
      </trkpt>
      <trkpt lat="46.46256" lon="-1.56435">
        <ele>19</ele>
        <time>2019-03-21T14:16:24Z</time>
      </trkpt>
      <trkpt lat="46.46254" lon="-1.56429">
        <ele>19</ele>
        <time>2019-03-21T14:16:27Z</time>
      </trkpt>
      <trkpt lat="46.46253" lon="-1.56425">
        <ele>19</ele>
        <time>2019-03-21T14:16:30Z</time>
      </trkpt>
      <trkpt lat="46.46251" lon="-1.5642">
        <ele>19</ele>
        <time>2019-03-21T14:16:32Z</time>
      </trkpt>
      <trkpt lat="46.4625" lon="-1.56417">
        <ele>19</ele>
        <time>2019-03-21T14:16:35Z</time>
      </trkpt>
      <trkpt lat="46.46248" lon="-1.56411">
        <ele>19</ele>
        <time>2019-03-21T14:16:37Z</time>
      </trkpt>
      <trkpt lat="46.46246" lon="-1.56406">
        <ele>19</ele>
        <time>2019-03-21T14:16:40Z</time>
      </trkpt>
      <trkpt lat="46.46245" lon="-1.56403">
        <ele>19</ele>
        <time>2019-03-21T14:16:43Z</time>
      </trkpt>
      <trkpt lat="46.46244" lon="-1.564">
        <ele>19</ele>
        <time>2019-03-21T14:16:45Z</time>
      </trkpt>
      <trkpt lat="46.46242" lon="-1.56395">
        <ele>19</ele>
        <time>2019-03-21T14:16:48Z</time>
      </trkpt>
      <trkpt lat="46.4624" lon="-1.56389">
        <ele>20</ele>
        <time>2019-03-21T14:16:50Z</time>
      </trkpt>
      <trkpt lat="46.46239" lon="-1.56386">
        <ele>19</ele>
        <time>2019-03-21T14:16:53Z</time>
      </trkpt>
      <trkpt lat="46.46237" lon="-1.5638">
        <ele>20</ele>
        <time>2019-03-21T14:16:55Z</time>
      </trkpt>
      <trkpt lat="46.46236" lon="-1.56377">
        <ele>20</ele>
        <time>2019-03-21T14:16:58Z</time>
      </trkpt>
      <trkpt lat="46.46233" lon="-1.56371">
        <ele>19</ele>
        <time>2019-03-21T14:17:01Z</time>
      </trkpt>
      <trkpt lat="46.46231" lon="-1.56366">
        <ele>20</ele>
        <time>2019-03-21T14:17:03Z</time>
      </trkpt>
      <trkpt lat="46.46229" lon="-1.56362">
        <ele>20</ele>
        <time>2019-03-21T14:17:06Z</time>
      </trkpt>
      <trkpt lat="46.46227" lon="-1.56357">
        <ele>20</ele>
        <time>2019-03-21T14:17:08Z</time>
      </trkpt>
      <trkpt lat="46.46225" lon="-1.56351">
        <ele>20</ele>
        <time>2019-03-21T14:17:11Z</time>
      </trkpt>
      <trkpt lat="46.46223" lon="-1.56348">
        <ele>20</ele>
        <time>2019-03-21T14:17:14Z</time>
      </trkpt>
      <trkpt lat="46.46221" lon="-1.56343">
        <ele>19</ele>
        <time>2019-03-21T14:17:16Z</time>
      </trkpt>
      <trkpt lat="46.46217" lon="-1.56334">
        <ele>19</ele>
        <time>2019-03-21T14:17:22Z</time>
      </trkpt>
      <trkpt lat="46.46215" lon="-1.56329">
        <ele>19</ele>
        <time>2019-03-21T14:17:24Z</time>
      </trkpt>
      <trkpt lat="46.46213" lon="-1.56326">
        <ele>19</ele>
        <time>2019-03-21T14:17:27Z</time>
      </trkpt>
      <trkpt lat="46.46211" lon="-1.56322">
        <ele>19</ele>
        <time>2019-03-21T14:17:29Z</time>
      </trkpt>
      <trkpt lat="46.46209" lon="-1.56319">
        <ele>19</ele>
        <time>2019-03-21T14:17:32Z</time>
      </trkpt>
      <trkpt lat="46.46207" lon="-1.56314">
        <ele>19</ele>
        <time>2019-03-21T14:17:34Z</time>
      </trkpt>
      <trkpt lat="46.46206" lon="-1.56311">
        <ele>19</ele>
        <time>2019-03-21T14:17:37Z</time>
      </trkpt>
      <trkpt lat="46.46204" lon="-1.56306">
        <ele>19</ele>
        <time>2019-03-21T14:17:40Z</time>
      </trkpt>
      <trkpt lat="46.46202" lon="-1.56301">
        <ele>19</ele>
        <time>2019-03-21T14:17:42Z</time>
      </trkpt>
      <trkpt lat="46.46201" lon="-1.56298">
        <ele>19</ele>
        <time>2019-03-21T14:17:45Z</time>
      </trkpt>
      <trkpt lat="46.462" lon="-1.56293">
        <ele>19</ele>
        <time>2019-03-21T14:17:47Z</time>
      </trkpt>
      <trkpt lat="46.46198" lon="-1.56289">
        <ele>19</ele>
        <time>2019-03-21T14:17:50Z</time>
      </trkpt>
      <trkpt lat="46.46197" lon="-1.56284">
        <ele>19</ele>
        <time>2019-03-21T14:17:52Z</time>
      </trkpt>
      <trkpt lat="46.46196" lon="-1.56281">
        <ele>19</ele>
        <time>2019-03-21T14:17:55Z</time>
      </trkpt>
      <trkpt lat="46.46194" lon="-1.56276">
        <ele>19</ele>
        <time>2019-03-21T14:17:57Z</time>
      </trkpt>
      <trkpt lat="46.46193" lon="-1.56272">
        <ele>19</ele>
        <time>2019-03-21T14:18:00Z</time>
      </trkpt>
      <trkpt lat="46.46191" lon="-1.56267">
        <ele>18</ele>
        <time>2019-03-21T14:18:02Z</time>
      </trkpt>
      <trkpt lat="46.4619" lon="-1.56261">
        <ele>18</ele>
        <time>2019-03-21T14:18:05Z</time>
      </trkpt>
      <trkpt lat="46.46189" lon="-1.56257">
        <ele>18</ele>
        <time>2019-03-21T14:18:08Z</time>
      </trkpt>
      <trkpt lat="46.46189" lon="-1.56254">
        <ele>18</ele>
        <time>2019-03-21T14:18:10Z</time>
      </trkpt>
      <trkpt lat="46.46187" lon="-1.56248">
        <ele>18</ele>
        <time>2019-03-21T14:18:13Z</time>
      </trkpt>
      <trkpt lat="46.46187" lon="-1.56243">
        <ele>18</ele>
        <time>2019-03-21T14:18:15Z</time>
      </trkpt>
      <trkpt lat="46.46186" lon="-1.56239">
        <ele>18</ele>
        <time>2019-03-21T14:18:18Z</time>
      </trkpt>
      <trkpt lat="46.46185" lon="-1.56234">
        <ele>18</ele>
        <time>2019-03-21T14:18:20Z</time>
      </trkpt>
      <trkpt lat="46.46184" lon="-1.5623">
        <ele>18</ele>
        <time>2019-03-21T14:18:23Z</time>
      </trkpt>
      <trkpt lat="46.46183" lon="-1.56225">
        <ele>18</ele>
        <time>2019-03-21T14:18:25Z</time>
      </trkpt>
      <trkpt lat="46.46182" lon="-1.56221">
        <ele>18</ele>
        <time>2019-03-21T14:18:28Z</time>
      </trkpt>
      <trkpt lat="46.46181" lon="-1.56216">
        <ele>18</ele>
        <time>2019-03-21T14:18:31Z</time>
      </trkpt>
      <trkpt lat="46.4618" lon="-1.56211">
        <ele>18</ele>
        <time>2019-03-21T14:18:33Z</time>
      </trkpt>
      <trkpt lat="46.4618" lon="-1.56207">
        <ele>18</ele>
        <time>2019-03-21T14:18:36Z</time>
      </trkpt>
      <trkpt lat="46.46178" lon="-1.56202">
        <ele>18</ele>
        <time>2019-03-21T14:18:38Z</time>
      </trkpt>
      <trkpt lat="46.46177" lon="-1.56196">
        <ele>18</ele>
        <time>2019-03-21T14:18:41Z</time>
      </trkpt>
      <trkpt lat="46.46177" lon="-1.56192">
        <ele>17</ele>
        <time>2019-03-21T14:18:44Z</time>
      </trkpt>
      <trkpt lat="46.46176" lon="-1.56186">
        <ele>17</ele>
        <time>2019-03-21T14:18:46Z</time>
      </trkpt>
      <trkpt lat="46.46175" lon="-1.56182">
        <ele>17</ele>
        <time>2019-03-21T14:18:49Z</time>
      </trkpt>
      <trkpt lat="46.46173" lon="-1.56176">
        <ele>17</ele>
        <time>2019-03-21T14:18:51Z</time>
      </trkpt>
      <trkpt lat="46.46172" lon="-1.5617">
        <ele>17</ele>
        <time>2019-03-21T14:18:54Z</time>
      </trkpt>
      <trkpt lat="46.46171" lon="-1.56166">
        <ele>17</ele>
        <time>2019-03-21T14:18:57Z</time>
      </trkpt>
      <trkpt lat="46.4617" lon="-1.56161">
        <ele>17</ele>
        <time>2019-03-21T14:18:59Z</time>
      </trkpt>
      <trkpt lat="46.46169" lon="-1.56157">
        <ele>16</ele>
        <time>2019-03-21T14:19:02Z</time>
      </trkpt>
      <trkpt lat="46.46168" lon="-1.56152">
        <ele>16</ele>
        <time>2019-03-21T14:19:04Z</time>
      </trkpt>
      <trkpt lat="46.46167" lon="-1.56146">
        <ele>16</ele>
        <time>2019-03-21T14:19:07Z</time>
      </trkpt>
      <trkpt lat="46.46166" lon="-1.56143">
        <ele>16</ele>
        <time>2019-03-21T14:19:10Z</time>
      </trkpt>
      <trkpt lat="46.46164" lon="-1.56137">
        <ele>16</ele>
        <time>2019-03-21T14:19:12Z</time>
      </trkpt>
      <trkpt lat="46.46164" lon="-1.56134">
        <ele>15</ele>
        <time>2019-03-21T14:19:15Z</time>
      </trkpt>
      <trkpt lat="46.46162" lon="-1.56128">
        <ele>15</ele>
        <time>2019-03-21T14:19:17Z</time>
      </trkpt>
      <trkpt lat="46.46162" lon="-1.56125">
        <ele>15</ele>
        <time>2019-03-21T14:19:20Z</time>
      </trkpt>
      <trkpt lat="46.4616" lon="-1.5612">
        <ele>15</ele>
        <time>2019-03-21T14:19:22Z</time>
      </trkpt>
      <trkpt lat="46.46158" lon="-1.56114">
        <ele>15</ele>
        <time>2019-03-21T14:19:25Z</time>
      </trkpt>
      <trkpt lat="46.46157" lon="-1.56111">
        <ele>15</ele>
        <time>2019-03-21T14:19:28Z</time>
      </trkpt>
      <trkpt lat="46.46156" lon="-1.56106">
        <ele>15</ele>
        <time>2019-03-21T14:19:30Z</time>
      </trkpt>
      <trkpt lat="46.46155" lon="-1.561">
        <ele>15</ele>
        <time>2019-03-21T14:19:33Z</time>
      </trkpt>
      <trkpt lat="46.46153" lon="-1.56097">
        <ele>14</ele>
        <time>2019-03-21T14:19:36Z</time>
      </trkpt>
      <trkpt lat="46.46152" lon="-1.56092">
        <ele>14</ele>
        <time>2019-03-21T14:19:38Z</time>
      </trkpt>
      <trkpt lat="46.4615" lon="-1.56086">
        <ele>14</ele>
        <time>2019-03-21T14:19:41Z</time>
      </trkpt>
      <trkpt lat="46.46149" lon="-1.56083">
        <ele>14</ele>
        <time>2019-03-21T14:19:44Z</time>
      </trkpt>
      <trkpt lat="46.46147" lon="-1.56078">
        <ele>14</ele>
        <time>2019-03-21T14:19:46Z</time>
      </trkpt>
      <trkpt lat="46.46146" lon="-1.56074">
        <ele>14</ele>
        <time>2019-03-21T14:19:49Z</time>
      </trkpt>
      <trkpt lat="46.46145" lon="-1.56069">
        <ele>13</ele>
        <time>2019-03-21T14:19:51Z</time>
      </trkpt>
      <trkpt lat="46.46143" lon="-1.56063">
        <ele>13</ele>
        <time>2019-03-21T14:19:54Z</time>
      </trkpt>
      <trkpt lat="46.46142" lon="-1.5606">
        <ele>13</ele>
        <time>2019-03-21T14:19:57Z</time>
      </trkpt>
      <trkpt lat="46.4614" lon="-1.56055">
        <ele>13</ele>
        <time>2019-03-21T14:19:59Z</time>
      </trkpt>
      <trkpt lat="46.46138" lon="-1.56049">
        <ele>13</ele>
        <time>2019-03-21T14:20:02Z</time>
      </trkpt>
      <trkpt lat="46.46137" lon="-1.56046">
        <ele>13</ele>
        <time>2019-03-21T14:20:05Z</time>
      </trkpt>
      <trkpt lat="46.46136" lon="-1.56041">
        <ele>13</ele>
        <time>2019-03-21T14:20:07Z</time>
      </trkpt>
      <trkpt lat="46.46135" lon="-1.56037">
        <ele>13</ele>
        <time>2019-03-21T14:20:10Z</time>
      </trkpt>
      <trkpt lat="46.46133" lon="-1.56032">
        <ele>12</ele>
        <time>2019-03-21T14:20:12Z</time>
      </trkpt>
      <trkpt lat="46.46132" lon="-1.56027">
        <ele>12</ele>
        <time>2019-03-21T14:20:15Z</time>
      </trkpt>
      <trkpt lat="46.46129" lon="-1.56018">
        <ele>12</ele>
        <time>2019-03-21T14:20:20Z</time>
      </trkpt>
      <trkpt lat="46.46128" lon="-1.56015">
        <ele>12</ele>
        <time>2019-03-21T14:20:23Z</time>
      </trkpt>
      <trkpt lat="46.46126" lon="-1.5601">
        <ele>12</ele>
        <time>2019-03-21T14:20:26Z</time>
      </trkpt>
      <trkpt lat="46.46124" lon="-1.56004">
        <ele>12</ele>
        <time>2019-03-21T14:20:28Z</time>
      </trkpt>
      <trkpt lat="46.46124" lon="-1.56001">
        <ele>12</ele>
        <time>2019-03-21T14:20:31Z</time>
      </trkpt>
      <trkpt lat="46.46122" lon="-1.55995">
        <ele>12</ele>
        <time>2019-03-21T14:20:33Z</time>
      </trkpt>
      <trkpt lat="46.46121" lon="-1.55992">
        <ele>11</ele>
        <time>2019-03-21T14:20:36Z</time>
      </trkpt>
      <trkpt lat="46.46119" lon="-1.55987">
        <ele>11</ele>
        <time>2019-03-21T14:20:38Z</time>
      </trkpt>
      <trkpt lat="46.46118" lon="-1.55981">
        <ele>11</ele>
        <time>2019-03-21T14:20:41Z</time>
      </trkpt>
      <trkpt lat="46.46117" lon="-1.55978">
        <ele>11</ele>
        <time>2019-03-21T14:20:44Z</time>
      </trkpt>
      <trkpt lat="46.46115" lon="-1.55973">
        <ele>11</ele>
        <time>2019-03-21T14:20:46Z</time>
      </trkpt>
      <trkpt lat="46.46114" lon="-1.55967">
        <ele>11</ele>
        <time>2019-03-21T14:20:49Z</time>
      </trkpt>
      <trkpt lat="46.46113" lon="-1.55964">
        <ele>11</ele>
        <time>2019-03-21T14:20:52Z</time>
      </trkpt>
      <trkpt lat="46.46111" lon="-1.55961">
        <ele>10</ele>
        <time>2019-03-21T14:20:54Z</time>
      </trkpt>
      <trkpt lat="46.46111" lon="-1.55961">
        <ele>10</ele>
        <time>2019-03-21T14:20:57Z</time>
      </trkpt>
      <trkpt lat="46.46111" lon="-1.55961">
        <ele>10</ele>
        <time>2019-03-21T14:21:00Z</time>
      </trkpt>
      <trkpt lat="46.4611" lon="-1.55957">
        <ele>10</ele>
        <time>2019-03-21T14:21:02Z</time>
      </trkpt>
      <trkpt lat="46.46109" lon="-1.55954">
        <ele>10</ele>
        <time>2019-03-21T14:21:05Z</time>
      </trkpt>
      <trkpt lat="46.46108" lon="-1.55949">
        <ele>10</ele>
        <time>2019-03-21T14:21:07Z</time>
      </trkpt>
      <trkpt lat="46.46106" lon="-1.55946">
        <ele>10</ele>
        <time>2019-03-21T14:21:10Z</time>
      </trkpt>
      <trkpt lat="46.46104" lon="-1.5594">
        <ele>10</ele>
        <time>2019-03-21T14:21:13Z</time>
      </trkpt>
      <trkpt lat="46.46103" lon="-1.55935">
        <ele>10</ele>
        <time>2019-03-21T14:21:15Z</time>
      </trkpt>
      <trkpt lat="46.46102" lon="-1.55932">
        <ele>10</ele>
        <time>2019-03-21T14:21:18Z</time>
      </trkpt>
      <trkpt lat="46.461" lon="-1.55926">
        <ele>10</ele>
        <time>2019-03-21T14:21:20Z</time>
      </trkpt>
      <trkpt lat="46.46099" lon="-1.55923">
        <ele>10</ele>
        <time>2019-03-21T14:21:23Z</time>
      </trkpt>
      <trkpt lat="46.46097" lon="-1.55919">
        <ele>10</ele>
        <time>2019-03-21T14:21:25Z</time>
      </trkpt>
      <trkpt lat="46.46096" lon="-1.55914">
        <ele>10</ele>
        <time>2019-03-21T14:21:28Z</time>
      </trkpt>
      <trkpt lat="46.46095" lon="-1.5591">
        <ele>10</ele>
        <time>2019-03-21T14:21:31Z</time>
      </trkpt>
      <trkpt lat="46.46093" lon="-1.55906">
        <ele>10</ele>
        <time>2019-03-21T14:21:33Z</time>
      </trkpt>
      <trkpt lat="46.46091" lon="-1.559">
        <ele>9</ele>
        <time>2019-03-21T14:21:36Z</time>
      </trkpt>
      <trkpt lat="46.4609" lon="-1.55897">
        <ele>9</ele>
        <time>2019-03-21T14:21:39Z</time>
      </trkpt>
      <trkpt lat="46.46088" lon="-1.55892">
        <ele>9</ele>
        <time>2019-03-21T14:21:41Z</time>
      </trkpt>
      <trkpt lat="46.46087" lon="-1.55888">
        <ele>9</ele>
        <time>2019-03-21T14:21:44Z</time>
      </trkpt>
      <trkpt lat="46.46085" lon="-1.55883">
        <ele>9</ele>
        <time>2019-03-21T14:21:46Z</time>
      </trkpt>
      <trkpt lat="46.46083" lon="-1.55878">
        <ele>9</ele>
        <time>2019-03-21T14:21:49Z</time>
      </trkpt>
      <trkpt lat="46.46082" lon="-1.55874">
        <ele>9</ele>
        <time>2019-03-21T14:21:52Z</time>
      </trkpt>
      <trkpt lat="46.4608" lon="-1.55869">
        <ele>9</ele>
        <time>2019-03-21T14:21:54Z</time>
      </trkpt>
      <trkpt lat="46.46079" lon="-1.55867">
        <ele>9</ele>
        <time>2019-03-21T14:21:57Z</time>
      </trkpt>
      <trkpt lat="46.46077" lon="-1.55864">
        <ele>9</ele>
        <time>2019-03-21T14:21:59Z</time>
      </trkpt>
      <trkpt lat="46.46075" lon="-1.55859">
        <ele>9</ele>
        <time>2019-03-21T14:22:02Z</time>
      </trkpt>
      <trkpt lat="46.46074" lon="-1.55856">
        <ele>8</ele>
        <time>2019-03-21T14:22:05Z</time>
      </trkpt>
      <trkpt lat="46.46072" lon="-1.55852">
        <ele>8</ele>
        <time>2019-03-21T14:22:07Z</time>
      </trkpt>
      <trkpt lat="46.4607" lon="-1.55849">
        <ele>8</ele>
        <time>2019-03-21T14:22:10Z</time>
      </trkpt>
      <trkpt lat="46.46068" lon="-1.55845">
        <ele>8</ele>
        <time>2019-03-21T14:22:12Z</time>
      </trkpt>
      <trkpt lat="46.46067" lon="-1.5584">
        <ele>8</ele>
        <time>2019-03-21T14:22:15Z</time>
      </trkpt>
      <trkpt lat="46.46066" lon="-1.55837">
        <ele>8</ele>
        <time>2019-03-21T14:22:18Z</time>
      </trkpt>
      <trkpt lat="46.46063" lon="-1.55833">
        <ele>8</ele>
        <time>2019-03-21T14:22:20Z</time>
      </trkpt>
      <trkpt lat="46.46061" lon="-1.5583">
        <ele>8</ele>
        <time>2019-03-21T14:22:23Z</time>
      </trkpt>
      <trkpt lat="46.46059" lon="-1.55825">
        <ele>8</ele>
        <time>2019-03-21T14:22:26Z</time>
      </trkpt>
      <trkpt lat="46.46057" lon="-1.55822">
        <ele>8</ele>
        <time>2019-03-21T14:22:28Z</time>
      </trkpt>
      <trkpt lat="46.46055" lon="-1.55819">
        <ele>7</ele>
        <time>2019-03-21T14:22:31Z</time>
      </trkpt>
      <trkpt lat="46.46053" lon="-1.55815">
        <ele>7</ele>
        <time>2019-03-21T14:22:33Z</time>
      </trkpt>
      <trkpt lat="46.46051" lon="-1.55812">
        <ele>7</ele>
        <time>2019-03-21T14:22:36Z</time>
      </trkpt>
      <trkpt lat="46.46049" lon="-1.5581">
        <ele>7</ele>
        <time>2019-03-21T14:22:39Z</time>
      </trkpt>
      <trkpt lat="46.46046" lon="-1.55806">
        <ele>7</ele>
        <time>2019-03-21T14:22:41Z</time>
      </trkpt>
      <trkpt lat="46.46043" lon="-1.55802">
        <ele>7</ele>
        <time>2019-03-21T14:22:44Z</time>
      </trkpt>
      <trkpt lat="46.46041" lon="-1.558">
        <ele>7</ele>
        <time>2019-03-21T14:22:47Z</time>
      </trkpt>
      <trkpt lat="46.46037" lon="-1.55797">
        <ele>7</ele>
        <time>2019-03-21T14:22:49Z</time>
      </trkpt>
      <trkpt lat="46.46034" lon="-1.55794">
        <ele>7</ele>
        <time>2019-03-21T14:22:52Z</time>
      </trkpt>
      <trkpt lat="46.46032" lon="-1.55792">
        <ele>6</ele>
        <time>2019-03-21T14:22:55Z</time>
      </trkpt>
      <trkpt lat="46.46028" lon="-1.55789">
        <ele>6</ele>
        <time>2019-03-21T14:22:57Z</time>
      </trkpt>
      <trkpt lat="46.46025" lon="-1.55787">
        <ele>6</ele>
        <time>2019-03-21T14:23:00Z</time>
      </trkpt>
      <trkpt lat="46.46023" lon="-1.55785">
        <ele>6</ele>
        <time>2019-03-21T14:23:03Z</time>
      </trkpt>
      <trkpt lat="46.4602" lon="-1.55783">
        <ele>6</ele>
        <time>2019-03-21T14:23:05Z</time>
      </trkpt>
      <trkpt lat="46.46018" lon="-1.55781">
        <ele>6</ele>
        <time>2019-03-21T14:23:08Z</time>
      </trkpt>
      <trkpt lat="46.46016" lon="-1.5578">
        <ele>6</ele>
        <time>2019-03-21T14:23:11Z</time>
      </trkpt>
      <trkpt lat="46.46012" lon="-1.55778">
        <ele>5</ele>
        <time>2019-03-21T14:23:13Z</time>
      </trkpt>
      <trkpt lat="46.4601" lon="-1.55777">
        <ele>5</ele>
        <time>2019-03-21T14:23:16Z</time>
      </trkpt>
      <trkpt lat="46.46005" lon="-1.55772">
        <ele>5</ele>
        <time>2019-03-21T14:23:21Z</time>
      </trkpt>
      <trkpt lat="46.46001" lon="-1.5577">
        <ele>5</ele>
        <time>2019-03-21T14:23:24Z</time>
      </trkpt>
      <trkpt lat="46.45998" lon="-1.55767">
        <ele>5</ele>
        <time>2019-03-21T14:23:26Z</time>
      </trkpt>
      <trkpt lat="46.45996" lon="-1.55766">
        <ele>6</ele>
        <time>2019-03-21T14:23:29Z</time>
      </trkpt>
      <trkpt lat="46.45992" lon="-1.55764">
        <ele>6</ele>
        <time>2019-03-21T14:23:31Z</time>
      </trkpt>
      <trkpt lat="46.4599" lon="-1.55761">
        <ele>6</ele>
        <time>2019-03-21T14:23:34Z</time>
      </trkpt>
      <trkpt lat="46.45986" lon="-1.55759">
        <ele>6</ele>
        <time>2019-03-21T14:23:37Z</time>
      </trkpt>
      <trkpt lat="46.45982" lon="-1.55756">
        <ele>6</ele>
        <time>2019-03-21T14:23:39Z</time>
      </trkpt>
      <trkpt lat="46.45979" lon="-1.55754">
        <ele>6</ele>
        <time>2019-03-21T14:23:42Z</time>
      </trkpt>
      <trkpt lat="46.45976" lon="-1.55753">
        <ele>6</ele>
        <time>2019-03-21T14:23:44Z</time>
      </trkpt>
      <trkpt lat="46.45973" lon="-1.55754">
        <ele>7</ele>
        <time>2019-03-21T14:23:47Z</time>
      </trkpt>
      <trkpt lat="46.4597" lon="-1.55757">
        <ele>7</ele>
        <time>2019-03-21T14:23:50Z</time>
      </trkpt>
      <trkpt lat="46.45968" lon="-1.55756">
        <ele>7</ele>
        <time>2019-03-21T14:23:52Z</time>
      </trkpt>
      <trkpt lat="46.45968" lon="-1.55756">
        <ele>7</ele>
        <time>2019-03-21T14:23:55Z</time>
      </trkpt>
      <trkpt lat="46.45967" lon="-1.55755">
        <ele>7</ele>
        <time>2019-03-21T14:23:57Z</time>
      </trkpt>
      <trkpt lat="46.45966" lon="-1.55754">
        <ele>7</ele>
        <time>2019-03-21T14:24:00Z</time>
      </trkpt>
      <trkpt lat="46.45965" lon="-1.55753">
        <ele>7</ele>
        <time>2019-03-21T14:24:03Z</time>
      </trkpt>
      <trkpt lat="46.45964" lon="-1.55753">
        <ele>7</ele>
        <time>2019-03-21T14:24:05Z</time>
      </trkpt>
      <trkpt lat="46.45964" lon="-1.55752">
        <ele>7</ele>
        <time>2019-03-21T14:24:08Z</time>
      </trkpt>
      <trkpt lat="46.45963" lon="-1.5575">
        <ele>7</ele>
        <time>2019-03-21T14:24:10Z</time>
      </trkpt>
      <trkpt lat="46.45963" lon="-1.5575">
        <ele>7</ele>
        <time>2019-03-21T14:24:13Z</time>
      </trkpt>
      <trkpt lat="46.45962" lon="-1.5575">
        <ele>7</ele>
        <time>2019-03-21T14:24:15Z</time>
      </trkpt>
      <trkpt lat="46.45961" lon="-1.55749">
        <ele>7</ele>
        <time>2019-03-21T14:24:18Z</time>
      </trkpt>
      <trkpt lat="46.45961" lon="-1.55749">
        <ele>7</ele>
        <time>2019-03-21T14:24:21Z</time>
      </trkpt>
      <trkpt lat="46.45961" lon="-1.55748">
        <ele>7</ele>
        <time>2019-03-21T14:24:23Z</time>
      </trkpt>
      <trkpt lat="46.45961" lon="-1.55748">
        <ele>7</ele>
        <time>2019-03-21T14:24:26Z</time>
      </trkpt>
      <trkpt lat="46.4596" lon="-1.55748">
        <ele>7</ele>
        <time>2019-03-21T14:24:28Z</time>
      </trkpt>
      <trkpt lat="46.4596" lon="-1.55747">
        <ele>7</ele>
        <time>2019-03-21T14:24:31Z</time>
      </trkpt>
      <trkpt lat="46.4596" lon="-1.55747">
        <ele>7</ele>
        <time>2019-03-21T14:24:34Z</time>
      </trkpt>
      <trkpt lat="46.45958" lon="-1.55747">
        <ele>7</ele>
        <time>2019-03-21T14:24:36Z</time>
      </trkpt>
      <trkpt lat="46.45957" lon="-1.55746">
        <ele>7</ele>
        <time>2019-03-21T14:24:39Z</time>
      </trkpt>
      <trkpt lat="46.45956" lon="-1.55745">
        <ele>7</ele>
        <time>2019-03-21T14:24:42Z</time>
      </trkpt>
      <trkpt lat="46.45954" lon="-1.55744">
        <ele>7</ele>
        <time>2019-03-21T14:24:44Z</time>
      </trkpt>
      <trkpt lat="46.45953" lon="-1.55743">
        <ele>7</ele>
        <time>2019-03-21T14:24:47Z</time>
      </trkpt>
      <trkpt lat="46.45951" lon="-1.55742">
        <ele>7</ele>
        <time>2019-03-21T14:24:49Z</time>
      </trkpt>
      <trkpt lat="46.4595" lon="-1.55741">
        <ele>7</ele>
        <time>2019-03-21T14:24:52Z</time>
      </trkpt>
      <trkpt lat="46.45949" lon="-1.55741">
        <ele>7</ele>
        <time>2019-03-21T14:24:55Z</time>
      </trkpt>
      <trkpt lat="46.45948" lon="-1.5574">
        <ele>7</ele>
        <time>2019-03-21T14:24:57Z</time>
      </trkpt>
      <trkpt lat="46.45947" lon="-1.5574">
        <ele>7</ele>
        <time>2019-03-21T14:25:00Z</time>
      </trkpt>
      <trkpt lat="46.45947" lon="-1.5574">
        <ele>7</ele>
        <time>2019-03-21T14:25:03Z</time>
      </trkpt>
      <trkpt lat="46.45946" lon="-1.5574">
        <ele>7</ele>
        <time>2019-03-21T14:25:05Z</time>
      </trkpt>
      <trkpt lat="46.45945" lon="-1.55739">
        <ele>7</ele>
        <time>2019-03-21T14:25:08Z</time>
      </trkpt>
      <trkpt lat="46.45944" lon="-1.55738">
        <ele>7</ele>
        <time>2019-03-21T14:25:11Z</time>
      </trkpt>
      <trkpt lat="46.45942" lon="-1.55738">
        <ele>7</ele>
        <time>2019-03-21T14:25:13Z</time>
      </trkpt>
      <trkpt lat="46.45941" lon="-1.55738">
        <ele>7</ele>
        <time>2019-03-21T14:25:16Z</time>
      </trkpt>
      <trkpt lat="46.45938" lon="-1.55739">
        <ele>7</ele>
        <time>2019-03-21T14:25:19Z</time>
      </trkpt>
      <trkpt lat="46.45937" lon="-1.55737">
        <ele>7</ele>
        <time>2019-03-21T14:25:21Z</time>
      </trkpt>
      <trkpt lat="46.45936" lon="-1.55736">
        <ele>7</ele>
        <time>2019-03-21T14:25:24Z</time>
      </trkpt>
      <trkpt lat="46.45936" lon="-1.55733">
        <ele>7</ele>
        <time>2019-03-21T14:25:26Z</time>
      </trkpt>
      <trkpt lat="46.45936" lon="-1.55729">
        <ele>8</ele>
        <time>2019-03-21T14:25:29Z</time>
      </trkpt>
      <trkpt lat="46.45936" lon="-1.55726">
        <ele>8</ele>
        <time>2019-03-21T14:25:32Z</time>
      </trkpt>
      <trkpt lat="46.45933" lon="-1.55721">
        <ele>8</ele>
        <time>2019-03-21T14:25:34Z</time>
      </trkpt>
      <trkpt lat="46.45931" lon="-1.55718">
        <ele>8</ele>
        <time>2019-03-21T14:25:37Z</time>
      </trkpt>
      <trkpt lat="46.4593" lon="-1.55715">
        <ele>8</ele>
        <time>2019-03-21T14:25:40Z</time>
      </trkpt>
      <trkpt lat="46.45928" lon="-1.5571">
        <ele>8</ele>
        <time>2019-03-21T14:25:42Z</time>
      </trkpt>
      <trkpt lat="46.45927" lon="-1.55707">
        <ele>8</ele>
        <time>2019-03-21T14:25:45Z</time>
      </trkpt>
      <trkpt lat="46.45925" lon="-1.55703">
        <ele>8</ele>
        <time>2019-03-21T14:25:47Z</time>
      </trkpt>
      <trkpt lat="46.45924" lon="-1.55698">
        <ele>8</ele>
        <time>2019-03-21T14:25:50Z</time>
      </trkpt>
      <trkpt lat="46.45922" lon="-1.55695">
        <ele>8</ele>
        <time>2019-03-21T14:25:53Z</time>
      </trkpt>
      <trkpt lat="46.45921" lon="-1.55691">
        <ele>8</ele>
        <time>2019-03-21T14:25:55Z</time>
      </trkpt>
      <trkpt lat="46.45919" lon="-1.55687">
        <ele>8</ele>
        <time>2019-03-21T14:25:58Z</time>
      </trkpt>
      <trkpt lat="46.45918" lon="-1.55684">
        <ele>8</ele>
        <time>2019-03-21T14:26:01Z</time>
      </trkpt>
      <trkpt lat="46.45916" lon="-1.55679">
        <ele>8</ele>
        <time>2019-03-21T14:26:03Z</time>
      </trkpt>
      <trkpt lat="46.45914" lon="-1.55674">
        <ele>8</ele>
        <time>2019-03-21T14:26:06Z</time>
      </trkpt>
      <trkpt lat="46.45913" lon="-1.55671">
        <ele>8</ele>
        <time>2019-03-21T14:26:09Z</time>
      </trkpt>
      <trkpt lat="46.45912" lon="-1.55665">
        <ele>8</ele>
        <time>2019-03-21T14:26:11Z</time>
      </trkpt>
      <trkpt lat="46.45911" lon="-1.55662">
        <ele>8</ele>
        <time>2019-03-21T14:26:14Z</time>
      </trkpt>
      <trkpt lat="46.45911" lon="-1.55656">
        <ele>8</ele>
        <time>2019-03-21T14:26:17Z</time>
      </trkpt>
      <trkpt lat="46.4591" lon="-1.55648">
        <ele>8</ele>
        <time>2019-03-21T14:26:22Z</time>
      </trkpt>
      <trkpt lat="46.4591" lon="-1.55643">
        <ele>8</ele>
        <time>2019-03-21T14:26:25Z</time>
      </trkpt>
      <trkpt lat="46.45911" lon="-1.55638">
        <ele>8</ele>
        <time>2019-03-21T14:26:27Z</time>
      </trkpt>
      <trkpt lat="46.45911" lon="-1.55634">
        <ele>8</ele>
        <time>2019-03-21T14:26:30Z</time>
      </trkpt>
      <trkpt lat="46.45911" lon="-1.55629">
        <ele>8</ele>
        <time>2019-03-21T14:26:32Z</time>
      </trkpt>
      <trkpt lat="46.4591" lon="-1.55624">
        <ele>8</ele>
        <time>2019-03-21T14:26:35Z</time>
      </trkpt>
      <trkpt lat="46.4591" lon="-1.55621">
        <ele>8</ele>
        <time>2019-03-21T14:26:38Z</time>
      </trkpt>
      <trkpt lat="46.45909" lon="-1.55616">
        <ele>9</ele>
        <time>2019-03-21T14:26:40Z</time>
      </trkpt>
      <trkpt lat="46.45909" lon="-1.55613">
        <ele>9</ele>
        <time>2019-03-21T14:26:43Z</time>
      </trkpt>
      <trkpt lat="46.45908" lon="-1.55608">
        <ele>9</ele>
        <time>2019-03-21T14:26:45Z</time>
      </trkpt>
      <trkpt lat="46.45908" lon="-1.55603">
        <ele>9</ele>
        <time>2019-03-21T14:26:48Z</time>
      </trkpt>
      <trkpt lat="46.45907" lon="-1.556">
        <ele>9</ele>
        <time>2019-03-21T14:26:51Z</time>
      </trkpt>
      <trkpt lat="46.45907" lon="-1.55595">
        <ele>9</ele>
        <time>2019-03-21T14:26:53Z</time>
      </trkpt>
      <trkpt lat="46.45907" lon="-1.5559">
        <ele>9</ele>
        <time>2019-03-21T14:26:56Z</time>
      </trkpt>
      <trkpt lat="46.45906" lon="-1.55586">
        <ele>9</ele>
        <time>2019-03-21T14:26:59Z</time>
      </trkpt>
      <trkpt lat="46.45905" lon="-1.55582">
        <ele>9</ele>
        <time>2019-03-21T14:27:01Z</time>
      </trkpt>
      <trkpt lat="46.45905" lon="-1.55577">
        <ele>9</ele>
        <time>2019-03-21T14:27:04Z</time>
      </trkpt>
      <trkpt lat="46.45905" lon="-1.55574">
        <ele>9</ele>
        <time>2019-03-21T14:27:07Z</time>
      </trkpt>
      <trkpt lat="46.45904" lon="-1.55568">
        <ele>8</ele>
        <time>2019-03-21T14:27:09Z</time>
      </trkpt>
      <trkpt lat="46.45903" lon="-1.55563">
        <ele>8</ele>
        <time>2019-03-21T14:27:12Z</time>
      </trkpt>
      <trkpt lat="46.45903" lon="-1.55559">
        <ele>9</ele>
        <time>2019-03-21T14:27:15Z</time>
      </trkpt>
      <trkpt lat="46.45902" lon="-1.55553">
        <ele>9</ele>
        <time>2019-03-21T14:27:17Z</time>
      </trkpt>
      <trkpt lat="46.45902" lon="-1.5555">
        <ele>9</ele>
        <time>2019-03-21T14:27:20Z</time>
      </trkpt>
      <trkpt lat="46.45901" lon="-1.55545">
        <ele>9</ele>
        <time>2019-03-21T14:27:23Z</time>
      </trkpt>
      <trkpt lat="46.45901" lon="-1.5554">
        <ele>8</ele>
        <time>2019-03-21T14:27:25Z</time>
      </trkpt>
      <trkpt lat="46.459" lon="-1.55537">
        <ele>8</ele>
        <time>2019-03-21T14:27:28Z</time>
      </trkpt>
      <trkpt lat="46.459" lon="-1.55532">
        <ele>8</ele>
        <time>2019-03-21T14:27:30Z</time>
      </trkpt>
      <trkpt lat="46.45899" lon="-1.55527">
        <ele>8</ele>
        <time>2019-03-21T14:27:33Z</time>
      </trkpt>
      <trkpt lat="46.45899" lon="-1.55524">
        <ele>8</ele>
        <time>2019-03-21T14:27:36Z</time>
      </trkpt>
      <trkpt lat="46.45898" lon="-1.55519">
        <ele>8</ele>
        <time>2019-03-21T14:27:38Z</time>
      </trkpt>
      <trkpt lat="46.45898" lon="-1.55516">
        <ele>8</ele>
        <time>2019-03-21T14:27:41Z</time>
      </trkpt>
      <trkpt lat="46.45897" lon="-1.55512">
        <ele>8</ele>
        <time>2019-03-21T14:27:44Z</time>
      </trkpt>
      <trkpt lat="46.45897" lon="-1.55507">
        <ele>8</ele>
        <time>2019-03-21T14:27:46Z</time>
      </trkpt>
      <trkpt lat="46.45896" lon="-1.55504">
        <ele>8</ele>
        <time>2019-03-21T14:27:49Z</time>
      </trkpt>
      <trkpt lat="46.45896" lon="-1.55498">
        <ele>8</ele>
        <time>2019-03-21T14:27:52Z</time>
      </trkpt>
      <trkpt lat="46.45895" lon="-1.55492">
        <ele>8</ele>
        <time>2019-03-21T14:27:54Z</time>
      </trkpt>
      <trkpt lat="46.45895" lon="-1.55489">
        <ele>8</ele>
        <time>2019-03-21T14:27:57Z</time>
      </trkpt>
      <trkpt lat="46.45894" lon="-1.55484">
        <ele>8</ele>
        <time>2019-03-21T14:27:59Z</time>
      </trkpt>
      <trkpt lat="46.45894" lon="-1.55479">
        <ele>8</ele>
        <time>2019-03-21T14:28:02Z</time>
      </trkpt>
      <trkpt lat="46.45893" lon="-1.55476">
        <ele>8</ele>
        <time>2019-03-21T14:28:05Z</time>
      </trkpt>
      <trkpt lat="46.45893" lon="-1.55471">
        <ele>8</ele>
        <time>2019-03-21T14:28:07Z</time>
      </trkpt>
      <trkpt lat="46.45893" lon="-1.55468">
        <ele>8</ele>
        <time>2019-03-21T14:28:10Z</time>
      </trkpt>
      <trkpt lat="46.45892" lon="-1.55464">
        <ele>8</ele>
        <time>2019-03-21T14:28:13Z</time>
      </trkpt>
      <trkpt lat="46.45891" lon="-1.55459">
        <ele>8</ele>
        <time>2019-03-21T14:28:15Z</time>
      </trkpt>
      <trkpt lat="46.45891" lon="-1.55455">
        <ele>8</ele>
        <time>2019-03-21T14:28:18Z</time>
      </trkpt>
      <trkpt lat="46.4589" lon="-1.5545">
        <ele>8</ele>
        <time>2019-03-21T14:28:20Z</time>
      </trkpt>
      <trkpt lat="46.4589" lon="-1.55445">
        <ele>8</ele>
        <time>2019-03-21T14:28:23Z</time>
      </trkpt>
      <trkpt lat="46.45889" lon="-1.55441">
        <ele>8</ele>
        <time>2019-03-21T14:28:26Z</time>
      </trkpt>
      <trkpt lat="46.45888" lon="-1.55437">
        <ele>8</ele>
        <time>2019-03-21T14:28:28Z</time>
      </trkpt>
      <trkpt lat="46.45887" lon="-1.55432">
        <ele>8</ele>
        <time>2019-03-21T14:28:31Z</time>
      </trkpt>
      <trkpt lat="46.45886" lon="-1.55429">
        <ele>7</ele>
        <time>2019-03-21T14:28:34Z</time>
      </trkpt>
      <trkpt lat="46.45884" lon="-1.55424">
        <ele>8</ele>
        <time>2019-03-21T14:28:36Z</time>
      </trkpt>
      <trkpt lat="46.45883" lon="-1.55419">
        <ele>8</ele>
        <time>2019-03-21T14:28:39Z</time>
      </trkpt>
      <trkpt lat="46.45882" lon="-1.55416">
        <ele>8</ele>
        <time>2019-03-21T14:28:42Z</time>
      </trkpt>
      <trkpt lat="46.45881" lon="-1.55411">
        <ele>8</ele>
        <time>2019-03-21T14:28:44Z</time>
      </trkpt>
      <trkpt lat="46.4588" lon="-1.55405">
        <ele>8</ele>
        <time>2019-03-21T14:28:47Z</time>
      </trkpt>
      <trkpt lat="46.4588" lon="-1.55402">
        <ele>8</ele>
        <time>2019-03-21T14:28:50Z</time>
      </trkpt>
      <trkpt lat="46.45878" lon="-1.55397">
        <ele>8</ele>
        <time>2019-03-21T14:28:52Z</time>
      </trkpt>
      <trkpt lat="46.45878" lon="-1.55393">
        <ele>8</ele>
        <time>2019-03-21T14:28:55Z</time>
      </trkpt>
      <trkpt lat="46.45877" lon="-1.55388">
        <ele>8</ele>
        <time>2019-03-21T14:28:57Z</time>
      </trkpt>
      <trkpt lat="46.45876" lon="-1.55383">
        <ele>8</ele>
        <time>2019-03-21T14:29:00Z</time>
      </trkpt>
      <trkpt lat="46.45875" lon="-1.55379">
        <ele>8</ele>
        <time>2019-03-21T14:29:03Z</time>
      </trkpt>
      <trkpt lat="46.45875" lon="-1.55374">
        <ele>8</ele>
        <time>2019-03-21T14:29:05Z</time>
      </trkpt>
      <trkpt lat="46.45874" lon="-1.55371">
        <ele>8</ele>
        <time>2019-03-21T14:29:08Z</time>
      </trkpt>
      <trkpt lat="46.45872" lon="-1.55366">
        <ele>8</ele>
        <time>2019-03-21T14:29:10Z</time>
      </trkpt>
      <trkpt lat="46.45871" lon="-1.55361">
        <ele>8</ele>
        <time>2019-03-21T14:29:13Z</time>
      </trkpt>
      <trkpt lat="46.4587" lon="-1.55357">
        <ele>8</ele>
        <time>2019-03-21T14:29:16Z</time>
      </trkpt>
      <trkpt lat="46.45867" lon="-1.55349">
        <ele>8</ele>
        <time>2019-03-21T14:29:21Z</time>
      </trkpt>
      <trkpt lat="46.45866" lon="-1.55344">
        <ele>9</ele>
        <time>2019-03-21T14:29:23Z</time>
      </trkpt>
      <trkpt lat="46.45865" lon="-1.5534">
        <ele>9</ele>
        <time>2019-03-21T14:29:26Z</time>
      </trkpt>
      <trkpt lat="46.45864" lon="-1.55334">
        <ele>9</ele>
        <time>2019-03-21T14:29:29Z</time>
      </trkpt>
      <trkpt lat="46.45863" lon="-1.55328">
        <ele>9</ele>
        <time>2019-03-21T14:29:31Z</time>
      </trkpt>
      <trkpt lat="46.45863" lon="-1.55324">
        <ele>9</ele>
        <time>2019-03-21T14:29:34Z</time>
      </trkpt>
      <trkpt lat="46.45862" lon="-1.55319">
        <ele>9</ele>
        <time>2019-03-21T14:29:36Z</time>
      </trkpt>
      <trkpt lat="46.45861" lon="-1.55316">
        <ele>9</ele>
        <time>2019-03-21T14:29:39Z</time>
      </trkpt>
      <trkpt lat="46.4586" lon="-1.5531">
        <ele>10</ele>
        <time>2019-03-21T14:29:41Z</time>
      </trkpt>
      <trkpt lat="46.4586" lon="-1.55305">
        <ele>10</ele>
        <time>2019-03-21T14:29:44Z</time>
      </trkpt>
      <trkpt lat="46.45859" lon="-1.55302">
        <ele>10</ele>
        <time>2019-03-21T14:29:47Z</time>
      </trkpt>
      <trkpt lat="46.45858" lon="-1.55297">
        <ele>10</ele>
        <time>2019-03-21T14:29:49Z</time>
      </trkpt>
      <trkpt lat="46.45858" lon="-1.55293">
        <ele>10</ele>
        <time>2019-03-21T14:29:52Z</time>
      </trkpt>
      <trkpt lat="46.45857" lon="-1.55288">
        <ele>10</ele>
        <time>2019-03-21T14:29:55Z</time>
      </trkpt>
      <trkpt lat="46.45856" lon="-1.55282">
        <ele>10</ele>
        <time>2019-03-21T14:29:57Z</time>
      </trkpt>
      <trkpt lat="46.45856" lon="-1.55279">
        <ele>10</ele>
        <time>2019-03-21T14:30:00Z</time>
      </trkpt>
      <trkpt lat="46.45855" lon="-1.55274">
        <ele>10</ele>
        <time>2019-03-21T14:30:02Z</time>
      </trkpt>
      <trkpt lat="46.45854" lon="-1.55269">
        <ele>10</ele>
        <time>2019-03-21T14:30:05Z</time>
      </trkpt>
      <trkpt lat="46.45854" lon="-1.55265">
        <ele>10</ele>
        <time>2019-03-21T14:30:08Z</time>
      </trkpt>
      <trkpt lat="46.45853" lon="-1.5526">
        <ele>10</ele>
        <time>2019-03-21T14:30:10Z</time>
      </trkpt>
      <trkpt lat="46.45853" lon="-1.55256">
        <ele>10</ele>
        <time>2019-03-21T14:30:13Z</time>
      </trkpt>
      <trkpt lat="46.45852" lon="-1.55251">
        <ele>10</ele>
        <time>2019-03-21T14:30:16Z</time>
      </trkpt>
      <trkpt lat="46.45851" lon="-1.55246">
        <ele>11</ele>
        <time>2019-03-21T14:30:18Z</time>
      </trkpt>
      <trkpt lat="46.45851" lon="-1.55242">
        <ele>11</ele>
        <time>2019-03-21T14:30:21Z</time>
      </trkpt>
      <trkpt lat="46.45851" lon="-1.55236">
        <ele>11</ele>
        <time>2019-03-21T14:30:23Z</time>
      </trkpt>
      <trkpt lat="46.45851" lon="-1.55231">
        <ele>11</ele>
        <time>2019-03-21T14:30:26Z</time>
      </trkpt>
      <trkpt lat="46.45851" lon="-1.55228">
        <ele>11</ele>
        <time>2019-03-21T14:30:29Z</time>
      </trkpt>
      <trkpt lat="46.45853" lon="-1.55223">
        <ele>11</ele>
        <time>2019-03-21T14:30:31Z</time>
      </trkpt>
      <trkpt lat="46.45856" lon="-1.5522">
        <ele>11</ele>
        <time>2019-03-21T14:30:34Z</time>
      </trkpt>
      <trkpt lat="46.45858" lon="-1.55219">
        <ele>11</ele>
        <time>2019-03-21T14:30:37Z</time>
      </trkpt>
      <trkpt lat="46.45858" lon="-1.55219">
        <ele>11</ele>
        <time>2019-03-21T14:30:39Z</time>
      </trkpt>
      <trkpt lat="46.45857" lon="-1.5522">
        <ele>11</ele>
        <time>2019-03-21T14:30:42Z</time>
      </trkpt>
      <trkpt lat="46.45856" lon="-1.5522">
        <ele>11</ele>
        <time>2019-03-21T14:30:45Z</time>
      </trkpt>
      <trkpt lat="46.45856" lon="-1.5522">
        <ele>11</ele>
        <time>2019-03-21T14:30:47Z</time>
      </trkpt>
      <trkpt lat="46.45856" lon="-1.55219">
        <ele>11</ele>
        <time>2019-03-21T14:30:50Z</time>
      </trkpt>
      <trkpt lat="46.45857" lon="-1.55218">
        <ele>11</ele>
        <time>2019-03-21T14:30:53Z</time>
      </trkpt>
      <trkpt lat="46.45857" lon="-1.55218">
        <ele>11</ele>
        <time>2019-03-21T14:30:55Z</time>
      </trkpt>
      <trkpt lat="46.45857" lon="-1.55218">
        <ele>11</ele>
        <time>2019-03-21T14:30:58Z</time>
      </trkpt>
      <trkpt lat="46.45857" lon="-1.55218">
        <ele>11</ele>
        <time>2019-03-21T14:31:01Z</time>
      </trkpt>
      <trkpt lat="46.45857" lon="-1.55218">
        <ele>11</ele>
        <time>2019-03-21T14:31:03Z</time>
      </trkpt>
      <trkpt lat="46.45857" lon="-1.55218">
        <ele>11</ele>
        <time>2019-03-21T14:31:06Z</time>
      </trkpt>
      <trkpt lat="46.45857" lon="-1.55218">
        <ele>11</ele>
        <time>2019-03-21T14:31:09Z</time>
      </trkpt>
      <trkpt lat="46.45858" lon="-1.55218">
        <ele>11</ele>
        <time>2019-03-21T14:31:12Z</time>
      </trkpt>
      <trkpt lat="46.45857" lon="-1.55218">
        <ele>11</ele>
        <time>2019-03-21T14:31:14Z</time>
      </trkpt>
      <trkpt lat="46.45858" lon="-1.55218">
        <ele>11</ele>
        <time>2019-03-21T14:31:17Z</time>
      </trkpt>
      <trkpt lat="46.45858" lon="-1.55218">
        <ele>11</ele>
        <time>2019-03-21T14:31:20Z</time>
      </trkpt>
      <trkpt lat="46.45858" lon="-1.55218">
        <ele>11</ele>
        <time>2019-03-21T14:31:22Z</time>
      </trkpt>
      <trkpt lat="46.45857" lon="-1.55218">
        <ele>11</ele>
        <time>2019-03-21T14:31:25Z</time>
      </trkpt>
      <trkpt lat="46.45857" lon="-1.55218">
        <ele>11</ele>
        <time>2019-03-21T14:31:28Z</time>
      </trkpt>
      <trkpt lat="46.45857" lon="-1.55218">
        <ele>11</ele>
        <time>2019-03-21T14:31:30Z</time>
      </trkpt>
      <trkpt lat="46.45857" lon="-1.55218">
        <ele>11</ele>
        <time>2019-03-21T14:31:33Z</time>
      </trkpt>
      <trkpt lat="46.45857" lon="-1.55218">
        <ele>11</ele>
        <time>2019-03-21T14:31:35Z</time>
      </trkpt>
      <trkpt lat="46.45857" lon="-1.55218">
        <ele>11</ele>
        <time>2019-03-21T14:31:38Z</time>
      </trkpt>
      <trkpt lat="46.45857" lon="-1.55218">
        <ele>11</ele>
        <time>2019-03-21T14:31:41Z</time>
      </trkpt>
      <trkpt lat="46.45857" lon="-1.55218">
        <ele>11</ele>
        <time>2019-03-21T14:31:43Z</time>
      </trkpt>
      <trkpt lat="46.45857" lon="-1.55218">
        <ele>11</ele>
        <time>2019-03-21T14:31:46Z</time>
      </trkpt>
      <trkpt lat="46.45857" lon="-1.55218">
        <ele>11</ele>
        <time>2019-03-21T14:31:49Z</time>
      </trkpt>
      <trkpt lat="46.45856" lon="-1.55218">
        <ele>11</ele>
        <time>2019-03-21T14:31:52Z</time>
      </trkpt>
      <trkpt lat="46.45856" lon="-1.55218">
        <ele>11</ele>
        <time>2019-03-21T14:31:54Z</time>
      </trkpt>
      <trkpt lat="46.45856" lon="-1.55217">
        <ele>11</ele>
        <time>2019-03-21T14:31:57Z</time>
      </trkpt>
      <trkpt lat="46.45856" lon="-1.55217">
        <ele>11</ele>
        <time>2019-03-21T14:32:00Z</time>
      </trkpt>
      <trkpt lat="46.45856" lon="-1.55217">
        <ele>11</ele>
        <time>2019-03-21T14:32:02Z</time>
      </trkpt>
      <trkpt lat="46.45856" lon="-1.55217">
        <ele>11</ele>
        <time>2019-03-21T14:32:05Z</time>
      </trkpt>
      <trkpt lat="46.45856" lon="-1.55216">
        <ele>11</ele>
        <time>2019-03-21T14:32:07Z</time>
      </trkpt>
      <trkpt lat="46.45855" lon="-1.55217">
        <ele>11</ele>
        <time>2019-03-21T14:32:10Z</time>
      </trkpt>
      <trkpt lat="46.45855" lon="-1.55217">
        <ele>11</ele>
        <time>2019-03-21T14:32:13Z</time>
      </trkpt>
      <trkpt lat="46.45855" lon="-1.55216">
        <ele>11</ele>
        <time>2019-03-21T14:32:16Z</time>
      </trkpt>
      <trkpt lat="46.45855" lon="-1.55217">
        <ele>11</ele>
        <time>2019-03-21T14:32:18Z</time>
      </trkpt>
      <trkpt lat="46.45855" lon="-1.55215">
        <ele>11</ele>
        <time>2019-03-21T14:32:24Z</time>
      </trkpt>
      <trkpt lat="46.45855" lon="-1.55216">
        <ele>11</ele>
        <time>2019-03-21T14:32:26Z</time>
      </trkpt>
      <trkpt lat="46.45855" lon="-1.55216">
        <ele>11</ele>
        <time>2019-03-21T14:32:29Z</time>
      </trkpt>
      <trkpt lat="46.45855" lon="-1.55216">
        <ele>11</ele>
        <time>2019-03-21T14:32:32Z</time>
      </trkpt>
      <trkpt lat="46.45855" lon="-1.55217">
        <ele>11</ele>
        <time>2019-03-21T14:32:35Z</time>
      </trkpt>
      <trkpt lat="46.45855" lon="-1.55217">
        <ele>11</ele>
        <time>2019-03-21T14:32:37Z</time>
      </trkpt>
      <trkpt lat="46.45858" lon="-1.55215">
        <ele>11</ele>
        <time>2019-03-21T14:32:40Z</time>
      </trkpt>
      <trkpt lat="46.4586" lon="-1.55214">
        <ele>11</ele>
        <time>2019-03-21T14:32:43Z</time>
      </trkpt>
      <trkpt lat="46.45864" lon="-1.55215">
        <ele>10</ele>
        <time>2019-03-21T14:32:45Z</time>
      </trkpt>
      <trkpt lat="46.45867" lon="-1.55214">
        <ele>10</ele>
        <time>2019-03-21T14:32:48Z</time>
      </trkpt>
      <trkpt lat="46.45869" lon="-1.55214">
        <ele>10</ele>
        <time>2019-03-21T14:32:51Z</time>
      </trkpt>
      <trkpt lat="46.45873" lon="-1.55213">
        <ele>10</ele>
        <time>2019-03-21T14:32:53Z</time>
      </trkpt>
      <trkpt lat="46.45877" lon="-1.55212">
        <ele>10</ele>
        <time>2019-03-21T14:32:56Z</time>
      </trkpt>
      <trkpt lat="46.45879" lon="-1.55212">
        <ele>10</ele>
        <time>2019-03-21T14:32:59Z</time>
      </trkpt>
      <trkpt lat="46.45883" lon="-1.55211">
        <ele>10</ele>
        <time>2019-03-21T14:33:01Z</time>
      </trkpt>
      <trkpt lat="46.45887" lon="-1.55209">
        <ele>10</ele>
        <time>2019-03-21T14:33:04Z</time>
      </trkpt>
      <trkpt lat="46.45889" lon="-1.55208">
        <ele>10</ele>
        <time>2019-03-21T14:33:07Z</time>
      </trkpt>
      <trkpt lat="46.45891" lon="-1.55208">
        <ele>10</ele>
        <time>2019-03-21T14:33:10Z</time>
      </trkpt>
      <trkpt lat="46.45893" lon="-1.55207">
        <ele>10</ele>
        <time>2019-03-21T14:33:12Z</time>
      </trkpt>
      <trkpt lat="46.45897" lon="-1.55206">
        <ele>10</ele>
        <time>2019-03-21T14:33:14Z</time>
      </trkpt>
      <trkpt lat="46.45901" lon="-1.55206">
        <ele>9</ele>
        <time>2019-03-21T14:33:17Z</time>
      </trkpt>
      <trkpt lat="46.45904" lon="-1.55205">
        <ele>9</ele>
        <time>2019-03-21T14:33:20Z</time>
      </trkpt>
      <trkpt lat="46.45908" lon="-1.55204">
        <ele>9</ele>
        <time>2019-03-21T14:33:23Z</time>
      </trkpt>
      <trkpt lat="46.45911" lon="-1.55203">
        <ele>9</ele>
        <time>2019-03-21T14:33:26Z</time>
      </trkpt>
      <trkpt lat="46.45915" lon="-1.55201">
        <ele>9</ele>
        <time>2019-03-21T14:33:28Z</time>
      </trkpt>
      <trkpt lat="46.4592" lon="-1.552">
        <ele>9</ele>
        <time>2019-03-21T14:33:31Z</time>
      </trkpt>
      <trkpt lat="46.45923" lon="-1.55198">
        <ele>9</ele>
        <time>2019-03-21T14:33:34Z</time>
      </trkpt>
      <trkpt lat="46.45927" lon="-1.55197">
        <ele>8</ele>
        <time>2019-03-21T14:33:37Z</time>
      </trkpt>
      <trkpt lat="46.45931" lon="-1.55197">
        <ele>8</ele>
        <time>2019-03-21T14:33:40Z</time>
      </trkpt>
      <trkpt lat="46.45935" lon="-1.55196">
        <ele>8</ele>
        <time>2019-03-21T14:33:42Z</time>
      </trkpt>
      <trkpt lat="46.45938" lon="-1.55195">
        <ele>8</ele>
        <time>2019-03-21T14:33:45Z</time>
      </trkpt>
      <trkpt lat="46.45942" lon="-1.55194">
        <ele>8</ele>
        <time>2019-03-21T14:33:48Z</time>
      </trkpt>
      <trkpt lat="46.45945" lon="-1.55193">
        <ele>7</ele>
        <time>2019-03-21T14:33:51Z</time>
      </trkpt>
      <trkpt lat="46.45947" lon="-1.55193">
        <ele>7</ele>
        <time>2019-03-21T14:33:54Z</time>
      </trkpt>
      <trkpt lat="46.45951" lon="-1.55193">
        <ele>7</ele>
        <time>2019-03-21T14:33:56Z</time>
      </trkpt>
      <trkpt lat="46.45955" lon="-1.55193">
        <ele>7</ele>
        <time>2019-03-21T14:33:59Z</time>
      </trkpt>
      <trkpt lat="46.45958" lon="-1.55192">
        <ele>7</ele>
        <time>2019-03-21T14:34:02Z</time>
      </trkpt>
      <trkpt lat="46.45961" lon="-1.55192">
        <ele>7</ele>
        <time>2019-03-21T14:34:05Z</time>
      </trkpt>
      <trkpt lat="46.45964" lon="-1.55192">
        <ele>6</ele>
        <time>2019-03-21T14:34:07Z</time>
      </trkpt>
      <trkpt lat="46.45967" lon="-1.55192">
        <ele>6</ele>
        <time>2019-03-21T14:34:10Z</time>
      </trkpt>
      <trkpt lat="46.45971" lon="-1.55191">
        <ele>6</ele>
        <time>2019-03-21T14:34:13Z</time>
      </trkpt>
      <trkpt lat="46.45973" lon="-1.5519">
        <ele>6</ele>
        <time>2019-03-21T14:34:16Z</time>
      </trkpt>
      <trkpt lat="46.45977" lon="-1.55189">
        <ele>6</ele>
        <time>2019-03-21T14:34:18Z</time>
      </trkpt>
      <trkpt lat="46.4598" lon="-1.55188">
        <ele>6</ele>
        <time>2019-03-21T14:34:21Z</time>
      </trkpt>
      <trkpt lat="46.45983" lon="-1.55188">
        <ele>6</ele>
        <time>2019-03-21T14:34:24Z</time>
      </trkpt>
      <trkpt lat="46.45986" lon="-1.55187">
        <ele>6</ele>
        <time>2019-03-21T14:34:26Z</time>
      </trkpt>
      <trkpt lat="46.45989" lon="-1.55186">
        <ele>6</ele>
        <time>2019-03-21T14:34:29Z</time>
      </trkpt>
      <trkpt lat="46.45992" lon="-1.55185">
        <ele>6</ele>
        <time>2019-03-21T14:34:32Z</time>
      </trkpt>
      <trkpt lat="46.45996" lon="-1.55185">
        <ele>6</ele>
        <time>2019-03-21T14:34:34Z</time>
      </trkpt>
      <trkpt lat="46.46" lon="-1.55183">
        <ele>6</ele>
        <time>2019-03-21T14:34:37Z</time>
      </trkpt>
      <trkpt lat="46.46002" lon="-1.55183">
        <ele>6</ele>
        <time>2019-03-21T14:34:40Z</time>
      </trkpt>
      <trkpt lat="46.46007" lon="-1.55182">
        <ele>6</ele>
        <time>2019-03-21T14:34:42Z</time>
      </trkpt>
      <trkpt lat="46.46011" lon="-1.55181">
        <ele>6</ele>
        <time>2019-03-21T14:34:45Z</time>
      </trkpt>
      <trkpt lat="46.46014" lon="-1.5518">
        <ele>6</ele>
        <time>2019-03-21T14:34:48Z</time>
      </trkpt>
      <trkpt lat="46.46018" lon="-1.55179">
        <ele>7</ele>
        <time>2019-03-21T14:34:50Z</time>
      </trkpt>
      <trkpt lat="46.46022" lon="-1.55178">
        <ele>7</ele>
        <time>2019-03-21T14:34:53Z</time>
      </trkpt>
      <trkpt lat="46.46027" lon="-1.55178">
        <ele>7</ele>
        <time>2019-03-21T14:34:56Z</time>
      </trkpt>
      <trkpt lat="46.4603" lon="-1.55177">
        <ele>7</ele>
        <time>2019-03-21T14:34:59Z</time>
      </trkpt>
      <trkpt lat="46.46034" lon="-1.55177">
        <ele>7</ele>
        <time>2019-03-21T14:35:01Z</time>
      </trkpt>
      <trkpt lat="46.46039" lon="-1.55177">
        <ele>7</ele>
        <time>2019-03-21T14:35:04Z</time>
      </trkpt>
      <trkpt lat="46.46041" lon="-1.55177">
        <ele>8</ele>
        <time>2019-03-21T14:35:07Z</time>
      </trkpt>
      <trkpt lat="46.46046" lon="-1.55176">
        <ele>8</ele>
        <time>2019-03-21T14:35:09Z</time>
      </trkpt>
      <trkpt lat="46.4605" lon="-1.55176">
        <ele>8</ele>
        <time>2019-03-21T14:35:12Z</time>
      </trkpt>
      <trkpt lat="46.4605" lon="-1.55177">
        <ele>8</ele>
        <time>2019-03-21T14:35:15Z</time>
      </trkpt>
      <trkpt lat="46.4605" lon="-1.55177">
        <ele>8</ele>
        <time>2019-03-21T14:35:18Z</time>
      </trkpt>
      <trkpt lat="46.4605" lon="-1.55177">
        <ele>8</ele>
        <time>2019-03-21T14:35:20Z</time>
      </trkpt>
      <trkpt lat="46.4605" lon="-1.55178">
        <ele>8</ele>
        <time>2019-03-21T14:35:23Z</time>
      </trkpt>
      <trkpt lat="46.4605" lon="-1.55179">
        <ele>8</ele>
        <time>2019-03-21T14:35:26Z</time>
      </trkpt>
      <trkpt lat="46.4605" lon="-1.5518">
        <ele>8</ele>
        <time>2019-03-21T14:35:31Z</time>
      </trkpt>
      <trkpt lat="46.4605" lon="-1.5518">
        <ele>8</ele>
        <time>2019-03-21T14:35:34Z</time>
      </trkpt>
      <trkpt lat="46.46051" lon="-1.5518">
        <ele>8</ele>
        <time>2019-03-21T14:35:37Z</time>
      </trkpt>
      <trkpt lat="46.46052" lon="-1.55179">
        <ele>8</ele>
        <time>2019-03-21T14:35:40Z</time>
      </trkpt>
      <trkpt lat="46.46056" lon="-1.55178">
        <ele>8</ele>
        <time>2019-03-21T14:35:42Z</time>
      </trkpt>
      <trkpt lat="46.4606" lon="-1.55178">
        <ele>8</ele>
        <time>2019-03-21T14:35:45Z</time>
      </trkpt>
      <trkpt lat="46.46064" lon="-1.55177">
        <ele>8</ele>
        <time>2019-03-21T14:35:48Z</time>
      </trkpt>
      <trkpt lat="46.46067" lon="-1.55176">
        <ele>8</ele>
        <time>2019-03-21T14:35:51Z</time>
      </trkpt>
      <trkpt lat="46.46071" lon="-1.55175">
        <ele>8</ele>
        <time>2019-03-21T14:35:53Z</time>
      </trkpt>
      <trkpt lat="46.46074" lon="-1.55175">
        <ele>9</ele>
        <time>2019-03-21T14:35:56Z</time>
      </trkpt>
      <trkpt lat="46.46077" lon="-1.55176">
        <ele>9</ele>
        <time>2019-03-21T14:35:59Z</time>
      </trkpt>
      <trkpt lat="46.46082" lon="-1.55176">
        <ele>9</ele>
        <time>2019-03-21T14:36:01Z</time>
      </trkpt>
      <trkpt lat="46.46086" lon="-1.55176">
        <ele>9</ele>
        <time>2019-03-21T14:36:04Z</time>
      </trkpt>
      <trkpt lat="46.46088" lon="-1.55176">
        <ele>9</ele>
        <time>2019-03-21T14:36:07Z</time>
      </trkpt>
      <trkpt lat="46.46092" lon="-1.55178">
        <ele>9</ele>
        <time>2019-03-21T14:36:09Z</time>
      </trkpt>
      <trkpt lat="46.46095" lon="-1.55179">
        <ele>9</ele>
        <time>2019-03-21T14:36:12Z</time>
      </trkpt>
      <trkpt lat="46.461" lon="-1.5518">
        <ele>9</ele>
        <time>2019-03-21T14:36:15Z</time>
      </trkpt>
      <trkpt lat="46.46103" lon="-1.5518">
        <ele>9</ele>
        <time>2019-03-21T14:36:18Z</time>
      </trkpt>
      <trkpt lat="46.46106" lon="-1.55181">
        <ele>10</ele>
        <time>2019-03-21T14:36:20Z</time>
      </trkpt>
      <trkpt lat="46.4611" lon="-1.55182">
        <ele>10</ele>
        <time>2019-03-21T14:36:23Z</time>
      </trkpt>
      <trkpt lat="46.46112" lon="-1.55182">
        <ele>10</ele>
        <time>2019-03-21T14:36:26Z</time>
      </trkpt>
      <trkpt lat="46.46115" lon="-1.55182">
        <ele>10</ele>
        <time>2019-03-21T14:36:29Z</time>
      </trkpt>
      <trkpt lat="46.46119" lon="-1.55182">
        <ele>10</ele>
        <time>2019-03-21T14:36:31Z</time>
      </trkpt>
      <trkpt lat="46.46122" lon="-1.55182">
        <ele>10</ele>
        <time>2019-03-21T14:36:34Z</time>
      </trkpt>
      <trkpt lat="46.46124" lon="-1.55181">
        <ele>10</ele>
        <time>2019-03-21T14:36:37Z</time>
      </trkpt>
      <trkpt lat="46.46128" lon="-1.55181">
        <ele>10</ele>
        <time>2019-03-21T14:36:39Z</time>
      </trkpt>
      <trkpt lat="46.46132" lon="-1.55181">
        <ele>10</ele>
        <time>2019-03-21T14:36:42Z</time>
      </trkpt>
      <trkpt lat="46.46135" lon="-1.5518">
        <ele>11</ele>
        <time>2019-03-21T14:36:45Z</time>
      </trkpt>
      <trkpt lat="46.46138" lon="-1.55178">
        <ele>11</ele>
        <time>2019-03-21T14:36:48Z</time>
      </trkpt>
      <trkpt lat="46.46142" lon="-1.55176">
        <ele>11</ele>
        <time>2019-03-21T14:36:50Z</time>
      </trkpt>
      <trkpt lat="46.46146" lon="-1.55174">
        <ele>11</ele>
        <time>2019-03-21T14:36:53Z</time>
      </trkpt>
      <trkpt lat="46.46148" lon="-1.55174">
        <ele>11</ele>
        <time>2019-03-21T14:36:56Z</time>
      </trkpt>
      <trkpt lat="46.46151" lon="-1.55173">
        <ele>11</ele>
        <time>2019-03-21T14:36:58Z</time>
      </trkpt>
      <trkpt lat="46.46154" lon="-1.55171">
        <ele>11</ele>
        <time>2019-03-21T14:37:01Z</time>
      </trkpt>
      <trkpt lat="46.46156" lon="-1.5517">
        <ele>11</ele>
        <time>2019-03-21T14:37:04Z</time>
      </trkpt>
      <trkpt lat="46.4616" lon="-1.55169">
        <ele>12</ele>
        <time>2019-03-21T14:37:06Z</time>
      </trkpt>
      <trkpt lat="46.46163" lon="-1.55168">
        <ele>12</ele>
        <time>2019-03-21T14:37:09Z</time>
      </trkpt>
      <trkpt lat="46.46165" lon="-1.55167">
        <ele>12</ele>
        <time>2019-03-21T14:37:12Z</time>
      </trkpt>
      <trkpt lat="46.46168" lon="-1.55165">
        <ele>12</ele>
        <time>2019-03-21T14:37:14Z</time>
      </trkpt>
      <trkpt lat="46.46171" lon="-1.55163">
        <ele>12</ele>
        <time>2019-03-21T14:37:17Z</time>
      </trkpt>
      <trkpt lat="46.46174" lon="-1.55161">
        <ele>12</ele>
        <time>2019-03-21T14:37:20Z</time>
      </trkpt>
      <trkpt lat="46.46176" lon="-1.55161">
        <ele>12</ele>
        <time>2019-03-21T14:37:23Z</time>
      </trkpt>
      <trkpt lat="46.46179" lon="-1.55159">
        <ele>12</ele>
        <time>2019-03-21T14:37:25Z</time>
      </trkpt>
      <trkpt lat="46.46182" lon="-1.55157">
        <ele>12</ele>
        <time>2019-03-21T14:37:28Z</time>
      </trkpt>
      <trkpt lat="46.46185" lon="-1.55155">
        <ele>12</ele>
        <time>2019-03-21T14:37:31Z</time>
      </trkpt>
      <trkpt lat="46.46187" lon="-1.55154">
        <ele>12</ele>
        <time>2019-03-21T14:37:34Z</time>
      </trkpt>
      <trkpt lat="46.46191" lon="-1.55151">
        <ele>12</ele>
        <time>2019-03-21T14:37:36Z</time>
      </trkpt>
      <trkpt lat="46.46193" lon="-1.55149">
        <ele>13</ele>
        <time>2019-03-21T14:37:39Z</time>
      </trkpt>
      <trkpt lat="46.46197" lon="-1.55147">
        <ele>13</ele>
        <time>2019-03-21T14:37:42Z</time>
      </trkpt>
      <trkpt lat="46.46199" lon="-1.55146">
        <ele>13</ele>
        <time>2019-03-21T14:37:45Z</time>
      </trkpt>
      <trkpt lat="46.46202" lon="-1.55145">
        <ele>13</ele>
        <time>2019-03-21T14:37:48Z</time>
      </trkpt>
      <trkpt lat="46.46205" lon="-1.55143">
        <ele>13</ele>
        <time>2019-03-21T14:37:50Z</time>
      </trkpt>
      <trkpt lat="46.46209" lon="-1.55141">
        <ele>13</ele>
        <time>2019-03-21T14:37:53Z</time>
      </trkpt>
      <trkpt lat="46.46212" lon="-1.55139">
        <ele>13</ele>
        <time>2019-03-21T14:37:56Z</time>
      </trkpt>
      <trkpt lat="46.46214" lon="-1.55138">
        <ele>13</ele>
        <time>2019-03-21T14:37:59Z</time>
      </trkpt>
      <trkpt lat="46.46218" lon="-1.55136">
        <ele>14</ele>
        <time>2019-03-21T14:38:02Z</time>
      </trkpt>
      <trkpt lat="46.46221" lon="-1.55134">
        <ele>14</ele>
        <time>2019-03-21T14:38:04Z</time>
      </trkpt>
      <trkpt lat="46.46225" lon="-1.55132">
        <ele>14</ele>
        <time>2019-03-21T14:38:07Z</time>
      </trkpt>
      <trkpt lat="46.46228" lon="-1.5513">
        <ele>14</ele>
        <time>2019-03-21T14:38:10Z</time>
      </trkpt>
      <trkpt lat="46.4623" lon="-1.55128">
        <ele>14</ele>
        <time>2019-03-21T14:38:13Z</time>
      </trkpt>
      <trkpt lat="46.46233" lon="-1.55125">
        <ele>14</ele>
        <time>2019-03-21T14:38:15Z</time>
      </trkpt>
      <trkpt lat="46.46236" lon="-1.55122">
        <ele>14</ele>
        <time>2019-03-21T14:38:18Z</time>
      </trkpt>
      <trkpt lat="46.46239" lon="-1.5512">
        <ele>15</ele>
        <time>2019-03-21T14:38:21Z</time>
      </trkpt>
      <trkpt lat="46.46241" lon="-1.55119">
        <ele>15</ele>
        <time>2019-03-21T14:38:24Z</time>
      </trkpt>
      <trkpt lat="46.46244" lon="-1.55116">
        <ele>15</ele>
        <time>2019-03-21T14:38:26Z</time>
      </trkpt>
      <trkpt lat="46.46247" lon="-1.55113">
        <ele>15</ele>
        <time>2019-03-21T14:38:29Z</time>
      </trkpt>
      <trkpt lat="46.46251" lon="-1.55111">
        <ele>15</ele>
        <time>2019-03-21T14:38:32Z</time>
      </trkpt>
      <trkpt lat="46.46253" lon="-1.55109">
        <ele>15</ele>
        <time>2019-03-21T14:38:35Z</time>
      </trkpt>
      <trkpt lat="46.46259" lon="-1.55103">
        <ele>15</ele>
        <time>2019-03-21T14:38:40Z</time>
      </trkpt>
      <trkpt lat="46.46262" lon="-1.551">
        <ele>15</ele>
        <time>2019-03-21T14:38:43Z</time>
      </trkpt>
      <trkpt lat="46.46264" lon="-1.55097">
        <ele>15</ele>
        <time>2019-03-21T14:38:46Z</time>
      </trkpt>
      <trkpt lat="46.46267" lon="-1.55094">
        <ele>16</ele>
        <time>2019-03-21T14:38:48Z</time>
      </trkpt>
      <trkpt lat="46.4627" lon="-1.55092">
        <ele>16</ele>
        <time>2019-03-21T14:38:51Z</time>
      </trkpt>
      <trkpt lat="46.46273" lon="-1.5509">
        <ele>16</ele>
        <time>2019-03-21T14:38:54Z</time>
      </trkpt>
      <trkpt lat="46.46275" lon="-1.55088">
        <ele>16</ele>
        <time>2019-03-21T14:38:57Z</time>
      </trkpt>
      <trkpt lat="46.46278" lon="-1.55086">
        <ele>16</ele>
        <time>2019-03-21T14:38:59Z</time>
      </trkpt>
      <trkpt lat="46.46282" lon="-1.55082">
        <ele>16</ele>
        <time>2019-03-21T14:39:02Z</time>
      </trkpt>
      <trkpt lat="46.46284" lon="-1.55079">
        <ele>16</ele>
        <time>2019-03-21T14:39:05Z</time>
      </trkpt>
      <trkpt lat="46.46286" lon="-1.55077">
        <ele>16</ele>
        <time>2019-03-21T14:39:08Z</time>
      </trkpt>
      <trkpt lat="46.46289" lon="-1.55074">
        <ele>16</ele>
        <time>2019-03-21T14:39:10Z</time>
      </trkpt>
      <trkpt lat="46.46291" lon="-1.5507">
        <ele>16</ele>
        <time>2019-03-21T14:39:13Z</time>
      </trkpt>
      <trkpt lat="46.46294" lon="-1.55067">
        <ele>16</ele>
        <time>2019-03-21T14:39:16Z</time>
      </trkpt>
      <trkpt lat="46.46296" lon="-1.55067">
        <ele>16</ele>
        <time>2019-03-21T14:39:19Z</time>
      </trkpt>
      <trkpt lat="46.46299" lon="-1.55066">
        <ele>16</ele>
        <time>2019-03-21T14:39:21Z</time>
      </trkpt>
      <trkpt lat="46.46299" lon="-1.55066">
        <ele>16</ele>
        <time>2019-03-21T14:39:24Z</time>
      </trkpt>
      <trkpt lat="46.463" lon="-1.55065">
        <ele>16</ele>
        <time>2019-03-21T14:39:27Z</time>
      </trkpt>
      <trkpt lat="46.463" lon="-1.55064">
        <ele>16</ele>
        <time>2019-03-21T14:39:29Z</time>
      </trkpt>
      <trkpt lat="46.463" lon="-1.55064">
        <ele>16</ele>
        <time>2019-03-21T14:39:32Z</time>
      </trkpt>
      <trkpt lat="46.463" lon="-1.55063">
        <ele>16</ele>
        <time>2019-03-21T14:39:35Z</time>
      </trkpt>
      <trkpt lat="46.463" lon="-1.55063">
        <ele>16</ele>
        <time>2019-03-21T14:39:38Z</time>
      </trkpt>
      <trkpt lat="46.463" lon="-1.55062">
        <ele>16</ele>
        <time>2019-03-21T14:39:40Z</time>
      </trkpt>
      <trkpt lat="46.463" lon="-1.55062">
        <ele>16</ele>
        <time>2019-03-21T14:39:43Z</time>
      </trkpt>
      <trkpt lat="46.463" lon="-1.55062">
        <ele>16</ele>
        <time>2019-03-21T14:39:46Z</time>
      </trkpt>
      <trkpt lat="46.463" lon="-1.55061">
        <ele>16</ele>
        <time>2019-03-21T14:39:48Z</time>
      </trkpt>
      <trkpt lat="46.463" lon="-1.55061">
        <ele>16</ele>
        <time>2019-03-21T14:39:51Z</time>
      </trkpt>
      <trkpt lat="46.463" lon="-1.5506">
        <ele>16</ele>
        <time>2019-03-21T14:39:54Z</time>
      </trkpt>
      <trkpt lat="46.463" lon="-1.5506">
        <ele>16</ele>
        <time>2019-03-21T14:39:56Z</time>
      </trkpt>
      <trkpt lat="46.463" lon="-1.5506">
        <ele>16</ele>
        <time>2019-03-21T14:39:59Z</time>
      </trkpt>
      <trkpt lat="46.463" lon="-1.5506">
        <ele>16</ele>
        <time>2019-03-21T14:40:02Z</time>
      </trkpt>
      <trkpt lat="46.463" lon="-1.5506">
        <ele>16</ele>
        <time>2019-03-21T14:40:05Z</time>
      </trkpt>
      <trkpt lat="46.46301" lon="-1.55061">
        <ele>16</ele>
        <time>2019-03-21T14:40:07Z</time>
      </trkpt>
      <trkpt lat="46.46301" lon="-1.55061">
        <ele>16</ele>
        <time>2019-03-21T14:40:10Z</time>
      </trkpt>
      <trkpt lat="46.46301" lon="-1.55061">
        <ele>16</ele>
        <time>2019-03-21T14:40:13Z</time>
      </trkpt>
      <trkpt lat="46.46301" lon="-1.5506">
        <ele>16</ele>
        <time>2019-03-21T14:40:15Z</time>
      </trkpt>
      <trkpt lat="46.463" lon="-1.55061">
        <ele>16</ele>
        <time>2019-03-21T14:40:18Z</time>
      </trkpt>
      <trkpt lat="46.463" lon="-1.55061">
        <ele>16</ele>
        <time>2019-03-21T14:40:21Z</time>
      </trkpt>
      <trkpt lat="46.463" lon="-1.55061">
        <ele>16</ele>
        <time>2019-03-21T14:40:24Z</time>
      </trkpt>
      <trkpt lat="46.46299" lon="-1.55061">
        <ele>16</ele>
        <time>2019-03-21T14:40:26Z</time>
      </trkpt>
      <trkpt lat="46.463" lon="-1.5506">
        <ele>16</ele>
        <time>2019-03-21T14:40:29Z</time>
      </trkpt>
      <trkpt lat="46.463" lon="-1.5506">
        <ele>16</ele>
        <time>2019-03-21T14:40:32Z</time>
      </trkpt>
      <trkpt lat="46.46299" lon="-1.5506">
        <ele>16</ele>
        <time>2019-03-21T14:40:34Z</time>
      </trkpt>
      <trkpt lat="46.46299" lon="-1.55061">
        <ele>16</ele>
        <time>2019-03-21T14:40:37Z</time>
      </trkpt>
      <trkpt lat="46.46298" lon="-1.55062">
        <ele>16</ele>
        <time>2019-03-21T14:40:40Z</time>
      </trkpt>
      <trkpt lat="46.46298" lon="-1.55061">
        <ele>16</ele>
        <time>2019-03-21T14:40:43Z</time>
      </trkpt>
      <trkpt lat="46.46299" lon="-1.55062">
        <ele>16</ele>
        <time>2019-03-21T14:40:45Z</time>
      </trkpt>
      <trkpt lat="46.463" lon="-1.55061">
        <ele>16</ele>
        <time>2019-03-21T14:40:48Z</time>
      </trkpt>
      <trkpt lat="46.46301" lon="-1.55062">
        <ele>16</ele>
        <time>2019-03-21T14:40:51Z</time>
      </trkpt>
      <trkpt lat="46.46302" lon="-1.55062">
        <ele>16</ele>
        <time>2019-03-21T14:40:54Z</time>
      </trkpt>
      <trkpt lat="46.46303" lon="-1.55062">
        <ele>16</ele>
        <time>2019-03-21T14:40:56Z</time>
      </trkpt>
      <trkpt lat="46.46302" lon="-1.55063">
        <ele>16</ele>
        <time>2019-03-21T14:40:59Z</time>
      </trkpt>
      <trkpt lat="46.46303" lon="-1.55065">
        <ele>16</ele>
        <time>2019-03-21T14:41:02Z</time>
      </trkpt>
      <trkpt lat="46.46305" lon="-1.55066">
        <ele>16</ele>
        <time>2019-03-21T14:41:05Z</time>
      </trkpt>
      <trkpt lat="46.46305" lon="-1.55066">
        <ele>16</ele>
        <time>2019-03-21T14:41:08Z</time>
      </trkpt>
      <trkpt lat="46.46308" lon="-1.55067">
        <ele>16</ele>
        <time>2019-03-21T14:41:10Z</time>
      </trkpt>
      <trkpt lat="46.4631" lon="-1.55069">
        <ele>16</ele>
        <time>2019-03-21T14:41:13Z</time>
      </trkpt>
      <trkpt lat="46.46312" lon="-1.5507">
        <ele>16</ele>
        <time>2019-03-21T14:41:16Z</time>
      </trkpt>
      <trkpt lat="46.46316" lon="-1.55072">
        <ele>16</ele>
        <time>2019-03-21T14:41:18Z</time>
      </trkpt>
      <trkpt lat="46.46319" lon="-1.55074">
        <ele>16</ele>
        <time>2019-03-21T14:41:21Z</time>
      </trkpt>
      <trkpt lat="46.46321" lon="-1.55076">
        <ele>16</ele>
        <time>2019-03-21T14:41:24Z</time>
      </trkpt>
      <trkpt lat="46.46324" lon="-1.55078">
        <ele>16</ele>
        <time>2019-03-21T14:41:27Z</time>
      </trkpt>
      <trkpt lat="46.46328" lon="-1.5508">
        <ele>16</ele>
        <time>2019-03-21T14:41:29Z</time>
      </trkpt>
      <trkpt lat="46.46332" lon="-1.55082">
        <ele>16</ele>
        <time>2019-03-21T14:41:32Z</time>
      </trkpt>
      <trkpt lat="46.46335" lon="-1.55084">
        <ele>16</ele>
        <time>2019-03-21T14:41:35Z</time>
      </trkpt>
      <trkpt lat="46.46338" lon="-1.55086">
        <ele>16</ele>
        <time>2019-03-21T14:41:38Z</time>
      </trkpt>
      <trkpt lat="46.46342" lon="-1.55088">
        <ele>16</ele>
        <time>2019-03-21T14:41:40Z</time>
      </trkpt>
      <trkpt lat="46.46345" lon="-1.55088">
        <ele>16</ele>
        <time>2019-03-21T14:41:43Z</time>
      </trkpt>
      <trkpt lat="46.4635" lon="-1.55093">
        <ele>16</ele>
        <time>2019-03-21T14:41:48Z</time>
      </trkpt>
      <trkpt lat="46.46353" lon="-1.55096">
        <ele>16</ele>
        <time>2019-03-21T14:41:51Z</time>
      </trkpt>
      <trkpt lat="46.46355" lon="-1.55097">
        <ele>16</ele>
        <time>2019-03-21T14:41:54Z</time>
      </trkpt>
      <trkpt lat="46.46357" lon="-1.55101">
        <ele>16</ele>
        <time>2019-03-21T14:41:56Z</time>
      </trkpt>
      <trkpt lat="46.4636" lon="-1.55105">
        <ele>17</ele>
        <time>2019-03-21T14:41:59Z</time>
      </trkpt>
      <trkpt lat="46.46362" lon="-1.55107">
        <ele>17</ele>
        <time>2019-03-21T14:42:02Z</time>
      </trkpt>
      <trkpt lat="46.46365" lon="-1.5511">
        <ele>17</ele>
        <time>2019-03-21T14:42:04Z</time>
      </trkpt>
      <trkpt lat="46.46368" lon="-1.55114">
        <ele>17</ele>
        <time>2019-03-21T14:42:07Z</time>
      </trkpt>
      <trkpt lat="46.4637" lon="-1.55117">
        <ele>17</ele>
        <time>2019-03-21T14:42:10Z</time>
      </trkpt>
      <trkpt lat="46.46373" lon="-1.55121">
        <ele>17</ele>
        <time>2019-03-21T14:42:12Z</time>
      </trkpt>
      <trkpt lat="46.46375" lon="-1.55125">
        <ele>17</ele>
        <time>2019-03-21T14:42:15Z</time>
      </trkpt>
      <trkpt lat="46.46378" lon="-1.55128">
        <ele>17</ele>
        <time>2019-03-21T14:42:18Z</time>
      </trkpt>
      <trkpt lat="46.46381" lon="-1.55133">
        <ele>17</ele>
        <time>2019-03-21T14:42:20Z</time>
      </trkpt>
      <trkpt lat="46.46385" lon="-1.55137">
        <ele>17</ele>
        <time>2019-03-21T14:42:23Z</time>
      </trkpt>
      <trkpt lat="46.46388" lon="-1.5514">
        <ele>18</ele>
        <time>2019-03-21T14:42:26Z</time>
      </trkpt>
      <trkpt lat="46.4639" lon="-1.55144">
        <ele>18</ele>
        <time>2019-03-21T14:42:28Z</time>
      </trkpt>
      <trkpt lat="46.46393" lon="-1.55148">
        <ele>18</ele>
        <time>2019-03-21T14:42:31Z</time>
      </trkpt>
      <trkpt lat="46.46395" lon="-1.55151">
        <ele>18</ele>
        <time>2019-03-21T14:42:34Z</time>
      </trkpt>
      <trkpt lat="46.46397" lon="-1.55156">
        <ele>18</ele>
        <time>2019-03-21T14:42:36Z</time>
      </trkpt>
      <trkpt lat="46.46399" lon="-1.5516">
        <ele>18</ele>
        <time>2019-03-21T14:42:39Z</time>
      </trkpt>
      <trkpt lat="46.46401" lon="-1.55163">
        <ele>18</ele>
        <time>2019-03-21T14:42:42Z</time>
      </trkpt>
      <trkpt lat="46.46403" lon="-1.55167">
        <ele>18</ele>
        <time>2019-03-21T14:42:44Z</time>
      </trkpt>
      <trkpt lat="46.46406" lon="-1.55171">
        <ele>18</ele>
        <time>2019-03-21T14:42:47Z</time>
      </trkpt>
      <trkpt lat="46.46408" lon="-1.55174">
        <ele>18</ele>
        <time>2019-03-21T14:42:50Z</time>
      </trkpt>
      <trkpt lat="46.4641" lon="-1.55179">
        <ele>18</ele>
        <time>2019-03-21T14:42:52Z</time>
      </trkpt>
      <trkpt lat="46.46413" lon="-1.55182">
        <ele>18</ele>
        <time>2019-03-21T14:42:55Z</time>
      </trkpt>
      <trkpt lat="46.46415" lon="-1.55185">
        <ele>18</ele>
        <time>2019-03-21T14:42:58Z</time>
      </trkpt>
      <trkpt lat="46.46419" lon="-1.5519">
        <ele>19</ele>
        <time>2019-03-21T14:43:00Z</time>
      </trkpt>
      <trkpt lat="46.4642" lon="-1.55193">
        <ele>19</ele>
        <time>2019-03-21T14:43:03Z</time>
      </trkpt>
      <trkpt lat="46.46423" lon="-1.55198">
        <ele>19</ele>
        <time>2019-03-21T14:43:06Z</time>
      </trkpt>
      <trkpt lat="46.46425" lon="-1.55203">
        <ele>19</ele>
        <time>2019-03-21T14:43:08Z</time>
      </trkpt>
      <trkpt lat="46.46428" lon="-1.55207">
        <ele>19</ele>
        <time>2019-03-21T14:43:11Z</time>
      </trkpt>
      <trkpt lat="46.4643" lon="-1.5521">
        <ele>19</ele>
        <time>2019-03-21T14:43:14Z</time>
      </trkpt>
      <trkpt lat="46.46434" lon="-1.55214">
        <ele>19</ele>
        <time>2019-03-21T14:43:16Z</time>
      </trkpt>
      <trkpt lat="46.46437" lon="-1.55217">
        <ele>20</ele>
        <time>2019-03-21T14:43:19Z</time>
      </trkpt>
      <trkpt lat="46.46439" lon="-1.5522">
        <ele>20</ele>
        <time>2019-03-21T14:43:22Z</time>
      </trkpt>
      <trkpt lat="46.46442" lon="-1.55223">
        <ele>20</ele>
        <time>2019-03-21T14:43:24Z</time>
      </trkpt>
      <trkpt lat="46.46445" lon="-1.55225">
        <ele>20</ele>
        <time>2019-03-21T14:43:27Z</time>
      </trkpt>
      <trkpt lat="46.46446" lon="-1.55226">
        <ele>20</ele>
        <time>2019-03-21T14:43:30Z</time>
      </trkpt>
      <trkpt lat="46.46448" lon="-1.55228">
        <ele>20</ele>
        <time>2019-03-21T14:43:32Z</time>
      </trkpt>
      <trkpt lat="46.4645" lon="-1.55231">
        <ele>20</ele>
        <time>2019-03-21T14:43:35Z</time>
      </trkpt>
      <trkpt lat="46.46452" lon="-1.55233">
        <ele>20</ele>
        <time>2019-03-21T14:43:38Z</time>
      </trkpt>
      <trkpt lat="46.46453" lon="-1.55234">
        <ele>20</ele>
        <time>2019-03-21T14:43:40Z</time>
      </trkpt>
      <trkpt lat="46.46454" lon="-1.55236">
        <ele>20</ele>
        <time>2019-03-21T14:43:43Z</time>
      </trkpt>
      <trkpt lat="46.46457" lon="-1.55239">
        <ele>20</ele>
        <time>2019-03-21T14:43:46Z</time>
      </trkpt>
      <trkpt lat="46.46459" lon="-1.55242">
        <ele>20</ele>
        <time>2019-03-21T14:43:48Z</time>
      </trkpt>
      <trkpt lat="46.46461" lon="-1.55244">
        <ele>20</ele>
        <time>2019-03-21T14:43:51Z</time>
      </trkpt>
      <trkpt lat="46.46465" lon="-1.55246">
        <ele>20</ele>
        <time>2019-03-21T14:43:53Z</time>
      </trkpt>
      <trkpt lat="46.46469" lon="-1.55248">
        <ele>20</ele>
        <time>2019-03-21T14:43:56Z</time>
      </trkpt>
      <trkpt lat="46.46471" lon="-1.55249">
        <ele>21</ele>
        <time>2019-03-21T14:43:59Z</time>
      </trkpt>
      <trkpt lat="46.46476" lon="-1.55252">
        <ele>21</ele>
        <time>2019-03-21T14:44:01Z</time>
      </trkpt>
      <trkpt lat="46.46478" lon="-1.55253">
        <ele>21</ele>
        <time>2019-03-21T14:44:04Z</time>
      </trkpt>
      <trkpt lat="46.46482" lon="-1.55255">
        <ele>21</ele>
        <time>2019-03-21T14:44:07Z</time>
      </trkpt>
      <trkpt lat="46.46485" lon="-1.55256">
        <ele>21</ele>
        <time>2019-03-21T14:44:09Z</time>
      </trkpt>
      <trkpt lat="46.46487" lon="-1.55257">
        <ele>21</ele>
        <time>2019-03-21T14:44:12Z</time>
      </trkpt>
      <trkpt lat="46.46491" lon="-1.55259">
        <ele>21</ele>
        <time>2019-03-21T14:44:14Z</time>
      </trkpt>
      <trkpt lat="46.46495" lon="-1.55261">
        <ele>21</ele>
        <time>2019-03-21T14:44:17Z</time>
      </trkpt>
      <trkpt lat="46.46497" lon="-1.55262">
        <ele>21</ele>
        <time>2019-03-21T14:44:20Z</time>
      </trkpt>
      <trkpt lat="46.46502" lon="-1.55264">
        <ele>21</ele>
        <time>2019-03-21T14:44:22Z</time>
      </trkpt>
      <trkpt lat="46.46506" lon="-1.55266">
        <ele>21</ele>
        <time>2019-03-21T14:44:25Z</time>
      </trkpt>
      <trkpt lat="46.46508" lon="-1.55268">
        <ele>21</ele>
        <time>2019-03-21T14:44:28Z</time>
      </trkpt>
      <trkpt lat="46.46511" lon="-1.55269">
        <ele>21</ele>
        <time>2019-03-21T14:44:30Z</time>
      </trkpt>
      <trkpt lat="46.46515" lon="-1.55272">
        <ele>22</ele>
        <time>2019-03-21T14:44:33Z</time>
      </trkpt>
      <trkpt lat="46.46518" lon="-1.55273">
        <ele>22</ele>
        <time>2019-03-21T14:44:36Z</time>
      </trkpt>
      <trkpt lat="46.46522" lon="-1.55275">
        <ele>22</ele>
        <time>2019-03-21T14:44:38Z</time>
      </trkpt>
      <trkpt lat="46.46526" lon="-1.55277">
        <ele>22</ele>
        <time>2019-03-21T14:44:41Z</time>
      </trkpt>
      <trkpt lat="46.46529" lon="-1.55278">
        <ele>22</ele>
        <time>2019-03-21T14:44:44Z</time>
      </trkpt>
      <trkpt lat="46.46535" lon="-1.55282">
        <ele>22</ele>
        <time>2019-03-21T14:44:49Z</time>
      </trkpt>
      <trkpt lat="46.46538" lon="-1.55285">
        <ele>23</ele>
        <time>2019-03-21T14:44:51Z</time>
      </trkpt>
      <trkpt lat="46.46543" lon="-1.55286">
        <ele>23</ele>
        <time>2019-03-21T14:44:54Z</time>
      </trkpt>
      <trkpt lat="46.46546" lon="-1.55288">
        <ele>23</ele>
        <time>2019-03-21T14:44:57Z</time>
      </trkpt>
      <trkpt lat="46.4655" lon="-1.5529">
        <ele>23</ele>
        <time>2019-03-21T14:44:59Z</time>
      </trkpt>
      <trkpt lat="46.46554" lon="-1.55292">
        <ele>23</ele>
        <time>2019-03-21T14:45:02Z</time>
      </trkpt>
      <trkpt lat="46.46556" lon="-1.55294">
        <ele>23</ele>
        <time>2019-03-21T14:45:05Z</time>
      </trkpt>
      <trkpt lat="46.4656" lon="-1.55296">
        <ele>24</ele>
        <time>2019-03-21T14:45:07Z</time>
      </trkpt>
      <trkpt lat="46.46562" lon="-1.55297">
        <ele>24</ele>
        <time>2019-03-21T14:45:10Z</time>
      </trkpt>
      <trkpt lat="46.46566" lon="-1.55299">
        <ele>24</ele>
        <time>2019-03-21T14:45:12Z</time>
      </trkpt>
      <trkpt lat="46.46569" lon="-1.55303">
        <ele>24</ele>
        <time>2019-03-21T14:45:15Z</time>
      </trkpt>
      <trkpt lat="46.46572" lon="-1.55304">
        <ele>24</ele>
        <time>2019-03-21T14:45:18Z</time>
      </trkpt>
      <trkpt lat="46.46575" lon="-1.55306">
        <ele>24</ele>
        <time>2019-03-21T14:45:20Z</time>
      </trkpt>
      <trkpt lat="46.46578" lon="-1.55307">
        <ele>25</ele>
        <time>2019-03-21T14:45:23Z</time>
      </trkpt>
      <trkpt lat="46.46582" lon="-1.55309">
        <ele>25</ele>
        <time>2019-03-21T14:45:26Z</time>
      </trkpt>
      <trkpt lat="46.46586" lon="-1.55312">
        <ele>25</ele>
        <time>2019-03-21T14:45:28Z</time>
      </trkpt>
      <trkpt lat="46.46588" lon="-1.55314">
        <ele>25</ele>
        <time>2019-03-21T14:45:31Z</time>
      </trkpt>
      <trkpt lat="46.46592" lon="-1.55316">
        <ele>25</ele>
        <time>2019-03-21T14:45:33Z</time>
      </trkpt>
      <trkpt lat="46.46595" lon="-1.55317">
        <ele>26</ele>
        <time>2019-03-21T14:45:36Z</time>
      </trkpt>
      <trkpt lat="46.46598" lon="-1.55319">
        <ele>26</ele>
        <time>2019-03-21T14:45:39Z</time>
      </trkpt>
      <trkpt lat="46.46601" lon="-1.5532">
        <ele>26</ele>
        <time>2019-03-21T14:45:41Z</time>
      </trkpt>
      <trkpt lat="46.46603" lon="-1.55322">
        <ele>26</ele>
        <time>2019-03-21T14:45:44Z</time>
      </trkpt>
      <trkpt lat="46.46606" lon="-1.55323">
        <ele>26</ele>
        <time>2019-03-21T14:45:46Z</time>
      </trkpt>
      <trkpt lat="46.46609" lon="-1.55324">
        <ele>26</ele>
        <time>2019-03-21T14:45:49Z</time>
      </trkpt>
      <trkpt lat="46.46612" lon="-1.55327">
        <ele>26</ele>
        <time>2019-03-21T14:45:52Z</time>
      </trkpt>
      <trkpt lat="46.46615" lon="-1.55328">
        <ele>26</ele>
        <time>2019-03-21T14:45:54Z</time>
      </trkpt>
      <trkpt lat="46.46615" lon="-1.55329">
        <ele>26</ele>
        <time>2019-03-21T14:45:57Z</time>
      </trkpt>
      <trkpt lat="46.46615" lon="-1.55329">
        <ele>26</ele>
        <time>2019-03-21T14:45:59Z</time>
      </trkpt>
      <trkpt lat="46.46616" lon="-1.5533">
        <ele>26</ele>
        <time>2019-03-21T14:46:02Z</time>
      </trkpt>
      <trkpt lat="46.46617" lon="-1.55331">
        <ele>26</ele>
        <time>2019-03-21T14:46:05Z</time>
      </trkpt>
      <trkpt lat="46.4662" lon="-1.55334">
        <ele>27</ele>
        <time>2019-03-21T14:46:07Z</time>
      </trkpt>
      <trkpt lat="46.46622" lon="-1.55336">
        <ele>27</ele>
        <time>2019-03-21T14:46:10Z</time>
      </trkpt>
      <trkpt lat="46.46624" lon="-1.55339">
        <ele>27</ele>
        <time>2019-03-21T14:46:12Z</time>
      </trkpt>
      <trkpt lat="46.46627" lon="-1.55341">
        <ele>27</ele>
        <time>2019-03-21T14:46:15Z</time>
      </trkpt>
      <trkpt lat="46.4663" lon="-1.55343">
        <ele>27</ele>
        <time>2019-03-21T14:46:18Z</time>
      </trkpt>
      <trkpt lat="46.46634" lon="-1.55345">
        <ele>27</ele>
        <time>2019-03-21T14:46:20Z</time>
      </trkpt>
      <trkpt lat="46.46637" lon="-1.55347">
        <ele>27</ele>
        <time>2019-03-21T14:46:23Z</time>
      </trkpt>
      <trkpt lat="46.4664" lon="-1.55349">
        <ele>27</ele>
        <time>2019-03-21T14:46:26Z</time>
      </trkpt>
      <trkpt lat="46.46643" lon="-1.55352">
        <ele>27</ele>
        <time>2019-03-21T14:46:28Z</time>
      </trkpt>
      <trkpt lat="46.46645" lon="-1.55354">
        <ele>27</ele>
        <time>2019-03-21T14:46:31Z</time>
      </trkpt>
      <trkpt lat="46.46649" lon="-1.55357">
        <ele>27</ele>
        <time>2019-03-21T14:46:33Z</time>
      </trkpt>
      <trkpt lat="46.46652" lon="-1.55359">
        <ele>27</ele>
        <time>2019-03-21T14:46:36Z</time>
      </trkpt>
      <trkpt lat="46.46655" lon="-1.55362">
        <ele>28</ele>
        <time>2019-03-21T14:46:39Z</time>
      </trkpt>
      <trkpt lat="46.46657" lon="-1.55365">
        <ele>28</ele>
        <time>2019-03-21T14:46:41Z</time>
      </trkpt>
      <trkpt lat="46.4666" lon="-1.55368">
        <ele>28</ele>
        <time>2019-03-21T14:46:44Z</time>
      </trkpt>
      <trkpt lat="46.46662" lon="-1.55371">
        <ele>28</ele>
        <time>2019-03-21T14:46:47Z</time>
      </trkpt>
      <trkpt lat="46.46665" lon="-1.55374">
        <ele>28</ele>
        <time>2019-03-21T14:46:49Z</time>
      </trkpt>
      <trkpt lat="46.46668" lon="-1.55377">
        <ele>28</ele>
        <time>2019-03-21T14:46:52Z</time>
      </trkpt>
      <trkpt lat="46.4667" lon="-1.5538">
        <ele>28</ele>
        <time>2019-03-21T14:46:55Z</time>
      </trkpt>
      <trkpt lat="46.46672" lon="-1.55384">
        <ele>28</ele>
        <time>2019-03-21T14:46:57Z</time>
      </trkpt>
      <trkpt lat="46.46675" lon="-1.55387">
        <ele>28</ele>
        <time>2019-03-21T14:47:00Z</time>
      </trkpt>
      <trkpt lat="46.46678" lon="-1.55392">
        <ele>28</ele>
        <time>2019-03-21T14:47:03Z</time>
      </trkpt>
      <trkpt lat="46.46682" lon="-1.55395">
        <ele>28</ele>
        <time>2019-03-21T14:47:05Z</time>
      </trkpt>
      <trkpt lat="46.46684" lon="-1.55398">
        <ele>28</ele>
        <time>2019-03-21T14:47:08Z</time>
      </trkpt>
      <trkpt lat="46.46687" lon="-1.55403">
        <ele>28</ele>
        <time>2019-03-21T14:47:10Z</time>
      </trkpt>
      <trkpt lat="46.4669" lon="-1.55407">
        <ele>28</ele>
        <time>2019-03-21T14:47:13Z</time>
      </trkpt>
      <trkpt lat="46.46691" lon="-1.55409">
        <ele>28</ele>
        <time>2019-03-21T14:47:16Z</time>
      </trkpt>
      <trkpt lat="46.46693" lon="-1.55413">
        <ele>28</ele>
        <time>2019-03-21T14:47:18Z</time>
      </trkpt>
      <trkpt lat="46.46696" lon="-1.55416">
        <ele>28</ele>
        <time>2019-03-21T14:47:21Z</time>
      </trkpt>
      <trkpt lat="46.46698" lon="-1.55419">
        <ele>28</ele>
        <time>2019-03-21T14:47:24Z</time>
      </trkpt>
      <trkpt lat="46.467" lon="-1.55423">
        <ele>27</ele>
        <time>2019-03-21T14:47:26Z</time>
      </trkpt>
      <trkpt lat="46.46702" lon="-1.55427">
        <ele>28</ele>
        <time>2019-03-21T14:47:29Z</time>
      </trkpt>
      <trkpt lat="46.46704" lon="-1.55429">
        <ele>28</ele>
        <time>2019-03-21T14:47:32Z</time>
      </trkpt>
      <trkpt lat="46.46707" lon="-1.55434">
        <ele>28</ele>
        <time>2019-03-21T14:47:34Z</time>
      </trkpt>
      <trkpt lat="46.46709" lon="-1.55437">
        <ele>28</ele>
        <time>2019-03-21T14:47:37Z</time>
      </trkpt>
      <trkpt lat="46.46712" lon="-1.55442">
        <ele>28</ele>
        <time>2019-03-21T14:47:39Z</time>
      </trkpt>
      <trkpt lat="46.46714" lon="-1.55447">
        <ele>28</ele>
        <time>2019-03-21T14:47:42Z</time>
      </trkpt>
      <trkpt lat="46.46715" lon="-1.5545">
        <ele>28</ele>
        <time>2019-03-21T14:47:45Z</time>
      </trkpt>
      <trkpt lat="46.4672" lon="-1.55459">
        <ele>28</ele>
        <time>2019-03-21T14:47:50Z</time>
      </trkpt>
      <trkpt lat="46.46722" lon="-1.55461">
        <ele>28</ele>
        <time>2019-03-21T14:47:53Z</time>
      </trkpt>
      <trkpt lat="46.46724" lon="-1.55466">
        <ele>28</ele>
        <time>2019-03-21T14:47:55Z</time>
      </trkpt>
      <trkpt lat="46.46726" lon="-1.55469">
        <ele>29</ele>
        <time>2019-03-21T14:47:58Z</time>
      </trkpt>
      <trkpt lat="46.46728" lon="-1.55473">
        <ele>29</ele>
        <time>2019-03-21T14:48:00Z</time>
      </trkpt>
      <trkpt lat="46.46731" lon="-1.55477">
        <ele>29</ele>
        <time>2019-03-21T14:48:03Z</time>
      </trkpt>
      <trkpt lat="46.46731" lon="-1.55479">
        <ele>29</ele>
        <time>2019-03-21T14:48:06Z</time>
      </trkpt>
      <trkpt lat="46.46735" lon="-1.55483">
        <ele>29</ele>
        <time>2019-03-21T14:48:08Z</time>
      </trkpt>
      <trkpt lat="46.46739" lon="-1.55486">
        <ele>29</ele>
        <time>2019-03-21T14:48:11Z</time>
      </trkpt>
      <trkpt lat="46.4674" lon="-1.55488">
        <ele>29</ele>
        <time>2019-03-21T14:48:14Z</time>
      </trkpt>
      <trkpt lat="46.46744" lon="-1.55489">
        <ele>29</ele>
        <time>2019-03-21T14:48:16Z</time>
      </trkpt>
      <trkpt lat="46.46748" lon="-1.5549">
        <ele>29</ele>
        <time>2019-03-21T14:48:19Z</time>
      </trkpt>
      <trkpt lat="46.46748" lon="-1.55491">
        <ele>30</ele>
        <time>2019-03-21T14:48:22Z</time>
      </trkpt>
      <trkpt lat="46.46747" lon="-1.55491">
        <ele>30</ele>
        <time>2019-03-21T14:48:24Z</time>
      </trkpt>
      <trkpt lat="46.46745" lon="-1.55491">
        <ele>30</ele>
        <time>2019-03-21T14:48:27Z</time>
      </trkpt>
      <trkpt lat="46.46745" lon="-1.55492">
        <ele>30</ele>
        <time>2019-03-21T14:48:30Z</time>
      </trkpt>
      <trkpt lat="46.46745" lon="-1.55492">
        <ele>30</ele>
        <time>2019-03-21T14:48:32Z</time>
      </trkpt>
      <trkpt lat="46.46746" lon="-1.55492">
        <ele>30</ele>
        <time>2019-03-21T14:48:35Z</time>
      </trkpt>
      <trkpt lat="46.46746" lon="-1.55492">
        <ele>30</ele>
        <time>2019-03-21T14:48:38Z</time>
      </trkpt>
      <trkpt lat="46.46748" lon="-1.55489">
        <ele>30</ele>
        <time>2019-03-21T14:48:40Z</time>
      </trkpt>
      <trkpt lat="46.4675" lon="-1.55489">
        <ele>30</ele>
        <time>2019-03-21T14:48:43Z</time>
      </trkpt>
      <trkpt lat="46.46754" lon="-1.55489">
        <ele>30</ele>
        <time>2019-03-21T14:48:46Z</time>
      </trkpt>
      <trkpt lat="46.46758" lon="-1.55489">
        <ele>30</ele>
        <time>2019-03-21T14:48:48Z</time>
      </trkpt>
      <trkpt lat="46.4676" lon="-1.55489">
        <ele>30</ele>
        <time>2019-03-21T14:48:51Z</time>
      </trkpt>
      <trkpt lat="46.46764" lon="-1.55487">
        <ele>30</ele>
        <time>2019-03-21T14:48:53Z</time>
      </trkpt>
      <trkpt lat="46.46769" lon="-1.55486">
        <ele>30</ele>
        <time>2019-03-21T14:48:56Z</time>
      </trkpt>
      <trkpt lat="46.46772" lon="-1.55485">
        <ele>30</ele>
        <time>2019-03-21T14:48:59Z</time>
      </trkpt>
      <trkpt lat="46.46777" lon="-1.55484">
        <ele>30</ele>
        <time>2019-03-21T14:49:02Z</time>
      </trkpt>
      <trkpt lat="46.46781" lon="-1.55483">
        <ele>30</ele>
        <time>2019-03-21T14:49:04Z</time>
      </trkpt>
      <trkpt lat="46.46785" lon="-1.55483">
        <ele>30</ele>
        <time>2019-03-21T14:49:07Z</time>
      </trkpt>
      <trkpt lat="46.46788" lon="-1.55483">
        <ele>30</ele>
        <time>2019-03-21T14:49:10Z</time>
      </trkpt>
      <trkpt lat="46.46792" lon="-1.55483">
        <ele>30</ele>
        <time>2019-03-21T14:49:12Z</time>
      </trkpt>
      <trkpt lat="46.46796" lon="-1.55482">
        <ele>30</ele>
        <time>2019-03-21T14:49:15Z</time>
      </trkpt>
      <trkpt lat="46.46798" lon="-1.55482">
        <ele>30</ele>
        <time>2019-03-21T14:49:18Z</time>
      </trkpt>
      <trkpt lat="46.46802" lon="-1.55481">
        <ele>30</ele>
        <time>2019-03-21T14:49:20Z</time>
      </trkpt>
      <trkpt lat="46.46804" lon="-1.5548">
        <ele>30</ele>
        <time>2019-03-21T14:49:23Z</time>
      </trkpt>
      <trkpt lat="46.46809" lon="-1.55479">
        <ele>30</ele>
        <time>2019-03-21T14:49:26Z</time>
      </trkpt>
      <trkpt lat="46.46813" lon="-1.55478">
        <ele>30</ele>
        <time>2019-03-21T14:49:28Z</time>
      </trkpt>
      <trkpt lat="46.46816" lon="-1.55478">
        <ele>30</ele>
        <time>2019-03-21T14:49:31Z</time>
      </trkpt>
      <trkpt lat="46.4682" lon="-1.55477">
        <ele>30</ele>
        <time>2019-03-21T14:49:34Z</time>
      </trkpt>
      <trkpt lat="46.46822" lon="-1.55476">
        <ele>30</ele>
        <time>2019-03-21T14:49:36Z</time>
      </trkpt>
      <trkpt lat="46.46824" lon="-1.55476">
        <ele>30</ele>
        <time>2019-03-21T14:49:39Z</time>
      </trkpt>
      <trkpt lat="46.46828" lon="-1.55476">
        <ele>30</ele>
        <time>2019-03-21T14:49:41Z</time>
      </trkpt>
      <trkpt lat="46.46833" lon="-1.55475">
        <ele>30</ele>
        <time>2019-03-21T14:49:44Z</time>
      </trkpt>
      <trkpt lat="46.46835" lon="-1.55473">
        <ele>30</ele>
        <time>2019-03-21T14:49:47Z</time>
      </trkpt>
      <trkpt lat="46.4684" lon="-1.55473">
        <ele>30</ele>
        <time>2019-03-21T14:49:49Z</time>
      </trkpt>
      <trkpt lat="46.46844" lon="-1.55472">
        <ele>30</ele>
        <time>2019-03-21T14:49:52Z</time>
      </trkpt>
      <trkpt lat="46.46848" lon="-1.55471">
        <ele>30</ele>
        <time>2019-03-21T14:49:55Z</time>
      </trkpt>
      <trkpt lat="46.46852" lon="-1.55472">
        <ele>30</ele>
        <time>2019-03-21T14:49:57Z</time>
      </trkpt>
      <trkpt lat="46.46856" lon="-1.55472">
        <ele>30</ele>
        <time>2019-03-21T14:50:00Z</time>
      </trkpt>
      <trkpt lat="46.46858" lon="-1.55472">
        <ele>30</ele>
        <time>2019-03-21T14:50:03Z</time>
      </trkpt>
      <trkpt lat="46.46862" lon="-1.55471">
        <ele>30</ele>
        <time>2019-03-21T14:50:06Z</time>
      </trkpt>
      <trkpt lat="46.46867" lon="-1.5547">
        <ele>30</ele>
        <time>2019-03-21T14:50:08Z</time>
      </trkpt>
      <trkpt lat="46.46869" lon="-1.5547">
        <ele>30</ele>
        <time>2019-03-21T14:50:11Z</time>
      </trkpt>
      <trkpt lat="46.46874" lon="-1.55469">
        <ele>30</ele>
        <time>2019-03-21T14:50:13Z</time>
      </trkpt>
      <trkpt lat="46.46878" lon="-1.5547">
        <ele>30</ele>
        <time>2019-03-21T14:50:16Z</time>
      </trkpt>
      <trkpt lat="46.46881" lon="-1.55471">
        <ele>30</ele>
        <time>2019-03-21T14:50:19Z</time>
      </trkpt>
      <trkpt lat="46.46885" lon="-1.55472">
        <ele>30</ele>
        <time>2019-03-21T14:50:21Z</time>
      </trkpt>
      <trkpt lat="46.46889" lon="-1.55473">
        <ele>30</ele>
        <time>2019-03-21T14:50:24Z</time>
      </trkpt>
      <trkpt lat="46.46894" lon="-1.55473">
        <ele>30</ele>
        <time>2019-03-21T14:50:27Z</time>
      </trkpt>
      <trkpt lat="46.46898" lon="-1.55474">
        <ele>30</ele>
        <time>2019-03-21T14:50:29Z</time>
      </trkpt>
      <trkpt lat="46.46902" lon="-1.55475">
        <ele>30</ele>
        <time>2019-03-21T14:50:32Z</time>
      </trkpt>
      <trkpt lat="46.46905" lon="-1.55475">
        <ele>30</ele>
        <time>2019-03-21T14:50:35Z</time>
      </trkpt>
      <trkpt lat="46.46909" lon="-1.55476">
        <ele>30</ele>
        <time>2019-03-21T14:50:37Z</time>
      </trkpt>
      <trkpt lat="46.46914" lon="-1.55477">
        <ele>30</ele>
        <time>2019-03-21T14:50:40Z</time>
      </trkpt>
      <trkpt lat="46.46917" lon="-1.55476">
        <ele>30</ele>
        <time>2019-03-21T14:50:43Z</time>
      </trkpt>
      <trkpt lat="46.46921" lon="-1.55476">
        <ele>30</ele>
        <time>2019-03-21T14:50:45Z</time>
      </trkpt>
      <trkpt lat="46.46924" lon="-1.55477">
        <ele>30</ele>
        <time>2019-03-21T14:50:48Z</time>
      </trkpt>
      <trkpt lat="46.46933" lon="-1.55479">
        <ele>31</ele>
        <time>2019-03-21T14:50:53Z</time>
      </trkpt>
      <trkpt lat="46.46936" lon="-1.5548">
        <ele>31</ele>
        <time>2019-03-21T14:50:56Z</time>
      </trkpt>
      <trkpt lat="46.4694" lon="-1.5548">
        <ele>31</ele>
        <time>2019-03-21T14:50:58Z</time>
      </trkpt>
      <trkpt lat="46.46943" lon="-1.5548">
        <ele>31</ele>
        <time>2019-03-21T14:51:01Z</time>
      </trkpt>
      <trkpt lat="46.46948" lon="-1.5548">
        <ele>31</ele>
        <time>2019-03-21T14:51:04Z</time>
      </trkpt>
      <trkpt lat="46.46952" lon="-1.55481">
        <ele>31</ele>
        <time>2019-03-21T14:51:06Z</time>
      </trkpt>
      <trkpt lat="46.46954" lon="-1.55481">
        <ele>31</ele>
        <time>2019-03-21T14:51:09Z</time>
      </trkpt>
      <trkpt lat="46.46959" lon="-1.55483">
        <ele>31</ele>
        <time>2019-03-21T14:51:11Z</time>
      </trkpt>
      <trkpt lat="46.46963" lon="-1.55484">
        <ele>32</ele>
        <time>2019-03-21T14:51:14Z</time>
      </trkpt>
      <trkpt lat="46.46965" lon="-1.55485">
        <ele>32</ele>
        <time>2019-03-21T14:51:17Z</time>
      </trkpt>
      <trkpt lat="46.4697" lon="-1.55486">
        <ele>32</ele>
        <time>2019-03-21T14:51:19Z</time>
      </trkpt>
      <trkpt lat="46.46973" lon="-1.55487">
        <ele>32</ele>
        <time>2019-03-21T14:51:22Z</time>
      </trkpt>
      <trkpt lat="46.46975" lon="-1.55488">
        <ele>32</ele>
        <time>2019-03-21T14:51:25Z</time>
      </trkpt>
      <trkpt lat="46.46979" lon="-1.55489">
        <ele>32</ele>
        <time>2019-03-21T14:51:27Z</time>
      </trkpt>
      <trkpt lat="46.46983" lon="-1.55489">
        <ele>32</ele>
        <time>2019-03-21T14:51:30Z</time>
      </trkpt>
      <trkpt lat="46.46985" lon="-1.55489">
        <ele>32</ele>
        <time>2019-03-21T14:51:33Z</time>
      </trkpt>
      <trkpt lat="46.46989" lon="-1.55488">
        <ele>32</ele>
        <time>2019-03-21T14:51:35Z</time>
      </trkpt>
      <trkpt lat="46.46993" lon="-1.55489">
        <ele>32</ele>
        <time>2019-03-21T14:51:38Z</time>
      </trkpt>
      <trkpt lat="46.46995" lon="-1.55489">
        <ele>32</ele>
        <time>2019-03-21T14:51:41Z</time>
      </trkpt>
      <trkpt lat="46.46999" lon="-1.55489">
        <ele>32</ele>
        <time>2019-03-21T14:51:43Z</time>
      </trkpt>
      <trkpt lat="46.47004" lon="-1.55489">
        <ele>33</ele>
        <time>2019-03-21T14:51:46Z</time>
      </trkpt>
      <trkpt lat="46.47006" lon="-1.55489">
        <ele>33</ele>
        <time>2019-03-21T14:51:49Z</time>
      </trkpt>
      <trkpt lat="46.47011" lon="-1.55489">
        <ele>33</ele>
        <time>2019-03-21T14:51:51Z</time>
      </trkpt>
      <trkpt lat="46.47013" lon="-1.55489">
        <ele>33</ele>
        <time>2019-03-21T14:51:54Z</time>
      </trkpt>
      <trkpt lat="46.47017" lon="-1.55488">
        <ele>33</ele>
        <time>2019-03-21T14:51:56Z</time>
      </trkpt>
      <trkpt lat="46.47021" lon="-1.55488">
        <ele>33</ele>
        <time>2019-03-21T14:51:59Z</time>
      </trkpt>
      <trkpt lat="46.47024" lon="-1.55488">
        <ele>33</ele>
        <time>2019-03-21T14:52:02Z</time>
      </trkpt>
      <trkpt lat="46.47028" lon="-1.55488">
        <ele>33</ele>
        <time>2019-03-21T14:52:04Z</time>
      </trkpt>
      <trkpt lat="46.47032" lon="-1.55488">
        <ele>33</ele>
        <time>2019-03-21T14:52:07Z</time>
      </trkpt>
      <trkpt lat="46.47034" lon="-1.55488">
        <ele>33</ele>
        <time>2019-03-21T14:52:10Z</time>
      </trkpt>
      <trkpt lat="46.47038" lon="-1.55488">
        <ele>33</ele>
        <time>2019-03-21T14:52:12Z</time>
      </trkpt>
      <trkpt lat="46.47042" lon="-1.55488">
        <ele>33</ele>
        <time>2019-03-21T14:52:15Z</time>
      </trkpt>
      <trkpt lat="46.47044" lon="-1.55488">
        <ele>33</ele>
        <time>2019-03-21T14:52:18Z</time>
      </trkpt>
      <trkpt lat="46.47048" lon="-1.55488">
        <ele>33</ele>
        <time>2019-03-21T14:52:20Z</time>
      </trkpt>
      <trkpt lat="46.47051" lon="-1.55487">
        <ele>33</ele>
        <time>2019-03-21T14:52:23Z</time>
      </trkpt>
      <trkpt lat="46.47052" lon="-1.55487">
        <ele>33</ele>
        <time>2019-03-21T14:52:26Z</time>
      </trkpt>
      <trkpt lat="46.47054" lon="-1.55489">
        <ele>33</ele>
        <time>2019-03-21T14:52:28Z</time>
      </trkpt>
      <trkpt lat="46.47058" lon="-1.55488">
        <ele>33</ele>
        <time>2019-03-21T14:52:31Z</time>
      </trkpt>
      <trkpt lat="46.47061" lon="-1.55488">
        <ele>33</ele>
        <time>2019-03-21T14:52:34Z</time>
      </trkpt>
      <trkpt lat="46.47066" lon="-1.55488">
        <ele>33</ele>
        <time>2019-03-21T14:52:36Z</time>
      </trkpt>
      <trkpt lat="46.47069" lon="-1.55487">
        <ele>33</ele>
        <time>2019-03-21T14:52:39Z</time>
      </trkpt>
      <trkpt lat="46.47073" lon="-1.55486">
        <ele>33</ele>
        <time>2019-03-21T14:52:42Z</time>
      </trkpt>
      <trkpt lat="46.47077" lon="-1.55486">
        <ele>33</ele>
        <time>2019-03-21T14:52:44Z</time>
      </trkpt>
      <trkpt lat="46.4708" lon="-1.55486">
        <ele>33</ele>
        <time>2019-03-21T14:52:47Z</time>
      </trkpt>
      <trkpt lat="46.47083" lon="-1.55485">
        <ele>33</ele>
        <time>2019-03-21T14:52:49Z</time>
      </trkpt>
      <trkpt lat="46.47084" lon="-1.55486">
        <ele>33</ele>
        <time>2019-03-21T14:52:52Z</time>
      </trkpt>
      <trkpt lat="46.47084" lon="-1.55486">
        <ele>33</ele>
        <time>2019-03-21T14:52:55Z</time>
      </trkpt>
      <trkpt lat="46.47084" lon="-1.55487">
        <ele>33</ele>
        <time>2019-03-21T14:52:57Z</time>
      </trkpt>
      <trkpt lat="46.47084" lon="-1.55486">
        <ele>33</ele>
        <time>2019-03-21T14:53:00Z</time>
      </trkpt>
      <trkpt lat="46.47084" lon="-1.55487">
        <ele>33</ele>
        <time>2019-03-21T14:53:03Z</time>
      </trkpt>
      <trkpt lat="46.47084" lon="-1.55487">
        <ele>33</ele>
        <time>2019-03-21T14:53:05Z</time>
      </trkpt>
      <trkpt lat="46.47085" lon="-1.55488">
        <ele>33</ele>
        <time>2019-03-21T14:53:08Z</time>
      </trkpt>
      <trkpt lat="46.47085" lon="-1.55488">
        <ele>33</ele>
        <time>2019-03-21T14:53:11Z</time>
      </trkpt>
      <trkpt lat="46.47085" lon="-1.55488">
        <ele>33</ele>
        <time>2019-03-21T14:53:13Z</time>
      </trkpt>
      <trkpt lat="46.47085" lon="-1.55488">
        <ele>33</ele>
        <time>2019-03-21T14:53:16Z</time>
      </trkpt>
      <trkpt lat="46.47084" lon="-1.55488">
        <ele>33</ele>
        <time>2019-03-21T14:53:19Z</time>
      </trkpt>
      <trkpt lat="46.47084" lon="-1.55489">
        <ele>33</ele>
        <time>2019-03-21T14:53:21Z</time>
      </trkpt>
      <trkpt lat="46.47084" lon="-1.55488">
        <ele>33</ele>
        <time>2019-03-21T14:53:24Z</time>
      </trkpt>
      <trkpt lat="46.47085" lon="-1.55488">
        <ele>33</ele>
        <time>2019-03-21T14:53:27Z</time>
      </trkpt>
      <trkpt lat="46.47087" lon="-1.55489">
        <ele>33</ele>
        <time>2019-03-21T14:53:29Z</time>
      </trkpt>
      <trkpt lat="46.47089" lon="-1.55491">
        <ele>33</ele>
        <time>2019-03-21T14:53:32Z</time>
      </trkpt>
      <trkpt lat="46.47089" lon="-1.55491">
        <ele>33</ele>
        <time>2019-03-21T14:53:35Z</time>
      </trkpt>
      <trkpt lat="46.47091" lon="-1.55489">
        <ele>33</ele>
        <time>2019-03-21T14:53:37Z</time>
      </trkpt>
      <trkpt lat="46.47095" lon="-1.55488">
        <ele>33</ele>
        <time>2019-03-21T14:53:40Z</time>
      </trkpt>
      <trkpt lat="46.47097" lon="-1.55488">
        <ele>33</ele>
        <time>2019-03-21T14:53:43Z</time>
      </trkpt>
      <trkpt lat="46.47101" lon="-1.55486">
        <ele>33</ele>
        <time>2019-03-21T14:53:45Z</time>
      </trkpt>
      <trkpt lat="46.47105" lon="-1.55485">
        <ele>33</ele>
        <time>2019-03-21T14:53:48Z</time>
      </trkpt>
      <trkpt lat="46.47107" lon="-1.55484">
        <ele>33</ele>
        <time>2019-03-21T14:53:51Z</time>
      </trkpt>
      <trkpt lat="46.47115" lon="-1.55482">
        <ele>33</ele>
        <time>2019-03-21T14:53:56Z</time>
      </trkpt>
      <trkpt lat="46.47119" lon="-1.55481">
        <ele>33</ele>
        <time>2019-03-21T14:53:59Z</time>
      </trkpt>
      <trkpt lat="46.47121" lon="-1.5548">
        <ele>33</ele>
        <time>2019-03-21T14:54:02Z</time>
      </trkpt>
      <trkpt lat="46.47124" lon="-1.55479">
        <ele>33</ele>
        <time>2019-03-21T14:54:04Z</time>
      </trkpt>
      <trkpt lat="46.47125" lon="-1.5548">
        <ele>33</ele>
        <time>2019-03-21T14:54:07Z</time>
      </trkpt>
      <trkpt lat="46.47125" lon="-1.5548">
        <ele>33</ele>
        <time>2019-03-21T14:54:10Z</time>
      </trkpt>
      <trkpt lat="46.47125" lon="-1.55479">
        <ele>33</ele>
        <time>2019-03-21T14:54:12Z</time>
      </trkpt>
      <trkpt lat="46.47125" lon="-1.55479">
        <ele>33</ele>
        <time>2019-03-21T14:54:15Z</time>
      </trkpt>
      <trkpt lat="46.47126" lon="-1.5548">
        <ele>33</ele>
        <time>2019-03-21T14:54:18Z</time>
      </trkpt>
      <trkpt lat="46.47126" lon="-1.55481">
        <ele>33</ele>
        <time>2019-03-21T14:54:21Z</time>
      </trkpt>
      <trkpt lat="46.47126" lon="-1.55481">
        <ele>33</ele>
        <time>2019-03-21T14:54:23Z</time>
      </trkpt>
      <trkpt lat="46.47126" lon="-1.55481">
        <ele>33</ele>
        <time>2019-03-21T14:54:26Z</time>
      </trkpt>
      <trkpt lat="46.47126" lon="-1.5548">
        <ele>33</ele>
        <time>2019-03-21T14:54:29Z</time>
      </trkpt>
      <trkpt lat="46.47129" lon="-1.55481">
        <ele>33</ele>
        <time>2019-03-21T14:54:31Z</time>
      </trkpt>
      <trkpt lat="46.47129" lon="-1.55484">
        <ele>33</ele>
        <time>2019-03-21T14:54:34Z</time>
      </trkpt>
      <trkpt lat="46.4713" lon="-1.55484">
        <ele>33</ele>
        <time>2019-03-21T14:54:37Z</time>
      </trkpt>
      <trkpt lat="46.47133" lon="-1.55483">
        <ele>33</ele>
        <time>2019-03-21T14:54:39Z</time>
      </trkpt>
      <trkpt lat="46.47134" lon="-1.55482">
        <ele>33</ele>
        <time>2019-03-21T14:54:42Z</time>
      </trkpt>
      <trkpt lat="46.47135" lon="-1.55481">
        <ele>33</ele>
        <time>2019-03-21T14:54:45Z</time>
      </trkpt>
      <trkpt lat="46.47134" lon="-1.55478">
        <ele>33</ele>
        <time>2019-03-21T14:54:47Z</time>
      </trkpt>
      <trkpt lat="46.47135" lon="-1.55474">
        <ele>33</ele>
        <time>2019-03-21T14:54:50Z</time>
      </trkpt>
      <trkpt lat="46.47135" lon="-1.5547">
        <ele>33</ele>
        <time>2019-03-21T14:54:53Z</time>
      </trkpt>
      <trkpt lat="46.47136" lon="-1.55465">
        <ele>33</ele>
        <time>2019-03-21T14:54:55Z</time>
      </trkpt>
      <trkpt lat="46.47136" lon="-1.5546">
        <ele>33</ele>
        <time>2019-03-21T14:54:58Z</time>
      </trkpt>
      <trkpt lat="46.47137" lon="-1.55456">
        <ele>33</ele>
        <time>2019-03-21T14:55:01Z</time>
      </trkpt>
      <trkpt lat="46.47137" lon="-1.55451">
        <ele>33</ele>
        <time>2019-03-21T14:55:03Z</time>
      </trkpt>
      <trkpt lat="46.47138" lon="-1.55445">
        <ele>33</ele>
        <time>2019-03-21T14:55:06Z</time>
      </trkpt>
      <trkpt lat="46.47138" lon="-1.55441">
        <ele>33</ele>
        <time>2019-03-21T14:55:09Z</time>
      </trkpt>
      <trkpt lat="46.47138" lon="-1.55436">
        <ele>33</ele>
        <time>2019-03-21T14:55:11Z</time>
      </trkpt>
      <trkpt lat="46.47138" lon="-1.5543">
        <ele>33</ele>
        <time>2019-03-21T14:55:14Z</time>
      </trkpt>
      <trkpt lat="46.47138" lon="-1.55427">
        <ele>33</ele>
        <time>2019-03-21T14:55:17Z</time>
      </trkpt>
      <trkpt lat="46.47139" lon="-1.55422">
        <ele>33</ele>
        <time>2019-03-21T14:55:20Z</time>
      </trkpt>
      <trkpt lat="46.47139" lon="-1.55418">
        <ele>33</ele>
        <time>2019-03-21T14:55:22Z</time>
      </trkpt>
      <trkpt lat="46.4714" lon="-1.55415">
        <ele>33</ele>
        <time>2019-03-21T14:55:25Z</time>
      </trkpt>
      <trkpt lat="46.4714" lon="-1.55412">
        <ele>33</ele>
        <time>2019-03-21T14:55:28Z</time>
      </trkpt>
      <trkpt lat="46.4714" lon="-1.55407">
        <ele>33</ele>
        <time>2019-03-21T14:55:30Z</time>
      </trkpt>
      <trkpt lat="46.47141" lon="-1.55402">
        <ele>32</ele>
        <time>2019-03-21T14:55:33Z</time>
      </trkpt>
      <trkpt lat="46.47141" lon="-1.55399">
        <ele>32</ele>
        <time>2019-03-21T14:55:36Z</time>
      </trkpt>
      <trkpt lat="46.47142" lon="-1.55395">
        <ele>32</ele>
        <time>2019-03-21T14:55:38Z</time>
      </trkpt>
      <trkpt lat="46.47143" lon="-1.55391">
        <ele>32</ele>
        <time>2019-03-21T14:55:41Z</time>
      </trkpt>
      <trkpt lat="46.47143" lon="-1.55388">
        <ele>32</ele>
        <time>2019-03-21T14:55:44Z</time>
      </trkpt>
      <trkpt lat="46.47144" lon="-1.55384">
        <ele>32</ele>
        <time>2019-03-21T14:55:47Z</time>
      </trkpt>
      <trkpt lat="46.47145" lon="-1.55379">
        <ele>32</ele>
        <time>2019-03-21T14:55:49Z</time>
      </trkpt>
      <trkpt lat="46.47145" lon="-1.55375">
        <ele>32</ele>
        <time>2019-03-21T14:55:52Z</time>
      </trkpt>
      <trkpt lat="46.47145" lon="-1.55371">
        <ele>32</ele>
        <time>2019-03-21T14:55:55Z</time>
      </trkpt>
      <trkpt lat="46.47145" lon="-1.55366">
        <ele>32</ele>
        <time>2019-03-21T14:55:57Z</time>
      </trkpt>
      <trkpt lat="46.47145" lon="-1.55362">
        <ele>32</ele>
        <time>2019-03-21T14:56:00Z</time>
      </trkpt>
      <trkpt lat="46.47145" lon="-1.55358">
        <ele>32</ele>
        <time>2019-03-21T14:56:03Z</time>
      </trkpt>
      <trkpt lat="46.47147" lon="-1.55354">
        <ele>32</ele>
        <time>2019-03-21T14:56:06Z</time>
      </trkpt>
      <trkpt lat="46.47148" lon="-1.55349">
        <ele>32</ele>
        <time>2019-03-21T14:56:08Z</time>
      </trkpt>
      <trkpt lat="46.47148" lon="-1.55344">
        <ele>31</ele>
        <time>2019-03-21T14:56:11Z</time>
      </trkpt>
      <trkpt lat="46.47148" lon="-1.55341">
        <ele>31</ele>
        <time>2019-03-21T14:56:14Z</time>
      </trkpt>
      <trkpt lat="46.47149" lon="-1.55336">
        <ele>31</ele>
        <time>2019-03-21T14:56:16Z</time>
      </trkpt>
      <trkpt lat="46.47148" lon="-1.55332">
        <ele>31</ele>
        <time>2019-03-21T14:56:19Z</time>
      </trkpt>
      <trkpt lat="46.47149" lon="-1.55329">
        <ele>31</ele>
        <time>2019-03-21T14:56:22Z</time>
      </trkpt>
      <trkpt lat="46.4715" lon="-1.55324">
        <ele>31</ele>
        <time>2019-03-21T14:56:24Z</time>
      </trkpt>
      <trkpt lat="46.47151" lon="-1.55319">
        <ele>31</ele>
        <time>2019-03-21T14:56:27Z</time>
      </trkpt>
      <trkpt lat="46.47152" lon="-1.55313">
        <ele>31</ele>
        <time>2019-03-21T14:56:30Z</time>
      </trkpt>
      <trkpt lat="46.47153" lon="-1.5531">
        <ele>31</ele>
        <time>2019-03-21T14:56:33Z</time>
      </trkpt>
      <trkpt lat="46.47153" lon="-1.55305">
        <ele>31</ele>
        <time>2019-03-21T14:56:35Z</time>
      </trkpt>
      <trkpt lat="46.47153" lon="-1.55299">
        <ele>32</ele>
        <time>2019-03-21T14:56:38Z</time>
      </trkpt>
      <trkpt lat="46.47153" lon="-1.55296">
        <ele>32</ele>
        <time>2019-03-21T14:56:41Z</time>
      </trkpt>
      <trkpt lat="46.47154" lon="-1.55291">
        <ele>32</ele>
        <time>2019-03-21T14:56:44Z</time>
      </trkpt>
      <trkpt lat="46.47154" lon="-1.55287">
        <ele>32</ele>
        <time>2019-03-21T14:56:46Z</time>
      </trkpt>
      <trkpt lat="46.47154" lon="-1.55282">
        <ele>32</ele>
        <time>2019-03-21T14:56:49Z</time>
      </trkpt>
      <trkpt lat="46.47154" lon="-1.55279">
        <ele>32</ele>
        <time>2019-03-21T14:56:52Z</time>
      </trkpt>
      <trkpt lat="46.47155" lon="-1.55274">
        <ele>32</ele>
        <time>2019-03-21T14:56:54Z</time>
      </trkpt>
      <trkpt lat="46.47155" lon="-1.55269">
        <ele>32</ele>
        <time>2019-03-21T14:56:57Z</time>
      </trkpt>
      <trkpt lat="46.47156" lon="-1.55261">
        <ele>32</ele>
        <time>2019-03-21T14:57:02Z</time>
      </trkpt>
      <trkpt lat="46.47156" lon="-1.55255">
        <ele>32</ele>
        <time>2019-03-21T14:57:05Z</time>
      </trkpt>
      <trkpt lat="46.47157" lon="-1.55251">
        <ele>32</ele>
        <time>2019-03-21T14:57:08Z</time>
      </trkpt>
      <trkpt lat="46.47158" lon="-1.55246">
        <ele>32</ele>
        <time>2019-03-21T14:57:11Z</time>
      </trkpt>
      <trkpt lat="46.47159" lon="-1.5524">
        <ele>32</ele>
        <time>2019-03-21T14:57:13Z</time>
      </trkpt>
      <trkpt lat="46.4716" lon="-1.55234">
        <ele>32</ele>
        <time>2019-03-21T14:57:16Z</time>
      </trkpt>
      <trkpt lat="46.4716" lon="-1.55231">
        <ele>32</ele>
        <time>2019-03-21T14:57:19Z</time>
      </trkpt>
      <trkpt lat="46.47161" lon="-1.55225">
        <ele>32</ele>
        <time>2019-03-21T14:57:21Z</time>
      </trkpt>
      <trkpt lat="46.47162" lon="-1.5522">
        <ele>32</ele>
        <time>2019-03-21T14:57:24Z</time>
      </trkpt>
      <trkpt lat="46.47163" lon="-1.55216">
        <ele>32</ele>
        <time>2019-03-21T14:57:27Z</time>
      </trkpt>
      <trkpt lat="46.47163" lon="-1.55211">
        <ele>32</ele>
        <time>2019-03-21T14:57:29Z</time>
      </trkpt>
      <trkpt lat="46.47164" lon="-1.55205">
        <ele>32</ele>
        <time>2019-03-21T14:57:32Z</time>
      </trkpt>
      <trkpt lat="46.47165" lon="-1.55201">
        <ele>32</ele>
        <time>2019-03-21T14:57:35Z</time>
      </trkpt>
      <trkpt lat="46.47166" lon="-1.55197">
        <ele>32</ele>
        <time>2019-03-21T14:57:37Z</time>
      </trkpt>
      <trkpt lat="46.47167" lon="-1.55191">
        <ele>32</ele>
        <time>2019-03-21T14:57:40Z</time>
      </trkpt>
      <trkpt lat="46.47167" lon="-1.55187">
        <ele>32</ele>
        <time>2019-03-21T14:57:43Z</time>
      </trkpt>
      <trkpt lat="46.47169" lon="-1.55182">
        <ele>32</ele>
        <time>2019-03-21T14:57:45Z</time>
      </trkpt>
      <trkpt lat="46.47169" lon="-1.55176">
        <ele>32</ele>
        <time>2019-03-21T14:57:48Z</time>
      </trkpt>
      <trkpt lat="46.4717" lon="-1.55173">
        <ele>32</ele>
        <time>2019-03-21T14:57:51Z</time>
      </trkpt>
      <trkpt lat="46.47171" lon="-1.55167">
        <ele>32</ele>
        <time>2019-03-21T14:57:54Z</time>
      </trkpt>
      <trkpt lat="46.47172" lon="-1.55161">
        <ele>32</ele>
        <time>2019-03-21T14:57:56Z</time>
      </trkpt>
      <trkpt lat="46.47172" lon="-1.55157">
        <ele>32</ele>
        <time>2019-03-21T14:57:59Z</time>
      </trkpt>
      <trkpt lat="46.47175" lon="-1.55152">
        <ele>32</ele>
        <time>2019-03-21T14:58:02Z</time>
      </trkpt>
      <trkpt lat="46.47176" lon="-1.55147">
        <ele>32</ele>
        <time>2019-03-21T14:58:04Z</time>
      </trkpt>
      <trkpt lat="46.47176" lon="-1.55141">
        <ele>32</ele>
        <time>2019-03-21T14:58:07Z</time>
      </trkpt>
      <trkpt lat="46.47176" lon="-1.55137">
        <ele>32</ele>
        <time>2019-03-21T14:58:10Z</time>
      </trkpt>
      <trkpt lat="46.47177" lon="-1.55131">
        <ele>32</ele>
        <time>2019-03-21T14:58:12Z</time>
      </trkpt>
      <trkpt lat="46.47177" lon="-1.55126">
        <ele>32</ele>
        <time>2019-03-21T14:58:15Z</time>
      </trkpt>
      <trkpt lat="46.47178" lon="-1.55123">
        <ele>32</ele>
        <time>2019-03-21T14:58:18Z</time>
      </trkpt>
      <trkpt lat="46.47179" lon="-1.55117">
        <ele>32</ele>
        <time>2019-03-21T14:58:20Z</time>
      </trkpt>
      <trkpt lat="46.4718" lon="-1.55113">
        <ele>32</ele>
        <time>2019-03-21T14:58:23Z</time>
      </trkpt>
      <trkpt lat="46.47181" lon="-1.5511">
        <ele>32</ele>
        <time>2019-03-21T14:58:26Z</time>
      </trkpt>
      <trkpt lat="46.47181" lon="-1.55105">
        <ele>32</ele>
        <time>2019-03-21T14:58:28Z</time>
      </trkpt>
      <trkpt lat="46.47181" lon="-1.55099">
        <ele>32</ele>
        <time>2019-03-21T14:58:31Z</time>
      </trkpt>
      <trkpt lat="46.47181" lon="-1.55096">
        <ele>32</ele>
        <time>2019-03-21T14:58:34Z</time>
      </trkpt>
      <trkpt lat="46.47182" lon="-1.5509">
        <ele>32</ele>
        <time>2019-03-21T14:58:37Z</time>
      </trkpt>
      <trkpt lat="46.47182" lon="-1.55086">
        <ele>32</ele>
        <time>2019-03-21T14:58:39Z</time>
      </trkpt>
      <trkpt lat="46.47183" lon="-1.5508">
        <ele>32</ele>
        <time>2019-03-21T14:58:42Z</time>
      </trkpt>
      <trkpt lat="46.47183" lon="-1.55076">
        <ele>33</ele>
        <time>2019-03-21T14:58:45Z</time>
      </trkpt>
      <trkpt lat="46.47183" lon="-1.55071">
        <ele>33</ele>
        <time>2019-03-21T14:58:47Z</time>
      </trkpt>
      <trkpt lat="46.47184" lon="-1.55065">
        <ele>33</ele>
        <time>2019-03-21T14:58:50Z</time>
      </trkpt>
      <trkpt lat="46.47184" lon="-1.55062">
        <ele>33</ele>
        <time>2019-03-21T14:58:53Z</time>
      </trkpt>
      <trkpt lat="46.47185" lon="-1.55057">
        <ele>33</ele>
        <time>2019-03-21T14:58:55Z</time>
      </trkpt>
      <trkpt lat="46.47185" lon="-1.55051">
        <ele>33</ele>
        <time>2019-03-21T14:58:58Z</time>
      </trkpt>
      <trkpt lat="46.47187" lon="-1.55047">
        <ele>33</ele>
        <time>2019-03-21T14:59:01Z</time>
      </trkpt>
      <trkpt lat="46.47187" lon="-1.55042">
        <ele>33</ele>
        <time>2019-03-21T14:59:03Z</time>
      </trkpt>
      <trkpt lat="46.47188" lon="-1.55037">
        <ele>33</ele>
        <time>2019-03-21T14:59:06Z</time>
      </trkpt>
      <trkpt lat="46.47191" lon="-1.55035">
        <ele>33</ele>
        <time>2019-03-21T14:59:09Z</time>
      </trkpt>
      <trkpt lat="46.47192" lon="-1.55032">
        <ele>33</ele>
        <time>2019-03-21T14:59:11Z</time>
      </trkpt>
      <trkpt lat="46.47192" lon="-1.55031">
        <ele>33</ele>
        <time>2019-03-21T14:59:14Z</time>
      </trkpt>
      <trkpt lat="46.47193" lon="-1.55031">
        <ele>33</ele>
        <time>2019-03-21T14:59:17Z</time>
      </trkpt>
      <trkpt lat="46.47193" lon="-1.55031">
        <ele>33</ele>
        <time>2019-03-21T14:59:19Z</time>
      </trkpt>
      <trkpt lat="46.47194" lon="-1.5503">
        <ele>33</ele>
        <time>2019-03-21T14:59:22Z</time>
      </trkpt>
      <trkpt lat="46.47194" lon="-1.5503">
        <ele>33</ele>
        <time>2019-03-21T14:59:25Z</time>
      </trkpt>
      <trkpt lat="46.47194" lon="-1.5503">
        <ele>33</ele>
        <time>2019-03-21T14:59:27Z</time>
      </trkpt>
      <trkpt lat="46.47196" lon="-1.5503">
        <ele>33</ele>
        <time>2019-03-21T14:59:30Z</time>
      </trkpt>
      <trkpt lat="46.47199" lon="-1.55031">
        <ele>33</ele>
        <time>2019-03-21T14:59:33Z</time>
      </trkpt>
      <trkpt lat="46.47201" lon="-1.55031">
        <ele>33</ele>
        <time>2019-03-21T14:59:35Z</time>
      </trkpt>
      <trkpt lat="46.47202" lon="-1.55032">
        <ele>33</ele>
        <time>2019-03-21T14:59:38Z</time>
      </trkpt>
      <trkpt lat="46.47205" lon="-1.55032">
        <ele>33</ele>
        <time>2019-03-21T14:59:41Z</time>
      </trkpt>
      <trkpt lat="46.47206" lon="-1.55032">
        <ele>33</ele>
        <time>2019-03-21T14:59:44Z</time>
      </trkpt>
      <trkpt lat="46.4721" lon="-1.55033">
        <ele>33</ele>
        <time>2019-03-21T14:59:46Z</time>
      </trkpt>
      <trkpt lat="46.47213" lon="-1.55034">
        <ele>33</ele>
        <time>2019-03-21T14:59:49Z</time>
      </trkpt>
      <trkpt lat="46.47215" lon="-1.55035">
        <ele>33</ele>
        <time>2019-03-21T14:59:52Z</time>
      </trkpt>
      <trkpt lat="46.47218" lon="-1.55035">
        <ele>33</ele>
        <time>2019-03-21T14:59:54Z</time>
      </trkpt>
      <trkpt lat="46.47222" lon="-1.55036">
        <ele>34</ele>
        <time>2019-03-21T14:59:57Z</time>
      </trkpt>
      <trkpt lat="46.47225" lon="-1.55036">
        <ele>34</ele>
        <time>2019-03-21T15:00:00Z</time>
      </trkpt>
      <trkpt lat="46.47232" lon="-1.55037">
        <ele>34</ele>
        <time>2019-03-21T15:00:05Z</time>
      </trkpt>
      <trkpt lat="46.47236" lon="-1.55038">
        <ele>34</ele>
        <time>2019-03-21T15:00:08Z</time>
      </trkpt>
      <trkpt lat="46.47239" lon="-1.55039">
        <ele>34</ele>
        <time>2019-03-21T15:00:11Z</time>
      </trkpt>
      <trkpt lat="46.47243" lon="-1.5504">
        <ele>34</ele>
        <time>2019-03-21T15:00:13Z</time>
      </trkpt>
      <trkpt lat="46.47247" lon="-1.55041">
        <ele>34</ele>
        <time>2019-03-21T15:00:16Z</time>
      </trkpt>
      <trkpt lat="46.47249" lon="-1.55042">
        <ele>34</ele>
        <time>2019-03-21T15:00:19Z</time>
      </trkpt>
      <trkpt lat="46.47254" lon="-1.55042">
        <ele>34</ele>
        <time>2019-03-21T15:00:21Z</time>
      </trkpt>
      <trkpt lat="46.47257" lon="-1.55043">
        <ele>34</ele>
        <time>2019-03-21T15:00:24Z</time>
      </trkpt>
      <trkpt lat="46.47259" lon="-1.55044">
        <ele>34</ele>
        <time>2019-03-21T15:00:27Z</time>
      </trkpt>
      <trkpt lat="46.47263" lon="-1.55045">
        <ele>34</ele>
        <time>2019-03-21T15:00:30Z</time>
      </trkpt>
      <trkpt lat="46.47267" lon="-1.55046">
        <ele>34</ele>
        <time>2019-03-21T15:00:32Z</time>
      </trkpt>
      <trkpt lat="46.47271" lon="-1.55048">
        <ele>34</ele>
        <time>2019-03-21T15:00:35Z</time>
      </trkpt>
      <trkpt lat="46.47274" lon="-1.55048">
        <ele>34</ele>
        <time>2019-03-21T15:00:38Z</time>
      </trkpt>
      <trkpt lat="46.47278" lon="-1.55048">
        <ele>33</ele>
        <time>2019-03-21T15:00:40Z</time>
      </trkpt>
      <trkpt lat="46.47281" lon="-1.55049">
        <ele>33</ele>
        <time>2019-03-21T15:00:43Z</time>
      </trkpt>
      <trkpt lat="46.47285" lon="-1.55051">
        <ele>33</ele>
        <time>2019-03-21T15:00:45Z</time>
      </trkpt>
      <trkpt lat="46.4729" lon="-1.55052">
        <ele>33</ele>
        <time>2019-03-21T15:00:48Z</time>
      </trkpt>
      <trkpt lat="46.47292" lon="-1.55054">
        <ele>33</ele>
        <time>2019-03-21T15:00:51Z</time>
      </trkpt>
      <trkpt lat="46.47296" lon="-1.55056">
        <ele>33</ele>
        <time>2019-03-21T15:00:53Z</time>
      </trkpt>
      <trkpt lat="46.47299" lon="-1.55057">
        <ele>33</ele>
        <time>2019-03-21T15:00:56Z</time>
      </trkpt>
      <trkpt lat="46.47301" lon="-1.55058">
        <ele>33</ele>
        <time>2019-03-21T15:00:59Z</time>
      </trkpt>
      <trkpt lat="46.47305" lon="-1.55061">
        <ele>33</ele>
        <time>2019-03-21T15:01:01Z</time>
      </trkpt>
      <trkpt lat="46.47308" lon="-1.55062">
        <ele>33</ele>
        <time>2019-03-21T15:01:04Z</time>
      </trkpt>
      <trkpt lat="46.4731" lon="-1.55065">
        <ele>33</ele>
        <time>2019-03-21T15:01:07Z</time>
      </trkpt>
      <trkpt lat="46.47314" lon="-1.55067">
        <ele>33</ele>
        <time>2019-03-21T15:01:09Z</time>
      </trkpt>
      <trkpt lat="46.47316" lon="-1.55068">
        <ele>33</ele>
        <time>2019-03-21T15:01:12Z</time>
      </trkpt>
      <trkpt lat="46.47319" lon="-1.55071">
        <ele>33</ele>
        <time>2019-03-21T15:01:15Z</time>
      </trkpt>
      <trkpt lat="46.47322" lon="-1.55073">
        <ele>33</ele>
        <time>2019-03-21T15:01:17Z</time>
      </trkpt>
      <trkpt lat="46.47324" lon="-1.55074">
        <ele>33</ele>
        <time>2019-03-21T15:01:20Z</time>
      </trkpt>
      <trkpt lat="46.47328" lon="-1.55076">
        <ele>33</ele>
        <time>2019-03-21T15:01:23Z</time>
      </trkpt>
      <trkpt lat="46.47331" lon="-1.55079">
        <ele>33</ele>
        <time>2019-03-21T15:01:25Z</time>
      </trkpt>
      <trkpt lat="46.47334" lon="-1.55082">
        <ele>33</ele>
        <time>2019-03-21T15:01:28Z</time>
      </trkpt>
      <trkpt lat="46.47337" lon="-1.55083">
        <ele>33</ele>
        <time>2019-03-21T15:01:31Z</time>
      </trkpt>
      <trkpt lat="46.4734" lon="-1.55085">
        <ele>33</ele>
        <time>2019-03-21T15:01:33Z</time>
      </trkpt>
      <trkpt lat="46.47344" lon="-1.55086">
        <ele>33</ele>
        <time>2019-03-21T15:01:36Z</time>
      </trkpt>
      <trkpt lat="46.47346" lon="-1.55088">
        <ele>33</ele>
        <time>2019-03-21T15:01:39Z</time>
      </trkpt>
      <trkpt lat="46.47349" lon="-1.5509">
        <ele>33</ele>
        <time>2019-03-21T15:01:42Z</time>
      </trkpt>
      <trkpt lat="46.47353" lon="-1.55093">
        <ele>33</ele>
        <time>2019-03-21T15:01:44Z</time>
      </trkpt>
      <trkpt lat="46.47355" lon="-1.55094">
        <ele>33</ele>
        <time>2019-03-21T15:01:47Z</time>
      </trkpt>
      <trkpt lat="46.47359" lon="-1.55096">
        <ele>33</ele>
        <time>2019-03-21T15:01:50Z</time>
      </trkpt>
      <trkpt lat="46.47362" lon="-1.55099">
        <ele>33</ele>
        <time>2019-03-21T15:01:52Z</time>
      </trkpt>
      <trkpt lat="46.47364" lon="-1.55102">
        <ele>33</ele>
        <time>2019-03-21T15:01:55Z</time>
      </trkpt>
      <trkpt lat="46.47367" lon="-1.55105">
        <ele>33</ele>
        <time>2019-03-21T15:01:58Z</time>
      </trkpt>
      <trkpt lat="46.4737" lon="-1.55108">
        <ele>33</ele>
        <time>2019-03-21T15:02:00Z</time>
      </trkpt>
      <trkpt lat="46.47373" lon="-1.55112">
        <ele>33</ele>
        <time>2019-03-21T15:02:03Z</time>
      </trkpt>
      <trkpt lat="46.47375" lon="-1.55114">
        <ele>33</ele>
        <time>2019-03-21T15:02:06Z</time>
      </trkpt>
      <trkpt lat="46.47379" lon="-1.55116">
        <ele>33</ele>
        <time>2019-03-21T15:02:08Z</time>
      </trkpt>
      <trkpt lat="46.47383" lon="-1.55119">
        <ele>33</ele>
        <time>2019-03-21T15:02:11Z</time>
      </trkpt>
      <trkpt lat="46.47386" lon="-1.55122">
        <ele>33</ele>
        <time>2019-03-21T15:02:14Z</time>
      </trkpt>
      <trkpt lat="46.4739" lon="-1.55125">
        <ele>33</ele>
        <time>2019-03-21T15:02:16Z</time>
      </trkpt>
      <trkpt lat="46.47393" lon="-1.55127">
        <ele>33</ele>
        <time>2019-03-21T15:02:19Z</time>
      </trkpt>
      <trkpt lat="46.47396" lon="-1.5513">
        <ele>33</ele>
        <time>2019-03-21T15:02:21Z</time>
      </trkpt>
      <trkpt lat="46.474" lon="-1.55133">
        <ele>33</ele>
        <time>2019-03-21T15:02:24Z</time>
      </trkpt>
      <trkpt lat="46.47402" lon="-1.55135">
        <ele>33</ele>
        <time>2019-03-21T15:02:27Z</time>
      </trkpt>
      <trkpt lat="46.47407" lon="-1.55138">
        <ele>33</ele>
        <time>2019-03-21T15:02:29Z</time>
      </trkpt>
      <trkpt lat="46.4741" lon="-1.5514">
        <ele>33</ele>
        <time>2019-03-21T15:02:32Z</time>
      </trkpt>
      <trkpt lat="46.47413" lon="-1.55141">
        <ele>33</ele>
        <time>2019-03-21T15:02:35Z</time>
      </trkpt>
      <trkpt lat="46.47417" lon="-1.55144">
        <ele>33</ele>
        <time>2019-03-21T15:02:37Z</time>
      </trkpt>
      <trkpt lat="46.47421" lon="-1.55147">
        <ele>33</ele>
        <time>2019-03-21T15:02:40Z</time>
      </trkpt>
      <trkpt lat="46.47425" lon="-1.55149">
        <ele>33</ele>
        <time>2019-03-21T15:02:43Z</time>
      </trkpt>
      <trkpt lat="46.47427" lon="-1.5515">
        <ele>33</ele>
        <time>2019-03-21T15:02:46Z</time>
      </trkpt>
      <trkpt lat="46.47431" lon="-1.55152">
        <ele>33</ele>
        <time>2019-03-21T15:02:48Z</time>
      </trkpt>
      <trkpt lat="46.47434" lon="-1.55155">
        <ele>33</ele>
        <time>2019-03-21T15:02:51Z</time>
      </trkpt>
      <trkpt lat="46.47436" lon="-1.55157">
        <ele>33</ele>
        <time>2019-03-21T15:02:54Z</time>
      </trkpt>
      <trkpt lat="46.4744" lon="-1.55159">
        <ele>33</ele>
        <time>2019-03-21T15:02:56Z</time>
      </trkpt>
      <trkpt lat="46.47443" lon="-1.55161">
        <ele>33</ele>
        <time>2019-03-21T15:02:59Z</time>
      </trkpt>
      <trkpt lat="46.47445" lon="-1.55163">
        <ele>33</ele>
        <time>2019-03-21T15:03:02Z</time>
      </trkpt>
      <trkpt lat="46.47449" lon="-1.55165">
        <ele>33</ele>
        <time>2019-03-21T15:03:04Z</time>
      </trkpt>
      <trkpt lat="46.47455" lon="-1.55168">
        <ele>33</ele>
        <time>2019-03-21T15:03:10Z</time>
      </trkpt>
      <trkpt lat="46.47459" lon="-1.5517">
        <ele>32</ele>
        <time>2019-03-21T15:03:13Z</time>
      </trkpt>
      <trkpt lat="46.47463" lon="-1.55173">
        <ele>32</ele>
        <time>2019-03-21T15:03:15Z</time>
      </trkpt>
      <trkpt lat="46.47467" lon="-1.55175">
        <ele>32</ele>
        <time>2019-03-21T15:03:18Z</time>
      </trkpt>
      <trkpt lat="46.47469" lon="-1.55177">
        <ele>32</ele>
        <time>2019-03-21T15:03:21Z</time>
      </trkpt>
      <trkpt lat="46.47472" lon="-1.5518">
        <ele>32</ele>
        <time>2019-03-21T15:03:23Z</time>
      </trkpt>
      <trkpt lat="46.47475" lon="-1.55183">
        <ele>32</ele>
        <time>2019-03-21T15:03:26Z</time>
      </trkpt>
      <trkpt lat="46.4748" lon="-1.55186">
        <ele>31</ele>
        <time>2019-03-21T15:03:29Z</time>
      </trkpt>
      <trkpt lat="46.47482" lon="-1.55187">
        <ele>31</ele>
        <time>2019-03-21T15:03:32Z</time>
      </trkpt>
      <trkpt lat="46.47485" lon="-1.5519">
        <ele>31</ele>
        <time>2019-03-21T15:03:34Z</time>
      </trkpt>
      <trkpt lat="46.47488" lon="-1.55192">
        <ele>31</ele>
        <time>2019-03-21T15:03:37Z</time>
      </trkpt>
      <trkpt lat="46.47489" lon="-1.55193">
        <ele>31</ele>
        <time>2019-03-21T15:03:40Z</time>
      </trkpt>
      <trkpt lat="46.47492" lon="-1.55196">
        <ele>31</ele>
        <time>2019-03-21T15:03:42Z</time>
      </trkpt>
      <trkpt lat="46.47496" lon="-1.55198">
        <ele>31</ele>
        <time>2019-03-21T15:03:45Z</time>
      </trkpt>
      <trkpt lat="46.47498" lon="-1.55199">
        <ele>31</ele>
        <time>2019-03-21T15:03:48Z</time>
      </trkpt>
      <trkpt lat="46.47502" lon="-1.55202">
        <ele>30</ele>
        <time>2019-03-21T15:03:51Z</time>
      </trkpt>
      <trkpt lat="46.47506" lon="-1.55205">
        <ele>30</ele>
        <time>2019-03-21T15:03:53Z</time>
      </trkpt>
      <trkpt lat="46.47509" lon="-1.55207">
        <ele>30</ele>
        <time>2019-03-21T15:03:56Z</time>
      </trkpt>
      <trkpt lat="46.47512" lon="-1.5521">
        <ele>30</ele>
        <time>2019-03-21T15:03:59Z</time>
      </trkpt>
      <trkpt lat="46.47516" lon="-1.55213">
        <ele>30</ele>
        <time>2019-03-21T15:04:01Z</time>
      </trkpt>
      <trkpt lat="46.47519" lon="-1.55215">
        <ele>30</ele>
        <time>2019-03-21T15:04:04Z</time>
      </trkpt>
      <trkpt lat="46.47523" lon="-1.55219">
        <ele>30</ele>
        <time>2019-03-21T15:04:07Z</time>
      </trkpt>
      <trkpt lat="46.47527" lon="-1.55222">
        <ele>30</ele>
        <time>2019-03-21T15:04:09Z</time>
      </trkpt>
      <trkpt lat="46.4753" lon="-1.55226">
        <ele>29</ele>
        <time>2019-03-21T15:04:12Z</time>
      </trkpt>
      <trkpt lat="46.47532" lon="-1.55228">
        <ele>29</ele>
        <time>2019-03-21T15:04:15Z</time>
      </trkpt>
      <trkpt lat="46.47536" lon="-1.55231">
        <ele>29</ele>
        <time>2019-03-21T15:04:17Z</time>
      </trkpt>
      <trkpt lat="46.47539" lon="-1.55234">
        <ele>29</ele>
        <time>2019-03-21T15:04:20Z</time>
      </trkpt>
      <trkpt lat="46.47542" lon="-1.55235">
        <ele>29</ele>
        <time>2019-03-21T15:04:23Z</time>
      </trkpt>
      <trkpt lat="46.47545" lon="-1.55237">
        <ele>29</ele>
        <time>2019-03-21T15:04:25Z</time>
      </trkpt>
      <trkpt lat="46.47547" lon="-1.55239">
        <ele>29</ele>
        <time>2019-03-21T15:04:28Z</time>
      </trkpt>
      <trkpt lat="46.4755" lon="-1.55242">
        <ele>29</ele>
        <time>2019-03-21T15:04:31Z</time>
      </trkpt>
      <trkpt lat="46.47553" lon="-1.55244">
        <ele>29</ele>
        <time>2019-03-21T15:04:33Z</time>
      </trkpt>
      <trkpt lat="46.47557" lon="-1.55246">
        <ele>29</ele>
        <time>2019-03-21T15:04:36Z</time>
      </trkpt>
      <trkpt lat="46.47559" lon="-1.55248">
        <ele>29</ele>
        <time>2019-03-21T15:04:39Z</time>
      </trkpt>
      <trkpt lat="46.47563" lon="-1.5525">
        <ele>29</ele>
        <time>2019-03-21T15:04:41Z</time>
      </trkpt>
      <trkpt lat="46.47567" lon="-1.55252">
        <ele>29</ele>
        <time>2019-03-21T15:04:44Z</time>
      </trkpt>
      <trkpt lat="46.4757" lon="-1.55254">
        <ele>29</ele>
        <time>2019-03-21T15:04:47Z</time>
      </trkpt>
      <trkpt lat="46.47574" lon="-1.55257">
        <ele>29</ele>
        <time>2019-03-21T15:04:49Z</time>
      </trkpt>
      <trkpt lat="46.47578" lon="-1.5526">
        <ele>29</ele>
        <time>2019-03-21T15:04:52Z</time>
      </trkpt>
      <trkpt lat="46.47581" lon="-1.55262">
        <ele>29</ele>
        <time>2019-03-21T15:04:55Z</time>
      </trkpt>
      <trkpt lat="46.47584" lon="-1.55265">
        <ele>29</ele>
        <time>2019-03-21T15:04:57Z</time>
      </trkpt>
      <trkpt lat="46.47588" lon="-1.55268">
        <ele>29</ele>
        <time>2019-03-21T15:05:00Z</time>
      </trkpt>
      <trkpt lat="46.4759" lon="-1.5527">
        <ele>29</ele>
        <time>2019-03-21T15:05:03Z</time>
      </trkpt>
      <trkpt lat="46.47593" lon="-1.55272">
        <ele>29</ele>
        <time>2019-03-21T15:05:05Z</time>
      </trkpt>
      <trkpt lat="46.47595" lon="-1.55273">
        <ele>29</ele>
        <time>2019-03-21T15:05:08Z</time>
      </trkpt>
      <trkpt lat="46.47598" lon="-1.55275">
        <ele>29</ele>
        <time>2019-03-21T15:05:11Z</time>
      </trkpt>
      <trkpt lat="46.476" lon="-1.55276">
        <ele>30</ele>
        <time>2019-03-21T15:05:13Z</time>
      </trkpt>
      <trkpt lat="46.47601" lon="-1.55276">
        <ele>30</ele>
        <time>2019-03-21T15:05:16Z</time>
      </trkpt>
      <trkpt lat="46.47603" lon="-1.55278">
        <ele>30</ele>
        <time>2019-03-21T15:05:18Z</time>
      </trkpt>
      <trkpt lat="46.47605" lon="-1.5528">
        <ele>30</ele>
        <time>2019-03-21T15:05:21Z</time>
      </trkpt>
      <trkpt lat="46.47607" lon="-1.55281">
        <ele>30</ele>
        <time>2019-03-21T15:05:24Z</time>
      </trkpt>
      <trkpt lat="46.4761" lon="-1.55284">
        <ele>30</ele>
        <time>2019-03-21T15:05:26Z</time>
      </trkpt>
      <trkpt lat="46.47614" lon="-1.55288">
        <ele>30</ele>
        <time>2019-03-21T15:05:29Z</time>
      </trkpt>
      <trkpt lat="46.47615" lon="-1.55289">
        <ele>30</ele>
        <time>2019-03-21T15:05:32Z</time>
      </trkpt>
      <trkpt lat="46.47618" lon="-1.55292">
        <ele>30</ele>
        <time>2019-03-21T15:05:34Z</time>
      </trkpt>
      <trkpt lat="46.4762" lon="-1.55293">
        <ele>30</ele>
        <time>2019-03-21T15:05:37Z</time>
      </trkpt>
      <trkpt lat="46.47622" lon="-1.55295">
        <ele>30</ele>
        <time>2019-03-21T15:05:40Z</time>
      </trkpt>
      <trkpt lat="46.47626" lon="-1.55296">
        <ele>30</ele>
        <time>2019-03-21T15:05:42Z</time>
      </trkpt>
      <trkpt lat="46.47629" lon="-1.55298">
        <ele>30</ele>
        <time>2019-03-21T15:05:45Z</time>
      </trkpt>
      <trkpt lat="46.4763" lon="-1.55299">
        <ele>30</ele>
        <time>2019-03-21T15:05:48Z</time>
      </trkpt>
      <trkpt lat="46.47634" lon="-1.55302">
        <ele>30</ele>
        <time>2019-03-21T15:05:50Z</time>
      </trkpt>
      <trkpt lat="46.47638" lon="-1.55304">
        <ele>30</ele>
        <time>2019-03-21T15:05:53Z</time>
      </trkpt>
      <trkpt lat="46.47639" lon="-1.55305">
        <ele>30</ele>
        <time>2019-03-21T15:05:56Z</time>
      </trkpt>
      <trkpt lat="46.47643" lon="-1.55307">
        <ele>30</ele>
        <time>2019-03-21T15:05:58Z</time>
      </trkpt>
      <trkpt lat="46.47647" lon="-1.55308">
        <ele>30</ele>
        <time>2019-03-21T15:06:01Z</time>
      </trkpt>
      <trkpt lat="46.4765" lon="-1.5531">
        <ele>30</ele>
        <time>2019-03-21T15:06:04Z</time>
      </trkpt>
      <trkpt lat="46.47653" lon="-1.55313">
        <ele>30</ele>
        <time>2019-03-21T15:06:06Z</time>
      </trkpt>
      <trkpt lat="46.47655" lon="-1.55315">
        <ele>30</ele>
        <time>2019-03-21T15:06:09Z</time>
      </trkpt>
      <trkpt lat="46.4766" lon="-1.5532">
        <ele>30</ele>
        <time>2019-03-21T15:06:14Z</time>
      </trkpt>
      <trkpt lat="46.47661" lon="-1.55321">
        <ele>30</ele>
        <time>2019-03-21T15:06:17Z</time>
      </trkpt>
      <trkpt lat="46.47664" lon="-1.55322">
        <ele>30</ele>
        <time>2019-03-21T15:06:19Z</time>
      </trkpt>
      <trkpt lat="46.47666" lon="-1.55324">
        <ele>30</ele>
        <time>2019-03-21T15:06:22Z</time>
      </trkpt>
      <trkpt lat="46.47668" lon="-1.55326">
        <ele>30</ele>
        <time>2019-03-21T15:06:25Z</time>
      </trkpt>
      <trkpt lat="46.47671" lon="-1.55328">
        <ele>30</ele>
        <time>2019-03-21T15:06:27Z</time>
      </trkpt>
      <trkpt lat="46.47674" lon="-1.55329">
        <ele>30</ele>
        <time>2019-03-21T15:06:30Z</time>
      </trkpt>
      <trkpt lat="46.47677" lon="-1.55332">
        <ele>30</ele>
        <time>2019-03-21T15:06:32Z</time>
      </trkpt>
      <trkpt lat="46.47681" lon="-1.55335">
        <ele>30</ele>
        <time>2019-03-21T15:06:35Z</time>
      </trkpt>
      <trkpt lat="46.47683" lon="-1.55336">
        <ele>29</ele>
        <time>2019-03-21T15:06:38Z</time>
      </trkpt>
      <trkpt lat="46.47685" lon="-1.55337">
        <ele>29</ele>
        <time>2019-03-21T15:06:40Z</time>
      </trkpt>
      <trkpt lat="46.47688" lon="-1.55338">
        <ele>29</ele>
        <time>2019-03-21T15:06:43Z</time>
      </trkpt>
      <trkpt lat="46.47692" lon="-1.5534">
        <ele>29</ele>
        <time>2019-03-21T15:06:46Z</time>
      </trkpt>
      <trkpt lat="46.47695" lon="-1.55343">
        <ele>29</ele>
        <time>2019-03-21T15:06:48Z</time>
      </trkpt>
      <trkpt lat="46.47698" lon="-1.55345">
        <ele>29</ele>
        <time>2019-03-21T15:06:51Z</time>
      </trkpt>
      <trkpt lat="46.47701" lon="-1.55347">
        <ele>29</ele>
        <time>2019-03-21T15:06:53Z</time>
      </trkpt>
      <trkpt lat="46.47704" lon="-1.55351">
        <ele>29</ele>
        <time>2019-03-21T15:06:56Z</time>
      </trkpt>
      <trkpt lat="46.47707" lon="-1.55353">
        <ele>29</ele>
        <time>2019-03-21T15:06:59Z</time>
      </trkpt>
      <trkpt lat="46.47711" lon="-1.55356">
        <ele>29</ele>
        <time>2019-03-21T15:07:01Z</time>
      </trkpt>
      <trkpt lat="46.47714" lon="-1.55357">
        <ele>29</ele>
        <time>2019-03-21T15:07:04Z</time>
      </trkpt>
      <trkpt lat="46.47719" lon="-1.55359">
        <ele>29</ele>
        <time>2019-03-21T15:07:06Z</time>
      </trkpt>
      <trkpt lat="46.47721" lon="-1.55363">
        <ele>29</ele>
        <time>2019-03-21T15:07:09Z</time>
      </trkpt>
      <trkpt lat="46.47722" lon="-1.55365">
        <ele>29</ele>
        <time>2019-03-21T15:07:12Z</time>
      </trkpt>
      <trkpt lat="46.47723" lon="-1.55366">
        <ele>29</ele>
        <time>2019-03-21T15:07:14Z</time>
      </trkpt>
      <trkpt lat="46.47724" lon="-1.55367">
        <ele>29</ele>
        <time>2019-03-21T15:07:17Z</time>
      </trkpt>
      <trkpt lat="46.47724" lon="-1.55369">
        <ele>29</ele>
        <time>2019-03-21T15:07:20Z</time>
      </trkpt>
      <trkpt lat="46.47724" lon="-1.5537">
        <ele>29</ele>
        <time>2019-03-21T15:07:22Z</time>
      </trkpt>
      <trkpt lat="46.47724" lon="-1.55371">
        <ele>29</ele>
        <time>2019-03-21T15:07:25Z</time>
      </trkpt>
      <trkpt lat="46.47724" lon="-1.55373">
        <ele>29</ele>
        <time>2019-03-21T15:07:27Z</time>
      </trkpt>
      <trkpt lat="46.47724" lon="-1.55375">
        <ele>29</ele>
        <time>2019-03-21T15:07:30Z</time>
      </trkpt>
      <trkpt lat="46.47726" lon="-1.55377">
        <ele>29</ele>
        <time>2019-03-21T15:07:32Z</time>
      </trkpt>
      <trkpt lat="46.47728" lon="-1.55379">
        <ele>29</ele>
        <time>2019-03-21T15:07:35Z</time>
      </trkpt>
      <trkpt lat="46.47728" lon="-1.55381">
        <ele>29</ele>
        <time>2019-03-21T15:07:37Z</time>
      </trkpt>
      <trkpt lat="46.47729" lon="-1.55382">
        <ele>29</ele>
        <time>2019-03-21T15:07:40Z</time>
      </trkpt>
      <trkpt lat="46.47729" lon="-1.55382">
        <ele>29</ele>
        <time>2019-03-21T15:07:43Z</time>
      </trkpt>
      <trkpt lat="46.47729" lon="-1.55384">
        <ele>29</ele>
        <time>2019-03-21T15:07:45Z</time>
      </trkpt>
      <trkpt lat="46.47729" lon="-1.55384">
        <ele>29</ele>
        <time>2019-03-21T15:07:48Z</time>
      </trkpt>
      <trkpt lat="46.47729" lon="-1.55384">
        <ele>29</ele>
        <time>2019-03-21T15:07:50Z</time>
      </trkpt>
      <trkpt lat="46.47729" lon="-1.55384">
        <ele>29</ele>
        <time>2019-03-21T15:07:53Z</time>
      </trkpt>
      <trkpt lat="46.47732" lon="-1.55383">
        <ele>29</ele>
        <time>2019-03-21T15:07:56Z</time>
      </trkpt>
      <trkpt lat="46.47735" lon="-1.55384">
        <ele>29</ele>
        <time>2019-03-21T15:07:58Z</time>
      </trkpt>
      <trkpt lat="46.47739" lon="-1.55385">
        <ele>29</ele>
        <time>2019-03-21T15:08:01Z</time>
      </trkpt>
      <trkpt lat="46.47741" lon="-1.55386">
        <ele>29</ele>
        <time>2019-03-21T15:08:04Z</time>
      </trkpt>
      <trkpt lat="46.47745" lon="-1.55387">
        <ele>29</ele>
        <time>2019-03-21T15:08:06Z</time>
      </trkpt>
      <trkpt lat="46.47747" lon="-1.55388">
        <ele>29</ele>
        <time>2019-03-21T15:08:09Z</time>
      </trkpt>
      <trkpt lat="46.47751" lon="-1.5539">
        <ele>29</ele>
        <time>2019-03-21T15:08:12Z</time>
      </trkpt>
      <trkpt lat="46.47753" lon="-1.55394">
        <ele>29</ele>
        <time>2019-03-21T15:08:14Z</time>
      </trkpt>
      <trkpt lat="46.47754" lon="-1.55395">
        <ele>29</ele>
        <time>2019-03-21T15:08:17Z</time>
      </trkpt>
      <trkpt lat="46.47756" lon="-1.55397">
        <ele>29</ele>
        <time>2019-03-21T15:08:19Z</time>
      </trkpt>
      <trkpt lat="46.47757" lon="-1.55399">
        <ele>29</ele>
        <time>2019-03-21T15:08:22Z</time>
      </trkpt>
      <trkpt lat="46.47758" lon="-1.554">
        <ele>29</ele>
        <time>2019-03-21T15:08:25Z</time>
      </trkpt>
      <trkpt lat="46.47761" lon="-1.55401">
        <ele>29</ele>
        <time>2019-03-21T15:08:27Z</time>
      </trkpt>
      <trkpt lat="46.47764" lon="-1.55404">
        <ele>29</ele>
        <time>2019-03-21T15:08:30Z</time>
      </trkpt>
      <trkpt lat="46.47766" lon="-1.55407">
        <ele>29</ele>
        <time>2019-03-21T15:08:33Z</time>
      </trkpt>
      <trkpt lat="46.47769" lon="-1.5541">
        <ele>29</ele>
        <time>2019-03-21T15:08:35Z</time>
      </trkpt>
      <trkpt lat="46.47771" lon="-1.55412">
        <ele>29</ele>
        <time>2019-03-21T15:08:38Z</time>
      </trkpt>
      <trkpt lat="46.47774" lon="-1.55416">
        <ele>29</ele>
        <time>2019-03-21T15:08:40Z</time>
      </trkpt>
      <trkpt lat="46.47778" lon="-1.55419">
        <ele>28</ele>
        <time>2019-03-21T15:08:43Z</time>
      </trkpt>
      <trkpt lat="46.4778" lon="-1.55421">
        <ele>28</ele>
        <time>2019-03-21T15:08:46Z</time>
      </trkpt>
      <trkpt lat="46.47784" lon="-1.55425">
        <ele>28</ele>
        <time>2019-03-21T15:08:48Z</time>
      </trkpt>
      <trkpt lat="46.47787" lon="-1.55427">
        <ele>28</ele>
        <time>2019-03-21T15:08:51Z</time>
      </trkpt>
      <trkpt lat="46.47791" lon="-1.55431">
        <ele>28</ele>
        <time>2019-03-21T15:08:54Z</time>
      </trkpt>
      <trkpt lat="46.47794" lon="-1.55434">
        <ele>28</ele>
        <time>2019-03-21T15:08:56Z</time>
      </trkpt>
      <trkpt lat="46.47798" lon="-1.55436">
        <ele>28</ele>
        <time>2019-03-21T15:08:59Z</time>
      </trkpt>
      <trkpt lat="46.47802" lon="-1.5544">
        <ele>28</ele>
        <time>2019-03-21T15:09:01Z</time>
      </trkpt>
      <trkpt lat="46.47805" lon="-1.55442">
        <ele>28</ele>
        <time>2019-03-21T15:09:04Z</time>
      </trkpt>
      <trkpt lat="46.47809" lon="-1.55446">
        <ele>28</ele>
        <time>2019-03-21T15:09:07Z</time>
      </trkpt>
      <trkpt lat="46.47813" lon="-1.55449">
        <ele>28</ele>
        <time>2019-03-21T15:09:09Z</time>
      </trkpt>
      <trkpt lat="46.47819" lon="-1.55457">
        <ele>28</ele>
        <time>2019-03-21T15:09:14Z</time>
      </trkpt>
      <trkpt lat="46.47821" lon="-1.5546">
        <ele>28</ele>
        <time>2019-03-21T15:09:17Z</time>
      </trkpt>
      <trkpt lat="46.47823" lon="-1.55465">
        <ele>28</ele>
        <time>2019-03-21T15:09:19Z</time>
      </trkpt>
      <trkpt lat="46.47825" lon="-1.55468">
        <ele>28</ele>
        <time>2019-03-21T15:09:22Z</time>
      </trkpt>
      <trkpt lat="46.47828" lon="-1.55472">
        <ele>28</ele>
        <time>2019-03-21T15:09:25Z</time>
      </trkpt>
      <trkpt lat="46.47831" lon="-1.55476">
        <ele>28</ele>
        <time>2019-03-21T15:09:27Z</time>
      </trkpt>
      <trkpt lat="46.47833" lon="-1.55478">
        <ele>28</ele>
        <time>2019-03-21T15:09:30Z</time>
      </trkpt>
      <trkpt lat="46.47836" lon="-1.55481">
        <ele>28</ele>
        <time>2019-03-21T15:09:32Z</time>
      </trkpt>
      <trkpt lat="46.47838" lon="-1.55482">
        <ele>27</ele>
        <time>2019-03-21T15:09:35Z</time>
      </trkpt>
      <trkpt lat="46.47839" lon="-1.55484">
        <ele>27</ele>
        <time>2019-03-21T15:09:37Z</time>
      </trkpt>
      <trkpt lat="46.47839" lon="-1.55484">
        <ele>27</ele>
        <time>2019-03-21T15:09:40Z</time>
      </trkpt>
      <trkpt lat="46.4784" lon="-1.55485">
        <ele>27</ele>
        <time>2019-03-21T15:09:42Z</time>
      </trkpt>
      <trkpt lat="46.47841" lon="-1.55485">
        <ele>27</ele>
        <time>2019-03-21T15:09:45Z</time>
      </trkpt>
      <trkpt lat="46.47842" lon="-1.55486">
        <ele>27</ele>
        <time>2019-03-21T15:09:48Z</time>
      </trkpt>
      <trkpt lat="46.47842" lon="-1.55485">
        <ele>27</ele>
        <time>2019-03-21T15:09:50Z</time>
      </trkpt>
      <trkpt lat="46.47841" lon="-1.55485">
        <ele>27</ele>
        <time>2019-03-21T15:09:53Z</time>
      </trkpt>
      <trkpt lat="46.47842" lon="-1.55484">
        <ele>27</ele>
        <time>2019-03-21T15:09:55Z</time>
      </trkpt>
      <trkpt lat="46.47843" lon="-1.55484">
        <ele>27</ele>
        <time>2019-03-21T15:09:58Z</time>
      </trkpt>
      <trkpt lat="46.47842" lon="-1.55482">
        <ele>27</ele>
        <time>2019-03-21T15:10:00Z</time>
      </trkpt>
      <trkpt lat="46.47841" lon="-1.5548">
        <ele>28</ele>
        <time>2019-03-21T15:10:03Z</time>
      </trkpt>
      <trkpt lat="46.47841" lon="-1.5548">
        <ele>28</ele>
        <time>2019-03-21T15:10:06Z</time>
      </trkpt>
      <trkpt lat="46.47841" lon="-1.55479">
        <ele>28</ele>
        <time>2019-03-21T15:10:08Z</time>
      </trkpt>
      <trkpt lat="46.47841" lon="-1.55479">
        <ele>28</ele>
        <time>2019-03-21T15:10:11Z</time>
      </trkpt>
      <trkpt lat="46.4784" lon="-1.5548">
        <ele>28</ele>
        <time>2019-03-21T15:10:13Z</time>
      </trkpt>
      <trkpt lat="46.4784" lon="-1.5548">
        <ele>28</ele>
        <time>2019-03-21T15:10:16Z</time>
      </trkpt>
      <trkpt lat="46.4784" lon="-1.5548">
        <ele>28</ele>
        <time>2019-03-21T15:10:18Z</time>
      </trkpt>
      <trkpt lat="46.4784" lon="-1.5548">
        <ele>28</ele>
        <time>2019-03-21T15:10:21Z</time>
      </trkpt>
      <trkpt lat="46.47839" lon="-1.55481">
        <ele>28</ele>
        <time>2019-03-21T15:10:24Z</time>
      </trkpt>
      <trkpt lat="46.47839" lon="-1.5548">
        <ele>28</ele>
        <time>2019-03-21T15:10:26Z</time>
      </trkpt>
      <trkpt lat="46.47838" lon="-1.5548">
        <ele>28</ele>
        <time>2019-03-21T15:10:29Z</time>
      </trkpt>
      <trkpt lat="46.47838" lon="-1.5548">
        <ele>28</ele>
        <time>2019-03-21T15:10:31Z</time>
      </trkpt>
      <trkpt lat="46.47837" lon="-1.5548">
        <ele>28</ele>
        <time>2019-03-21T15:10:34Z</time>
      </trkpt>
      <trkpt lat="46.47837" lon="-1.5548">
        <ele>28</ele>
        <time>2019-03-21T15:10:37Z</time>
      </trkpt>
      <trkpt lat="46.47837" lon="-1.5548">
        <ele>28</ele>
        <time>2019-03-21T15:10:39Z</time>
      </trkpt>
      <trkpt lat="46.47837" lon="-1.55481">
        <ele>28</ele>
        <time>2019-03-21T15:10:42Z</time>
      </trkpt>
      <trkpt lat="46.47837" lon="-1.55481">
        <ele>28</ele>
        <time>2019-03-21T15:10:45Z</time>
      </trkpt>
      <trkpt lat="46.47838" lon="-1.55482">
        <ele>28</ele>
        <time>2019-03-21T15:10:47Z</time>
      </trkpt>
      <trkpt lat="46.47837" lon="-1.55481">
        <ele>28</ele>
        <time>2019-03-21T15:10:50Z</time>
      </trkpt>
      <trkpt lat="46.47838" lon="-1.55482">
        <ele>28</ele>
        <time>2019-03-21T15:10:52Z</time>
      </trkpt>
      <trkpt lat="46.47838" lon="-1.55482">
        <ele>28</ele>
        <time>2019-03-21T15:10:55Z</time>
      </trkpt>
      <trkpt lat="46.47839" lon="-1.55482">
        <ele>27</ele>
        <time>2019-03-21T15:10:58Z</time>
      </trkpt>
      <trkpt lat="46.47838" lon="-1.55482">
        <ele>27</ele>
        <time>2019-03-21T15:11:00Z</time>
      </trkpt>
      <trkpt lat="46.47838" lon="-1.55482">
        <ele>27</ele>
        <time>2019-03-21T15:11:03Z</time>
      </trkpt>
      <trkpt lat="46.47838" lon="-1.55482">
        <ele>28</ele>
        <time>2019-03-21T15:11:06Z</time>
      </trkpt>
      <trkpt lat="46.47838" lon="-1.55481">
        <ele>28</ele>
        <time>2019-03-21T15:11:08Z</time>
      </trkpt>
      <trkpt lat="46.47838" lon="-1.55481">
        <ele>28</ele>
        <time>2019-03-21T15:11:11Z</time>
      </trkpt>
      <trkpt lat="46.47838" lon="-1.5548">
        <ele>28</ele>
        <time>2019-03-21T15:11:14Z</time>
      </trkpt>
      <trkpt lat="46.47837" lon="-1.55479">
        <ele>28</ele>
        <time>2019-03-21T15:11:16Z</time>
      </trkpt>
      <trkpt lat="46.47837" lon="-1.55479">
        <ele>28</ele>
        <time>2019-03-21T15:11:19Z</time>
      </trkpt>
      <trkpt lat="46.47837" lon="-1.55478">
        <ele>28</ele>
        <time>2019-03-21T15:11:21Z</time>
      </trkpt>
      <trkpt lat="46.47837" lon="-1.55478">
        <ele>28</ele>
        <time>2019-03-21T15:11:24Z</time>
      </trkpt>
      <trkpt lat="46.47837" lon="-1.55478">
        <ele>28</ele>
        <time>2019-03-21T15:11:27Z</time>
      </trkpt>
      <trkpt lat="46.47837" lon="-1.55478">
        <ele>28</ele>
        <time>2019-03-21T15:11:29Z</time>
      </trkpt>
      <trkpt lat="46.47837" lon="-1.55478">
        <ele>28</ele>
        <time>2019-03-21T15:11:32Z</time>
      </trkpt>
      <trkpt lat="46.47837" lon="-1.55478">
        <ele>28</ele>
        <time>2019-03-21T15:11:35Z</time>
      </trkpt>
      <trkpt lat="46.47837" lon="-1.55478">
        <ele>28</ele>
        <time>2019-03-21T15:11:37Z</time>
      </trkpt>
      <trkpt lat="46.47837" lon="-1.55478">
        <ele>28</ele>
        <time>2019-03-21T15:11:40Z</time>
      </trkpt>
      <trkpt lat="46.47837" lon="-1.55478">
        <ele>28</ele>
        <time>2019-03-21T15:11:43Z</time>
      </trkpt>
      <trkpt lat="46.47836" lon="-1.55478">
        <ele>28</ele>
        <time>2019-03-21T15:11:45Z</time>
      </trkpt>
      <trkpt lat="46.47836" lon="-1.55479">
        <ele>28</ele>
        <time>2019-03-21T15:11:48Z</time>
      </trkpt>
      <trkpt lat="46.47836" lon="-1.55479">
        <ele>28</ele>
        <time>2019-03-21T15:11:51Z</time>
      </trkpt>
      <trkpt lat="46.47837" lon="-1.5548">
        <ele>28</ele>
        <time>2019-03-21T15:11:53Z</time>
      </trkpt>
      <trkpt lat="46.47837" lon="-1.55478">
        <ele>28</ele>
        <time>2019-03-21T15:11:56Z</time>
      </trkpt>
      <trkpt lat="46.47837" lon="-1.55478">
        <ele>28</ele>
        <time>2019-03-21T15:11:59Z</time>
      </trkpt>
      <trkpt lat="46.47837" lon="-1.55479">
        <ele>28</ele>
        <time>2019-03-21T15:12:02Z</time>
      </trkpt>
      <trkpt lat="46.47837" lon="-1.5548">
        <ele>28</ele>
        <time>2019-03-21T15:12:04Z</time>
      </trkpt>
      <trkpt lat="46.47838" lon="-1.55481">
        <ele>28</ele>
        <time>2019-03-21T15:12:07Z</time>
      </trkpt>
      <trkpt lat="46.4784" lon="-1.55482">
        <ele>27</ele>
        <time>2019-03-21T15:12:10Z</time>
      </trkpt>
      <trkpt lat="46.47841" lon="-1.55481">
        <ele>28</ele>
        <time>2019-03-21T15:12:15Z</time>
      </trkpt>
      <trkpt lat="46.47841" lon="-1.55482">
        <ele>27</ele>
        <time>2019-03-21T15:12:17Z</time>
      </trkpt>
      <trkpt lat="46.47841" lon="-1.55483">
        <ele>27</ele>
        <time>2019-03-21T15:12:20Z</time>
      </trkpt>
      <trkpt lat="46.47841" lon="-1.55483">
        <ele>27</ele>
        <time>2019-03-21T15:12:23Z</time>
      </trkpt>
      <trkpt lat="46.47841" lon="-1.55483">
        <ele>27</ele>
        <time>2019-03-21T15:12:25Z</time>
      </trkpt>
      <trkpt lat="46.47841" lon="-1.55484">
        <ele>27</ele>
        <time>2019-03-21T15:12:28Z</time>
      </trkpt>
      <trkpt lat="46.47842" lon="-1.55486">
        <ele>27</ele>
        <time>2019-03-21T15:12:31Z</time>
      </trkpt>
      <trkpt lat="46.47841" lon="-1.55486">
        <ele>27</ele>
        <time>2019-03-21T15:12:33Z</time>
      </trkpt>
      <trkpt lat="46.47841" lon="-1.55486">
        <ele>27</ele>
        <time>2019-03-21T15:12:36Z</time>
      </trkpt>
      <trkpt lat="46.4784" lon="-1.55486">
        <ele>27</ele>
        <time>2019-03-21T15:12:38Z</time>
      </trkpt>
      <trkpt lat="46.4784" lon="-1.55486">
        <ele>27</ele>
        <time>2019-03-21T15:12:41Z</time>
      </trkpt>
      <trkpt lat="46.4784" lon="-1.55486">
        <ele>27</ele>
        <time>2019-03-21T15:12:44Z</time>
      </trkpt>
      <trkpt lat="46.47841" lon="-1.55487">
        <ele>27</ele>
        <time>2019-03-21T15:12:46Z</time>
      </trkpt>
      <trkpt lat="46.47841" lon="-1.55488">
        <ele>27</ele>
        <time>2019-03-21T15:12:49Z</time>
      </trkpt>
      <trkpt lat="46.4784" lon="-1.55488">
        <ele>27</ele>
        <time>2019-03-21T15:12:52Z</time>
      </trkpt>
      <trkpt lat="46.4784" lon="-1.55489">
        <ele>27</ele>
        <time>2019-03-21T15:12:54Z</time>
      </trkpt>
      <trkpt lat="46.4784" lon="-1.5549">
        <ele>27</ele>
        <time>2019-03-21T15:12:57Z</time>
      </trkpt>
      <trkpt lat="46.47839" lon="-1.5549">
        <ele>27</ele>
        <time>2019-03-21T15:13:00Z</time>
      </trkpt>
      <trkpt lat="46.47839" lon="-1.5549">
        <ele>27</ele>
        <time>2019-03-21T15:13:02Z</time>
      </trkpt>
      <trkpt lat="46.47839" lon="-1.55491">
        <ele>27</ele>
        <time>2019-03-21T15:13:05Z</time>
      </trkpt>
      <trkpt lat="46.47839" lon="-1.55491">
        <ele>27</ele>
        <time>2019-03-21T15:13:08Z</time>
      </trkpt>
      <trkpt lat="46.47839" lon="-1.5549">
        <ele>27</ele>
        <time>2019-03-21T15:13:10Z</time>
      </trkpt>
      <trkpt lat="46.47839" lon="-1.55491">
        <ele>27</ele>
        <time>2019-03-21T15:13:13Z</time>
      </trkpt>
      <trkpt lat="46.47839" lon="-1.55492">
        <ele>27</ele>
        <time>2019-03-21T15:13:16Z</time>
      </trkpt>
      <trkpt lat="46.47839" lon="-1.55492">
        <ele>27</ele>
        <time>2019-03-21T15:13:18Z</time>
      </trkpt>
      <trkpt lat="46.47837" lon="-1.55493">
        <ele>27</ele>
        <time>2019-03-21T15:13:21Z</time>
      </trkpt>
      <trkpt lat="46.47837" lon="-1.55494">
        <ele>27</ele>
        <time>2019-03-21T15:13:24Z</time>
      </trkpt>
      <trkpt lat="46.47837" lon="-1.55494">
        <ele>27</ele>
        <time>2019-03-21T15:13:26Z</time>
      </trkpt>
      <trkpt lat="46.47836" lon="-1.55493">
        <ele>27</ele>
        <time>2019-03-21T15:13:29Z</time>
      </trkpt>
      <trkpt lat="46.47836" lon="-1.55493">
        <ele>27</ele>
        <time>2019-03-21T15:13:32Z</time>
      </trkpt>
      <trkpt lat="46.47836" lon="-1.55494">
        <ele>28</ele>
        <time>2019-03-21T15:13:34Z</time>
      </trkpt>
      <trkpt lat="46.47836" lon="-1.55493">
        <ele>28</ele>
        <time>2019-03-21T15:13:37Z</time>
      </trkpt>
      <trkpt lat="46.47836" lon="-1.55493">
        <ele>28</ele>
        <time>2019-03-21T15:13:40Z</time>
      </trkpt>
      <trkpt lat="46.47835" lon="-1.55493">
        <ele>28</ele>
        <time>2019-03-21T15:13:42Z</time>
      </trkpt>
      <trkpt lat="46.47835" lon="-1.55493">
        <ele>28</ele>
        <time>2019-03-21T15:13:45Z</time>
      </trkpt>
      <trkpt lat="46.47835" lon="-1.55493">
        <ele>28</ele>
        <time>2019-03-21T15:13:48Z</time>
      </trkpt>
      <trkpt lat="46.47835" lon="-1.55493">
        <ele>28</ele>
        <time>2019-03-21T15:13:50Z</time>
      </trkpt>
      <trkpt lat="46.47835" lon="-1.55493">
        <ele>28</ele>
        <time>2019-03-21T15:13:53Z</time>
      </trkpt>
      <trkpt lat="46.47835" lon="-1.55492">
        <ele>28</ele>
        <time>2019-03-21T15:13:55Z</time>
      </trkpt>
      <trkpt lat="46.47834" lon="-1.55492">
        <ele>28</ele>
        <time>2019-03-21T15:13:58Z</time>
      </trkpt>
      <trkpt lat="46.47834" lon="-1.55492">
        <ele>28</ele>
        <time>2019-03-21T15:14:01Z</time>
      </trkpt>
      <trkpt lat="46.47834" lon="-1.55492">
        <ele>28</ele>
        <time>2019-03-21T15:14:03Z</time>
      </trkpt>
      <trkpt lat="46.47834" lon="-1.55491">
        <ele>28</ele>
        <time>2019-03-21T15:14:06Z</time>
      </trkpt>
      <trkpt lat="46.47834" lon="-1.55491">
        <ele>28</ele>
        <time>2019-03-21T15:14:09Z</time>
      </trkpt>
      <trkpt lat="46.47834" lon="-1.55491">
        <ele>28</ele>
        <time>2019-03-21T15:14:11Z</time>
      </trkpt>
      <trkpt lat="46.47835" lon="-1.5549">
        <ele>28</ele>
        <time>2019-03-21T15:14:14Z</time>
      </trkpt>
      <trkpt lat="46.47834" lon="-1.5549">
        <ele>28</ele>
        <time>2019-03-21T15:14:17Z</time>
      </trkpt>
      <trkpt lat="46.47834" lon="-1.55491">
        <ele>28</ele>
        <time>2019-03-21T15:14:19Z</time>
      </trkpt>
      <trkpt lat="46.47834" lon="-1.55492">
        <ele>28</ele>
        <time>2019-03-21T15:14:22Z</time>
      </trkpt>
      <trkpt lat="46.47834" lon="-1.55492">
        <ele>28</ele>
        <time>2019-03-21T15:14:24Z</time>
      </trkpt>
      <trkpt lat="46.47834" lon="-1.55492">
        <ele>28</ele>
        <time>2019-03-21T15:14:27Z</time>
      </trkpt>
      <trkpt lat="46.47834" lon="-1.55493">
        <ele>28</ele>
        <time>2019-03-21T15:14:30Z</time>
      </trkpt>
      <trkpt lat="46.47834" lon="-1.55493">
        <ele>28</ele>
        <time>2019-03-21T15:14:32Z</time>
      </trkpt>
      <trkpt lat="46.47834" lon="-1.55493">
        <ele>28</ele>
        <time>2019-03-21T15:14:35Z</time>
      </trkpt>
      <trkpt lat="46.47835" lon="-1.55493">
        <ele>28</ele>
        <time>2019-03-21T15:14:37Z</time>
      </trkpt>
      <trkpt lat="46.47835" lon="-1.55493">
        <ele>28</ele>
        <time>2019-03-21T15:14:40Z</time>
      </trkpt>
      <trkpt lat="46.47835" lon="-1.55493">
        <ele>28</ele>
        <time>2019-03-21T15:14:43Z</time>
      </trkpt>
      <trkpt lat="46.47835" lon="-1.55493">
        <ele>28</ele>
        <time>2019-03-21T15:14:45Z</time>
      </trkpt>
      <trkpt lat="46.47835" lon="-1.55494">
        <ele>28</ele>
        <time>2019-03-21T15:14:48Z</time>
      </trkpt>
      <trkpt lat="46.47834" lon="-1.55494">
        <ele>28</ele>
        <time>2019-03-21T15:14:50Z</time>
      </trkpt>
      <trkpt lat="46.47834" lon="-1.55494">
        <ele>28</ele>
        <time>2019-03-21T15:14:53Z</time>
      </trkpt>
      <trkpt lat="46.47835" lon="-1.55495">
        <ele>28</ele>
        <time>2019-03-21T15:14:55Z</time>
      </trkpt>
      <trkpt lat="46.47836" lon="-1.55497">
        <ele>27</ele>
        <time>2019-03-21T15:14:58Z</time>
      </trkpt>
      <trkpt lat="46.47839" lon="-1.55498">
        <ele>27</ele>
        <time>2019-03-21T15:15:01Z</time>
      </trkpt>
      <trkpt lat="46.47841" lon="-1.55499">
        <ele>27</ele>
        <time>2019-03-21T15:15:03Z</time>
      </trkpt>
      <trkpt lat="46.47844" lon="-1.55501">
        <ele>27</ele>
        <time>2019-03-21T15:15:06Z</time>
      </trkpt>
      <trkpt lat="46.47847" lon="-1.55504">
        <ele>27</ele>
        <time>2019-03-21T15:15:08Z</time>
      </trkpt>
      <trkpt lat="46.47852" lon="-1.55509">
        <ele>27</ele>
        <time>2019-03-21T15:15:13Z</time>
      </trkpt>
      <trkpt lat="46.47853" lon="-1.5551">
        <ele>27</ele>
        <time>2019-03-21T15:15:16Z</time>
      </trkpt>
      <trkpt lat="46.47857" lon="-1.55513">
        <ele>27</ele>
        <time>2019-03-21T15:15:18Z</time>
      </trkpt>
      <trkpt lat="46.47858" lon="-1.55515">
        <ele>27</ele>
        <time>2019-03-21T15:15:21Z</time>
      </trkpt>
      <trkpt lat="46.47861" lon="-1.55518">
        <ele>26</ele>
        <time>2019-03-21T15:15:23Z</time>
      </trkpt>
      <trkpt lat="46.47865" lon="-1.5552">
        <ele>26</ele>
        <time>2019-03-21T15:15:26Z</time>
      </trkpt>
      <trkpt lat="46.47867" lon="-1.55522">
        <ele>26</ele>
        <time>2019-03-21T15:15:29Z</time>
      </trkpt>
      <trkpt lat="46.4787" lon="-1.55525">
        <ele>26</ele>
        <time>2019-03-21T15:15:31Z</time>
      </trkpt>
      <trkpt lat="46.47872" lon="-1.55527">
        <ele>26</ele>
        <time>2019-03-21T15:15:34Z</time>
      </trkpt>
      <trkpt lat="46.47876" lon="-1.5553">
        <ele>26</ele>
        <time>2019-03-21T15:15:36Z</time>
      </trkpt>
      <trkpt lat="46.47878" lon="-1.55532">
        <ele>26</ele>
        <time>2019-03-21T15:15:39Z</time>
      </trkpt>
      <trkpt lat="46.47881" lon="-1.55534">
        <ele>26</ele>
        <time>2019-03-21T15:15:41Z</time>
      </trkpt>
      <trkpt lat="46.47883" lon="-1.55536">
        <ele>25</ele>
        <time>2019-03-21T15:15:44Z</time>
      </trkpt>
      <trkpt lat="46.47888" lon="-1.55538">
        <ele>25</ele>
        <time>2019-03-21T15:15:46Z</time>
      </trkpt>
      <trkpt lat="46.4789" lon="-1.5554">
        <ele>25</ele>
        <time>2019-03-21T15:15:49Z</time>
      </trkpt>
      <trkpt lat="46.47892" lon="-1.55542">
        <ele>25</ele>
        <time>2019-03-21T15:15:51Z</time>
      </trkpt>
      <trkpt lat="46.47894" lon="-1.55543">
        <ele>25</ele>
        <time>2019-03-21T15:15:54Z</time>
      </trkpt>
      <trkpt lat="46.47898" lon="-1.55546">
        <ele>25</ele>
        <time>2019-03-21T15:15:57Z</time>
      </trkpt>
      <trkpt lat="46.47901" lon="-1.55549">
        <ele>25</ele>
        <time>2019-03-21T15:15:59Z</time>
      </trkpt>
      <trkpt lat="46.47905" lon="-1.55552">
        <ele>25</ele>
        <time>2019-03-21T15:16:02Z</time>
      </trkpt>
      <trkpt lat="46.47908" lon="-1.55554">
        <ele>25</ele>
        <time>2019-03-21T15:16:04Z</time>
      </trkpt>
      <trkpt lat="46.47909" lon="-1.55557">
        <ele>25</ele>
        <time>2019-03-21T15:16:07Z</time>
      </trkpt>
      <trkpt lat="46.47911" lon="-1.5556">
        <ele>25</ele>
        <time>2019-03-21T15:16:09Z</time>
      </trkpt>
      <trkpt lat="46.47914" lon="-1.55562">
        <ele>26</ele>
        <time>2019-03-21T15:16:12Z</time>
      </trkpt>
      <trkpt lat="46.47917" lon="-1.55564">
        <ele>26</ele>
        <time>2019-03-21T15:16:14Z</time>
      </trkpt>
      <trkpt lat="46.47919" lon="-1.55564">
        <ele>26</ele>
        <time>2019-03-21T15:16:17Z</time>
      </trkpt>
      <trkpt lat="46.47923" lon="-1.55566">
        <ele>26</ele>
        <time>2019-03-21T15:16:19Z</time>
      </trkpt>
      <trkpt lat="46.47925" lon="-1.55567">
        <ele>26</ele>
        <time>2019-03-21T15:16:22Z</time>
      </trkpt>
      <trkpt lat="46.47928" lon="-1.55568">
        <ele>26</ele>
        <time>2019-03-21T15:16:25Z</time>
      </trkpt>
      <trkpt lat="46.47929" lon="-1.5557">
        <ele>26</ele>
        <time>2019-03-21T15:16:27Z</time>
      </trkpt>
      <trkpt lat="46.4793" lon="-1.55571">
        <ele>26</ele>
        <time>2019-03-21T15:16:30Z</time>
      </trkpt>
      <trkpt lat="46.47931" lon="-1.55571">
        <ele>26</ele>
        <time>2019-03-21T15:16:32Z</time>
      </trkpt>
      <trkpt lat="46.47932" lon="-1.55571">
        <ele>26</ele>
        <time>2019-03-21T15:16:35Z</time>
      </trkpt>
      <trkpt lat="46.47933" lon="-1.55572">
        <ele>26</ele>
        <time>2019-03-21T15:16:37Z</time>
      </trkpt>
      <trkpt lat="46.47933" lon="-1.55572">
        <ele>26</ele>
        <time>2019-03-21T15:16:40Z</time>
      </trkpt>
      <trkpt lat="46.47932" lon="-1.55572">
        <ele>26</ele>
        <time>2019-03-21T15:16:43Z</time>
      </trkpt>
      <trkpt lat="46.47932" lon="-1.55573">
        <ele>26</ele>
        <time>2019-03-21T15:16:45Z</time>
      </trkpt>
      <trkpt lat="46.47933" lon="-1.55573">
        <ele>26</ele>
        <time>2019-03-21T15:16:48Z</time>
      </trkpt>
      <trkpt lat="46.47933" lon="-1.55573">
        <ele>26</ele>
        <time>2019-03-21T15:16:50Z</time>
      </trkpt>
      <trkpt lat="46.47935" lon="-1.55573">
        <ele>26</ele>
        <time>2019-03-21T15:16:53Z</time>
      </trkpt>
      <trkpt lat="46.47938" lon="-1.55574">
        <ele>26</ele>
        <time>2019-03-21T15:16:55Z</time>
      </trkpt>
      <trkpt lat="46.47939" lon="-1.55574">
        <ele>26</ele>
        <time>2019-03-21T15:16:58Z</time>
      </trkpt>
      <trkpt lat="46.4794" lon="-1.55574">
        <ele>26</ele>
        <time>2019-03-21T15:17:01Z</time>
      </trkpt>
      <trkpt lat="46.47942" lon="-1.55575">
        <ele>26</ele>
        <time>2019-03-21T15:17:03Z</time>
      </trkpt>
      <trkpt lat="46.47944" lon="-1.55576">
        <ele>26</ele>
        <time>2019-03-21T15:17:06Z</time>
      </trkpt>
      <trkpt lat="46.47946" lon="-1.55576">
        <ele>26</ele>
        <time>2019-03-21T15:17:08Z</time>
      </trkpt>
      <trkpt lat="46.47948" lon="-1.55575">
        <ele>26</ele>
        <time>2019-03-21T15:17:11Z</time>
      </trkpt>
      <trkpt lat="46.4795" lon="-1.55575">
        <ele>26</ele>
        <time>2019-03-21T15:17:13Z</time>
      </trkpt>
      <trkpt lat="46.47953" lon="-1.55575">
        <ele>26</ele>
        <time>2019-03-21T15:17:16Z</time>
      </trkpt>
      <trkpt lat="46.47954" lon="-1.55575">
        <ele>26</ele>
        <time>2019-03-21T15:17:19Z</time>
      </trkpt>
      <trkpt lat="46.47956" lon="-1.55576">
        <ele>26</ele>
        <time>2019-03-21T15:17:21Z</time>
      </trkpt>
      <trkpt lat="46.47958" lon="-1.55576">
        <ele>26</ele>
        <time>2019-03-21T15:17:24Z</time>
      </trkpt>
      <trkpt lat="46.4796" lon="-1.55576">
        <ele>26</ele>
        <time>2019-03-21T15:17:26Z</time>
      </trkpt>
      <trkpt lat="46.47963" lon="-1.55576">
        <ele>26</ele>
        <time>2019-03-21T15:17:29Z</time>
      </trkpt>
      <trkpt lat="46.47964" lon="-1.55575">
        <ele>26</ele>
        <time>2019-03-21T15:17:32Z</time>
      </trkpt>
      <trkpt lat="46.47966" lon="-1.55575">
        <ele>26</ele>
        <time>2019-03-21T15:17:34Z</time>
      </trkpt>
      <trkpt lat="46.47966" lon="-1.55576">
        <ele>26</ele>
        <time>2019-03-21T15:17:37Z</time>
      </trkpt>
      <trkpt lat="46.47966" lon="-1.55577">
        <ele>27</ele>
        <time>2019-03-21T15:17:39Z</time>
      </trkpt>
      <trkpt lat="46.47966" lon="-1.55578">
        <ele>27</ele>
        <time>2019-03-21T15:17:42Z</time>
      </trkpt>
      <trkpt lat="46.47966" lon="-1.5558">
        <ele>27</ele>
        <time>2019-03-21T15:17:45Z</time>
      </trkpt>
      <trkpt lat="46.47966" lon="-1.55581">
        <ele>27</ele>
        <time>2019-03-21T15:17:47Z</time>
      </trkpt>
      <trkpt lat="46.47965" lon="-1.55582">
        <ele>27</ele>
        <time>2019-03-21T15:17:50Z</time>
      </trkpt>
      <trkpt lat="46.47965" lon="-1.55584">
        <ele>27</ele>
        <time>2019-03-21T15:17:52Z</time>
      </trkpt>
      <trkpt lat="46.47966" lon="-1.55585">
        <ele>27</ele>
        <time>2019-03-21T15:17:55Z</time>
      </trkpt>
      <trkpt lat="46.47965" lon="-1.55585">
        <ele>27</ele>
        <time>2019-03-21T15:17:58Z</time>
      </trkpt>
      <trkpt lat="46.47965" lon="-1.55586">
        <ele>27</ele>
        <time>2019-03-21T15:18:00Z</time>
      </trkpt>
      <trkpt lat="46.47965" lon="-1.55586">
        <ele>27</ele>
        <time>2019-03-21T15:18:03Z</time>
      </trkpt>
      <trkpt lat="46.47965" lon="-1.55588">
        <ele>27</ele>
        <time>2019-03-21T15:18:06Z</time>
      </trkpt>
      <trkpt lat="46.47965" lon="-1.55589">
        <ele>27</ele>
        <time>2019-03-21T15:18:11Z</time>
      </trkpt>
      <trkpt lat="46.47965" lon="-1.55591">
        <ele>27</ele>
        <time>2019-03-21T15:18:14Z</time>
      </trkpt>
      <trkpt lat="46.47965" lon="-1.55591">
        <ele>27</ele>
        <time>2019-03-21T15:18:16Z</time>
      </trkpt>
      <trkpt lat="46.47965" lon="-1.55591">
        <ele>27</ele>
        <time>2019-03-21T15:18:19Z</time>
      </trkpt>
      <trkpt lat="46.47966" lon="-1.55591">
        <ele>27</ele>
        <time>2019-03-21T15:18:22Z</time>
      </trkpt>
      <trkpt lat="46.47968" lon="-1.55591">
        <ele>27</ele>
        <time>2019-03-21T15:18:24Z</time>
      </trkpt>
      <trkpt lat="46.47968" lon="-1.55591">
        <ele>27</ele>
        <time>2019-03-21T15:18:27Z</time>
      </trkpt>
      <trkpt lat="46.47969" lon="-1.55591">
        <ele>27</ele>
        <time>2019-03-21T15:18:30Z</time>
      </trkpt>
      <trkpt lat="46.4797" lon="-1.55591">
        <ele>27</ele>
        <time>2019-03-21T15:18:32Z</time>
      </trkpt>
      <trkpt lat="46.47971" lon="-1.5559">
        <ele>27</ele>
        <time>2019-03-21T15:18:35Z</time>
      </trkpt>
      <trkpt lat="46.47972" lon="-1.5559">
        <ele>27</ele>
        <time>2019-03-21T15:18:37Z</time>
      </trkpt>
      <trkpt lat="46.47972" lon="-1.5559">
        <ele>27</ele>
        <time>2019-03-21T15:18:40Z</time>
      </trkpt>
      <trkpt lat="46.47973" lon="-1.55589">
        <ele>27</ele>
        <time>2019-03-21T15:18:43Z</time>
      </trkpt>
      <trkpt lat="46.47974" lon="-1.55589">
        <ele>27</ele>
        <time>2019-03-21T15:18:45Z</time>
      </trkpt>
      <trkpt lat="46.47974" lon="-1.55588">
        <ele>27</ele>
        <time>2019-03-21T15:18:48Z</time>
      </trkpt>
      <trkpt lat="46.47975" lon="-1.55588">
        <ele>27</ele>
        <time>2019-03-21T15:18:50Z</time>
      </trkpt>
      <trkpt lat="46.47975" lon="-1.55588">
        <ele>27</ele>
        <time>2019-03-21T15:18:53Z</time>
      </trkpt>
      <trkpt lat="46.47975" lon="-1.55588">
        <ele>27</ele>
        <time>2019-03-21T15:18:56Z</time>
      </trkpt>
      <trkpt lat="46.47975" lon="-1.55588">
        <ele>27</ele>
        <time>2019-03-21T15:18:58Z</time>
      </trkpt>
      <trkpt lat="46.47975" lon="-1.55587">
        <ele>27</ele>
        <time>2019-03-21T15:19:01Z</time>
      </trkpt>
      <trkpt lat="46.47976" lon="-1.55587">
        <ele>27</ele>
        <time>2019-03-21T15:19:04Z</time>
      </trkpt>
      <trkpt lat="46.47976" lon="-1.55587">
        <ele>27</ele>
        <time>2019-03-21T15:19:06Z</time>
      </trkpt>
      <trkpt lat="46.47976" lon="-1.55586">
        <ele>27</ele>
        <time>2019-03-21T15:19:09Z</time>
      </trkpt>
      <trkpt lat="46.47976" lon="-1.55586">
        <ele>27</ele>
        <time>2019-03-21T15:19:12Z</time>
      </trkpt>
      <trkpt lat="46.47975" lon="-1.55586">
        <ele>27</ele>
        <time>2019-03-21T15:19:14Z</time>
      </trkpt>
      <trkpt lat="46.47975" lon="-1.55586">
        <ele>27</ele>
        <time>2019-03-21T15:19:17Z</time>
      </trkpt>
      <trkpt lat="46.47974" lon="-1.55585">
        <ele>27</ele>
        <time>2019-03-21T15:19:19Z</time>
      </trkpt>
      <trkpt lat="46.47973" lon="-1.55586">
        <ele>27</ele>
        <time>2019-03-21T15:19:22Z</time>
      </trkpt>
      <trkpt lat="46.47973" lon="-1.55586">
        <ele>27</ele>
        <time>2019-03-21T15:19:24Z</time>
      </trkpt>
      <trkpt lat="46.47972" lon="-1.55587">
        <ele>27</ele>
        <time>2019-03-21T15:19:27Z</time>
      </trkpt>
      <trkpt lat="46.47971" lon="-1.55587">
        <ele>27</ele>
        <time>2019-03-21T15:19:30Z</time>
      </trkpt>
      <trkpt lat="46.4797" lon="-1.55588">
        <ele>27</ele>
        <time>2019-03-21T15:19:32Z</time>
      </trkpt>
      <trkpt lat="46.47969" lon="-1.55588">
        <ele>27</ele>
        <time>2019-03-21T15:19:35Z</time>
      </trkpt>
      <trkpt lat="46.4797" lon="-1.55588">
        <ele>27</ele>
        <time>2019-03-21T15:19:37Z</time>
      </trkpt>
      <trkpt lat="46.47969" lon="-1.55588">
        <ele>27</ele>
        <time>2019-03-21T15:19:40Z</time>
      </trkpt>
      <trkpt lat="46.4797" lon="-1.55589">
        <ele>27</ele>
        <time>2019-03-21T15:19:43Z</time>
      </trkpt>
      <trkpt lat="46.4797" lon="-1.55589">
        <ele>27</ele>
        <time>2019-03-21T15:19:45Z</time>
      </trkpt>
      <trkpt lat="46.4797" lon="-1.55589">
        <ele>27</ele>
        <time>2019-03-21T15:19:48Z</time>
      </trkpt>
      <trkpt lat="46.4797" lon="-1.55589">
        <ele>27</ele>
        <time>2019-03-21T15:19:50Z</time>
      </trkpt>
      <trkpt lat="46.47971" lon="-1.55589">
        <ele>27</ele>
        <time>2019-03-21T15:19:53Z</time>
      </trkpt>
      <trkpt lat="46.47971" lon="-1.55588">
        <ele>27</ele>
        <time>2019-03-21T15:19:55Z</time>
      </trkpt>
      <trkpt lat="46.47972" lon="-1.55588">
        <ele>27</ele>
        <time>2019-03-21T15:19:58Z</time>
      </trkpt>
      <trkpt lat="46.47973" lon="-1.55587">
        <ele>27</ele>
        <time>2019-03-21T15:20:01Z</time>
      </trkpt>
      <trkpt lat="46.47973" lon="-1.55587">
        <ele>27</ele>
        <time>2019-03-21T15:20:03Z</time>
      </trkpt>
      <trkpt lat="46.47973" lon="-1.55587">
        <ele>27</ele>
        <time>2019-03-21T15:20:06Z</time>
      </trkpt>
      <trkpt lat="46.47972" lon="-1.55588">
        <ele>27</ele>
        <time>2019-03-21T15:20:08Z</time>
      </trkpt>
      <trkpt lat="46.47972" lon="-1.55588">
        <ele>27</ele>
        <time>2019-03-21T15:20:11Z</time>
      </trkpt>
      <trkpt lat="46.47972" lon="-1.55588">
        <ele>27</ele>
        <time>2019-03-21T15:20:13Z</time>
      </trkpt>
      <trkpt lat="46.47972" lon="-1.55588">
        <ele>27</ele>
        <time>2019-03-21T15:20:16Z</time>
      </trkpt>
      <trkpt lat="46.47971" lon="-1.55588">
        <ele>27</ele>
        <time>2019-03-21T15:20:19Z</time>
      </trkpt>
      <trkpt lat="46.47971" lon="-1.55589">
        <ele>27</ele>
        <time>2019-03-21T15:20:21Z</time>
      </trkpt>
      <trkpt lat="46.47971" lon="-1.55589">
        <ele>27</ele>
        <time>2019-03-21T15:20:24Z</time>
      </trkpt>
      <trkpt lat="46.4797" lon="-1.55589">
        <ele>27</ele>
        <time>2019-03-21T15:20:26Z</time>
      </trkpt>
      <trkpt lat="46.4797" lon="-1.55589">
        <ele>27</ele>
        <time>2019-03-21T15:20:29Z</time>
      </trkpt>
      <trkpt lat="46.47972" lon="-1.55588">
        <ele>27</ele>
        <time>2019-03-21T15:20:32Z</time>
      </trkpt>
      <trkpt lat="46.47975" lon="-1.55587">
        <ele>27</ele>
        <time>2019-03-21T15:20:34Z</time>
      </trkpt>
      <trkpt lat="46.47977" lon="-1.55585">
        <ele>27</ele>
        <time>2019-03-21T15:20:37Z</time>
      </trkpt>
      <trkpt lat="46.4798" lon="-1.55584">
        <ele>27</ele>
        <time>2019-03-21T15:20:39Z</time>
      </trkpt>
      <trkpt lat="46.47984" lon="-1.55582">
        <ele>27</ele>
        <time>2019-03-21T15:20:42Z</time>
      </trkpt>
      <trkpt lat="46.47986" lon="-1.55581">
        <ele>27</ele>
        <time>2019-03-21T15:20:45Z</time>
      </trkpt>
      <trkpt lat="46.4799" lon="-1.55581">
        <ele>27</ele>
        <time>2019-03-21T15:20:47Z</time>
      </trkpt>
      <trkpt lat="46.47993" lon="-1.5558">
        <ele>27</ele>
        <time>2019-03-21T15:20:50Z</time>
      </trkpt>
      <trkpt lat="46.47996" lon="-1.55578">
        <ele>28</ele>
        <time>2019-03-21T15:20:52Z</time>
      </trkpt>
      <trkpt lat="46.47999" lon="-1.55577">
        <ele>28</ele>
        <time>2019-03-21T15:20:55Z</time>
      </trkpt>
      <trkpt lat="46.48002" lon="-1.55576">
        <ele>28</ele>
        <time>2019-03-21T15:20:57Z</time>
      </trkpt>
      <trkpt lat="46.48005" lon="-1.55575">
        <ele>28</ele>
        <time>2019-03-21T15:21:00Z</time>
      </trkpt>
      <trkpt lat="46.48009" lon="-1.55575">
        <ele>28</ele>
        <time>2019-03-21T15:21:03Z</time>
      </trkpt>
      <trkpt lat="46.48013" lon="-1.55574">
        <ele>28</ele>
        <time>2019-03-21T15:21:05Z</time>
      </trkpt>
      <trkpt lat="46.48019" lon="-1.55572">
        <ele>28</ele>
        <time>2019-03-21T15:21:10Z</time>
      </trkpt>
      <trkpt lat="46.48022" lon="-1.55572">
        <ele>28</ele>
        <time>2019-03-21T15:21:13Z</time>
      </trkpt>
      <trkpt lat="46.48027" lon="-1.55571">
        <ele>29</ele>
        <time>2019-03-21T15:21:15Z</time>
      </trkpt>
      <trkpt lat="46.48029" lon="-1.5557">
        <ele>29</ele>
        <time>2019-03-21T15:21:18Z</time>
      </trkpt>
      <trkpt lat="46.48033" lon="-1.5557">
        <ele>29</ele>
        <time>2019-03-21T15:21:21Z</time>
      </trkpt>
      <trkpt lat="46.48037" lon="-1.55569">
        <ele>29</ele>
        <time>2019-03-21T15:21:23Z</time>
      </trkpt>
      <trkpt lat="46.4804" lon="-1.55568">
        <ele>29</ele>
        <time>2019-03-21T15:21:26Z</time>
      </trkpt>
      <trkpt lat="46.48044" lon="-1.55568">
        <ele>29</ele>
        <time>2019-03-21T15:21:28Z</time>
      </trkpt>
      <trkpt lat="46.48046" lon="-1.55567">
        <ele>29</ele>
        <time>2019-03-21T15:21:31Z</time>
      </trkpt>
      <trkpt lat="46.4805" lon="-1.55566">
        <ele>29</ele>
        <time>2019-03-21T15:21:33Z</time>
      </trkpt>
      <trkpt lat="46.48055" lon="-1.55565">
        <ele>30</ele>
        <time>2019-03-21T15:21:36Z</time>
      </trkpt>
      <trkpt lat="46.48057" lon="-1.55564">
        <ele>30</ele>
        <time>2019-03-21T15:21:39Z</time>
      </trkpt>
      <trkpt lat="46.48062" lon="-1.55562">
        <ele>30</ele>
        <time>2019-03-21T15:21:41Z</time>
      </trkpt>
      <trkpt lat="46.48064" lon="-1.55561">
        <ele>30</ele>
        <time>2019-03-21T15:21:44Z</time>
      </trkpt>
      <trkpt lat="46.48068" lon="-1.55561">
        <ele>30</ele>
        <time>2019-03-21T15:21:47Z</time>
      </trkpt>
      <trkpt lat="46.48072" lon="-1.5556">
        <ele>30</ele>
        <time>2019-03-21T15:21:49Z</time>
      </trkpt>
      <trkpt lat="46.48074" lon="-1.55559">
        <ele>31</ele>
        <time>2019-03-21T15:21:52Z</time>
      </trkpt>
      <trkpt lat="46.48078" lon="-1.55558">
        <ele>31</ele>
        <time>2019-03-21T15:21:54Z</time>
      </trkpt>
      <trkpt lat="46.48081" lon="-1.55557">
        <ele>31</ele>
        <time>2019-03-21T15:21:57Z</time>
      </trkpt>
      <trkpt lat="46.48085" lon="-1.55556">
        <ele>31</ele>
        <time>2019-03-21T15:22:00Z</time>
      </trkpt>
      <trkpt lat="46.48089" lon="-1.55554">
        <ele>31</ele>
        <time>2019-03-21T15:22:02Z</time>
      </trkpt>
      <trkpt lat="46.48091" lon="-1.55554">
        <ele>31</ele>
        <time>2019-03-21T15:22:05Z</time>
      </trkpt>
      <trkpt lat="46.48095" lon="-1.55553">
        <ele>31</ele>
        <time>2019-03-21T15:22:07Z</time>
      </trkpt>
      <trkpt lat="46.48098" lon="-1.55552">
        <ele>31</ele>
        <time>2019-03-21T15:22:10Z</time>
      </trkpt>
      <trkpt lat="46.48102" lon="-1.55551">
        <ele>32</ele>
        <time>2019-03-21T15:22:12Z</time>
      </trkpt>
      <trkpt lat="46.48106" lon="-1.5555">
        <ele>32</ele>
        <time>2019-03-21T15:22:15Z</time>
      </trkpt>
      <trkpt lat="46.48109" lon="-1.55549">
        <ele>32</ele>
        <time>2019-03-21T15:22:18Z</time>
      </trkpt>
      <trkpt lat="46.48113" lon="-1.55548">
        <ele>32</ele>
        <time>2019-03-21T15:22:20Z</time>
      </trkpt>
      <trkpt lat="46.48116" lon="-1.55547">
        <ele>32</ele>
        <time>2019-03-21T15:22:23Z</time>
      </trkpt>
      <trkpt lat="46.48119" lon="-1.55547">
        <ele>32</ele>
        <time>2019-03-21T15:22:26Z</time>
      </trkpt>
      <trkpt lat="46.48122" lon="-1.55545">
        <ele>32</ele>
        <time>2019-03-21T15:22:28Z</time>
      </trkpt>
      <trkpt lat="46.48127" lon="-1.55543">
        <ele>32</ele>
        <time>2019-03-21T15:22:31Z</time>
      </trkpt>
      <trkpt lat="46.4813" lon="-1.55543">
        <ele>32</ele>
        <time>2019-03-21T15:22:34Z</time>
      </trkpt>
      <trkpt lat="46.48134" lon="-1.55543">
        <ele>33</ele>
        <time>2019-03-21T15:22:36Z</time>
      </trkpt>
      <trkpt lat="46.48137" lon="-1.55541">
        <ele>33</ele>
        <time>2019-03-21T15:22:39Z</time>
      </trkpt>
      <trkpt lat="46.48141" lon="-1.5554">
        <ele>33</ele>
        <time>2019-03-21T15:22:41Z</time>
      </trkpt>
      <trkpt lat="46.48145" lon="-1.55539">
        <ele>33</ele>
        <time>2019-03-21T15:22:44Z</time>
      </trkpt>
      <trkpt lat="46.48148" lon="-1.55538">
        <ele>33</ele>
        <time>2019-03-21T15:22:47Z</time>
      </trkpt>
      <trkpt lat="46.48152" lon="-1.55537">
        <ele>33</ele>
        <time>2019-03-21T15:22:49Z</time>
      </trkpt>
      <trkpt lat="46.48156" lon="-1.55536">
        <ele>33</ele>
        <time>2019-03-21T15:22:52Z</time>
      </trkpt>
      <trkpt lat="46.48157" lon="-1.55536">
        <ele>33</ele>
        <time>2019-03-21T15:22:55Z</time>
      </trkpt>
      <trkpt lat="46.48161" lon="-1.55535">
        <ele>33</ele>
        <time>2019-03-21T15:22:57Z</time>
      </trkpt>
      <trkpt lat="46.48163" lon="-1.55534">
        <ele>33</ele>
        <time>2019-03-21T15:23:00Z</time>
      </trkpt>
      <trkpt lat="46.48166" lon="-1.55533">
        <ele>33</ele>
        <time>2019-03-21T15:23:02Z</time>
      </trkpt>
      <trkpt lat="46.48168" lon="-1.55533">
        <ele>33</ele>
        <time>2019-03-21T15:23:05Z</time>
      </trkpt>
      <trkpt lat="46.48173" lon="-1.55533">
        <ele>33</ele>
        <time>2019-03-21T15:23:08Z</time>
      </trkpt>
      <trkpt lat="46.48177" lon="-1.55534">
        <ele>34</ele>
        <time>2019-03-21T15:23:10Z</time>
      </trkpt>
      <trkpt lat="46.48179" lon="-1.55533">
        <ele>34</ele>
        <time>2019-03-21T15:23:13Z</time>
      </trkpt>
      <trkpt lat="46.48182" lon="-1.55532">
        <ele>34</ele>
        <time>2019-03-21T15:23:15Z</time>
      </trkpt>
      <trkpt lat="46.48186" lon="-1.55531">
        <ele>34</ele>
        <time>2019-03-21T15:23:18Z</time>
      </trkpt>
      <trkpt lat="46.48188" lon="-1.5553">
        <ele>34</ele>
        <time>2019-03-21T15:23:21Z</time>
      </trkpt>
      <trkpt lat="46.48192" lon="-1.5553">
        <ele>34</ele>
        <time>2019-03-21T15:23:23Z</time>
      </trkpt>
      <trkpt lat="46.48194" lon="-1.5553">
        <ele>34</ele>
        <time>2019-03-21T15:23:26Z</time>
      </trkpt>
      <trkpt lat="46.48198" lon="-1.55529">
        <ele>34</ele>
        <time>2019-03-21T15:23:28Z</time>
      </trkpt>
      <trkpt lat="46.48201" lon="-1.55529">
        <ele>34</ele>
        <time>2019-03-21T15:23:31Z</time>
      </trkpt>
      <trkpt lat="46.48204" lon="-1.55529">
        <ele>34</ele>
        <time>2019-03-21T15:23:34Z</time>
      </trkpt>
      <trkpt lat="46.48206" lon="-1.55528">
        <ele>34</ele>
        <time>2019-03-21T15:23:36Z</time>
      </trkpt>
      <trkpt lat="46.4821" lon="-1.55527">
        <ele>34</ele>
        <time>2019-03-21T15:23:39Z</time>
      </trkpt>
      <trkpt lat="46.48213" lon="-1.55527">
        <ele>34</ele>
        <time>2019-03-21T15:23:42Z</time>
      </trkpt>
      <trkpt lat="46.48216" lon="-1.55526">
        <ele>34</ele>
        <time>2019-03-21T15:23:44Z</time>
      </trkpt>
      <trkpt lat="46.4822" lon="-1.55525">
        <ele>34</ele>
        <time>2019-03-21T15:23:47Z</time>
      </trkpt>
      <trkpt lat="46.48222" lon="-1.55524">
        <ele>34</ele>
        <time>2019-03-21T15:23:50Z</time>
      </trkpt>
      <trkpt lat="46.48226" lon="-1.55523">
        <ele>34</ele>
        <time>2019-03-21T15:23:52Z</time>
      </trkpt>
      <trkpt lat="46.48231" lon="-1.55523">
        <ele>34</ele>
        <time>2019-03-21T15:23:55Z</time>
      </trkpt>
      <trkpt lat="46.48234" lon="-1.55522">
        <ele>35</ele>
        <time>2019-03-21T15:23:58Z</time>
      </trkpt>
      <trkpt lat="46.48237" lon="-1.55522">
        <ele>35</ele>
        <time>2019-03-21T15:24:00Z</time>
      </trkpt>
      <trkpt lat="46.4824" lon="-1.55521">
        <ele>35</ele>
        <time>2019-03-21T15:24:03Z</time>
      </trkpt>
      <trkpt lat="46.48244" lon="-1.5552">
        <ele>35</ele>
        <time>2019-03-21T15:24:05Z</time>
      </trkpt>
      <trkpt lat="46.48251" lon="-1.5552">
        <ele>35</ele>
        <time>2019-03-21T15:24:11Z</time>
      </trkpt>
      <trkpt lat="46.48255" lon="-1.5552">
        <ele>35</ele>
        <time>2019-03-21T15:24:13Z</time>
      </trkpt>
      <trkpt lat="46.48257" lon="-1.5552">
        <ele>35</ele>
        <time>2019-03-21T15:24:16Z</time>
      </trkpt>
      <trkpt lat="46.48261" lon="-1.5552">
        <ele>35</ele>
        <time>2019-03-21T15:24:19Z</time>
      </trkpt>
      <trkpt lat="46.48265" lon="-1.55519">
        <ele>35</ele>
        <time>2019-03-21T15:24:21Z</time>
      </trkpt>
      <trkpt lat="46.48267" lon="-1.55519">
        <ele>35</ele>
        <time>2019-03-21T15:24:24Z</time>
      </trkpt>
      <trkpt lat="46.48271" lon="-1.55519">
        <ele>35</ele>
        <time>2019-03-21T15:24:26Z</time>
      </trkpt>
      <trkpt lat="46.48274" lon="-1.55518">
        <ele>35</ele>
        <time>2019-03-21T15:24:29Z</time>
      </trkpt>
      <trkpt lat="46.48277" lon="-1.55518">
        <ele>35</ele>
        <time>2019-03-21T15:24:32Z</time>
      </trkpt>
      <trkpt lat="46.48281" lon="-1.55519">
        <ele>35</ele>
        <time>2019-03-21T15:24:34Z</time>
      </trkpt>
      <trkpt lat="46.48283" lon="-1.55518">
        <ele>35</ele>
        <time>2019-03-21T15:24:37Z</time>
      </trkpt>
      <trkpt lat="46.48287" lon="-1.55518">
        <ele>35</ele>
        <time>2019-03-21T15:24:39Z</time>
      </trkpt>
      <trkpt lat="46.48289" lon="-1.55518">
        <ele>35</ele>
        <time>2019-03-21T15:24:42Z</time>
      </trkpt>
      <trkpt lat="46.48293" lon="-1.55519">
        <ele>35</ele>
        <time>2019-03-21T15:24:45Z</time>
      </trkpt>
      <trkpt lat="46.48297" lon="-1.55518">
        <ele>35</ele>
        <time>2019-03-21T15:24:47Z</time>
      </trkpt>
      <trkpt lat="46.48299" lon="-1.55518">
        <ele>35</ele>
        <time>2019-03-21T15:24:50Z</time>
      </trkpt>
      <trkpt lat="46.48303" lon="-1.55518">
        <ele>35</ele>
        <time>2019-03-21T15:24:52Z</time>
      </trkpt>
      <trkpt lat="46.48305" lon="-1.55517">
        <ele>35</ele>
        <time>2019-03-21T15:24:55Z</time>
      </trkpt>
      <trkpt lat="46.48309" lon="-1.55516">
        <ele>35</ele>
        <time>2019-03-21T15:24:57Z</time>
      </trkpt>
      <trkpt lat="46.48314" lon="-1.55516">
        <ele>35</ele>
        <time>2019-03-21T15:25:00Z</time>
      </trkpt>
      <trkpt lat="46.48316" lon="-1.55516">
        <ele>36</ele>
        <time>2019-03-21T15:25:03Z</time>
      </trkpt>
      <trkpt lat="46.4832" lon="-1.55516">
        <ele>36</ele>
        <time>2019-03-21T15:25:05Z</time>
      </trkpt>
      <trkpt lat="46.48322" lon="-1.55516">
        <ele>36</ele>
        <time>2019-03-21T15:25:08Z</time>
      </trkpt>
      <trkpt lat="46.48326" lon="-1.55516">
        <ele>36</ele>
        <time>2019-03-21T15:25:10Z</time>
      </trkpt>
      <trkpt lat="46.48329" lon="-1.55516">
        <ele>36</ele>
        <time>2019-03-21T15:25:13Z</time>
      </trkpt>
      <trkpt lat="46.48333" lon="-1.55516">
        <ele>36</ele>
        <time>2019-03-21T15:25:16Z</time>
      </trkpt>
      <trkpt lat="46.48336" lon="-1.55516">
        <ele>36</ele>
        <time>2019-03-21T15:25:18Z</time>
      </trkpt>
      <trkpt lat="46.48338" lon="-1.55517">
        <ele>35</ele>
        <time>2019-03-21T15:25:21Z</time>
      </trkpt>
      <trkpt lat="46.48343" lon="-1.55518">
        <ele>35</ele>
        <time>2019-03-21T15:25:23Z</time>
      </trkpt>
      <trkpt lat="46.48347" lon="-1.55518">
        <ele>35</ele>
        <time>2019-03-21T15:25:26Z</time>
      </trkpt>
      <trkpt lat="46.48351" lon="-1.55518">
        <ele>35</ele>
        <time>2019-03-21T15:25:28Z</time>
      </trkpt>
      <trkpt lat="46.48354" lon="-1.55517">
        <ele>35</ele>
        <time>2019-03-21T15:25:31Z</time>
      </trkpt>
      <trkpt lat="46.48358" lon="-1.55517">
        <ele>35</ele>
        <time>2019-03-21T15:25:34Z</time>
      </trkpt>
      <trkpt lat="46.48361" lon="-1.55517">
        <ele>35</ele>
        <time>2019-03-21T15:25:36Z</time>
      </trkpt>
      <trkpt lat="46.48364" lon="-1.55517">
        <ele>35</ele>
        <time>2019-03-21T15:25:39Z</time>
      </trkpt>
      <trkpt lat="46.48369" lon="-1.55517">
        <ele>35</ele>
        <time>2019-03-21T15:25:41Z</time>
      </trkpt>
      <trkpt lat="46.48371" lon="-1.55517">
        <ele>35</ele>
        <time>2019-03-21T15:25:44Z</time>
      </trkpt>
      <trkpt lat="46.48374" lon="-1.55517">
        <ele>35</ele>
        <time>2019-03-21T15:25:46Z</time>
      </trkpt>
      <trkpt lat="46.48378" lon="-1.55517">
        <ele>35</ele>
        <time>2019-03-21T15:25:49Z</time>
      </trkpt>
      <trkpt lat="46.4838" lon="-1.55517">
        <ele>36</ele>
        <time>2019-03-21T15:25:52Z</time>
      </trkpt>
      <trkpt lat="46.48383" lon="-1.55518">
        <ele>36</ele>
        <time>2019-03-21T15:25:54Z</time>
      </trkpt>
      <trkpt lat="46.48385" lon="-1.55518">
        <ele>36</ele>
        <time>2019-03-21T15:25:57Z</time>
      </trkpt>
      <trkpt lat="46.48388" lon="-1.55516">
        <ele>36</ele>
        <time>2019-03-21T15:25:59Z</time>
      </trkpt>
      <trkpt lat="46.48389" lon="-1.55516">
        <ele>36</ele>
        <time>2019-03-21T15:26:02Z</time>
      </trkpt>
      <trkpt lat="46.4839" lon="-1.55516">
        <ele>36</ele>
        <time>2019-03-21T15:26:05Z</time>
      </trkpt>
      <trkpt lat="46.48392" lon="-1.55516">
        <ele>36</ele>
        <time>2019-03-21T15:26:07Z</time>
      </trkpt>
      <trkpt lat="46.48392" lon="-1.55516">
        <ele>36</ele>
        <time>2019-03-21T15:26:10Z</time>
      </trkpt>
      <trkpt lat="46.48394" lon="-1.55516">
        <ele>36</ele>
        <time>2019-03-21T15:26:12Z</time>
      </trkpt>
      <trkpt lat="46.48394" lon="-1.55517">
        <ele>36</ele>
        <time>2019-03-21T15:26:15Z</time>
      </trkpt>
      <trkpt lat="46.48394" lon="-1.55517">
        <ele>36</ele>
        <time>2019-03-21T15:26:17Z</time>
      </trkpt>
      <trkpt lat="46.48394" lon="-1.55518">
        <ele>36</ele>
        <time>2019-03-21T15:26:20Z</time>
      </trkpt>
      <trkpt lat="46.48394" lon="-1.55519">
        <ele>36</ele>
        <time>2019-03-21T15:26:23Z</time>
      </trkpt>
      <trkpt lat="46.48395" lon="-1.55519">
        <ele>36</ele>
        <time>2019-03-21T15:26:25Z</time>
      </trkpt>
      <trkpt lat="46.48396" lon="-1.5552">
        <ele>36</ele>
        <time>2019-03-21T15:26:28Z</time>
      </trkpt>
      <trkpt lat="46.48396" lon="-1.5552">
        <ele>36</ele>
        <time>2019-03-21T15:26:30Z</time>
      </trkpt>
      <trkpt lat="46.48398" lon="-1.5552">
        <ele>36</ele>
        <time>2019-03-21T15:26:33Z</time>
      </trkpt>
      <trkpt lat="46.484" lon="-1.55521">
        <ele>36</ele>
        <time>2019-03-21T15:26:35Z</time>
      </trkpt>
      <trkpt lat="46.48401" lon="-1.55521">
        <ele>36</ele>
        <time>2019-03-21T15:26:38Z</time>
      </trkpt>
      <trkpt lat="46.48402" lon="-1.55522">
        <ele>36</ele>
        <time>2019-03-21T15:26:40Z</time>
      </trkpt>
      <trkpt lat="46.48402" lon="-1.55524">
        <ele>36</ele>
        <time>2019-03-21T15:26:43Z</time>
      </trkpt>
      <trkpt lat="46.48404" lon="-1.55526">
        <ele>35</ele>
        <time>2019-03-21T15:26:45Z</time>
      </trkpt>
      <trkpt lat="46.48405" lon="-1.55529">
        <ele>35</ele>
        <time>2019-03-21T15:26:48Z</time>
      </trkpt>
      <trkpt lat="46.48405" lon="-1.55534">
        <ele>35</ele>
        <time>2019-03-21T15:26:51Z</time>
      </trkpt>
      <trkpt lat="46.48406" lon="-1.55538">
        <ele>35</ele>
        <time>2019-03-21T15:26:53Z</time>
      </trkpt>
      <trkpt lat="46.48406" lon="-1.55541">
        <ele>35</ele>
        <time>2019-03-21T15:26:56Z</time>
      </trkpt>
      <trkpt lat="46.48407" lon="-1.55545">
        <ele>35</ele>
        <time>2019-03-21T15:26:58Z</time>
      </trkpt>
      <trkpt lat="46.48407" lon="-1.55548">
        <ele>35</ele>
        <time>2019-03-21T15:27:01Z</time>
      </trkpt>
      <trkpt lat="46.48408" lon="-1.55553">
        <ele>35</ele>
        <time>2019-03-21T15:27:03Z</time>
      </trkpt>
      <trkpt lat="46.4841" lon="-1.55559">
        <ele>35</ele>
        <time>2019-03-21T15:27:09Z</time>
      </trkpt>
      <trkpt lat="46.48412" lon="-1.55564">
        <ele>34</ele>
        <time>2019-03-21T15:27:11Z</time>
      </trkpt>
      <trkpt lat="46.48414" lon="-1.55566">
        <ele>34</ele>
        <time>2019-03-21T15:27:14Z</time>
      </trkpt>
      <trkpt lat="46.48416" lon="-1.5557">
        <ele>34</ele>
        <time>2019-03-21T15:27:16Z</time>
      </trkpt>
      <trkpt lat="46.48417" lon="-1.55571">
        <ele>34</ele>
        <time>2019-03-21T15:27:19Z</time>
      </trkpt>
      <trkpt lat="46.4842" lon="-1.55575">
        <ele>34</ele>
        <time>2019-03-21T15:27:21Z</time>
      </trkpt>
      <trkpt lat="46.48421" lon="-1.55578">
        <ele>33</ele>
        <time>2019-03-21T15:27:24Z</time>
      </trkpt>
      <trkpt lat="46.48424" lon="-1.55582">
        <ele>33</ele>
        <time>2019-03-21T15:27:27Z</time>
      </trkpt>
      <trkpt lat="46.48427" lon="-1.55586">
        <ele>33</ele>
        <time>2019-03-21T15:27:29Z</time>
      </trkpt>
      <trkpt lat="46.48428" lon="-1.55589">
        <ele>33</ele>
        <time>2019-03-21T15:27:32Z</time>
      </trkpt>
      <trkpt lat="46.48429" lon="-1.55594">
        <ele>33</ele>
        <time>2019-03-21T15:27:34Z</time>
      </trkpt>
      <trkpt lat="46.48429" lon="-1.55597">
        <ele>32</ele>
        <time>2019-03-21T15:27:37Z</time>
      </trkpt>
      <trkpt lat="46.48429" lon="-1.55601">
        <ele>32</ele>
        <time>2019-03-21T15:27:39Z</time>
      </trkpt>
      <trkpt lat="46.4843" lon="-1.55604">
        <ele>32</ele>
        <time>2019-03-21T15:27:42Z</time>
      </trkpt>
      <trkpt lat="46.48432" lon="-1.55606">
        <ele>32</ele>
        <time>2019-03-21T15:27:44Z</time>
      </trkpt>
      <trkpt lat="46.48434" lon="-1.55608">
        <ele>31</ele>
        <time>2019-03-21T15:27:47Z</time>
      </trkpt>
      <trkpt lat="46.48436" lon="-1.5561">
        <ele>31</ele>
        <time>2019-03-21T15:27:49Z</time>
      </trkpt>
      <trkpt lat="46.48438" lon="-1.55612">
        <ele>31</ele>
        <time>2019-03-21T15:27:52Z</time>
      </trkpt>
      <trkpt lat="46.4844" lon="-1.55614">
        <ele>31</ele>
        <time>2019-03-21T15:27:55Z</time>
      </trkpt>
      <trkpt lat="46.48443" lon="-1.55617">
        <ele>31</ele>
        <time>2019-03-21T15:27:57Z</time>
      </trkpt>
      <trkpt lat="46.48445" lon="-1.55618">
        <ele>30</ele>
        <time>2019-03-21T15:28:00Z</time>
      </trkpt>
      <trkpt lat="46.48448" lon="-1.55621">
        <ele>30</ele>
        <time>2019-03-21T15:28:02Z</time>
      </trkpt>
      <trkpt lat="46.4845" lon="-1.55622">
        <ele>30</ele>
        <time>2019-03-21T15:28:05Z</time>
      </trkpt>
      <trkpt lat="46.48453" lon="-1.55625">
        <ele>29</ele>
        <time>2019-03-21T15:28:07Z</time>
      </trkpt>
      <trkpt lat="46.48454" lon="-1.55626">
        <ele>29</ele>
        <time>2019-03-21T15:28:10Z</time>
      </trkpt>
      <trkpt lat="46.48456" lon="-1.55628">
        <ele>29</ele>
        <time>2019-03-21T15:28:12Z</time>
      </trkpt>
      <trkpt lat="46.48458" lon="-1.5563">
        <ele>28</ele>
        <time>2019-03-21T15:28:15Z</time>
      </trkpt>
      <trkpt lat="46.48461" lon="-1.55632">
        <ele>28</ele>
        <time>2019-03-21T15:28:17Z</time>
      </trkpt>
      <trkpt lat="46.48463" lon="-1.55634">
        <ele>28</ele>
        <time>2019-03-21T15:28:20Z</time>
      </trkpt>
      <trkpt lat="46.48464" lon="-1.55635">
        <ele>28</ele>
        <time>2019-03-21T15:28:23Z</time>
      </trkpt>
      <trkpt lat="46.48463" lon="-1.55636">
        <ele>28</ele>
        <time>2019-03-21T15:28:25Z</time>
      </trkpt>
      <trkpt lat="46.48466" lon="-1.55636">
        <ele>28</ele>
        <time>2019-03-21T15:28:28Z</time>
      </trkpt>
      <trkpt lat="46.48467" lon="-1.55637">
        <ele>27</ele>
        <time>2019-03-21T15:28:30Z</time>
      </trkpt>
      <trkpt lat="46.48467" lon="-1.55638">
        <ele>27</ele>
        <time>2019-03-21T15:28:33Z</time>
      </trkpt>
      <trkpt lat="46.48469" lon="-1.55638">
        <ele>27</ele>
        <time>2019-03-21T15:28:36Z</time>
      </trkpt>
      <trkpt lat="46.48471" lon="-1.55639">
        <ele>27</ele>
        <time>2019-03-21T15:28:38Z</time>
      </trkpt>
      <trkpt lat="46.48471" lon="-1.55639">
        <ele>27</ele>
        <time>2019-03-21T15:28:41Z</time>
      </trkpt>
      <trkpt lat="46.48473" lon="-1.55639">
        <ele>27</ele>
        <time>2019-03-21T15:28:43Z</time>
      </trkpt>
      <trkpt lat="46.48475" lon="-1.55638">
        <ele>26</ele>
        <time>2019-03-21T15:28:46Z</time>
      </trkpt>
      <trkpt lat="46.48477" lon="-1.55638">
        <ele>26</ele>
        <time>2019-03-21T15:28:49Z</time>
      </trkpt>
      <trkpt lat="46.4848" lon="-1.55637">
        <ele>26</ele>
        <time>2019-03-21T15:28:51Z</time>
      </trkpt>
      <trkpt lat="46.48483" lon="-1.55637">
        <ele>26</ele>
        <time>2019-03-21T15:28:54Z</time>
      </trkpt>
      <trkpt lat="46.48485" lon="-1.55637">
        <ele>26</ele>
        <time>2019-03-21T15:28:56Z</time>
      </trkpt>
      <trkpt lat="46.48488" lon="-1.55636">
        <ele>26</ele>
        <time>2019-03-21T15:28:59Z</time>
      </trkpt>
      <trkpt lat="46.48491" lon="-1.55635">
        <ele>26</ele>
        <time>2019-03-21T15:29:01Z</time>
      </trkpt>
      <trkpt lat="46.48494" lon="-1.55634">
        <ele>26</ele>
        <time>2019-03-21T15:29:04Z</time>
      </trkpt>
      <trkpt lat="46.48497" lon="-1.55633">
        <ele>26</ele>
        <time>2019-03-21T15:29:07Z</time>
      </trkpt>
      <trkpt lat="46.48501" lon="-1.55633">
        <ele>26</ele>
        <time>2019-03-21T15:29:09Z</time>
      </trkpt>
      <trkpt lat="46.48503" lon="-1.55632">
        <ele>26</ele>
        <time>2019-03-21T15:29:12Z</time>
      </trkpt>
      <trkpt lat="46.48507" lon="-1.5563">
        <ele>26</ele>
        <time>2019-03-21T15:29:14Z</time>
      </trkpt>
      <trkpt lat="46.48509" lon="-1.55628">
        <ele>26</ele>
        <time>2019-03-21T15:29:17Z</time>
      </trkpt>
      <trkpt lat="46.48512" lon="-1.55625">
        <ele>26</ele>
        <time>2019-03-21T15:29:20Z</time>
      </trkpt>
      <trkpt lat="46.48515" lon="-1.55623">
        <ele>26</ele>
        <time>2019-03-21T15:29:22Z</time>
      </trkpt>
      <trkpt lat="46.48517" lon="-1.5562">
        <ele>26</ele>
        <time>2019-03-21T15:29:25Z</time>
      </trkpt>
      <trkpt lat="46.4852" lon="-1.55618">
        <ele>26</ele>
        <time>2019-03-21T15:29:27Z</time>
      </trkpt>
      <trkpt lat="46.48521" lon="-1.55616">
        <ele>26</ele>
        <time>2019-03-21T15:29:30Z</time>
      </trkpt>
      <trkpt lat="46.48524" lon="-1.55614">
        <ele>26</ele>
        <time>2019-03-21T15:29:33Z</time>
      </trkpt>
      <trkpt lat="46.48527" lon="-1.55611">
        <ele>26</ele>
        <time>2019-03-21T15:29:35Z</time>
      </trkpt>
      <trkpt lat="46.4853" lon="-1.55608">
        <ele>26</ele>
        <time>2019-03-21T15:29:38Z</time>
      </trkpt>
      <trkpt lat="46.48531" lon="-1.55605">
        <ele>26</ele>
        <time>2019-03-21T15:29:41Z</time>
      </trkpt>
      <trkpt lat="46.48533" lon="-1.55601">
        <ele>26</ele>
        <time>2019-03-21T15:29:43Z</time>
      </trkpt>
      <trkpt lat="46.48534" lon="-1.55598">
        <ele>26</ele>
        <time>2019-03-21T15:29:46Z</time>
      </trkpt>
      <trkpt lat="46.48536" lon="-1.55594">
        <ele>27</ele>
        <time>2019-03-21T15:29:49Z</time>
      </trkpt>
      <trkpt lat="46.48538" lon="-1.55589">
        <ele>27</ele>
        <time>2019-03-21T15:29:51Z</time>
      </trkpt>
      <trkpt lat="46.48539" lon="-1.55587">
        <ele>27</ele>
        <time>2019-03-21T15:29:54Z</time>
      </trkpt>
      <trkpt lat="46.48542" lon="-1.55583">
        <ele>27</ele>
        <time>2019-03-21T15:29:56Z</time>
      </trkpt>
      <trkpt lat="46.48543" lon="-1.55582">
        <ele>27</ele>
        <time>2019-03-21T15:29:59Z</time>
      </trkpt>
      <trkpt lat="46.48548" lon="-1.55577">
        <ele>27</ele>
        <time>2019-03-21T15:30:04Z</time>
      </trkpt>
      <trkpt lat="46.48551" lon="-1.55575">
        <ele>28</ele>
        <time>2019-03-21T15:30:07Z</time>
      </trkpt>
      <trkpt lat="46.48554" lon="-1.55574">
        <ele>28</ele>
        <time>2019-03-21T15:30:09Z</time>
      </trkpt>
      <trkpt lat="46.48557" lon="-1.55572">
        <ele>27</ele>
        <time>2019-03-21T15:30:12Z</time>
      </trkpt>
      <trkpt lat="46.4856" lon="-1.5557">
        <ele>27</ele>
        <time>2019-03-21T15:30:14Z</time>
      </trkpt>
      <trkpt lat="46.48562" lon="-1.5557">
        <ele>27</ele>
        <time>2019-03-21T15:30:17Z</time>
      </trkpt>
      <trkpt lat="46.48565" lon="-1.55569">
        <ele>27</ele>
        <time>2019-03-21T15:30:19Z</time>
      </trkpt>
      <trkpt lat="46.48567" lon="-1.55569">
        <ele>27</ele>
        <time>2019-03-21T15:30:22Z</time>
      </trkpt>
      <trkpt lat="46.48571" lon="-1.55568">
        <ele>28</ele>
        <time>2019-03-21T15:30:24Z</time>
      </trkpt>
      <trkpt lat="46.48573" lon="-1.55567">
        <ele>28</ele>
        <time>2019-03-21T15:30:27Z</time>
      </trkpt>
      <trkpt lat="46.48576" lon="-1.55567">
        <ele>28</ele>
        <time>2019-03-21T15:30:30Z</time>
      </trkpt>
      <trkpt lat="46.48579" lon="-1.55566">
        <ele>28</ele>
        <time>2019-03-21T15:30:32Z</time>
      </trkpt>
      <trkpt lat="46.48581" lon="-1.55566">
        <ele>28</ele>
        <time>2019-03-21T15:30:35Z</time>
      </trkpt>
      <trkpt lat="46.48584" lon="-1.55566">
        <ele>28</ele>
        <time>2019-03-21T15:30:37Z</time>
      </trkpt>
      <trkpt lat="46.48587" lon="-1.55566">
        <ele>28</ele>
        <time>2019-03-21T15:30:40Z</time>
      </trkpt>
      <trkpt lat="46.48591" lon="-1.55565">
        <ele>28</ele>
        <time>2019-03-21T15:30:42Z</time>
      </trkpt>
      <trkpt lat="46.48593" lon="-1.55565">
        <ele>28</ele>
        <time>2019-03-21T15:30:45Z</time>
      </trkpt>
      <trkpt lat="46.48597" lon="-1.55564">
        <ele>28</ele>
        <time>2019-03-21T15:30:48Z</time>
      </trkpt>
      <trkpt lat="46.48602" lon="-1.55563">
        <ele>28</ele>
        <time>2019-03-21T15:30:50Z</time>
      </trkpt>
      <trkpt lat="46.48604" lon="-1.55563">
        <ele>28</ele>
        <time>2019-03-21T15:30:53Z</time>
      </trkpt>
      <trkpt lat="46.48608" lon="-1.55562">
        <ele>28</ele>
        <time>2019-03-21T15:30:55Z</time>
      </trkpt>
      <trkpt lat="46.4861" lon="-1.55561">
        <ele>28</ele>
        <time>2019-03-21T15:30:58Z</time>
      </trkpt>
      <trkpt lat="46.48613" lon="-1.55561">
        <ele>28</ele>
        <time>2019-03-21T15:31:00Z</time>
      </trkpt>
      <trkpt lat="46.48615" lon="-1.55562">
        <ele>28</ele>
        <time>2019-03-21T15:31:03Z</time>
      </trkpt>
      <trkpt lat="46.48617" lon="-1.55561">
        <ele>28</ele>
        <time>2019-03-21T15:31:06Z</time>
      </trkpt>
      <trkpt lat="46.4862" lon="-1.55561">
        <ele>28</ele>
        <time>2019-03-21T15:31:08Z</time>
      </trkpt>
      <trkpt lat="46.48622" lon="-1.5556">
        <ele>28</ele>
        <time>2019-03-21T15:31:11Z</time>
      </trkpt>
      <trkpt lat="46.48627" lon="-1.5556">
        <ele>28</ele>
        <time>2019-03-21T15:31:13Z</time>
      </trkpt>
      <trkpt lat="46.48631" lon="-1.5556">
        <ele>27</ele>
        <time>2019-03-21T15:31:16Z</time>
      </trkpt>
      <trkpt lat="46.48634" lon="-1.5556">
        <ele>28</ele>
        <time>2019-03-21T15:31:19Z</time>
      </trkpt>
      <trkpt lat="46.48638" lon="-1.55559">
        <ele>28</ele>
        <time>2019-03-21T15:31:21Z</time>
      </trkpt>
      <trkpt lat="46.48641" lon="-1.55558">
        <ele>28</ele>
        <time>2019-03-21T15:31:24Z</time>
      </trkpt>
      <trkpt lat="46.48644" lon="-1.55557">
        <ele>28</ele>
        <time>2019-03-21T15:31:26Z</time>
      </trkpt>
      <trkpt lat="46.48647" lon="-1.55556">
        <ele>28</ele>
        <time>2019-03-21T15:31:29Z</time>
      </trkpt>
      <trkpt lat="46.48649" lon="-1.55554">
        <ele>28</ele>
        <time>2019-03-21T15:31:32Z</time>
      </trkpt>
      <trkpt lat="46.48653" lon="-1.55552">
        <ele>28</ele>
        <time>2019-03-21T15:31:34Z</time>
      </trkpt>
      <trkpt lat="46.48655" lon="-1.55551">
        <ele>28</ele>
        <time>2019-03-21T15:31:37Z</time>
      </trkpt>
      <trkpt lat="46.48658" lon="-1.55549">
        <ele>28</ele>
        <time>2019-03-21T15:31:40Z</time>
      </trkpt>
      <trkpt lat="46.48662" lon="-1.55547">
        <ele>28</ele>
        <time>2019-03-21T15:31:42Z</time>
      </trkpt>
      <trkpt lat="46.48665" lon="-1.55547">
        <ele>28</ele>
        <time>2019-03-21T15:31:45Z</time>
      </trkpt>
      <trkpt lat="46.48669" lon="-1.55545">
        <ele>28</ele>
        <time>2019-03-21T15:31:47Z</time>
      </trkpt>
      <trkpt lat="46.48671" lon="-1.55543">
        <ele>28</ele>
        <time>2019-03-21T15:31:50Z</time>
      </trkpt>
      <trkpt lat="46.48674" lon="-1.55539">
        <ele>28</ele>
        <time>2019-03-21T15:31:53Z</time>
      </trkpt>
      <trkpt lat="46.48676" lon="-1.55535">
        <ele>28</ele>
        <time>2019-03-21T15:31:55Z</time>
      </trkpt>
      <trkpt lat="46.48678" lon="-1.55533">
        <ele>29</ele>
        <time>2019-03-21T15:31:58Z</time>
      </trkpt>
      <trkpt lat="46.4868" lon="-1.55529">
        <ele>29</ele>
        <time>2019-03-21T15:32:00Z</time>
      </trkpt>
      <trkpt lat="46.48682" lon="-1.55526">
        <ele>28</ele>
        <time>2019-03-21T15:32:03Z</time>
      </trkpt>
      <trkpt lat="46.48684" lon="-1.55522">
        <ele>29</ele>
        <time>2019-03-21T15:32:06Z</time>
      </trkpt>
      <trkpt lat="46.48686" lon="-1.55518">
        <ele>29</ele>
        <time>2019-03-21T15:32:08Z</time>
      </trkpt>
      <trkpt lat="46.48688" lon="-1.55515">
        <ele>30</ele>
        <time>2019-03-21T15:32:11Z</time>
      </trkpt>
      <trkpt lat="46.4869" lon="-1.55511">
        <ele>30</ele>
        <time>2019-03-21T15:32:13Z</time>
      </trkpt>
      <trkpt lat="46.48691" lon="-1.55507">
        <ele>31</ele>
        <time>2019-03-21T15:32:16Z</time>
      </trkpt>
      <trkpt lat="46.48693" lon="-1.55505">
        <ele>30</ele>
        <time>2019-03-21T15:32:19Z</time>
      </trkpt>
      <trkpt lat="46.48696" lon="-1.555">
        <ele>30</ele>
        <time>2019-03-21T15:32:21Z</time>
      </trkpt>
      <trkpt lat="46.48697" lon="-1.55498">
        <ele>31</ele>
        <time>2019-03-21T15:32:24Z</time>
      </trkpt>
      <trkpt lat="46.487" lon="-1.55495">
        <ele>30</ele>
        <time>2019-03-21T15:32:26Z</time>
      </trkpt>
      <trkpt lat="46.48701" lon="-1.55492">
        <ele>30</ele>
        <time>2019-03-21T15:32:29Z</time>
      </trkpt>
      <trkpt lat="46.48703" lon="-1.55488">
        <ele>31</ele>
        <time>2019-03-21T15:32:32Z</time>
      </trkpt>
      <trkpt lat="46.48706" lon="-1.55484">
        <ele>30</ele>
        <time>2019-03-21T15:32:34Z</time>
      </trkpt>
      <trkpt lat="46.48707" lon="-1.55481">
        <ele>30</ele>
        <time>2019-03-21T15:32:37Z</time>
      </trkpt>
      <trkpt lat="46.4871" lon="-1.55478">
        <ele>30</ele>
        <time>2019-03-21T15:32:39Z</time>
      </trkpt>
      <trkpt lat="46.48712" lon="-1.55475">
        <ele>29</ele>
        <time>2019-03-21T15:32:42Z</time>
      </trkpt>
      <trkpt lat="46.48716" lon="-1.55472">
        <ele>30</ele>
        <time>2019-03-21T15:32:44Z</time>
      </trkpt>
      <trkpt lat="46.48718" lon="-1.55469">
        <ele>29</ele>
        <time>2019-03-21T15:32:47Z</time>
      </trkpt>
      <trkpt lat="46.4872" lon="-1.55467">
        <ele>29</ele>
        <time>2019-03-21T15:32:50Z</time>
      </trkpt>
      <trkpt lat="46.48723" lon="-1.55464">
        <ele>29</ele>
        <time>2019-03-21T15:32:52Z</time>
      </trkpt>
      <trkpt lat="46.48725" lon="-1.55462">
        <ele>29</ele>
        <time>2019-03-21T15:32:55Z</time>
      </trkpt>
      <trkpt lat="46.48728" lon="-1.55458">
        <ele>29</ele>
        <time>2019-03-21T15:32:57Z</time>
      </trkpt>
      <trkpt lat="46.48732" lon="-1.55453">
        <ele>29</ele>
        <time>2019-03-21T15:33:02Z</time>
      </trkpt>
      <trkpt lat="46.48733" lon="-1.55451">
        <ele>29</ele>
        <time>2019-03-21T15:33:05Z</time>
      </trkpt>
      <trkpt lat="46.48736" lon="-1.55448">
        <ele>28</ele>
        <time>2019-03-21T15:33:08Z</time>
      </trkpt>
      <trkpt lat="46.48739" lon="-1.55445">
        <ele>28</ele>
        <time>2019-03-21T15:33:10Z</time>
      </trkpt>
      <trkpt lat="46.48742" lon="-1.55443">
        <ele>27</ele>
        <time>2019-03-21T15:33:13Z</time>
      </trkpt>
      <trkpt lat="46.48745" lon="-1.55439">
        <ele>28</ele>
        <time>2019-03-21T15:33:15Z</time>
      </trkpt>
      <trkpt lat="46.48746" lon="-1.55436">
        <ele>27</ele>
        <time>2019-03-21T15:33:18Z</time>
      </trkpt>
      <trkpt lat="46.48748" lon="-1.55431">
        <ele>27</ele>
        <time>2019-03-21T15:33:21Z</time>
      </trkpt>
      <trkpt lat="46.4875" lon="-1.55427">
        <ele>28</ele>
        <time>2019-03-21T15:33:23Z</time>
      </trkpt>
      <trkpt lat="46.48752" lon="-1.55424">
        <ele>28</ele>
        <time>2019-03-21T15:33:26Z</time>
      </trkpt>
      <trkpt lat="46.48753" lon="-1.5542">
        <ele>28</ele>
        <time>2019-03-21T15:33:28Z</time>
      </trkpt>
      <trkpt lat="46.48754" lon="-1.55418">
        <ele>28</ele>
        <time>2019-03-21T15:33:31Z</time>
      </trkpt>
      <trkpt lat="46.48755" lon="-1.55413">
        <ele>29</ele>
        <time>2019-03-21T15:33:33Z</time>
      </trkpt>
      <trkpt lat="46.48756" lon="-1.55409">
        <ele>29</ele>
        <time>2019-03-21T15:33:36Z</time>
      </trkpt>
      <trkpt lat="46.48757" lon="-1.55405">
        <ele>29</ele>
        <time>2019-03-21T15:33:39Z</time>
      </trkpt>
      <trkpt lat="46.48757" lon="-1.55401">
        <ele>29</ele>
        <time>2019-03-21T15:33:41Z</time>
      </trkpt>
      <trkpt lat="46.48758" lon="-1.55397">
        <ele>29</ele>
        <time>2019-03-21T15:33:44Z</time>
      </trkpt>
      <trkpt lat="46.48759" lon="-1.55392">
        <ele>29</ele>
        <time>2019-03-21T15:33:46Z</time>
      </trkpt>
      <trkpt lat="46.48759" lon="-1.55388">
        <ele>29</ele>
        <time>2019-03-21T15:33:49Z</time>
      </trkpt>
      <trkpt lat="46.48759" lon="-1.55384">
        <ele>30</ele>
        <time>2019-03-21T15:33:51Z</time>
      </trkpt>
      <trkpt lat="46.4876" lon="-1.5538">
        <ele>30</ele>
        <time>2019-03-21T15:33:54Z</time>
      </trkpt>
      <trkpt lat="46.48761" lon="-1.55376">
        <ele>31</ele>
        <time>2019-03-21T15:33:57Z</time>
      </trkpt>
      <trkpt lat="46.48764" lon="-1.55372">
        <ele>30</ele>
        <time>2019-03-21T15:33:59Z</time>
      </trkpt>
      <trkpt lat="46.48766" lon="-1.5537">
        <ele>31</ele>
        <time>2019-03-21T15:34:02Z</time>
      </trkpt>
      <trkpt lat="46.48768" lon="-1.55366">
        <ele>31</ele>
        <time>2019-03-21T15:34:04Z</time>
      </trkpt>
      <trkpt lat="46.48771" lon="-1.55363">
        <ele>30</ele>
        <time>2019-03-21T15:34:07Z</time>
      </trkpt>
      <trkpt lat="46.48773" lon="-1.5536">
        <ele>31</ele>
        <time>2019-03-21T15:34:10Z</time>
      </trkpt>
      <trkpt lat="46.48775" lon="-1.55358">
        <ele>31</ele>
        <time>2019-03-21T15:34:12Z</time>
      </trkpt>
      <trkpt lat="46.48777" lon="-1.55357">
        <ele>31</ele>
        <time>2019-03-21T15:34:15Z</time>
      </trkpt>
      <trkpt lat="46.4878" lon="-1.55356">
        <ele>31</ele>
        <time>2019-03-21T15:34:17Z</time>
      </trkpt>
      <trkpt lat="46.48782" lon="-1.55355">
        <ele>30</ele>
        <time>2019-03-21T15:34:20Z</time>
      </trkpt>
      <trkpt lat="46.48785" lon="-1.55356">
        <ele>30</ele>
        <time>2019-03-21T15:34:23Z</time>
      </trkpt>
      <trkpt lat="46.48788" lon="-1.55357">
        <ele>30</ele>
        <time>2019-03-21T15:34:25Z</time>
      </trkpt>
      <trkpt lat="46.48791" lon="-1.55358">
        <ele>30</ele>
        <time>2019-03-21T15:34:28Z</time>
      </trkpt>
      <trkpt lat="46.48794" lon="-1.55359">
        <ele>30</ele>
        <time>2019-03-21T15:34:30Z</time>
      </trkpt>
      <trkpt lat="46.48797" lon="-1.55359">
        <ele>30</ele>
        <time>2019-03-21T15:34:33Z</time>
      </trkpt>
      <trkpt lat="46.488" lon="-1.5536">
        <ele>30</ele>
        <time>2019-03-21T15:34:35Z</time>
      </trkpt>
      <trkpt lat="46.48804" lon="-1.55361">
        <ele>30</ele>
        <time>2019-03-21T15:34:38Z</time>
      </trkpt>
      <trkpt lat="46.48806" lon="-1.55362">
        <ele>30</ele>
        <time>2019-03-21T15:34:41Z</time>
      </trkpt>
      <trkpt lat="46.4881" lon="-1.55363">
        <ele>29</ele>
        <time>2019-03-21T15:34:43Z</time>
      </trkpt>
      <trkpt lat="46.48812" lon="-1.55364">
        <ele>29</ele>
        <time>2019-03-21T15:34:46Z</time>
      </trkpt>
      <trkpt lat="46.48816" lon="-1.55366">
        <ele>29</ele>
        <time>2019-03-21T15:34:48Z</time>
      </trkpt>
      <trkpt lat="46.48819" lon="-1.55366">
        <ele>29</ele>
        <time>2019-03-21T15:34:51Z</time>
      </trkpt>
      <trkpt lat="46.48823" lon="-1.55366">
        <ele>29</ele>
        <time>2019-03-21T15:34:53Z</time>
      </trkpt>
      <trkpt lat="46.48825" lon="-1.55367">
        <ele>29</ele>
        <time>2019-03-21T15:34:56Z</time>
      </trkpt>
      <trkpt lat="46.48829" lon="-1.55369">
        <ele>29</ele>
        <time>2019-03-21T15:34:58Z</time>
      </trkpt>
      <trkpt lat="46.48831" lon="-1.55371">
        <ele>29</ele>
        <time>2019-03-21T15:35:01Z</time>
      </trkpt>
      <trkpt lat="46.48835" lon="-1.55372">
        <ele>28</ele>
        <time>2019-03-21T15:35:04Z</time>
      </trkpt>
      <trkpt lat="46.48838" lon="-1.55374">
        <ele>28</ele>
        <time>2019-03-21T15:35:06Z</time>
      </trkpt>
      <trkpt lat="46.48841" lon="-1.55375">
        <ele>28</ele>
        <time>2019-03-21T15:35:09Z</time>
      </trkpt>
      <trkpt lat="46.48844" lon="-1.55377">
        <ele>29</ele>
        <time>2019-03-21T15:35:11Z</time>
      </trkpt>
      <trkpt lat="46.48846" lon="-1.55377">
        <ele>29</ele>
        <time>2019-03-21T15:35:14Z</time>
      </trkpt>
      <trkpt lat="46.4885" lon="-1.55378">
        <ele>29</ele>
        <time>2019-03-21T15:35:16Z</time>
      </trkpt>
      <trkpt lat="46.48852" lon="-1.5538">
        <ele>28</ele>
        <time>2019-03-21T15:35:19Z</time>
      </trkpt>
      <trkpt lat="46.48856" lon="-1.55381">
        <ele>28</ele>
        <time>2019-03-21T15:35:21Z</time>
      </trkpt>
      <trkpt lat="46.48859" lon="-1.55381">
        <ele>28</ele>
        <time>2019-03-21T15:35:24Z</time>
      </trkpt>
      <trkpt lat="46.48862" lon="-1.55384">
        <ele>28</ele>
        <time>2019-03-21T15:35:27Z</time>
      </trkpt>
      <trkpt lat="46.48864" lon="-1.55385">
        <ele>28</ele>
        <time>2019-03-21T15:35:29Z</time>
      </trkpt>
      <trkpt lat="46.48865" lon="-1.55386">
        <ele>29</ele>
        <time>2019-03-21T15:35:32Z</time>
      </trkpt>
      <trkpt lat="46.48866" lon="-1.55386">
        <ele>29</ele>
        <time>2019-03-21T15:35:34Z</time>
      </trkpt>
      <trkpt lat="46.48868" lon="-1.55387">
        <ele>29</ele>
        <time>2019-03-21T15:35:37Z</time>
      </trkpt>
      <trkpt lat="46.48871" lon="-1.55387">
        <ele>29</ele>
        <time>2019-03-21T15:35:39Z</time>
      </trkpt>
      <trkpt lat="46.48873" lon="-1.55388">
        <ele>28</ele>
        <time>2019-03-21T15:35:42Z</time>
      </trkpt>
      <trkpt lat="46.48876" lon="-1.55391">
        <ele>28</ele>
        <time>2019-03-21T15:35:44Z</time>
      </trkpt>
      <trkpt lat="46.48878" lon="-1.55393">
        <ele>29</ele>
        <time>2019-03-21T15:35:47Z</time>
      </trkpt>
      <trkpt lat="46.4888" lon="-1.55395">
        <ele>29</ele>
        <time>2019-03-21T15:35:49Z</time>
      </trkpt>
      <trkpt lat="46.48882" lon="-1.55397">
        <ele>28</ele>
        <time>2019-03-21T15:35:52Z</time>
      </trkpt>
      <trkpt lat="46.48883" lon="-1.55401">
        <ele>29</ele>
        <time>2019-03-21T15:35:55Z</time>
      </trkpt>
      <trkpt lat="46.48886" lon="-1.55408">
        <ele>28</ele>
        <time>2019-03-21T15:36:00Z</time>
      </trkpt>
      <trkpt lat="46.48886" lon="-1.55412">
        <ele>28</ele>
        <time>2019-03-21T15:36:02Z</time>
      </trkpt>
      <trkpt lat="46.48886" lon="-1.55412">
        <ele>28</ele>
        <time>2019-03-21T15:36:05Z</time>
      </trkpt>
      <trkpt lat="46.48886" lon="-1.55413">
        <ele>28</ele>
        <time>2019-03-21T15:36:07Z</time>
      </trkpt>
      <trkpt lat="46.48886" lon="-1.55412">
        <ele>28</ele>
        <time>2019-03-21T15:36:10Z</time>
      </trkpt>
      <trkpt lat="46.48886" lon="-1.55412">
        <ele>28</ele>
        <time>2019-03-21T15:36:13Z</time>
      </trkpt>
      <trkpt lat="46.48885" lon="-1.55412">
        <ele>28</ele>
        <time>2019-03-21T15:36:15Z</time>
      </trkpt>
      <trkpt lat="46.48885" lon="-1.55412">
        <ele>28</ele>
        <time>2019-03-21T15:36:18Z</time>
      </trkpt>
      <trkpt lat="46.48885" lon="-1.55413">
        <ele>28</ele>
        <time>2019-03-21T15:36:20Z</time>
      </trkpt>
      <trkpt lat="46.48885" lon="-1.55413">
        <ele>28</ele>
        <time>2019-03-21T15:36:23Z</time>
      </trkpt>
      <trkpt lat="46.48885" lon="-1.55413">
        <ele>28</ele>
        <time>2019-03-21T15:36:26Z</time>
      </trkpt>
      <trkpt lat="46.48885" lon="-1.55414">
        <ele>28</ele>
        <time>2019-03-21T15:36:28Z</time>
      </trkpt>
      <trkpt lat="46.48885" lon="-1.55415">
        <ele>28</ele>
        <time>2019-03-21T15:36:31Z</time>
      </trkpt>
      <trkpt lat="46.48885" lon="-1.55416">
        <ele>28</ele>
        <time>2019-03-21T15:36:34Z</time>
      </trkpt>
      <trkpt lat="46.48885" lon="-1.55417">
        <ele>28</ele>
        <time>2019-03-21T15:36:36Z</time>
      </trkpt>
      <trkpt lat="46.48886" lon="-1.55416">
        <ele>28</ele>
        <time>2019-03-21T15:36:39Z</time>
      </trkpt>
      <trkpt lat="46.48885" lon="-1.55417">
        <ele>28</ele>
        <time>2019-03-21T15:36:41Z</time>
      </trkpt>
      <trkpt lat="46.48885" lon="-1.55417">
        <ele>28</ele>
        <time>2019-03-21T15:36:44Z</time>
      </trkpt>
      <trkpt lat="46.48885" lon="-1.55419">
        <ele>28</ele>
        <time>2019-03-21T15:36:47Z</time>
      </trkpt>
      <trkpt lat="46.48885" lon="-1.5542">
        <ele>28</ele>
        <time>2019-03-21T15:36:49Z</time>
      </trkpt>
      <trkpt lat="46.48885" lon="-1.55421">
        <ele>28</ele>
        <time>2019-03-21T15:36:52Z</time>
      </trkpt>
      <trkpt lat="46.48885" lon="-1.5542">
        <ele>28</ele>
        <time>2019-03-21T15:36:54Z</time>
      </trkpt>
      <trkpt lat="46.48885" lon="-1.5542">
        <ele>28</ele>
        <time>2019-03-21T15:36:57Z</time>
      </trkpt>
      <trkpt lat="46.48886" lon="-1.5542">
        <ele>28</ele>
        <time>2019-03-21T15:37:00Z</time>
      </trkpt>
      <trkpt lat="46.48885" lon="-1.55421">
        <ele>28</ele>
        <time>2019-03-21T15:37:02Z</time>
      </trkpt>
      <trkpt lat="46.48885" lon="-1.55421">
        <ele>28</ele>
        <time>2019-03-21T15:37:05Z</time>
      </trkpt>
      <trkpt lat="46.48885" lon="-1.5542">
        <ele>28</ele>
        <time>2019-03-21T15:37:08Z</time>
      </trkpt>
      <trkpt lat="46.48885" lon="-1.5542">
        <ele>28</ele>
        <time>2019-03-21T15:37:10Z</time>
      </trkpt>
      <trkpt lat="46.48885" lon="-1.5542">
        <ele>28</ele>
        <time>2019-03-21T15:37:13Z</time>
      </trkpt>
      <trkpt lat="46.48885" lon="-1.5542">
        <ele>28</ele>
        <time>2019-03-21T15:37:15Z</time>
      </trkpt>
      <trkpt lat="46.48885" lon="-1.5542">
        <ele>28</ele>
        <time>2019-03-21T15:37:18Z</time>
      </trkpt>
      <trkpt lat="46.48885" lon="-1.55421">
        <ele>28</ele>
        <time>2019-03-21T15:37:21Z</time>
      </trkpt>
      <trkpt lat="46.48886" lon="-1.55421">
        <ele>28</ele>
        <time>2019-03-21T15:37:23Z</time>
      </trkpt>
      <trkpt lat="46.48886" lon="-1.55421">
        <ele>28</ele>
        <time>2019-03-21T15:37:26Z</time>
      </trkpt>
      <trkpt lat="46.48886" lon="-1.55421">
        <ele>28</ele>
        <time>2019-03-21T15:37:29Z</time>
      </trkpt>
      <trkpt lat="46.48886" lon="-1.55421">
        <ele>28</ele>
        <time>2019-03-21T15:37:31Z</time>
      </trkpt>
      <trkpt lat="46.48885" lon="-1.55419">
        <ele>28</ele>
        <time>2019-03-21T15:37:34Z</time>
      </trkpt>
      <trkpt lat="46.48885" lon="-1.55416">
        <ele>28</ele>
        <time>2019-03-21T15:37:37Z</time>
      </trkpt>
      <trkpt lat="46.48885" lon="-1.55415">
        <ele>28</ele>
        <time>2019-03-21T15:37:40Z</time>
      </trkpt>
      <trkpt lat="46.48884" lon="-1.55415">
        <ele>28</ele>
        <time>2019-03-21T15:37:42Z</time>
      </trkpt>
      <trkpt lat="46.48884" lon="-1.55413">
        <ele>28</ele>
        <time>2019-03-21T15:37:45Z</time>
      </trkpt>
      <trkpt lat="46.48885" lon="-1.55411">
        <ele>28</ele>
        <time>2019-03-21T15:37:47Z</time>
      </trkpt>
      <trkpt lat="46.48886" lon="-1.55411">
        <ele>28</ele>
        <time>2019-03-21T15:37:50Z</time>
      </trkpt>
      <trkpt lat="46.48885" lon="-1.55411">
        <ele>28</ele>
        <time>2019-03-21T15:37:53Z</time>
      </trkpt>
      <trkpt lat="46.48885" lon="-1.5541">
        <ele>28</ele>
        <time>2019-03-21T15:37:55Z</time>
      </trkpt>
      <trkpt lat="46.48887" lon="-1.5541">
        <ele>28</ele>
        <time>2019-03-21T15:37:58Z</time>
      </trkpt>
      <trkpt lat="46.48889" lon="-1.55412">
        <ele>29</ele>
        <time>2019-03-21T15:38:01Z</time>
      </trkpt>
      <trkpt lat="46.48889" lon="-1.55414">
        <ele>28</ele>
        <time>2019-03-21T15:38:03Z</time>
      </trkpt>
      <trkpt lat="46.48889" lon="-1.55415">
        <ele>28</ele>
        <time>2019-03-21T15:38:06Z</time>
      </trkpt>
      <trkpt lat="46.4889" lon="-1.55415">
        <ele>28</ele>
        <time>2019-03-21T15:38:08Z</time>
      </trkpt>
      <trkpt lat="46.4889" lon="-1.55415">
        <ele>28</ele>
        <time>2019-03-21T15:38:11Z</time>
      </trkpt>
      <trkpt lat="46.48889" lon="-1.55415">
        <ele>28</ele>
        <time>2019-03-21T15:38:13Z</time>
      </trkpt>
      <trkpt lat="46.4889" lon="-1.55415">
        <ele>28</ele>
        <time>2019-03-21T15:38:16Z</time>
      </trkpt>
      <trkpt lat="46.4889" lon="-1.55415">
        <ele>28</ele>
        <time>2019-03-21T15:38:19Z</time>
      </trkpt>
      <trkpt lat="46.4889" lon="-1.55415">
        <ele>28</ele>
        <time>2019-03-21T15:38:21Z</time>
      </trkpt>
      <trkpt lat="46.48891" lon="-1.55415">
        <ele>28</ele>
        <time>2019-03-21T15:38:24Z</time>
      </trkpt>
      <trkpt lat="46.48892" lon="-1.55415">
        <ele>28</ele>
        <time>2019-03-21T15:38:26Z</time>
      </trkpt>
      <trkpt lat="46.48894" lon="-1.55416">
        <ele>28</ele>
        <time>2019-03-21T15:38:29Z</time>
      </trkpt>
      <trkpt lat="46.48896" lon="-1.55415">
        <ele>28</ele>
        <time>2019-03-21T15:38:32Z</time>
      </trkpt>
      <trkpt lat="46.48899" lon="-1.55416">
        <ele>28</ele>
        <time>2019-03-21T15:38:34Z</time>
      </trkpt>
      <trkpt lat="46.48901" lon="-1.55418">
        <ele>28</ele>
        <time>2019-03-21T15:38:37Z</time>
      </trkpt>
      <trkpt lat="46.48904" lon="-1.5542">
        <ele>28</ele>
        <time>2019-03-21T15:38:39Z</time>
      </trkpt>
      <trkpt lat="46.48907" lon="-1.55421">
        <ele>29</ele>
        <time>2019-03-21T15:38:42Z</time>
      </trkpt>
      <trkpt lat="46.48911" lon="-1.55422">
        <ele>28</ele>
        <time>2019-03-21T15:38:44Z</time>
      </trkpt>
      <trkpt lat="46.48913" lon="-1.55423">
        <ele>28</ele>
        <time>2019-03-21T15:38:47Z</time>
      </trkpt>
      <trkpt lat="46.48917" lon="-1.55423">
        <ele>28</ele>
        <time>2019-03-21T15:38:49Z</time>
      </trkpt>
      <trkpt lat="46.48921" lon="-1.55422">
        <ele>29</ele>
        <time>2019-03-21T15:38:52Z</time>
      </trkpt>
      <trkpt lat="46.48924" lon="-1.55421">
        <ele>29</ele>
        <time>2019-03-21T15:38:55Z</time>
      </trkpt>
      <trkpt lat="46.4893" lon="-1.55418">
        <ele>30</ele>
        <time>2019-03-21T15:39:00Z</time>
      </trkpt>
      <trkpt lat="46.48933" lon="-1.55416">
        <ele>30</ele>
        <time>2019-03-21T15:39:02Z</time>
      </trkpt>
      <trkpt lat="46.48936" lon="-1.55414">
        <ele>30</ele>
        <time>2019-03-21T15:39:05Z</time>
      </trkpt>
      <trkpt lat="46.48939" lon="-1.55412">
        <ele>30</ele>
        <time>2019-03-21T15:39:08Z</time>
      </trkpt>
      <trkpt lat="46.48942" lon="-1.55409">
        <ele>30</ele>
        <time>2019-03-21T15:39:10Z</time>
      </trkpt>
      <trkpt lat="46.48944" lon="-1.55407">
        <ele>30</ele>
        <time>2019-03-21T15:39:13Z</time>
      </trkpt>
      <trkpt lat="46.48947" lon="-1.55404">
        <ele>30</ele>
        <time>2019-03-21T15:39:16Z</time>
      </trkpt>
      <trkpt lat="46.48949" lon="-1.554">
        <ele>30</ele>
        <time>2019-03-21T15:39:18Z</time>
      </trkpt>
      <trkpt lat="46.48951" lon="-1.55398">
        <ele>30</ele>
        <time>2019-03-21T15:39:21Z</time>
      </trkpt>
      <trkpt lat="46.48953" lon="-1.55394">
        <ele>31</ele>
        <time>2019-03-21T15:39:23Z</time>
      </trkpt>
      <trkpt lat="46.48955" lon="-1.55391">
        <ele>31</ele>
        <time>2019-03-21T15:39:26Z</time>
      </trkpt>
      <trkpt lat="46.48957" lon="-1.55387">
        <ele>31</ele>
        <time>2019-03-21T15:39:29Z</time>
      </trkpt>
      <trkpt lat="46.48959" lon="-1.55384">
        <ele>31</ele>
        <time>2019-03-21T15:39:31Z</time>
      </trkpt>
      <trkpt lat="46.48961" lon="-1.55381">
        <ele>31</ele>
        <time>2019-03-21T15:39:34Z</time>
      </trkpt>
      <trkpt lat="46.48963" lon="-1.55377">
        <ele>32</ele>
        <time>2019-03-21T15:39:36Z</time>
      </trkpt>
      <trkpt lat="46.48965" lon="-1.55374">
        <ele>32</ele>
        <time>2019-03-21T15:39:39Z</time>
      </trkpt>
      <trkpt lat="46.48967" lon="-1.55369">
        <ele>32</ele>
        <time>2019-03-21T15:39:41Z</time>
      </trkpt>
      <trkpt lat="46.48969" lon="-1.55365">
        <ele>32</ele>
        <time>2019-03-21T15:39:44Z</time>
      </trkpt>
      <trkpt lat="46.48971" lon="-1.55363">
        <ele>32</ele>
        <time>2019-03-21T15:39:47Z</time>
      </trkpt>
      <trkpt lat="46.48974" lon="-1.55359">
        <ele>33</ele>
        <time>2019-03-21T15:39:49Z</time>
      </trkpt>
      <trkpt lat="46.48976" lon="-1.55356">
        <ele>33</ele>
        <time>2019-03-21T15:39:52Z</time>
      </trkpt>
      <trkpt lat="46.48978" lon="-1.55353">
        <ele>33</ele>
        <time>2019-03-21T15:39:55Z</time>
      </trkpt>
      <trkpt lat="46.4898" lon="-1.55349">
        <ele>33</ele>
        <time>2019-03-21T15:39:57Z</time>
      </trkpt>
      <trkpt lat="46.48982" lon="-1.55346">
        <ele>33</ele>
        <time>2019-03-21T15:40:00Z</time>
      </trkpt>
      <trkpt lat="46.48985" lon="-1.55342">
        <ele>33</ele>
        <time>2019-03-21T15:40:03Z</time>
      </trkpt>
      <trkpt lat="46.48988" lon="-1.55338">
        <ele>33</ele>
        <time>2019-03-21T15:40:05Z</time>
      </trkpt>
      <trkpt lat="46.48989" lon="-1.55336">
        <ele>33</ele>
        <time>2019-03-21T15:40:08Z</time>
      </trkpt>
      <trkpt lat="46.48992" lon="-1.55332">
        <ele>33</ele>
        <time>2019-03-21T15:40:11Z</time>
      </trkpt>
      <trkpt lat="46.48994" lon="-1.55328">
        <ele>33</ele>
        <time>2019-03-21T15:40:13Z</time>
      </trkpt>
      <trkpt lat="46.48996" lon="-1.55326">
        <ele>34</ele>
        <time>2019-03-21T15:40:16Z</time>
      </trkpt>
      <trkpt lat="46.48998" lon="-1.55324">
        <ele>34</ele>
        <time>2019-03-21T15:40:19Z</time>
      </trkpt>
      <trkpt lat="46.48998" lon="-1.55322">
        <ele>34</ele>
        <time>2019-03-21T15:40:21Z</time>
      </trkpt>
      <trkpt lat="46.48999" lon="-1.55318">
        <ele>34</ele>
        <time>2019-03-21T15:40:24Z</time>
      </trkpt>
      <trkpt lat="46.49002" lon="-1.55312">
        <ele>34</ele>
        <time>2019-03-21T15:40:26Z</time>
      </trkpt>
      <trkpt lat="46.49005" lon="-1.55309">
        <ele>35</ele>
        <time>2019-03-21T15:40:29Z</time>
      </trkpt>
      <trkpt lat="46.49006" lon="-1.55305">
        <ele>34</ele>
        <time>2019-03-21T15:40:32Z</time>
      </trkpt>
      <trkpt lat="46.4901" lon="-1.553">
        <ele>34</ele>
        <time>2019-03-21T15:40:34Z</time>
      </trkpt>
      <trkpt lat="46.49012" lon="-1.55295">
        <ele>34</ele>
        <time>2019-03-21T15:40:37Z</time>
      </trkpt>
      <trkpt lat="46.49014" lon="-1.55293">
        <ele>34</ele>
        <time>2019-03-21T15:40:40Z</time>
      </trkpt>
      <trkpt lat="46.49017" lon="-1.5529">
        <ele>34</ele>
        <time>2019-03-21T15:40:42Z</time>
      </trkpt>
      <trkpt lat="46.49019" lon="-1.55286">
        <ele>34</ele>
        <time>2019-03-21T15:40:45Z</time>
      </trkpt>
      <trkpt lat="46.49021" lon="-1.55284">
        <ele>34</ele>
        <time>2019-03-21T15:40:48Z</time>
      </trkpt>
      <trkpt lat="46.49024" lon="-1.5528">
        <ele>34</ele>
        <time>2019-03-21T15:40:50Z</time>
      </trkpt>
      <trkpt lat="46.49027" lon="-1.55277">
        <ele>34</ele>
        <time>2019-03-21T15:40:53Z</time>
      </trkpt>
      <trkpt lat="46.4903" lon="-1.55276">
        <ele>34</ele>
        <time>2019-03-21T15:40:56Z</time>
      </trkpt>
      <trkpt lat="46.49032" lon="-1.55273">
        <ele>34</ele>
        <time>2019-03-21T15:40:58Z</time>
      </trkpt>
      <trkpt lat="46.49034" lon="-1.55271">
        <ele>34</ele>
        <time>2019-03-21T15:41:01Z</time>
      </trkpt>
      <trkpt lat="46.49037" lon="-1.55267">
        <ele>33</ele>
        <time>2019-03-21T15:41:03Z</time>
      </trkpt>
      <trkpt lat="46.49039" lon="-1.55265">
        <ele>33</ele>
        <time>2019-03-21T15:41:06Z</time>
      </trkpt>
      <trkpt lat="46.49042" lon="-1.55262">
        <ele>33</ele>
        <time>2019-03-21T15:41:08Z</time>
      </trkpt>
      <trkpt lat="46.49044" lon="-1.55261">
        <ele>33</ele>
        <time>2019-03-21T15:41:11Z</time>
      </trkpt>
      <trkpt lat="46.49049" lon="-1.55258">
        <ele>33</ele>
        <time>2019-03-21T15:41:14Z</time>
      </trkpt>
      <trkpt lat="46.49051" lon="-1.55257">
        <ele>33</ele>
        <time>2019-03-21T15:41:16Z</time>
      </trkpt>
      <trkpt lat="46.49054" lon="-1.55255">
        <ele>33</ele>
        <time>2019-03-21T15:41:19Z</time>
      </trkpt>
      <trkpt lat="46.49059" lon="-1.55252">
        <ele>33</ele>
        <time>2019-03-21T15:41:21Z</time>
      </trkpt>
      <trkpt lat="46.49061" lon="-1.5525">
        <ele>33</ele>
        <time>2019-03-21T15:41:24Z</time>
      </trkpt>
      <trkpt lat="46.49064" lon="-1.55248">
        <ele>33</ele>
        <time>2019-03-21T15:41:26Z</time>
      </trkpt>
      <trkpt lat="46.49066" lon="-1.55246">
        <ele>33</ele>
        <time>2019-03-21T15:41:29Z</time>
      </trkpt>
      <trkpt lat="46.4907" lon="-1.55244">
        <ele>33</ele>
        <time>2019-03-21T15:41:31Z</time>
      </trkpt>
      <trkpt lat="46.49072" lon="-1.55242">
        <ele>32</ele>
        <time>2019-03-21T15:41:34Z</time>
      </trkpt>
      <trkpt lat="46.49075" lon="-1.5524">
        <ele>32</ele>
        <time>2019-03-21T15:41:36Z</time>
      </trkpt>
      <trkpt lat="46.49078" lon="-1.55238">
        <ele>32</ele>
        <time>2019-03-21T15:41:39Z</time>
      </trkpt>
      <trkpt lat="46.49082" lon="-1.55235">
        <ele>32</ele>
        <time>2019-03-21T15:41:42Z</time>
      </trkpt>
      <trkpt lat="46.49085" lon="-1.55234">
        <ele>31</ele>
        <time>2019-03-21T15:41:44Z</time>
      </trkpt>
      <trkpt lat="46.49087" lon="-1.55232">
        <ele>32</ele>
        <time>2019-03-21T15:41:47Z</time>
      </trkpt>
      <trkpt lat="46.4909" lon="-1.55229">
        <ele>32</ele>
        <time>2019-03-21T15:41:49Z</time>
      </trkpt>
      <trkpt lat="46.49092" lon="-1.55228">
        <ele>32</ele>
        <time>2019-03-21T15:41:52Z</time>
      </trkpt>
      <trkpt lat="46.49096" lon="-1.55225">
        <ele>32</ele>
        <time>2019-03-21T15:41:54Z</time>
      </trkpt>
      <trkpt lat="46.49102" lon="-1.55222">
        <ele>32</ele>
        <time>2019-03-21T15:41:59Z</time>
      </trkpt>
      <trkpt lat="46.49104" lon="-1.55221">
        <ele>32</ele>
        <time>2019-03-21T15:42:02Z</time>
      </trkpt>
      <trkpt lat="46.49108" lon="-1.55221">
        <ele>32</ele>
        <time>2019-03-21T15:42:05Z</time>
      </trkpt>
      <trkpt lat="46.4911" lon="-1.55221">
        <ele>32</ele>
        <time>2019-03-21T15:42:07Z</time>
      </trkpt>
      <trkpt lat="46.49113" lon="-1.55222">
        <ele>32</ele>
        <time>2019-03-21T15:42:10Z</time>
      </trkpt>
      <trkpt lat="46.49117" lon="-1.55225">
        <ele>30</ele>
        <time>2019-03-21T15:42:12Z</time>
      </trkpt>
      <trkpt lat="46.49119" lon="-1.55226">
        <ele>30</ele>
        <time>2019-03-21T15:42:15Z</time>
      </trkpt>
      <trkpt lat="46.49124" lon="-1.5523">
        <ele>30</ele>
        <time>2019-03-21T15:42:17Z</time>
      </trkpt>
      <trkpt lat="46.49126" lon="-1.55232">
        <ele>30</ele>
        <time>2019-03-21T15:42:20Z</time>
      </trkpt>
      <trkpt lat="46.4913" lon="-1.55236">
        <ele>28</ele>
        <time>2019-03-21T15:42:22Z</time>
      </trkpt>
      <trkpt lat="46.49133" lon="-1.55238">
        <ele>28</ele>
        <time>2019-03-21T15:42:25Z</time>
      </trkpt>
      <trkpt lat="46.49135" lon="-1.5524">
        <ele>28</ele>
        <time>2019-03-21T15:42:28Z</time>
      </trkpt>
      <trkpt lat="46.49137" lon="-1.55242">
        <ele>26</ele>
        <time>2019-03-21T15:42:30Z</time>
      </trkpt>
      <trkpt lat="46.49138" lon="-1.55243">
        <ele>26</ele>
        <time>2019-03-21T15:42:33Z</time>
      </trkpt>
      <trkpt lat="46.49139" lon="-1.55243">
        <ele>26</ele>
        <time>2019-03-21T15:42:35Z</time>
      </trkpt>
      <trkpt lat="46.49139" lon="-1.55244">
        <ele>26</ele>
        <time>2019-03-21T15:42:38Z</time>
      </trkpt>
      <trkpt lat="46.4914" lon="-1.55244">
        <ele>26</ele>
        <time>2019-03-21T15:42:40Z</time>
      </trkpt>
      <trkpt lat="46.4914" lon="-1.55244">
        <ele>26</ele>
        <time>2019-03-21T15:42:43Z</time>
      </trkpt>
      <trkpt lat="46.4914" lon="-1.55245">
        <ele>26</ele>
        <time>2019-03-21T15:42:46Z</time>
      </trkpt>
      <trkpt lat="46.4914" lon="-1.55245">
        <ele>26</ele>
        <time>2019-03-21T15:42:48Z</time>
      </trkpt>
      <trkpt lat="46.49141" lon="-1.55245">
        <ele>26</ele>
        <time>2019-03-21T15:42:51Z</time>
      </trkpt>
      <trkpt lat="46.49141" lon="-1.55245">
        <ele>26</ele>
        <time>2019-03-21T15:42:53Z</time>
      </trkpt>
      <trkpt lat="46.4914" lon="-1.55247">
        <ele>26</ele>
        <time>2019-03-21T15:42:56Z</time>
      </trkpt>
      <trkpt lat="46.49139" lon="-1.55248">
        <ele>26</ele>
        <time>2019-03-21T15:42:59Z</time>
      </trkpt>
      <trkpt lat="46.49139" lon="-1.55248">
        <ele>26</ele>
        <time>2019-03-21T15:43:01Z</time>
      </trkpt>
      <trkpt lat="46.49139" lon="-1.55248">
        <ele>26</ele>
        <time>2019-03-21T15:43:04Z</time>
      </trkpt>
      <trkpt lat="46.49139" lon="-1.55248">
        <ele>26</ele>
        <time>2019-03-21T15:43:06Z</time>
      </trkpt>
      <trkpt lat="46.4914" lon="-1.55248">
        <ele>26</ele>
        <time>2019-03-21T15:43:09Z</time>
      </trkpt>
      <trkpt lat="46.49141" lon="-1.55248">
        <ele>26</ele>
        <time>2019-03-21T15:43:11Z</time>
      </trkpt>
      <trkpt lat="46.49142" lon="-1.5525">
        <ele>26</ele>
        <time>2019-03-21T15:43:14Z</time>
      </trkpt>
      <trkpt lat="46.49141" lon="-1.55253">
        <ele>25</ele>
        <time>2019-03-21T15:43:17Z</time>
      </trkpt>
      <trkpt lat="46.49142" lon="-1.55257">
        <ele>25</ele>
        <time>2019-03-21T15:43:19Z</time>
      </trkpt>
      <trkpt lat="46.49141" lon="-1.55262">
        <ele>25</ele>
        <time>2019-03-21T15:43:22Z</time>
      </trkpt>
      <trkpt lat="46.49141" lon="-1.55265">
        <ele>25</ele>
        <time>2019-03-21T15:43:25Z</time>
      </trkpt>
      <trkpt lat="46.4914" lon="-1.55267">
        <ele>25</ele>
        <time>2019-03-21T15:43:27Z</time>
      </trkpt>
      <trkpt lat="46.49139" lon="-1.55269">
        <ele>24</ele>
        <time>2019-03-21T15:43:30Z</time>
      </trkpt>
      <trkpt lat="46.49139" lon="-1.55271">
        <ele>24</ele>
        <time>2019-03-21T15:43:33Z</time>
      </trkpt>
      <trkpt lat="46.49138" lon="-1.55272">
        <ele>24</ele>
        <time>2019-03-21T15:43:35Z</time>
      </trkpt>
      <trkpt lat="46.49138" lon="-1.55273">
        <ele>24</ele>
        <time>2019-03-21T15:43:38Z</time>
      </trkpt>
      <trkpt lat="46.49138" lon="-1.55274">
        <ele>24</ele>
        <time>2019-03-21T15:43:41Z</time>
      </trkpt>
      <trkpt lat="46.49138" lon="-1.55274">
        <ele>24</ele>
        <time>2019-03-21T15:43:43Z</time>
      </trkpt>
      <trkpt lat="46.49138" lon="-1.55274">
        <ele>24</ele>
        <time>2019-03-21T15:43:46Z</time>
      </trkpt>
      <trkpt lat="46.49139" lon="-1.55271">
        <ele>24</ele>
        <time>2019-03-21T15:43:48Z</time>
      </trkpt>
      <trkpt lat="46.49139" lon="-1.55268">
        <ele>24</ele>
        <time>2019-03-21T15:43:51Z</time>
      </trkpt>
      <trkpt lat="46.49139" lon="-1.55265">
        <ele>25</ele>
        <time>2019-03-21T15:43:54Z</time>
      </trkpt>
      <trkpt lat="46.49138" lon="-1.55265">
        <ele>25</ele>
        <time>2019-03-21T15:43:56Z</time>
      </trkpt>
      <trkpt lat="46.49138" lon="-1.55266">
        <ele>25</ele>
        <time>2019-03-21T15:43:59Z</time>
      </trkpt>
      <trkpt lat="46.49138" lon="-1.55267">
        <ele>25</ele>
        <time>2019-03-21T15:44:01Z</time>
      </trkpt>
      <trkpt lat="46.49138" lon="-1.5527">
        <ele>24</ele>
        <time>2019-03-21T15:44:04Z</time>
      </trkpt>
      <trkpt lat="46.49137" lon="-1.55274">
        <ele>24</ele>
        <time>2019-03-21T15:44:07Z</time>
      </trkpt>
      <trkpt lat="46.49137" lon="-1.55274">
        <ele>24</ele>
        <time>2019-03-21T15:44:09Z</time>
      </trkpt>
      <trkpt lat="46.49137" lon="-1.55274">
        <ele>24</ele>
        <time>2019-03-21T15:44:12Z</time>
      </trkpt>
      <trkpt lat="46.49137" lon="-1.55275">
        <ele>24</ele>
        <time>2019-03-21T15:44:14Z</time>
      </trkpt>
      <trkpt lat="46.49137" lon="-1.55275">
        <ele>24</ele>
        <time>2019-03-21T15:44:17Z</time>
      </trkpt>
      <trkpt lat="46.49137" lon="-1.55275">
        <ele>24</ele>
        <time>2019-03-21T15:44:20Z</time>
      </trkpt>
      <trkpt lat="46.49136" lon="-1.55275">
        <ele>24</ele>
        <time>2019-03-21T15:44:22Z</time>
      </trkpt>
      <trkpt lat="46.49136" lon="-1.55275">
        <ele>24</ele>
        <time>2019-03-21T15:44:25Z</time>
      </trkpt>
      <trkpt lat="46.49136" lon="-1.55276">
        <ele>24</ele>
        <time>2019-03-21T15:44:28Z</time>
      </trkpt>
      <trkpt lat="46.49136" lon="-1.55276">
        <ele>24</ele>
        <time>2019-03-21T15:44:30Z</time>
      </trkpt>
      <trkpt lat="46.49136" lon="-1.55276">
        <ele>24</ele>
        <time>2019-03-21T15:44:33Z</time>
      </trkpt>
      <trkpt lat="46.49137" lon="-1.55276">
        <ele>23</ele>
        <time>2019-03-21T15:44:35Z</time>
      </trkpt>
      <trkpt lat="46.49136" lon="-1.55276">
        <ele>23</ele>
        <time>2019-03-21T15:44:38Z</time>
      </trkpt>
      <trkpt lat="46.49136" lon="-1.55277">
        <ele>23</ele>
        <time>2019-03-21T15:44:41Z</time>
      </trkpt>
      <trkpt lat="46.49137" lon="-1.55277">
        <ele>23</ele>
        <time>2019-03-21T15:44:44Z</time>
      </trkpt>
      <trkpt lat="46.49136" lon="-1.55276">
        <ele>24</ele>
        <time>2019-03-21T15:44:46Z</time>
      </trkpt>
      <trkpt lat="46.49136" lon="-1.55276">
        <ele>24</ele>
        <time>2019-03-21T15:44:49Z</time>
      </trkpt>
      <trkpt lat="46.49137" lon="-1.55276">
        <ele>24</ele>
        <time>2019-03-21T15:44:52Z</time>
      </trkpt>
      <trkpt lat="46.49137" lon="-1.55276">
        <ele>24</ele>
        <time>2019-03-21T15:44:57Z</time>
      </trkpt>
      <trkpt lat="46.49137" lon="-1.55276">
        <ele>23</ele>
        <time>2019-03-21T15:45:00Z</time>
      </trkpt>
      <trkpt lat="46.49137" lon="-1.55276">
        <ele>23</ele>
        <time>2019-03-21T15:45:02Z</time>
      </trkpt>
      <trkpt lat="46.49137" lon="-1.55277">
        <ele>23</ele>
        <time>2019-03-21T15:45:05Z</time>
      </trkpt>
      <trkpt lat="46.49137" lon="-1.55277">
        <ele>23</ele>
        <time>2019-03-21T15:45:08Z</time>
      </trkpt>
      <trkpt lat="46.49137" lon="-1.55278">
        <ele>23</ele>
        <time>2019-03-21T15:45:11Z</time>
      </trkpt>
      <trkpt lat="46.49137" lon="-1.55278">
        <ele>23</ele>
        <time>2019-03-21T15:45:13Z</time>
      </trkpt>
      <trkpt lat="46.49137" lon="-1.55278">
        <ele>23</ele>
        <time>2019-03-21T15:45:16Z</time>
      </trkpt>
      <trkpt lat="46.49137" lon="-1.55278">
        <ele>23</ele>
        <time>2019-03-21T15:45:19Z</time>
      </trkpt>
      <trkpt lat="46.49137" lon="-1.55278">
        <ele>23</ele>
        <time>2019-03-21T15:45:21Z</time>
      </trkpt>
      <trkpt lat="46.49137" lon="-1.55277">
        <ele>23</ele>
        <time>2019-03-21T15:45:24Z</time>
      </trkpt>
      <trkpt lat="46.49136" lon="-1.55276">
        <ele>23</ele>
        <time>2019-03-21T15:45:26Z</time>
      </trkpt>
      <trkpt lat="46.49136" lon="-1.55276">
        <ele>24</ele>
        <time>2019-03-21T15:45:29Z</time>
      </trkpt>
      <trkpt lat="46.49135" lon="-1.55276">
        <ele>24</ele>
        <time>2019-03-21T15:45:32Z</time>
      </trkpt>
      <trkpt lat="46.49136" lon="-1.55276">
        <ele>24</ele>
        <time>2019-03-21T15:45:34Z</time>
      </trkpt>
      <trkpt lat="46.49136" lon="-1.55276">
        <ele>24</ele>
        <time>2019-03-21T15:45:37Z</time>
      </trkpt>
      <trkpt lat="46.49136" lon="-1.55277">
        <ele>23</ele>
        <time>2019-03-21T15:45:40Z</time>
      </trkpt>
      <trkpt lat="46.49135" lon="-1.5528">
        <ele>23</ele>
        <time>2019-03-21T15:45:42Z</time>
      </trkpt>
      <trkpt lat="46.49135" lon="-1.55283">
        <ele>23</ele>
        <time>2019-03-21T15:45:45Z</time>
      </trkpt>
      <trkpt lat="46.49133" lon="-1.55288">
        <ele>22</ele>
        <time>2019-03-21T15:45:47Z</time>
      </trkpt>
      <trkpt lat="46.49133" lon="-1.55291">
        <ele>22</ele>
        <time>2019-03-21T15:45:50Z</time>
      </trkpt>
      <trkpt lat="46.49132" lon="-1.55296">
        <ele>22</ele>
        <time>2019-03-21T15:45:53Z</time>
      </trkpt>
      <trkpt lat="46.49131" lon="-1.55301">
        <ele>22</ele>
        <time>2019-03-21T15:45:55Z</time>
      </trkpt>
      <trkpt lat="46.4913" lon="-1.55304">
        <ele>21</ele>
        <time>2019-03-21T15:45:58Z</time>
      </trkpt>
      <trkpt lat="46.4913" lon="-1.5531">
        <ele>21</ele>
        <time>2019-03-21T15:46:00Z</time>
      </trkpt>
      <trkpt lat="46.49129" lon="-1.55313">
        <ele>21</ele>
        <time>2019-03-21T15:46:03Z</time>
      </trkpt>
      <trkpt lat="46.49128" lon="-1.55319">
        <ele>21</ele>
        <time>2019-03-21T15:46:06Z</time>
      </trkpt>
      <trkpt lat="46.49128" lon="-1.55325">
        <ele>21</ele>
        <time>2019-03-21T15:46:08Z</time>
      </trkpt>
      <trkpt lat="46.49128" lon="-1.55329">
        <ele>21</ele>
        <time>2019-03-21T15:46:11Z</time>
      </trkpt>
      <trkpt lat="46.49127" lon="-1.55335">
        <ele>21</ele>
        <time>2019-03-21T15:46:13Z</time>
      </trkpt>
      <trkpt lat="46.49126" lon="-1.55338">
        <ele>21</ele>
        <time>2019-03-21T15:46:16Z</time>
      </trkpt>
      <trkpt lat="46.49126" lon="-1.55342">
        <ele>21</ele>
        <time>2019-03-21T15:46:19Z</time>
      </trkpt>
      <trkpt lat="46.49124" lon="-1.55345">
        <ele>21</ele>
        <time>2019-03-21T15:46:21Z</time>
      </trkpt>
      <trkpt lat="46.49123" lon="-1.55347">
        <ele>21</ele>
        <time>2019-03-21T15:46:24Z</time>
      </trkpt>
      <trkpt lat="46.49121" lon="-1.55349">
        <ele>21</ele>
        <time>2019-03-21T15:46:26Z</time>
      </trkpt>
      <trkpt lat="46.4912" lon="-1.55349">
        <ele>21</ele>
        <time>2019-03-21T15:46:29Z</time>
      </trkpt>
      <trkpt lat="46.4912" lon="-1.55351">
        <ele>21</ele>
        <time>2019-03-21T15:46:32Z</time>
      </trkpt>
      <trkpt lat="46.49117" lon="-1.55354">
        <ele>21</ele>
        <time>2019-03-21T15:46:34Z</time>
      </trkpt>
      <trkpt lat="46.49115" lon="-1.55356">
        <ele>21</ele>
        <time>2019-03-21T15:46:37Z</time>
      </trkpt>
      <trkpt lat="46.49111" lon="-1.55358">
        <ele>21</ele>
        <time>2019-03-21T15:46:40Z</time>
      </trkpt>
      <trkpt lat="46.49108" lon="-1.5536">
        <ele>21</ele>
        <time>2019-03-21T15:46:42Z</time>
      </trkpt>
      <trkpt lat="46.49106" lon="-1.55362">
        <ele>21</ele>
        <time>2019-03-21T15:46:45Z</time>
      </trkpt>
      <trkpt lat="46.49103" lon="-1.55365">
        <ele>21</ele>
        <time>2019-03-21T15:46:47Z</time>
      </trkpt>
      <trkpt lat="46.49099" lon="-1.55368">
        <ele>21</ele>
        <time>2019-03-21T15:46:50Z</time>
      </trkpt>
      <trkpt lat="46.49097" lon="-1.5537">
        <ele>21</ele>
        <time>2019-03-21T15:46:53Z</time>
      </trkpt>
      <trkpt lat="46.49094" lon="-1.55374">
        <ele>21</ele>
        <time>2019-03-21T15:46:55Z</time>
      </trkpt>
      <trkpt lat="46.49092" lon="-1.55375">
        <ele>21</ele>
        <time>2019-03-21T15:46:58Z</time>
      </trkpt>
      <trkpt lat="46.4909" lon="-1.55377">
        <ele>21</ele>
        <time>2019-03-21T15:47:00Z</time>
      </trkpt>
      <trkpt lat="46.49086" lon="-1.55378">
        <ele>21</ele>
        <time>2019-03-21T15:47:03Z</time>
      </trkpt>
      <trkpt lat="46.49084" lon="-1.55381">
        <ele>21</ele>
        <time>2019-03-21T15:47:06Z</time>
      </trkpt>
      <trkpt lat="46.49081" lon="-1.55383">
        <ele>21</ele>
        <time>2019-03-21T15:47:08Z</time>
      </trkpt>
      <trkpt lat="46.49077" lon="-1.55386">
        <ele>21</ele>
        <time>2019-03-21T15:47:11Z</time>
      </trkpt>
      <trkpt lat="46.49075" lon="-1.55388">
        <ele>21</ele>
        <time>2019-03-21T15:47:14Z</time>
      </trkpt>
      <trkpt lat="46.49072" lon="-1.55392">
        <ele>21</ele>
        <time>2019-03-21T15:47:16Z</time>
      </trkpt>
      <trkpt lat="46.4907" lon="-1.55394">
        <ele>21</ele>
        <time>2019-03-21T15:47:19Z</time>
      </trkpt>
      <trkpt lat="46.49068" lon="-1.55398">
        <ele>21</ele>
        <time>2019-03-21T15:47:22Z</time>
      </trkpt>
      <trkpt lat="46.49066" lon="-1.55402">
        <ele>21</ele>
        <time>2019-03-21T15:47:24Z</time>
      </trkpt>
      <trkpt lat="46.49064" lon="-1.55405">
        <ele>21</ele>
        <time>2019-03-21T15:47:27Z</time>
      </trkpt>
      <trkpt lat="46.49062" lon="-1.5541">
        <ele>21</ele>
        <time>2019-03-21T15:47:29Z</time>
      </trkpt>
      <trkpt lat="46.49059" lon="-1.55415">
        <ele>21</ele>
        <time>2019-03-21T15:47:32Z</time>
      </trkpt>
      <trkpt lat="46.49058" lon="-1.55418">
        <ele>21</ele>
        <time>2019-03-21T15:47:35Z</time>
      </trkpt>
      <trkpt lat="46.49056" lon="-1.55422">
        <ele>21</ele>
        <time>2019-03-21T15:47:37Z</time>
      </trkpt>
      <trkpt lat="46.49054" lon="-1.55425">
        <ele>21</ele>
        <time>2019-03-21T15:47:40Z</time>
      </trkpt>
      <trkpt lat="46.49052" lon="-1.55429">
        <ele>21</ele>
        <time>2019-03-21T15:47:43Z</time>
      </trkpt>
      <trkpt lat="46.49049" lon="-1.55433">
        <ele>22</ele>
        <time>2019-03-21T15:47:45Z</time>
      </trkpt>
      <trkpt lat="46.49048" lon="-1.55436">
        <ele>22</ele>
        <time>2019-03-21T15:47:48Z</time>
      </trkpt>
      <trkpt lat="46.49045" lon="-1.5544">
        <ele>22</ele>
        <time>2019-03-21T15:47:50Z</time>
      </trkpt>
      <trkpt lat="46.49042" lon="-1.55445">
        <ele>22</ele>
        <time>2019-03-21T15:47:53Z</time>
      </trkpt>
      <trkpt lat="46.49038" lon="-1.55452">
        <ele>21</ele>
        <time>2019-03-21T15:47:58Z</time>
      </trkpt>
      <trkpt lat="46.49037" lon="-1.55455">
        <ele>21</ele>
        <time>2019-03-21T15:48:01Z</time>
      </trkpt>
      <trkpt lat="46.49034" lon="-1.55459">
        <ele>21</ele>
        <time>2019-03-21T15:48:04Z</time>
      </trkpt>
      <trkpt lat="46.49033" lon="-1.55459">
        <ele>21</ele>
        <time>2019-03-21T15:48:06Z</time>
      </trkpt>
      <trkpt lat="46.49033" lon="-1.55462">
        <ele>21</ele>
        <time>2019-03-21T15:48:09Z</time>
      </trkpt>
      <trkpt lat="46.4903" lon="-1.55467">
        <ele>21</ele>
        <time>2019-03-21T15:48:11Z</time>
      </trkpt>
      <trkpt lat="46.49028" lon="-1.55471">
        <ele>21</ele>
        <time>2019-03-21T15:48:14Z</time>
      </trkpt>
      <trkpt lat="46.49026" lon="-1.55474">
        <ele>21</ele>
        <time>2019-03-21T15:48:17Z</time>
      </trkpt>
      <trkpt lat="46.49024" lon="-1.55479">
        <ele>21</ele>
        <time>2019-03-21T15:48:19Z</time>
      </trkpt>
      <trkpt lat="46.49022" lon="-1.55484">
        <ele>21</ele>
        <time>2019-03-21T15:48:22Z</time>
      </trkpt>
      <trkpt lat="46.4902" lon="-1.55487">
        <ele>21</ele>
        <time>2019-03-21T15:48:25Z</time>
      </trkpt>
      <trkpt lat="46.49018" lon="-1.55492">
        <ele>21</ele>
        <time>2019-03-21T15:48:27Z</time>
      </trkpt>
      <trkpt lat="46.49017" lon="-1.55495">
        <ele>21</ele>
        <time>2019-03-21T15:48:30Z</time>
      </trkpt>
      <trkpt lat="46.49016" lon="-1.555">
        <ele>21</ele>
        <time>2019-03-21T15:48:33Z</time>
      </trkpt>
      <trkpt lat="46.49014" lon="-1.55505">
        <ele>21</ele>
        <time>2019-03-21T15:48:35Z</time>
      </trkpt>
      <trkpt lat="46.49013" lon="-1.55508">
        <ele>21</ele>
        <time>2019-03-21T15:48:38Z</time>
      </trkpt>
      <trkpt lat="46.49011" lon="-1.55513">
        <ele>21</ele>
        <time>2019-03-21T15:48:40Z</time>
      </trkpt>
      <trkpt lat="46.4901" lon="-1.55516">
        <ele>21</ele>
        <time>2019-03-21T15:48:43Z</time>
      </trkpt>
      <trkpt lat="46.49007" lon="-1.55521">
        <ele>21</ele>
        <time>2019-03-21T15:48:46Z</time>
      </trkpt>
      <trkpt lat="46.49005" lon="-1.55526">
        <ele>21</ele>
        <time>2019-03-21T15:48:48Z</time>
      </trkpt>
      <trkpt lat="46.49004" lon="-1.55529">
        <ele>21</ele>
        <time>2019-03-21T15:48:51Z</time>
      </trkpt>
      <trkpt lat="46.49002" lon="-1.55533">
        <ele>21</ele>
        <time>2019-03-21T15:48:53Z</time>
      </trkpt>
      <trkpt lat="46.49" lon="-1.55536">
        <ele>21</ele>
        <time>2019-03-21T15:48:56Z</time>
      </trkpt>
      <trkpt lat="46.48999" lon="-1.55541">
        <ele>21</ele>
        <time>2019-03-21T15:48:59Z</time>
      </trkpt>
      <trkpt lat="46.48997" lon="-1.55546">
        <ele>21</ele>
        <time>2019-03-21T15:49:01Z</time>
      </trkpt>
      <trkpt lat="46.48996" lon="-1.55549">
        <ele>21</ele>
        <time>2019-03-21T15:49:04Z</time>
      </trkpt>
      <trkpt lat="46.48993" lon="-1.55555">
        <ele>21</ele>
        <time>2019-03-21T15:49:06Z</time>
      </trkpt>
      <trkpt lat="46.48991" lon="-1.55558">
        <ele>21</ele>
        <time>2019-03-21T15:49:09Z</time>
      </trkpt>
      <trkpt lat="46.48988" lon="-1.55563">
        <ele>21</ele>
        <time>2019-03-21T15:49:12Z</time>
      </trkpt>
      <trkpt lat="46.48985" lon="-1.55567">
        <ele>21</ele>
        <time>2019-03-21T15:49:14Z</time>
      </trkpt>
      <trkpt lat="46.48984" lon="-1.55571">
        <ele>21</ele>
        <time>2019-03-21T15:49:17Z</time>
      </trkpt>
      <trkpt lat="46.48981" lon="-1.55575">
        <ele>21</ele>
        <time>2019-03-21T15:49:19Z</time>
      </trkpt>
      <trkpt lat="46.4898" lon="-1.55578">
        <ele>21</ele>
        <time>2019-03-21T15:49:22Z</time>
      </trkpt>
      <trkpt lat="46.48978" lon="-1.55581">
        <ele>21</ele>
        <time>2019-03-21T15:49:25Z</time>
      </trkpt>
      <trkpt lat="46.48975" lon="-1.55586">
        <ele>21</ele>
        <time>2019-03-21T15:49:27Z</time>
      </trkpt>
      <trkpt lat="46.48973" lon="-1.55589">
        <ele>21</ele>
        <time>2019-03-21T15:49:30Z</time>
      </trkpt>
      <trkpt lat="46.48971" lon="-1.55594">
        <ele>21</ele>
        <time>2019-03-21T15:49:33Z</time>
      </trkpt>
      <trkpt lat="46.48968" lon="-1.55598">
        <ele>21</ele>
        <time>2019-03-21T15:49:35Z</time>
      </trkpt>
      <trkpt lat="46.48966" lon="-1.556">
        <ele>21</ele>
        <time>2019-03-21T15:49:38Z</time>
      </trkpt>
      <trkpt lat="46.48964" lon="-1.55604">
        <ele>21</ele>
        <time>2019-03-21T15:49:40Z</time>
      </trkpt>
      <trkpt lat="46.48962" lon="-1.55607">
        <ele>21</ele>
        <time>2019-03-21T15:49:43Z</time>
      </trkpt>
      <trkpt lat="46.4896" lon="-1.55611">
        <ele>20</ele>
        <time>2019-03-21T15:49:46Z</time>
      </trkpt>
      <trkpt lat="46.48957" lon="-1.55615">
        <ele>21</ele>
        <time>2019-03-21T15:49:48Z</time>
      </trkpt>
      <trkpt lat="46.48956" lon="-1.55617">
        <ele>21</ele>
        <time>2019-03-21T15:49:51Z</time>
      </trkpt>
      <trkpt lat="46.48953" lon="-1.5562">
        <ele>21</ele>
        <time>2019-03-21T15:49:53Z</time>
      </trkpt>
      <trkpt lat="46.48949" lon="-1.55621">
        <ele>21</ele>
        <time>2019-03-21T15:49:56Z</time>
      </trkpt>
      <trkpt lat="46.48947" lon="-1.55622">
        <ele>21</ele>
        <time>2019-03-21T15:49:59Z</time>
      </trkpt>
      <trkpt lat="46.48944" lon="-1.55621">
        <ele>21</ele>
        <time>2019-03-21T15:50:01Z</time>
      </trkpt>
      <trkpt lat="46.48942" lon="-1.55621">
        <ele>21</ele>
        <time>2019-03-21T15:50:04Z</time>
      </trkpt>
      <trkpt lat="46.48939" lon="-1.55621">
        <ele>21</ele>
        <time>2019-03-21T15:50:07Z</time>
      </trkpt>
      <trkpt lat="46.48935" lon="-1.55619">
        <ele>21</ele>
        <time>2019-03-21T15:50:09Z</time>
      </trkpt>
      <trkpt lat="46.48933" lon="-1.55618">
        <ele>21</ele>
        <time>2019-03-21T15:50:12Z</time>
      </trkpt>
      <trkpt lat="46.48929" lon="-1.55617">
        <ele>21</ele>
        <time>2019-03-21T15:50:14Z</time>
      </trkpt>
      <trkpt lat="46.48927" lon="-1.55616">
        <ele>21</ele>
        <time>2019-03-21T15:50:17Z</time>
      </trkpt>
      <trkpt lat="46.48923" lon="-1.55614">
        <ele>21</ele>
        <time>2019-03-21T15:50:19Z</time>
      </trkpt>
      <trkpt lat="46.48921" lon="-1.55614">
        <ele>21</ele>
        <time>2019-03-21T15:50:22Z</time>
      </trkpt>
      <trkpt lat="46.48918" lon="-1.55612">
        <ele>21</ele>
        <time>2019-03-21T15:50:25Z</time>
      </trkpt>
      <trkpt lat="46.48914" lon="-1.55611">
        <ele>21</ele>
        <time>2019-03-21T15:50:27Z</time>
      </trkpt>
      <trkpt lat="46.48912" lon="-1.55611">
        <ele>21</ele>
        <time>2019-03-21T15:50:30Z</time>
      </trkpt>
      <trkpt lat="46.48908" lon="-1.5561">
        <ele>21</ele>
        <time>2019-03-21T15:50:32Z</time>
      </trkpt>
      <trkpt lat="46.48906" lon="-1.55609">
        <ele>21</ele>
        <time>2019-03-21T15:50:35Z</time>
      </trkpt>
      <trkpt lat="46.48903" lon="-1.55608">
        <ele>21</ele>
        <time>2019-03-21T15:50:37Z</time>
      </trkpt>
      <trkpt lat="46.489" lon="-1.55608">
        <ele>21</ele>
        <time>2019-03-21T15:50:40Z</time>
      </trkpt>
      <trkpt lat="46.48896" lon="-1.55608">
        <ele>21</ele>
        <time>2019-03-21T15:50:42Z</time>
      </trkpt>
      <trkpt lat="46.48893" lon="-1.55608">
        <ele>21</ele>
        <time>2019-03-21T15:50:45Z</time>
      </trkpt>
      <trkpt lat="46.4889" lon="-1.55608">
        <ele>21</ele>
        <time>2019-03-21T15:50:48Z</time>
      </trkpt>
      <trkpt lat="46.48886" lon="-1.55608">
        <ele>21</ele>
        <time>2019-03-21T15:50:50Z</time>
      </trkpt>
      <trkpt lat="46.48884" lon="-1.55608">
        <ele>21</ele>
        <time>2019-03-21T15:50:53Z</time>
      </trkpt>
      <trkpt lat="46.48877" lon="-1.55608">
        <ele>21</ele>
        <time>2019-03-21T15:50:58Z</time>
      </trkpt>
      <trkpt lat="46.48873" lon="-1.55608">
        <ele>21</ele>
        <time>2019-03-21T15:51:00Z</time>
      </trkpt>
      <trkpt lat="46.4887" lon="-1.55607">
        <ele>21</ele>
        <time>2019-03-21T15:51:03Z</time>
      </trkpt>
      <trkpt lat="46.48868" lon="-1.55607">
        <ele>21</ele>
        <time>2019-03-21T15:51:06Z</time>
      </trkpt>
      <trkpt lat="46.48864" lon="-1.55607">
        <ele>21</ele>
        <time>2019-03-21T15:51:08Z</time>
      </trkpt>
      <trkpt lat="46.48861" lon="-1.55607">
        <ele>21</ele>
        <time>2019-03-21T15:51:11Z</time>
      </trkpt>
      <trkpt lat="46.48857" lon="-1.55607">
        <ele>21</ele>
        <time>2019-03-21T15:51:13Z</time>
      </trkpt>
      <trkpt lat="46.48853" lon="-1.55607">
        <ele>21</ele>
        <time>2019-03-21T15:51:16Z</time>
      </trkpt>
      <trkpt lat="46.4885" lon="-1.55607">
        <ele>21</ele>
        <time>2019-03-21T15:51:19Z</time>
      </trkpt>
      <trkpt lat="46.48845" lon="-1.55608">
        <ele>21</ele>
        <time>2019-03-21T15:51:21Z</time>
      </trkpt>
      <trkpt lat="46.48841" lon="-1.55608">
        <ele>21</ele>
        <time>2019-03-21T15:51:24Z</time>
      </trkpt>
      <trkpt lat="46.48839" lon="-1.55608">
        <ele>21</ele>
        <time>2019-03-21T15:51:27Z</time>
      </trkpt>
      <trkpt lat="46.48834" lon="-1.55608">
        <ele>21</ele>
        <time>2019-03-21T15:51:29Z</time>
      </trkpt>
      <trkpt lat="46.48832" lon="-1.55609">
        <ele>21</ele>
        <time>2019-03-21T15:51:32Z</time>
      </trkpt>
      <trkpt lat="46.48827" lon="-1.55609">
        <ele>21</ele>
        <time>2019-03-21T15:51:35Z</time>
      </trkpt>
      <trkpt lat="46.48822" lon="-1.5561">
        <ele>21</ele>
        <time>2019-03-21T15:51:37Z</time>
      </trkpt>
      <trkpt lat="46.4882" lon="-1.55611">
        <ele>21</ele>
        <time>2019-03-21T15:51:40Z</time>
      </trkpt>
      <trkpt lat="46.48815" lon="-1.55611">
        <ele>21</ele>
        <time>2019-03-21T15:51:42Z</time>
      </trkpt>
      <trkpt lat="46.48812" lon="-1.55612">
        <ele>21</ele>
        <time>2019-03-21T15:51:45Z</time>
      </trkpt>
      <trkpt lat="46.48809" lon="-1.55615">
        <ele>21</ele>
        <time>2019-03-21T15:51:47Z</time>
      </trkpt>
      <trkpt lat="46.48806" lon="-1.55616">
        <ele>21</ele>
        <time>2019-03-21T15:51:50Z</time>
      </trkpt>
      <trkpt lat="46.48802" lon="-1.55618">
        <ele>21</ele>
        <time>2019-03-21T15:51:53Z</time>
      </trkpt>
      <trkpt lat="46.48799" lon="-1.55621">
        <ele>21</ele>
        <time>2019-03-21T15:51:55Z</time>
      </trkpt>
      <trkpt lat="46.48797" lon="-1.55623">
        <ele>21</ele>
        <time>2019-03-21T15:51:58Z</time>
      </trkpt>
      <trkpt lat="46.48793" lon="-1.55626">
        <ele>21</ele>
        <time>2019-03-21T15:52:00Z</time>
      </trkpt>
      <trkpt lat="46.4879" lon="-1.55628">
        <ele>21</ele>
        <time>2019-03-21T15:52:03Z</time>
      </trkpt>
      <trkpt lat="46.48787" lon="-1.55631">
        <ele>21</ele>
        <time>2019-03-21T15:52:05Z</time>
      </trkpt>
      <trkpt lat="46.48785" lon="-1.55633">
        <ele>21</ele>
        <time>2019-03-21T15:52:08Z</time>
      </trkpt>
      <trkpt lat="46.48783" lon="-1.55636">
        <ele>21</ele>
        <time>2019-03-21T15:52:11Z</time>
      </trkpt>
      <trkpt lat="46.48782" lon="-1.55641">
        <ele>21</ele>
        <time>2019-03-21T15:52:13Z</time>
      </trkpt>
      <trkpt lat="46.48781" lon="-1.55645">
        <ele>21</ele>
        <time>2019-03-21T15:52:16Z</time>
      </trkpt>
      <trkpt lat="46.48781" lon="-1.55649">
        <ele>21</ele>
        <time>2019-03-21T15:52:18Z</time>
      </trkpt>
      <trkpt lat="46.48781" lon="-1.55654">
        <ele>21</ele>
        <time>2019-03-21T15:52:21Z</time>
      </trkpt>
      <trkpt lat="46.4878" lon="-1.55657">
        <ele>21</ele>
        <time>2019-03-21T15:52:24Z</time>
      </trkpt>
      <trkpt lat="46.48778" lon="-1.55661">
        <ele>21</ele>
        <time>2019-03-21T15:52:26Z</time>
      </trkpt>
      <trkpt lat="46.48778" lon="-1.55661">
        <ele>21</ele>
        <time>2019-03-21T15:52:29Z</time>
      </trkpt>
      <trkpt lat="46.48778" lon="-1.55661">
        <ele>21</ele>
        <time>2019-03-21T15:52:32Z</time>
      </trkpt>
      <trkpt lat="46.48778" lon="-1.5566">
        <ele>21</ele>
        <time>2019-03-21T15:52:34Z</time>
      </trkpt>
      <trkpt lat="46.48778" lon="-1.5566">
        <ele>21</ele>
        <time>2019-03-21T15:52:37Z</time>
      </trkpt>
      <trkpt lat="46.48778" lon="-1.55661">
        <ele>21</ele>
        <time>2019-03-21T15:52:40Z</time>
      </trkpt>
      <trkpt lat="46.48778" lon="-1.55661">
        <ele>21</ele>
        <time>2019-03-21T15:52:42Z</time>
      </trkpt>
      <trkpt lat="46.48778" lon="-1.55661">
        <ele>21</ele>
        <time>2019-03-21T15:52:45Z</time>
      </trkpt>
      <trkpt lat="46.48778" lon="-1.55662">
        <ele>21</ele>
        <time>2019-03-21T15:52:48Z</time>
      </trkpt>
      <trkpt lat="46.48778" lon="-1.55666">
        <ele>21</ele>
        <time>2019-03-21T15:52:50Z</time>
      </trkpt>
      <trkpt lat="46.48778" lon="-1.55671">
        <ele>21</ele>
        <time>2019-03-21T15:52:53Z</time>
      </trkpt>
      <trkpt lat="46.48778" lon="-1.55675">
        <ele>21</ele>
        <time>2019-03-21T15:52:56Z</time>
      </trkpt>
      <trkpt lat="46.48777" lon="-1.5568">
        <ele>21</ele>
        <time>2019-03-21T15:52:58Z</time>
      </trkpt>
      <trkpt lat="46.48775" lon="-1.55684">
        <ele>21</ele>
        <time>2019-03-21T15:53:01Z</time>
      </trkpt>
      <trkpt lat="46.48774" lon="-1.55687">
        <ele>21</ele>
        <time>2019-03-21T15:53:04Z</time>
      </trkpt>
      <trkpt lat="46.48773" lon="-1.55691">
        <ele>21</ele>
        <time>2019-03-21T15:53:06Z</time>
      </trkpt>
      <trkpt lat="46.48772" lon="-1.55694">
        <ele>21</ele>
        <time>2019-03-21T15:53:09Z</time>
      </trkpt>
      <trkpt lat="46.4877" lon="-1.55699">
        <ele>21</ele>
        <time>2019-03-21T15:53:12Z</time>
      </trkpt>
      <trkpt lat="46.48769" lon="-1.55703">
        <ele>21</ele>
        <time>2019-03-21T15:53:14Z</time>
      </trkpt>
      <trkpt lat="46.48768" lon="-1.55706">
        <ele>21</ele>
        <time>2019-03-21T15:53:17Z</time>
      </trkpt>
      <trkpt lat="46.48767" lon="-1.5571">
        <ele>21</ele>
        <time>2019-03-21T15:53:20Z</time>
      </trkpt>
      <trkpt lat="46.48765" lon="-1.55715">
        <ele>22</ele>
        <time>2019-03-21T15:53:22Z</time>
      </trkpt>
      <trkpt lat="46.48763" lon="-1.55718">
        <ele>21</ele>
        <time>2019-03-21T15:53:25Z</time>
      </trkpt>
      <trkpt lat="46.48761" lon="-1.55723">
        <ele>21</ele>
        <time>2019-03-21T15:53:27Z</time>
      </trkpt>
      <trkpt lat="46.4876" lon="-1.55725">
        <ele>21</ele>
        <time>2019-03-21T15:53:30Z</time>
      </trkpt>
      <trkpt lat="46.48759" lon="-1.5573">
        <ele>21</ele>
        <time>2019-03-21T15:53:32Z</time>
      </trkpt>
      <trkpt lat="46.48759" lon="-1.55734">
        <ele>21</ele>
        <time>2019-03-21T15:53:35Z</time>
      </trkpt>
      <trkpt lat="46.48759" lon="-1.5574">
        <ele>21</ele>
        <time>2019-03-21T15:53:38Z</time>
      </trkpt>
      <trkpt lat="46.48758" lon="-1.55746">
        <ele>21</ele>
        <time>2019-03-21T15:53:40Z</time>
      </trkpt>
      <trkpt lat="46.48756" lon="-1.55749">
        <ele>21</ele>
        <time>2019-03-21T15:53:43Z</time>
      </trkpt>
      <trkpt lat="46.48754" lon="-1.55754">
        <ele>21</ele>
        <time>2019-03-21T15:53:45Z</time>
      </trkpt>
      <trkpt lat="46.48752" lon="-1.55757">
        <ele>21</ele>
        <time>2019-03-21T15:53:48Z</time>
      </trkpt>
      <trkpt lat="46.48749" lon="-1.55761">
        <ele>21</ele>
        <time>2019-03-21T15:53:51Z</time>
      </trkpt>
      <trkpt lat="46.48747" lon="-1.55764">
        <ele>21</ele>
        <time>2019-03-21T15:53:53Z</time>
      </trkpt>
      <trkpt lat="46.48742" lon="-1.5577">
        <ele>21</ele>
        <time>2019-03-21T15:53:58Z</time>
      </trkpt>
      <trkpt lat="46.48741" lon="-1.55772">
        <ele>21</ele>
        <time>2019-03-21T15:54:01Z</time>
      </trkpt>
      <trkpt lat="46.48738" lon="-1.55775">
        <ele>21</ele>
        <time>2019-03-21T15:54:04Z</time>
      </trkpt>
      <trkpt lat="46.48735" lon="-1.55778">
        <ele>21</ele>
        <time>2019-03-21T15:54:06Z</time>
      </trkpt>
      <trkpt lat="46.48733" lon="-1.5578">
        <ele>21</ele>
        <time>2019-03-21T15:54:09Z</time>
      </trkpt>
      <trkpt lat="46.48731" lon="-1.55784">
        <ele>21</ele>
        <time>2019-03-21T15:54:11Z</time>
      </trkpt>
      <trkpt lat="46.48728" lon="-1.55787">
        <ele>21</ele>
        <time>2019-03-21T15:54:14Z</time>
      </trkpt>
      <trkpt lat="46.48725" lon="-1.55791">
        <ele>21</ele>
        <time>2019-03-21T15:54:16Z</time>
      </trkpt>
      <trkpt lat="46.48723" lon="-1.55793">
        <ele>20</ele>
        <time>2019-03-21T15:54:19Z</time>
      </trkpt>
      <trkpt lat="46.4872" lon="-1.55797">
        <ele>21</ele>
        <time>2019-03-21T15:54:21Z</time>
      </trkpt>
      <trkpt lat="46.48718" lon="-1.55799">
        <ele>21</ele>
        <time>2019-03-21T15:54:24Z</time>
      </trkpt>
      <trkpt lat="46.48716" lon="-1.55803">
        <ele>21</ele>
        <time>2019-03-21T15:54:27Z</time>
      </trkpt>
      <trkpt lat="46.48712" lon="-1.55806">
        <ele>21</ele>
        <time>2019-03-21T15:54:29Z</time>
      </trkpt>
      <trkpt lat="46.48711" lon="-1.55808">
        <ele>21</ele>
        <time>2019-03-21T15:54:32Z</time>
      </trkpt>
      <trkpt lat="46.48707" lon="-1.55811">
        <ele>21</ele>
        <time>2019-03-21T15:54:34Z</time>
      </trkpt>
      <trkpt lat="46.48705" lon="-1.55813">
        <ele>21</ele>
        <time>2019-03-21T15:54:37Z</time>
      </trkpt>
      <trkpt lat="46.48702" lon="-1.55815">
        <ele>21</ele>
        <time>2019-03-21T15:54:39Z</time>
      </trkpt>
      <trkpt lat="46.48699" lon="-1.55817">
        <ele>21</ele>
        <time>2019-03-21T15:54:42Z</time>
      </trkpt>
      <trkpt lat="46.48696" lon="-1.55818">
        <ele>21</ele>
        <time>2019-03-21T15:54:45Z</time>
      </trkpt>
      <trkpt lat="46.48692" lon="-1.55821">
        <ele>21</ele>
        <time>2019-03-21T15:54:47Z</time>
      </trkpt>
      <trkpt lat="46.4869" lon="-1.55822">
        <ele>21</ele>
        <time>2019-03-21T15:54:50Z</time>
      </trkpt>
      <trkpt lat="46.48686" lon="-1.55825">
        <ele>21</ele>
        <time>2019-03-21T15:54:52Z</time>
      </trkpt>
      <trkpt lat="46.48684" lon="-1.55827">
        <ele>21</ele>
        <time>2019-03-21T15:54:55Z</time>
      </trkpt>
      <trkpt lat="46.4868" lon="-1.55829">
        <ele>21</ele>
        <time>2019-03-21T15:54:58Z</time>
      </trkpt>
      <trkpt lat="46.48677" lon="-1.55832">
        <ele>21</ele>
        <time>2019-03-21T15:55:00Z</time>
      </trkpt>
      <trkpt lat="46.48674" lon="-1.55834">
        <ele>21</ele>
        <time>2019-03-21T15:55:03Z</time>
      </trkpt>
      <trkpt lat="46.48671" lon="-1.55837">
        <ele>21</ele>
        <time>2019-03-21T15:55:05Z</time>
      </trkpt>
      <trkpt lat="46.48669" lon="-1.55838">
        <ele>21</ele>
        <time>2019-03-21T15:55:08Z</time>
      </trkpt>
      <trkpt lat="46.48665" lon="-1.5584">
        <ele>21</ele>
        <time>2019-03-21T15:55:11Z</time>
      </trkpt>
      <trkpt lat="46.48662" lon="-1.55842">
        <ele>21</ele>
        <time>2019-03-21T15:55:13Z</time>
      </trkpt>
      <trkpt lat="46.48659" lon="-1.55844">
        <ele>21</ele>
        <time>2019-03-21T15:55:16Z</time>
      </trkpt>
      <trkpt lat="46.48655" lon="-1.55845">
        <ele>21</ele>
        <time>2019-03-21T15:55:18Z</time>
      </trkpt>
      <trkpt lat="46.48652" lon="-1.55847">
        <ele>21</ele>
        <time>2019-03-21T15:55:21Z</time>
      </trkpt>
      <trkpt lat="46.48649" lon="-1.55848">
        <ele>21</ele>
        <time>2019-03-21T15:55:24Z</time>
      </trkpt>
      <trkpt lat="46.48646" lon="-1.5585">
        <ele>21</ele>
        <time>2019-03-21T15:55:26Z</time>
      </trkpt>
      <trkpt lat="46.48644" lon="-1.55851">
        <ele>21</ele>
        <time>2019-03-21T15:55:29Z</time>
      </trkpt>
      <trkpt lat="46.4864" lon="-1.55852">
        <ele>21</ele>
        <time>2019-03-21T15:55:32Z</time>
      </trkpt>
      <trkpt lat="46.48637" lon="-1.55854">
        <ele>21</ele>
        <time>2019-03-21T15:55:34Z</time>
      </trkpt>
      <trkpt lat="46.48635" lon="-1.55855">
        <ele>21</ele>
        <time>2019-03-21T15:55:37Z</time>
      </trkpt>
      <trkpt lat="46.48631" lon="-1.55857">
        <ele>21</ele>
        <time>2019-03-21T15:55:40Z</time>
      </trkpt>
      <trkpt lat="46.48628" lon="-1.55859">
        <ele>21</ele>
        <time>2019-03-21T15:55:42Z</time>
      </trkpt>
      <trkpt lat="46.48627" lon="-1.55861">
        <ele>22</ele>
        <time>2019-03-21T15:55:45Z</time>
      </trkpt>
      <trkpt lat="46.48624" lon="-1.55863">
        <ele>22</ele>
        <time>2019-03-21T15:55:47Z</time>
      </trkpt>
      <trkpt lat="46.48621" lon="-1.55865">
        <ele>22</ele>
        <time>2019-03-21T15:55:50Z</time>
      </trkpt>
      <trkpt lat="46.48619" lon="-1.55867">
        <ele>22</ele>
        <time>2019-03-21T15:55:53Z</time>
      </trkpt>
      <trkpt lat="46.48616" lon="-1.55869">
        <ele>24</ele>
        <time>2019-03-21T15:55:55Z</time>
      </trkpt>
      <trkpt lat="46.48615" lon="-1.55871">
        <ele>24</ele>
        <time>2019-03-21T15:55:58Z</time>
      </trkpt>
      <trkpt lat="46.48613" lon="-1.55874">
        <ele>24</ele>
        <time>2019-03-21T15:56:01Z</time>
      </trkpt>
      <trkpt lat="46.48611" lon="-1.55875">
        <ele>24</ele>
        <time>2019-03-21T15:56:03Z</time>
      </trkpt>
      <trkpt lat="46.48611" lon="-1.55875">
        <ele>24</ele>
        <time>2019-03-21T15:56:06Z</time>
      </trkpt>
      <trkpt lat="46.48611" lon="-1.55874">
        <ele>24</ele>
        <time>2019-03-21T15:56:09Z</time>
      </trkpt>
      <trkpt lat="46.48611" lon="-1.55875">
        <ele>24</ele>
        <time>2019-03-21T15:56:11Z</time>
      </trkpt>
      <trkpt lat="46.48611" lon="-1.55876">
        <ele>24</ele>
        <time>2019-03-21T15:56:14Z</time>
      </trkpt>
      <trkpt lat="46.4861" lon="-1.55875">
        <ele>24</ele>
        <time>2019-03-21T15:56:17Z</time>
      </trkpt>
      <trkpt lat="46.4861" lon="-1.55875">
        <ele>24</ele>
        <time>2019-03-21T15:56:19Z</time>
      </trkpt>
      <trkpt lat="46.4861" lon="-1.55875">
        <ele>24</ele>
        <time>2019-03-21T15:56:22Z</time>
      </trkpt>
      <trkpt lat="46.4861" lon="-1.55875">
        <ele>24</ele>
        <time>2019-03-21T15:56:25Z</time>
      </trkpt>
      <trkpt lat="46.4861" lon="-1.55875">
        <ele>24</ele>
        <time>2019-03-21T15:56:27Z</time>
      </trkpt>
      <trkpt lat="46.48609" lon="-1.55875">
        <ele>24</ele>
        <time>2019-03-21T15:56:30Z</time>
      </trkpt>
      <trkpt lat="46.48609" lon="-1.55875">
        <ele>24</ele>
        <time>2019-03-21T15:56:33Z</time>
      </trkpt>
      <trkpt lat="46.48609" lon="-1.55875">
        <ele>24</ele>
        <time>2019-03-21T15:56:35Z</time>
      </trkpt>
      <trkpt lat="46.48609" lon="-1.55876">
        <ele>24</ele>
        <time>2019-03-21T15:56:38Z</time>
      </trkpt>
      <trkpt lat="46.48608" lon="-1.55875">
        <ele>24</ele>
        <time>2019-03-21T15:56:41Z</time>
      </trkpt>
      <trkpt lat="46.48608" lon="-1.55875">
        <ele>24</ele>
        <time>2019-03-21T15:56:43Z</time>
      </trkpt>
      <trkpt lat="46.48608" lon="-1.55875">
        <ele>24</ele>
        <time>2019-03-21T15:56:46Z</time>
      </trkpt>
      <trkpt lat="46.48607" lon="-1.55875">
        <ele>24</ele>
        <time>2019-03-21T15:56:49Z</time>
      </trkpt>
      <trkpt lat="46.48607" lon="-1.55875">
        <ele>24</ele>
        <time>2019-03-21T15:56:51Z</time>
      </trkpt>
      <trkpt lat="46.48607" lon="-1.55875">
        <ele>24</ele>
        <time>2019-03-21T15:56:54Z</time>
      </trkpt>
      <trkpt lat="46.48607" lon="-1.55875">
        <ele>24</ele>
        <time>2019-03-21T15:56:59Z</time>
      </trkpt>
      <trkpt lat="46.48607" lon="-1.55875">
        <ele>24</ele>
        <time>2019-03-21T15:57:02Z</time>
      </trkpt>
      <trkpt lat="46.48607" lon="-1.55875">
        <ele>24</ele>
        <time>2019-03-21T15:57:04Z</time>
      </trkpt>
      <trkpt lat="46.48607" lon="-1.55874">
        <ele>24</ele>
        <time>2019-03-21T15:57:07Z</time>
      </trkpt>
      <trkpt lat="46.48608" lon="-1.55874">
        <ele>24</ele>
        <time>2019-03-21T15:57:10Z</time>
      </trkpt>
      <trkpt lat="46.48608" lon="-1.55874">
        <ele>24</ele>
        <time>2019-03-21T15:57:12Z</time>
      </trkpt>
      <trkpt lat="46.48608" lon="-1.55874">
        <ele>24</ele>
        <time>2019-03-21T15:57:15Z</time>
      </trkpt>
      <trkpt lat="46.48608" lon="-1.55874">
        <ele>24</ele>
        <time>2019-03-21T15:57:18Z</time>
      </trkpt>
      <trkpt lat="46.48607" lon="-1.55874">
        <ele>24</ele>
        <time>2019-03-21T15:57:20Z</time>
      </trkpt>
      <trkpt lat="46.48607" lon="-1.55873">
        <ele>24</ele>
        <time>2019-03-21T15:57:23Z</time>
      </trkpt>
      <trkpt lat="46.48607" lon="-1.55873">
        <ele>24</ele>
        <time>2019-03-21T15:57:26Z</time>
      </trkpt>
      <trkpt lat="46.48607" lon="-1.55872">
        <ele>24</ele>
        <time>2019-03-21T15:57:28Z</time>
      </trkpt>
      <trkpt lat="46.48608" lon="-1.55872">
        <ele>24</ele>
        <time>2019-03-21T15:57:31Z</time>
      </trkpt>
      <trkpt lat="46.48609" lon="-1.55873">
        <ele>24</ele>
        <time>2019-03-21T15:57:34Z</time>
      </trkpt>
      <trkpt lat="46.48609" lon="-1.55873">
        <ele>24</ele>
        <time>2019-03-21T15:57:36Z</time>
      </trkpt>
      <trkpt lat="46.48609" lon="-1.55873">
        <ele>24</ele>
        <time>2019-03-21T15:57:39Z</time>
      </trkpt>
      <trkpt lat="46.48609" lon="-1.55873">
        <ele>24</ele>
        <time>2019-03-21T15:57:42Z</time>
      </trkpt>
      <trkpt lat="46.48609" lon="-1.55874">
        <ele>24</ele>
        <time>2019-03-21T15:57:44Z</time>
      </trkpt>
      <trkpt lat="46.48608" lon="-1.55874">
        <ele>24</ele>
        <time>2019-03-21T15:57:47Z</time>
      </trkpt>
      <trkpt lat="46.48608" lon="-1.55873">
        <ele>24</ele>
        <time>2019-03-21T15:57:50Z</time>
      </trkpt>
      <trkpt lat="46.48608" lon="-1.55873">
        <ele>24</ele>
        <time>2019-03-21T15:57:52Z</time>
      </trkpt>
      <trkpt lat="46.48608" lon="-1.55873">
        <ele>24</ele>
        <time>2019-03-21T15:57:55Z</time>
      </trkpt>
      <trkpt lat="46.48608" lon="-1.55874">
        <ele>24</ele>
        <time>2019-03-21T15:57:58Z</time>
      </trkpt>
      <trkpt lat="46.48609" lon="-1.55874">
        <ele>24</ele>
        <time>2019-03-21T15:58:00Z</time>
      </trkpt>
      <trkpt lat="46.48609" lon="-1.55874">
        <ele>24</ele>
        <time>2019-03-21T15:58:03Z</time>
      </trkpt>
      <trkpt lat="46.48609" lon="-1.55875">
        <ele>24</ele>
        <time>2019-03-21T15:58:06Z</time>
      </trkpt>
      <trkpt lat="46.48608" lon="-1.55875">
        <ele>24</ele>
        <time>2019-03-21T15:58:08Z</time>
      </trkpt>
      <trkpt lat="46.48608" lon="-1.55875">
        <ele>24</ele>
        <time>2019-03-21T15:58:11Z</time>
      </trkpt>
      <trkpt lat="46.48607" lon="-1.55877">
        <ele>24</ele>
        <time>2019-03-21T15:58:14Z</time>
      </trkpt>
      <trkpt lat="46.48605" lon="-1.55878">
        <ele>25</ele>
        <time>2019-03-21T15:58:16Z</time>
      </trkpt>
      <trkpt lat="46.48604" lon="-1.55879">
        <ele>24</ele>
        <time>2019-03-21T15:58:19Z</time>
      </trkpt>
      <trkpt lat="46.48602" lon="-1.5588">
        <ele>24</ele>
        <time>2019-03-21T15:58:22Z</time>
      </trkpt>
      <trkpt lat="46.48602" lon="-1.55882">
        <ele>24</ele>
        <time>2019-03-21T15:58:24Z</time>
      </trkpt>
      <trkpt lat="46.48601" lon="-1.55883">
        <ele>24</ele>
        <time>2019-03-21T15:58:27Z</time>
      </trkpt>
      <trkpt lat="46.48601" lon="-1.55884">
        <ele>24</ele>
        <time>2019-03-21T15:58:30Z</time>
      </trkpt>
      <trkpt lat="46.486" lon="-1.55882">
        <ele>24</ele>
        <time>2019-03-21T15:58:32Z</time>
      </trkpt>
      <trkpt lat="46.486" lon="-1.5588">
        <ele>24</ele>
        <time>2019-03-21T15:58:35Z</time>
      </trkpt>
      <trkpt lat="46.48599" lon="-1.55877">
        <ele>24</ele>
        <time>2019-03-21T15:58:38Z</time>
      </trkpt>
      <trkpt lat="46.48597" lon="-1.55874">
        <ele>22</ele>
        <time>2019-03-21T15:58:41Z</time>
      </trkpt>
      <trkpt lat="46.48595" lon="-1.5587">
        <ele>22</ele>
        <time>2019-03-21T15:58:43Z</time>
      </trkpt>
      <trkpt lat="46.48595" lon="-1.55868">
        <ele>22</ele>
        <time>2019-03-21T15:58:46Z</time>
      </trkpt>
      <trkpt lat="46.48594" lon="-1.55864">
        <ele>22</ele>
        <time>2019-03-21T15:58:48Z</time>
      </trkpt>
      <trkpt lat="46.48591" lon="-1.55861">
        <ele>21</ele>
        <time>2019-03-21T15:58:51Z</time>
      </trkpt>
      <trkpt lat="46.4859" lon="-1.5586">
        <ele>21</ele>
        <time>2019-03-21T15:58:54Z</time>
      </trkpt>
      <trkpt lat="46.48587" lon="-1.5586">
        <ele>21</ele>
        <time>2019-03-21T15:58:56Z</time>
      </trkpt>
      <trkpt lat="46.48585" lon="-1.5586">
        <ele>21</ele>
        <time>2019-03-21T15:58:59Z</time>
      </trkpt>
      <trkpt lat="46.48582" lon="-1.55861">
        <ele>21</ele>
        <time>2019-03-21T15:59:02Z</time>
      </trkpt>
      <trkpt lat="46.48579" lon="-1.55862">
        <ele>21</ele>
        <time>2019-03-21T15:59:04Z</time>
      </trkpt>
      <trkpt lat="46.48577" lon="-1.55862">
        <ele>21</ele>
        <time>2019-03-21T15:59:07Z</time>
      </trkpt>
      <trkpt lat="46.48575" lon="-1.55863">
        <ele>21</ele>
        <time>2019-03-21T15:59:09Z</time>
      </trkpt>
      <trkpt lat="46.48574" lon="-1.55862">
        <ele>21</ele>
        <time>2019-03-21T15:59:12Z</time>
      </trkpt>
      <trkpt lat="46.48573" lon="-1.55863">
        <ele>21</ele>
        <time>2019-03-21T15:59:15Z</time>
      </trkpt>
      <trkpt lat="46.48573" lon="-1.55863">
        <ele>21</ele>
        <time>2019-03-21T15:59:17Z</time>
      </trkpt>
      <trkpt lat="46.48574" lon="-1.55863">
        <ele>21</ele>
        <time>2019-03-21T15:59:20Z</time>
      </trkpt>
      <trkpt lat="46.48577" lon="-1.55862">
        <ele>21</ele>
        <time>2019-03-21T15:59:23Z</time>
      </trkpt>
      <trkpt lat="46.48581" lon="-1.55862">
        <ele>21</ele>
        <time>2019-03-21T15:59:25Z</time>
      </trkpt>
      <trkpt lat="46.48582" lon="-1.55862">
        <ele>21</ele>
        <time>2019-03-21T15:59:28Z</time>
      </trkpt>
      <trkpt lat="46.48586" lon="-1.55861">
        <ele>21</ele>
        <time>2019-03-21T15:59:30Z</time>
      </trkpt>
      <trkpt lat="46.48589" lon="-1.5586">
        <ele>21</ele>
        <time>2019-03-21T15:59:33Z</time>
      </trkpt>
      <trkpt lat="46.48591" lon="-1.55861">
        <ele>21</ele>
        <time>2019-03-21T15:59:36Z</time>
      </trkpt>
      <trkpt lat="46.48594" lon="-1.55864">
        <ele>22</ele>
        <time>2019-03-21T15:59:38Z</time>
      </trkpt>
      <trkpt lat="46.48596" lon="-1.55868">
        <ele>22</ele>
        <time>2019-03-21T15:59:41Z</time>
      </trkpt>
      <trkpt lat="46.48598" lon="-1.5587">
        <ele>22</ele>
        <time>2019-03-21T15:59:44Z</time>
      </trkpt>
      <trkpt lat="46.486" lon="-1.55873">
        <ele>23</ele>
        <time>2019-03-21T15:59:46Z</time>
      </trkpt>
      <trkpt lat="46.48601" lon="-1.55875">
        <ele>23</ele>
        <time>2019-03-21T15:59:49Z</time>
      </trkpt>
      <trkpt lat="46.48603" lon="-1.55876">
        <ele>23</ele>
        <time>2019-03-21T15:59:52Z</time>
      </trkpt>
      <trkpt lat="46.48606" lon="-1.55875">
        <ele>24</ele>
        <time>2019-03-21T15:59:54Z</time>
      </trkpt>
      <trkpt lat="46.48608" lon="-1.55874">
        <ele>24</ele>
        <time>2019-03-21T15:59:59Z</time>
      </trkpt>
      <trkpt lat="46.48609" lon="-1.55874">
        <ele>24</ele>
        <time>2019-03-21T16:00:02Z</time>
      </trkpt>
      <trkpt lat="46.48609" lon="-1.55874">
        <ele>24</ele>
        <time>2019-03-21T16:00:05Z</time>
      </trkpt>
      <trkpt lat="46.48609" lon="-1.55874">
        <ele>24</ele>
        <time>2019-03-21T16:00:07Z</time>
      </trkpt>
      <trkpt lat="46.48609" lon="-1.55874">
        <ele>24</ele>
        <time>2019-03-21T16:00:10Z</time>
      </trkpt>
      <trkpt lat="46.48609" lon="-1.55874">
        <ele>24</ele>
        <time>2019-03-21T16:00:13Z</time>
      </trkpt>
      <trkpt lat="46.48609" lon="-1.55874">
        <ele>24</ele>
        <time>2019-03-21T16:00:15Z</time>
      </trkpt>
      <trkpt lat="46.48609" lon="-1.55874">
        <ele>24</ele>
        <time>2019-03-21T16:00:18Z</time>
      </trkpt>
      <trkpt lat="46.48609" lon="-1.55874">
        <ele>24</ele>
        <time>2019-03-21T16:00:21Z</time>
      </trkpt>
      <trkpt lat="46.48609" lon="-1.55874">
        <ele>24</ele>
        <time>2019-03-21T16:00:23Z</time>
      </trkpt>
      <trkpt lat="46.48609" lon="-1.55874">
        <ele>24</ele>
        <time>2019-03-21T16:00:26Z</time>
      </trkpt>
      <trkpt lat="46.48609" lon="-1.55874">
        <ele>24</ele>
        <time>2019-03-21T16:00:28Z</time>
      </trkpt>
      <trkpt lat="46.48609" lon="-1.55875">
        <ele>24</ele>
        <time>2019-03-21T16:00:31Z</time>
      </trkpt>
      <trkpt lat="46.48609" lon="-1.55875">
        <ele>24</ele>
        <time>2019-03-21T16:00:34Z</time>
      </trkpt>
      <trkpt lat="46.48609" lon="-1.55874">
        <ele>24</ele>
        <time>2019-03-21T16:00:36Z</time>
      </trkpt>
      <trkpt lat="46.48609" lon="-1.55874">
        <ele>24</ele>
        <time>2019-03-21T16:00:39Z</time>
      </trkpt>
      <trkpt lat="46.48609" lon="-1.55874">
        <ele>24</ele>
        <time>2019-03-21T16:00:42Z</time>
      </trkpt>
      <trkpt lat="46.48609" lon="-1.55874">
        <ele>24</ele>
        <time>2019-03-21T16:00:44Z</time>
      </trkpt>
      <trkpt lat="46.48609" lon="-1.55874">
        <ele>24</ele>
        <time>2019-03-21T16:00:47Z</time>
      </trkpt>
      <trkpt lat="46.4861" lon="-1.55874">
        <ele>24</ele>
        <time>2019-03-21T16:00:49Z</time>
      </trkpt>
      <trkpt lat="46.48609" lon="-1.55874">
        <ele>24</ele>
        <time>2019-03-21T16:00:52Z</time>
      </trkpt>
      <trkpt lat="46.4861" lon="-1.55874">
        <ele>24</ele>
        <time>2019-03-21T16:00:55Z</time>
      </trkpt>
      <trkpt lat="46.4861" lon="-1.55874">
        <ele>24</ele>
        <time>2019-03-21T16:00:57Z</time>
      </trkpt>
      <trkpt lat="46.4861" lon="-1.55875">
        <ele>24</ele>
        <time>2019-03-21T16:01:00Z</time>
      </trkpt>
      <trkpt lat="46.4861" lon="-1.55875">
        <ele>24</ele>
        <time>2019-03-21T16:01:03Z</time>
      </trkpt>
      <trkpt lat="46.4861" lon="-1.55874">
        <ele>24</ele>
        <time>2019-03-21T16:01:05Z</time>
      </trkpt>
      <trkpt lat="46.4861" lon="-1.55874">
        <ele>24</ele>
        <time>2019-03-21T16:01:08Z</time>
      </trkpt>
      <trkpt lat="46.4861" lon="-1.55874">
        <ele>24</ele>
        <time>2019-03-21T16:01:11Z</time>
      </trkpt>
      <trkpt lat="46.4861" lon="-1.55874">
        <ele>24</ele>
        <time>2019-03-21T16:01:13Z</time>
      </trkpt>
      <trkpt lat="46.4861" lon="-1.55874">
        <ele>24</ele>
        <time>2019-03-21T16:01:16Z</time>
      </trkpt>
      <trkpt lat="46.48611" lon="-1.55874">
        <ele>24</ele>
        <time>2019-03-21T16:01:19Z</time>
      </trkpt>
      <trkpt lat="46.4861" lon="-1.55874">
        <ele>24</ele>
        <time>2019-03-21T16:01:21Z</time>
      </trkpt>
      <trkpt lat="46.4861" lon="-1.55874">
        <ele>24</ele>
        <time>2019-03-21T16:01:24Z</time>
      </trkpt>
      <trkpt lat="46.4861" lon="-1.55874">
        <ele>24</ele>
        <time>2019-03-21T16:01:26Z</time>
      </trkpt>
      <trkpt lat="46.4861" lon="-1.55874">
        <ele>24</ele>
        <time>2019-03-21T16:01:29Z</time>
      </trkpt>
      <trkpt lat="46.48611" lon="-1.55874">
        <ele>24</ele>
        <time>2019-03-21T16:01:32Z</time>
      </trkpt>
      <trkpt lat="46.4861" lon="-1.55874">
        <ele>24</ele>
        <time>2019-03-21T16:01:34Z</time>
      </trkpt>
      <trkpt lat="46.4861" lon="-1.55874">
        <ele>24</ele>
        <time>2019-03-21T16:01:37Z</time>
      </trkpt>
      <trkpt lat="46.4861" lon="-1.55875">
        <ele>24</ele>
        <time>2019-03-21T16:01:40Z</time>
      </trkpt>
      <trkpt lat="46.48608" lon="-1.55875">
        <ele>24</ele>
        <time>2019-03-21T16:01:42Z</time>
      </trkpt>
      <trkpt lat="46.48607" lon="-1.55875">
        <ele>24</ele>
        <time>2019-03-21T16:01:45Z</time>
      </trkpt>
      <trkpt lat="46.48607" lon="-1.55876">
        <ele>24</ele>
        <time>2019-03-21T16:01:47Z</time>
      </trkpt>
      <trkpt lat="46.48607" lon="-1.55876">
        <ele>24</ele>
        <time>2019-03-21T16:01:50Z</time>
      </trkpt>
      <trkpt lat="46.48607" lon="-1.55877">
        <ele>25</ele>
        <time>2019-03-21T16:01:53Z</time>
      </trkpt>
      <trkpt lat="46.48606" lon="-1.55879">
        <ele>25</ele>
        <time>2019-03-21T16:01:55Z</time>
      </trkpt>
      <trkpt lat="46.48605" lon="-1.55879">
        <ele>25</ele>
        <time>2019-03-21T16:01:58Z</time>
      </trkpt>
      <trkpt lat="46.48606" lon="-1.55879">
        <ele>25</ele>
        <time>2019-03-21T16:02:00Z</time>
      </trkpt>
      <trkpt lat="46.48608" lon="-1.55877">
        <ele>25</ele>
        <time>2019-03-21T16:02:03Z</time>
      </trkpt>
      <trkpt lat="46.48609" lon="-1.55876">
        <ele>24</ele>
        <time>2019-03-21T16:02:05Z</time>
      </trkpt>
      <trkpt lat="46.4861" lon="-1.55876">
        <ele>24</ele>
        <time>2019-03-21T16:02:08Z</time>
      </trkpt>
      <trkpt lat="46.4861" lon="-1.55876">
        <ele>24</ele>
        <time>2019-03-21T16:02:11Z</time>
      </trkpt>
      <trkpt lat="46.4861" lon="-1.55876">
        <ele>24</ele>
        <time>2019-03-21T16:02:13Z</time>
      </trkpt>
      <trkpt lat="46.4861" lon="-1.55876">
        <ele>24</ele>
        <time>2019-03-21T16:02:16Z</time>
      </trkpt>
      <trkpt lat="46.4861" lon="-1.55876">
        <ele>24</ele>
        <time>2019-03-21T16:02:18Z</time>
      </trkpt>
      <trkpt lat="46.4861" lon="-1.55876">
        <ele>24</ele>
        <time>2019-03-21T16:02:21Z</time>
      </trkpt>
      <trkpt lat="46.4861" lon="-1.55875">
        <ele>24</ele>
        <time>2019-03-21T16:02:24Z</time>
      </trkpt>
      <trkpt lat="46.4861" lon="-1.55875">
        <ele>24</ele>
        <time>2019-03-21T16:02:26Z</time>
      </trkpt>
      <trkpt lat="46.4861" lon="-1.55875">
        <ele>24</ele>
        <time>2019-03-21T16:02:29Z</time>
      </trkpt>
      <trkpt lat="46.48609" lon="-1.55875">
        <ele>24</ele>
        <time>2019-03-21T16:02:31Z</time>
      </trkpt>
      <trkpt lat="46.48609" lon="-1.55875">
        <ele>24</ele>
        <time>2019-03-21T16:02:34Z</time>
      </trkpt>
      <trkpt lat="46.48609" lon="-1.55875">
        <ele>24</ele>
        <time>2019-03-21T16:02:36Z</time>
      </trkpt>
      <trkpt lat="46.48609" lon="-1.55875">
        <ele>24</ele>
        <time>2019-03-21T16:02:39Z</time>
      </trkpt>
      <trkpt lat="46.48609" lon="-1.55875">
        <ele>24</ele>
        <time>2019-03-21T16:02:42Z</time>
      </trkpt>
      <trkpt lat="46.48609" lon="-1.55875">
        <ele>24</ele>
        <time>2019-03-21T16:02:44Z</time>
      </trkpt>
      <trkpt lat="46.48609" lon="-1.55875">
        <ele>24</ele>
        <time>2019-03-21T16:02:47Z</time>
      </trkpt>
      <trkpt lat="46.48607" lon="-1.55877">
        <ele>24</ele>
        <time>2019-03-21T16:02:49Z</time>
      </trkpt>
      <trkpt lat="46.48606" lon="-1.55878">
        <ele>25</ele>
        <time>2019-03-21T16:02:52Z</time>
      </trkpt>
      <trkpt lat="46.48603" lon="-1.55881">
        <ele>24</ele>
        <time>2019-03-21T16:02:55Z</time>
      </trkpt>
      <trkpt lat="46.48599" lon="-1.55889">
        <ele>25</ele>
        <time>2019-03-21T16:03:00Z</time>
      </trkpt>
      <trkpt lat="46.48596" lon="-1.55893">
        <ele>23</ele>
        <time>2019-03-21T16:03:02Z</time>
      </trkpt>
      <trkpt lat="46.48594" lon="-1.55895">
        <ele>25</ele>
        <time>2019-03-21T16:03:05Z</time>
      </trkpt>
      <trkpt lat="46.48592" lon="-1.55898">
        <ele>24</ele>
        <time>2019-03-21T16:03:07Z</time>
      </trkpt>
      <trkpt lat="46.48591" lon="-1.559">
        <ele>24</ele>
        <time>2019-03-21T16:03:10Z</time>
      </trkpt>
      <trkpt lat="46.48591" lon="-1.55901">
        <ele>24</ele>
        <time>2019-03-21T16:03:13Z</time>
      </trkpt>
      <trkpt lat="46.48591" lon="-1.55901">
        <ele>24</ele>
        <time>2019-03-21T16:03:15Z</time>
      </trkpt>
      <trkpt lat="46.48591" lon="-1.559">
        <ele>24</ele>
        <time>2019-03-21T16:03:18Z</time>
      </trkpt>
      <trkpt lat="46.48591" lon="-1.55901">
        <ele>24</ele>
        <time>2019-03-21T16:03:20Z</time>
      </trkpt>
      <trkpt lat="46.48591" lon="-1.55901">
        <ele>24</ele>
        <time>2019-03-21T16:03:23Z</time>
      </trkpt>
      <trkpt lat="46.48591" lon="-1.55902">
        <ele>24</ele>
        <time>2019-03-21T16:03:26Z</time>
      </trkpt>
      <trkpt lat="46.48592" lon="-1.55902">
        <ele>24</ele>
        <time>2019-03-21T16:03:28Z</time>
      </trkpt>
      <trkpt lat="46.48592" lon="-1.55903">
        <ele>24</ele>
        <time>2019-03-21T16:03:31Z</time>
      </trkpt>
      <trkpt lat="46.48592" lon="-1.55903">
        <ele>24</ele>
        <time>2019-03-21T16:03:33Z</time>
      </trkpt>
      <trkpt lat="46.48592" lon="-1.55903">
        <ele>24</ele>
        <time>2019-03-21T16:03:36Z</time>
      </trkpt>
      <trkpt lat="46.48592" lon="-1.55903">
        <ele>24</ele>
        <time>2019-03-21T16:03:38Z</time>
      </trkpt>
      <trkpt lat="46.48593" lon="-1.55903">
        <ele>25</ele>
        <time>2019-03-21T16:03:41Z</time>
      </trkpt>
      <trkpt lat="46.48593" lon="-1.55903">
        <ele>25</ele>
        <time>2019-03-21T16:03:43Z</time>
      </trkpt>
      <trkpt lat="46.48593" lon="-1.55903">
        <ele>25</ele>
        <time>2019-03-21T16:03:46Z</time>
      </trkpt>
      <trkpt lat="46.48592" lon="-1.55903">
        <ele>24</ele>
        <time>2019-03-21T16:03:49Z</time>
      </trkpt>
      <trkpt lat="46.48592" lon="-1.55902">
        <ele>24</ele>
        <time>2019-03-21T16:03:51Z</time>
      </trkpt>
      <trkpt lat="46.48592" lon="-1.55898">
        <ele>24</ele>
        <time>2019-03-21T16:03:54Z</time>
      </trkpt>
      <trkpt lat="46.48594" lon="-1.55895">
        <ele>25</ele>
        <time>2019-03-21T16:03:56Z</time>
      </trkpt>
      <trkpt lat="46.48595" lon="-1.55893">
        <ele>23</ele>
        <time>2019-03-21T16:03:59Z</time>
      </trkpt>
      <trkpt lat="46.48598" lon="-1.55889">
        <ele>23</ele>
        <time>2019-03-21T16:04:01Z</time>
      </trkpt>
      <trkpt lat="46.48599" lon="-1.55886">
        <ele>25</ele>
        <time>2019-03-21T16:04:04Z</time>
      </trkpt>
      <trkpt lat="46.48602" lon="-1.55881">
        <ele>24</ele>
        <time>2019-03-21T16:04:07Z</time>
      </trkpt>
      <trkpt lat="46.48604" lon="-1.55879">
        <ele>24</ele>
        <time>2019-03-21T16:04:09Z</time>
      </trkpt>
      <trkpt lat="46.48606" lon="-1.55878">
        <ele>25</ele>
        <time>2019-03-21T16:04:12Z</time>
      </trkpt>
      <trkpt lat="46.48606" lon="-1.55876">
        <ele>24</ele>
        <time>2019-03-21T16:04:14Z</time>
      </trkpt>
      <trkpt lat="46.48607" lon="-1.55875">
        <ele>24</ele>
        <time>2019-03-21T16:04:17Z</time>
      </trkpt>
      <trkpt lat="46.48609" lon="-1.55873">
        <ele>24</ele>
        <time>2019-03-21T16:04:19Z</time>
      </trkpt>
      <trkpt lat="46.4861" lon="-1.55872">
        <ele>24</ele>
        <time>2019-03-21T16:04:22Z</time>
      </trkpt>
      <trkpt lat="46.48609" lon="-1.55873">
        <ele>24</ele>
        <time>2019-03-21T16:04:25Z</time>
      </trkpt>
      <trkpt lat="46.48609" lon="-1.55873">
        <ele>24</ele>
        <time>2019-03-21T16:04:27Z</time>
      </trkpt>
      <trkpt lat="46.48609" lon="-1.55874">
        <ele>24</ele>
        <time>2019-03-21T16:04:30Z</time>
      </trkpt>
      <trkpt lat="46.48609" lon="-1.55874">
        <ele>24</ele>
        <time>2019-03-21T16:04:32Z</time>
      </trkpt>
      <trkpt lat="46.48609" lon="-1.55874">
        <ele>24</ele>
        <time>2019-03-21T16:04:35Z</time>
      </trkpt>
      <trkpt lat="46.48609" lon="-1.55873">
        <ele>24</ele>
        <time>2019-03-21T16:04:37Z</time>
      </trkpt>
      <trkpt lat="46.48608" lon="-1.55873">
        <ele>24</ele>
        <time>2019-03-21T16:04:40Z</time>
      </trkpt>
      <trkpt lat="46.48608" lon="-1.55874">
        <ele>24</ele>
        <time>2019-03-21T16:04:42Z</time>
      </trkpt>
      <trkpt lat="46.48608" lon="-1.55874">
        <ele>24</ele>
        <time>2019-03-21T16:04:45Z</time>
      </trkpt>
      <trkpt lat="46.48607" lon="-1.55873">
        <ele>24</ele>
        <time>2019-03-21T16:04:48Z</time>
      </trkpt>
      <trkpt lat="46.48607" lon="-1.55874">
        <ele>24</ele>
        <time>2019-03-21T16:04:50Z</time>
      </trkpt>
      <trkpt lat="46.48606" lon="-1.55874">
        <ele>24</ele>
        <time>2019-03-21T16:04:53Z</time>
      </trkpt>
      <trkpt lat="46.48606" lon="-1.55874">
        <ele>24</ele>
        <time>2019-03-21T16:04:55Z</time>
      </trkpt>
      <trkpt lat="46.48605" lon="-1.55874">
        <ele>24</ele>
        <time>2019-03-21T16:04:58Z</time>
      </trkpt>
      <trkpt lat="46.48605" lon="-1.55874">
        <ele>24</ele>
        <time>2019-03-21T16:05:01Z</time>
      </trkpt>
      <trkpt lat="46.48605" lon="-1.55874">
        <ele>24</ele>
        <time>2019-03-21T16:05:03Z</time>
      </trkpt>
      <trkpt lat="46.48605" lon="-1.55874">
        <ele>24</ele>
        <time>2019-03-21T16:05:06Z</time>
      </trkpt>
      <trkpt lat="46.48605" lon="-1.55875">
        <ele>24</ele>
        <time>2019-03-21T16:05:08Z</time>
      </trkpt>
      <trkpt lat="46.48605" lon="-1.55874">
        <ele>24</ele>
        <time>2019-03-21T16:05:11Z</time>
      </trkpt>
      <trkpt lat="46.48605" lon="-1.55875">
        <ele>24</ele>
        <time>2019-03-21T16:05:13Z</time>
      </trkpt>
      <trkpt lat="46.48605" lon="-1.55875">
        <ele>24</ele>
        <time>2019-03-21T16:05:16Z</time>
      </trkpt>
      <trkpt lat="46.48605" lon="-1.55875">
        <ele>24</ele>
        <time>2019-03-21T16:05:18Z</time>
      </trkpt>
      <trkpt lat="46.48604" lon="-1.55875">
        <ele>24</ele>
        <time>2019-03-21T16:05:21Z</time>
      </trkpt>
      <trkpt lat="46.48604" lon="-1.55875">
        <ele>24</ele>
        <time>2019-03-21T16:05:24Z</time>
      </trkpt>
      <trkpt lat="46.48604" lon="-1.55875">
        <ele>24</ele>
        <time>2019-03-21T16:05:26Z</time>
      </trkpt>
      <trkpt lat="46.48604" lon="-1.55875">
        <ele>24</ele>
        <time>2019-03-21T16:05:29Z</time>
      </trkpt>
      <trkpt lat="46.48604" lon="-1.55875">
        <ele>24</ele>
        <time>2019-03-21T16:05:31Z</time>
      </trkpt>
      <trkpt lat="46.48604" lon="-1.55875">
        <ele>24</ele>
        <time>2019-03-21T16:05:34Z</time>
      </trkpt>
      <trkpt lat="46.48605" lon="-1.55874">
        <ele>24</ele>
        <time>2019-03-21T16:05:37Z</time>
      </trkpt>
      <trkpt lat="46.48605" lon="-1.55874">
        <ele>24</ele>
        <time>2019-03-21T16:05:39Z</time>
      </trkpt>
      <trkpt lat="46.48606" lon="-1.55875">
        <ele>24</ele>
        <time>2019-03-21T16:05:42Z</time>
      </trkpt>
      <trkpt lat="46.48606" lon="-1.55875">
        <ele>24</ele>
        <time>2019-03-21T16:05:44Z</time>
      </trkpt>
      <trkpt lat="46.48605" lon="-1.55875">
        <ele>24</ele>
        <time>2019-03-21T16:05:47Z</time>
      </trkpt>
      <trkpt lat="46.48605" lon="-1.55875">
        <ele>24</ele>
        <time>2019-03-21T16:05:49Z</time>
      </trkpt>
      <trkpt lat="46.48605" lon="-1.55875">
        <ele>24</ele>
        <time>2019-03-21T16:05:52Z</time>
      </trkpt>
      <trkpt lat="46.48604" lon="-1.55876">
        <ele>24</ele>
        <time>2019-03-21T16:05:57Z</time>
      </trkpt>
      <trkpt lat="46.48605" lon="-1.55876">
        <ele>24</ele>
        <time>2019-03-21T16:05:59Z</time>
      </trkpt>
      <trkpt lat="46.48604" lon="-1.55876">
        <ele>24</ele>
        <time>2019-03-21T16:06:02Z</time>
      </trkpt>
      <trkpt lat="46.48604" lon="-1.55876">
        <ele>24</ele>
        <time>2019-03-21T16:06:04Z</time>
      </trkpt>
      <trkpt lat="46.48604" lon="-1.55876">
        <ele>24</ele>
        <time>2019-03-21T16:06:07Z</time>
      </trkpt>
      <trkpt lat="46.48605" lon="-1.55876">
        <ele>24</ele>
        <time>2019-03-21T16:06:10Z</time>
      </trkpt>
      <trkpt lat="46.48605" lon="-1.55876">
        <ele>24</ele>
        <time>2019-03-21T16:06:12Z</time>
      </trkpt>
      <trkpt lat="46.48605" lon="-1.55876">
        <ele>24</ele>
        <time>2019-03-21T16:06:15Z</time>
      </trkpt>
      <trkpt lat="46.48605" lon="-1.55876">
        <ele>24</ele>
        <time>2019-03-21T16:06:17Z</time>
      </trkpt>
      <trkpt lat="46.48605" lon="-1.55876">
        <ele>24</ele>
        <time>2019-03-21T16:06:20Z</time>
      </trkpt>
      <trkpt lat="46.48606" lon="-1.55877">
        <ele>24</ele>
        <time>2019-03-21T16:06:22Z</time>
      </trkpt>
      <trkpt lat="46.48606" lon="-1.55877">
        <ele>24</ele>
        <time>2019-03-21T16:06:25Z</time>
      </trkpt>
      <trkpt lat="46.48606" lon="-1.55876">
        <ele>24</ele>
        <time>2019-03-21T16:06:28Z</time>
      </trkpt>
      <trkpt lat="46.48606" lon="-1.55876">
        <ele>24</ele>
        <time>2019-03-21T16:06:30Z</time>
      </trkpt>
      <trkpt lat="46.48606" lon="-1.55877">
        <ele>24</ele>
        <time>2019-03-21T16:06:33Z</time>
      </trkpt>
      <trkpt lat="46.48606" lon="-1.55877">
        <ele>25</ele>
        <time>2019-03-21T16:06:35Z</time>
      </trkpt>
      <trkpt lat="46.48607" lon="-1.55877">
        <ele>25</ele>
        <time>2019-03-21T16:06:38Z</time>
      </trkpt>
      <trkpt lat="46.48607" lon="-1.55878">
        <ele>25</ele>
        <time>2019-03-21T16:06:40Z</time>
      </trkpt>
      <trkpt lat="46.48607" lon="-1.55878">
        <ele>25</ele>
        <time>2019-03-21T16:06:43Z</time>
      </trkpt>
      <trkpt lat="46.48607" lon="-1.55878">
        <ele>25</ele>
        <time>2019-03-21T16:06:46Z</time>
      </trkpt>
      <trkpt lat="46.48607" lon="-1.55878">
        <ele>25</ele>
        <time>2019-03-21T16:06:48Z</time>
      </trkpt>
      <trkpt lat="46.48607" lon="-1.55877">
        <ele>25</ele>
        <time>2019-03-21T16:06:51Z</time>
      </trkpt>
      <trkpt lat="46.48607" lon="-1.55877">
        <ele>25</ele>
        <time>2019-03-21T16:06:53Z</time>
      </trkpt>
      <trkpt lat="46.48607" lon="-1.55878">
        <ele>25</ele>
        <time>2019-03-21T16:06:56Z</time>
      </trkpt>
      <trkpt lat="46.48607" lon="-1.55877">
        <ele>25</ele>
        <time>2019-03-21T16:06:59Z</time>
      </trkpt>
      <trkpt lat="46.48607" lon="-1.55877">
        <ele>25</ele>
        <time>2019-03-21T16:07:01Z</time>
      </trkpt>
      <trkpt lat="46.48607" lon="-1.55877">
        <ele>25</ele>
        <time>2019-03-21T16:07:04Z</time>
      </trkpt>
      <trkpt lat="46.48606" lon="-1.55878">
        <ele>25</ele>
        <time>2019-03-21T16:07:06Z</time>
      </trkpt>
      <trkpt lat="46.48606" lon="-1.55878">
        <ele>25</ele>
        <time>2019-03-21T16:07:09Z</time>
      </trkpt>
      <trkpt lat="46.48606" lon="-1.55878">
        <ele>25</ele>
        <time>2019-03-21T16:07:12Z</time>
      </trkpt>
      <trkpt lat="46.48606" lon="-1.55878">
        <ele>25</ele>
        <time>2019-03-21T16:07:14Z</time>
      </trkpt>
      <trkpt lat="46.48605" lon="-1.55878">
        <ele>25</ele>
        <time>2019-03-21T16:07:17Z</time>
      </trkpt>
      <trkpt lat="46.48605" lon="-1.55879">
        <ele>25</ele>
        <time>2019-03-21T16:07:19Z</time>
      </trkpt>
      <trkpt lat="46.48605" lon="-1.55879">
        <ele>25</ele>
        <time>2019-03-21T16:07:22Z</time>
      </trkpt>
      <trkpt lat="46.48604" lon="-1.5588">
        <ele>25</ele>
        <time>2019-03-21T16:07:24Z</time>
      </trkpt>
      <trkpt lat="46.48604" lon="-1.5588">
        <ele>24</ele>
        <time>2019-03-21T16:07:27Z</time>
      </trkpt>
      <trkpt lat="46.48604" lon="-1.55881">
        <ele>24</ele>
        <time>2019-03-21T16:07:30Z</time>
      </trkpt>
      <trkpt lat="46.48604" lon="-1.55881">
        <ele>24</ele>
        <time>2019-03-21T16:07:32Z</time>
      </trkpt>
      <trkpt lat="46.48604" lon="-1.55881">
        <ele>24</ele>
        <time>2019-03-21T16:07:35Z</time>
      </trkpt>
      <trkpt lat="46.48604" lon="-1.55881">
        <ele>24</ele>
        <time>2019-03-21T16:07:38Z</time>
      </trkpt>
      <trkpt lat="46.48603" lon="-1.55882">
        <ele>24</ele>
        <time>2019-03-21T16:07:40Z</time>
      </trkpt>
      <trkpt lat="46.48603" lon="-1.55882">
        <ele>24</ele>
        <time>2019-03-21T16:07:43Z</time>
      </trkpt>
      <trkpt lat="46.48602" lon="-1.55882">
        <ele>24</ele>
        <time>2019-03-21T16:07:45Z</time>
      </trkpt>
      <trkpt lat="46.48602" lon="-1.55882">
        <ele>24</ele>
        <time>2019-03-21T16:07:48Z</time>
      </trkpt>
      <trkpt lat="46.48602" lon="-1.55882">
        <ele>24</ele>
        <time>2019-03-21T16:07:51Z</time>
      </trkpt>
      <trkpt lat="46.48602" lon="-1.55883">
        <ele>24</ele>
        <time>2019-03-21T16:07:53Z</time>
      </trkpt>
      <trkpt lat="46.48602" lon="-1.55882">
        <ele>24</ele>
        <time>2019-03-21T16:07:56Z</time>
      </trkpt>
      <trkpt lat="46.48602" lon="-1.55882">
        <ele>24</ele>
        <time>2019-03-21T16:07:58Z</time>
      </trkpt>
      <trkpt lat="46.48601" lon="-1.55881">
        <ele>24</ele>
        <time>2019-03-21T16:08:01Z</time>
      </trkpt>
      <trkpt lat="46.48601" lon="-1.55881">
        <ele>24</ele>
        <time>2019-03-21T16:08:04Z</time>
      </trkpt>
      <trkpt lat="46.48601" lon="-1.55881">
        <ele>24</ele>
        <time>2019-03-21T16:08:06Z</time>
      </trkpt>
      <trkpt lat="46.48601" lon="-1.55881">
        <ele>24</ele>
        <time>2019-03-21T16:08:09Z</time>
      </trkpt>
      <trkpt lat="46.48599" lon="-1.5588">
        <ele>24</ele>
        <time>2019-03-21T16:08:12Z</time>
      </trkpt>
      <trkpt lat="46.48596" lon="-1.5588">
        <ele>23</ele>
        <time>2019-03-21T16:08:14Z</time>
      </trkpt>
      <trkpt lat="46.48594" lon="-1.55879">
        <ele>23</ele>
        <time>2019-03-21T16:08:17Z</time>
      </trkpt>
      <trkpt lat="46.48591" lon="-1.55877">
        <ele>21</ele>
        <time>2019-03-21T16:08:19Z</time>
      </trkpt>
      <trkpt lat="46.4859" lon="-1.55875">
        <ele>21</ele>
        <time>2019-03-21T16:08:22Z</time>
      </trkpt>
      <trkpt lat="46.48587" lon="-1.55873">
        <ele>21</ele>
        <time>2019-03-21T16:08:25Z</time>
      </trkpt>
      <trkpt lat="46.48586" lon="-1.55873">
        <ele>21</ele>
        <time>2019-03-21T16:08:27Z</time>
      </trkpt>
      <trkpt lat="46.48584" lon="-1.55873">
        <ele>21</ele>
        <time>2019-03-21T16:08:30Z</time>
      </trkpt>
      <trkpt lat="46.48582" lon="-1.55872">
        <ele>21</ele>
        <time>2019-03-21T16:08:32Z</time>
      </trkpt>
      <trkpt lat="46.4858" lon="-1.55871">
        <ele>21</ele>
        <time>2019-03-21T16:08:35Z</time>
      </trkpt>
      <trkpt lat="46.48577" lon="-1.55871">
        <ele>21</ele>
        <time>2019-03-21T16:08:38Z</time>
      </trkpt>
      <trkpt lat="46.48575" lon="-1.55871">
        <ele>21</ele>
        <time>2019-03-21T16:08:40Z</time>
      </trkpt>
      <trkpt lat="46.48573" lon="-1.55872">
        <ele>21</ele>
        <time>2019-03-21T16:08:43Z</time>
      </trkpt>
      <trkpt lat="46.48571" lon="-1.55873">
        <ele>21</ele>
        <time>2019-03-21T16:08:45Z</time>
      </trkpt>
      <trkpt lat="46.48569" lon="-1.55873">
        <ele>21</ele>
        <time>2019-03-21T16:08:48Z</time>
      </trkpt>
      <trkpt lat="46.48566" lon="-1.55874">
        <ele>21</ele>
        <time>2019-03-21T16:08:51Z</time>
      </trkpt>
      <trkpt lat="46.48561" lon="-1.55875">
        <ele>21</ele>
        <time>2019-03-21T16:08:56Z</time>
      </trkpt>
      <trkpt lat="46.48558" lon="-1.55877">
        <ele>21</ele>
        <time>2019-03-21T16:08:58Z</time>
      </trkpt>
      <trkpt lat="46.48557" lon="-1.55878">
        <ele>21</ele>
        <time>2019-03-21T16:09:01Z</time>
      </trkpt>
      <trkpt lat="46.48554" lon="-1.55879">
        <ele>21</ele>
        <time>2019-03-21T16:09:03Z</time>
      </trkpt>
      <trkpt lat="46.48551" lon="-1.5588">
        <ele>21</ele>
        <time>2019-03-21T16:09:06Z</time>
      </trkpt>
      <trkpt lat="46.48548" lon="-1.55881">
        <ele>21</ele>
        <time>2019-03-21T16:09:09Z</time>
      </trkpt>
      <trkpt lat="46.48546" lon="-1.55882">
        <ele>21</ele>
        <time>2019-03-21T16:09:12Z</time>
      </trkpt>
      <trkpt lat="46.48543" lon="-1.55883">
        <ele>21</ele>
        <time>2019-03-21T16:09:14Z</time>
      </trkpt>
      <trkpt lat="46.48541" lon="-1.55883">
        <ele>21</ele>
        <time>2019-03-21T16:09:17Z</time>
      </trkpt>
      <trkpt lat="46.48539" lon="-1.55884">
        <ele>21</ele>
        <time>2019-03-21T16:09:19Z</time>
      </trkpt>
      <trkpt lat="46.48537" lon="-1.55885">
        <ele>21</ele>
        <time>2019-03-21T16:09:22Z</time>
      </trkpt>
      <trkpt lat="46.48534" lon="-1.55886">
        <ele>21</ele>
        <time>2019-03-21T16:09:25Z</time>
      </trkpt>
      <trkpt lat="46.48531" lon="-1.55888">
        <ele>21</ele>
        <time>2019-03-21T16:09:27Z</time>
      </trkpt>
      <trkpt lat="46.4853" lon="-1.5589">
        <ele>21</ele>
        <time>2019-03-21T16:09:30Z</time>
      </trkpt>
      <trkpt lat="46.48527" lon="-1.55893">
        <ele>21</ele>
        <time>2019-03-21T16:09:32Z</time>
      </trkpt>
      <trkpt lat="46.48525" lon="-1.55896">
        <ele>21</ele>
        <time>2019-03-21T16:09:35Z</time>
      </trkpt>
      <trkpt lat="46.48524" lon="-1.55899">
        <ele>21</ele>
        <time>2019-03-21T16:09:38Z</time>
      </trkpt>
      <trkpt lat="46.48523" lon="-1.55903">
        <ele>21</ele>
        <time>2019-03-21T16:09:40Z</time>
      </trkpt>
      <trkpt lat="46.48522" lon="-1.55905">
        <ele>21</ele>
        <time>2019-03-21T16:09:43Z</time>
      </trkpt>
      <trkpt lat="46.48521" lon="-1.55908">
        <ele>21</ele>
        <time>2019-03-21T16:09:45Z</time>
      </trkpt>
      <trkpt lat="46.4852" lon="-1.5591">
        <ele>21</ele>
        <time>2019-03-21T16:09:48Z</time>
      </trkpt>
      <trkpt lat="46.48519" lon="-1.55915">
        <ele>21</ele>
        <time>2019-03-21T16:09:51Z</time>
      </trkpt>
      <trkpt lat="46.48518" lon="-1.55918">
        <ele>21</ele>
        <time>2019-03-21T16:09:53Z</time>
      </trkpt>
      <trkpt lat="46.48518" lon="-1.55921">
        <ele>21</ele>
        <time>2019-03-21T16:09:56Z</time>
      </trkpt>
      <trkpt lat="46.48517" lon="-1.55926">
        <ele>21</ele>
        <time>2019-03-21T16:09:58Z</time>
      </trkpt>
      <trkpt lat="46.48517" lon="-1.55931">
        <ele>21</ele>
        <time>2019-03-21T16:10:01Z</time>
      </trkpt>
      <trkpt lat="46.48516" lon="-1.55935">
        <ele>21</ele>
        <time>2019-03-21T16:10:04Z</time>
      </trkpt>
      <trkpt lat="46.48516" lon="-1.5594">
        <ele>21</ele>
        <time>2019-03-21T16:10:06Z</time>
      </trkpt>
      <trkpt lat="46.48515" lon="-1.55943">
        <ele>21</ele>
        <time>2019-03-21T16:10:09Z</time>
      </trkpt>
      <trkpt lat="46.48514" lon="-1.55948">
        <ele>21</ele>
        <time>2019-03-21T16:10:12Z</time>
      </trkpt>
      <trkpt lat="46.48513" lon="-1.55953">
        <ele>21</ele>
        <time>2019-03-21T16:10:14Z</time>
      </trkpt>
      <trkpt lat="46.48512" lon="-1.55956">
        <ele>20</ele>
        <time>2019-03-21T16:10:17Z</time>
      </trkpt>
      <trkpt lat="46.48511" lon="-1.5596">
        <ele>20</ele>
        <time>2019-03-21T16:10:20Z</time>
      </trkpt>
      <trkpt lat="46.4851" lon="-1.55964">
        <ele>20</ele>
        <time>2019-03-21T16:10:22Z</time>
      </trkpt>
      <trkpt lat="46.4851" lon="-1.55966">
        <ele>20</ele>
        <time>2019-03-21T16:10:25Z</time>
      </trkpt>
      <trkpt lat="46.48509" lon="-1.55971">
        <ele>20</ele>
        <time>2019-03-21T16:10:27Z</time>
      </trkpt>
      <trkpt lat="46.48509" lon="-1.55976">
        <ele>19</ele>
        <time>2019-03-21T16:10:30Z</time>
      </trkpt>
      <trkpt lat="46.48508" lon="-1.5598">
        <ele>19</ele>
        <time>2019-03-21T16:10:33Z</time>
      </trkpt>
      <trkpt lat="46.48508" lon="-1.55985">
        <ele>19</ele>
        <time>2019-03-21T16:10:35Z</time>
      </trkpt>
      <trkpt lat="46.48507" lon="-1.55989">
        <ele>19</ele>
        <time>2019-03-21T16:10:38Z</time>
      </trkpt>
      <trkpt lat="46.48507" lon="-1.55994">
        <ele>19</ele>
        <time>2019-03-21T16:10:41Z</time>
      </trkpt>
      <trkpt lat="46.48506" lon="-1.56">
        <ele>19</ele>
        <time>2019-03-21T16:10:43Z</time>
      </trkpt>
      <trkpt lat="46.48506" lon="-1.56002">
        <ele>19</ele>
        <time>2019-03-21T16:10:46Z</time>
      </trkpt>
      <trkpt lat="46.48505" lon="-1.56007">
        <ele>19</ele>
        <time>2019-03-21T16:10:48Z</time>
      </trkpt>
      <trkpt lat="46.48504" lon="-1.56011">
        <ele>19</ele>
        <time>2019-03-21T16:10:51Z</time>
      </trkpt>
      <trkpt lat="46.48503" lon="-1.56013">
        <ele>18</ele>
        <time>2019-03-21T16:10:54Z</time>
      </trkpt>
      <trkpt lat="46.48502" lon="-1.56017">
        <ele>18</ele>
        <time>2019-03-21T16:10:56Z</time>
      </trkpt>
      <trkpt lat="46.48502" lon="-1.56019">
        <ele>18</ele>
        <time>2019-03-21T16:10:59Z</time>
      </trkpt>
      <trkpt lat="46.48501" lon="-1.56023">
        <ele>18</ele>
        <time>2019-03-21T16:11:02Z</time>
      </trkpt>
      <trkpt lat="46.48499" lon="-1.56026">
        <ele>18</ele>
        <time>2019-03-21T16:11:04Z</time>
      </trkpt>
      <trkpt lat="46.48499" lon="-1.56027">
        <ele>18</ele>
        <time>2019-03-21T16:11:07Z</time>
      </trkpt>
      <trkpt lat="46.48497" lon="-1.56027">
        <ele>18</ele>
        <time>2019-03-21T16:11:09Z</time>
      </trkpt>
      <trkpt lat="46.48496" lon="-1.56027">
        <ele>18</ele>
        <time>2019-03-21T16:11:12Z</time>
      </trkpt>
      <trkpt lat="46.48496" lon="-1.56027">
        <ele>18</ele>
        <time>2019-03-21T16:11:15Z</time>
      </trkpt>
      <trkpt lat="46.48495" lon="-1.56025">
        <ele>18</ele>
        <time>2019-03-21T16:11:17Z</time>
      </trkpt>
      <trkpt lat="46.48495" lon="-1.56023">
        <ele>18</ele>
        <time>2019-03-21T16:11:20Z</time>
      </trkpt>
      <trkpt lat="46.48494" lon="-1.56022">
        <ele>18</ele>
        <time>2019-03-21T16:11:23Z</time>
      </trkpt>
      <trkpt lat="46.48493" lon="-1.56018">
        <ele>18</ele>
        <time>2019-03-21T16:11:25Z</time>
      </trkpt>
      <trkpt lat="46.48492" lon="-1.56015">
        <ele>18</ele>
        <time>2019-03-21T16:11:28Z</time>
      </trkpt>
      <trkpt lat="46.48492" lon="-1.56014">
        <ele>19</ele>
        <time>2019-03-21T16:11:31Z</time>
      </trkpt>
      <trkpt lat="46.48491" lon="-1.56011">
        <ele>19</ele>
        <time>2019-03-21T16:11:33Z</time>
      </trkpt>
      <trkpt lat="46.48488" lon="-1.56008">
        <ele>19</ele>
        <time>2019-03-21T16:11:36Z</time>
      </trkpt>
      <trkpt lat="46.48487" lon="-1.56006">
        <ele>19</ele>
        <time>2019-03-21T16:11:39Z</time>
      </trkpt>
      <trkpt lat="46.48485" lon="-1.56004">
        <ele>19</ele>
        <time>2019-03-21T16:11:41Z</time>
      </trkpt>
      <trkpt lat="46.48485" lon="-1.56004">
        <ele>19</ele>
        <time>2019-03-21T16:11:44Z</time>
      </trkpt>
      <trkpt lat="46.48484" lon="-1.56004">
        <ele>19</ele>
        <time>2019-03-21T16:11:47Z</time>
      </trkpt>
      <trkpt lat="46.48484" lon="-1.56004">
        <ele>19</ele>
        <time>2019-03-21T16:11:49Z</time>
      </trkpt>
      <trkpt lat="46.48483" lon="-1.56004">
        <ele>19</ele>
        <time>2019-03-21T16:11:52Z</time>
      </trkpt>
      <trkpt lat="46.48479" lon="-1.56005">
        <ele>19</ele>
        <time>2019-03-21T16:11:57Z</time>
      </trkpt>
      <trkpt lat="46.48477" lon="-1.56004">
        <ele>19</ele>
        <time>2019-03-21T16:12:00Z</time>
      </trkpt>
      <trkpt lat="46.48475" lon="-1.56006">
        <ele>19</ele>
        <time>2019-03-21T16:12:03Z</time>
      </trkpt>
      <trkpt lat="46.48473" lon="-1.56008">
        <ele>19</ele>
        <time>2019-03-21T16:12:05Z</time>
      </trkpt>
      <trkpt lat="46.48471" lon="-1.5601">
        <ele>19</ele>
        <time>2019-03-21T16:12:08Z</time>
      </trkpt>
      <trkpt lat="46.48468" lon="-1.56012">
        <ele>19</ele>
        <time>2019-03-21T16:12:11Z</time>
      </trkpt>
      <trkpt lat="46.48465" lon="-1.56015">
        <ele>19</ele>
        <time>2019-03-21T16:12:13Z</time>
      </trkpt>
      <trkpt lat="46.48464" lon="-1.56017">
        <ele>19</ele>
        <time>2019-03-21T16:12:16Z</time>
      </trkpt>
      <trkpt lat="46.48462" lon="-1.5602">
        <ele>19</ele>
        <time>2019-03-21T16:12:18Z</time>
      </trkpt>
      <trkpt lat="46.4846" lon="-1.56023">
        <ele>19</ele>
        <time>2019-03-21T16:12:21Z</time>
      </trkpt>
      <trkpt lat="46.48457" lon="-1.56028">
        <ele>18</ele>
        <time>2019-03-21T16:12:24Z</time>
      </trkpt>
      <trkpt lat="46.48455" lon="-1.56031">
        <ele>18</ele>
        <time>2019-03-21T16:12:26Z</time>
      </trkpt>
      <trkpt lat="46.48454" lon="-1.56034">
        <ele>18</ele>
        <time>2019-03-21T16:12:29Z</time>
      </trkpt>
      <trkpt lat="46.48452" lon="-1.56038">
        <ele>18</ele>
        <time>2019-03-21T16:12:31Z</time>
      </trkpt>
      <trkpt lat="46.48449" lon="-1.56041">
        <ele>18</ele>
        <time>2019-03-21T16:12:34Z</time>
      </trkpt>
      <trkpt lat="46.48447" lon="-1.56043">
        <ele>18</ele>
        <time>2019-03-21T16:12:37Z</time>
      </trkpt>
      <trkpt lat="46.48444" lon="-1.56045">
        <ele>18</ele>
        <time>2019-03-21T16:12:39Z</time>
      </trkpt>
      <trkpt lat="46.48443" lon="-1.56048">
        <ele>18</ele>
        <time>2019-03-21T16:12:42Z</time>
      </trkpt>
      <trkpt lat="46.4844" lon="-1.56051">
        <ele>18</ele>
        <time>2019-03-21T16:12:45Z</time>
      </trkpt>
      <trkpt lat="46.48438" lon="-1.56052">
        <ele>18</ele>
        <time>2019-03-21T16:12:47Z</time>
      </trkpt>
      <trkpt lat="46.48436" lon="-1.56055">
        <ele>18</ele>
        <time>2019-03-21T16:12:50Z</time>
      </trkpt>
      <trkpt lat="46.48433" lon="-1.56058">
        <ele>18</ele>
        <time>2019-03-21T16:12:52Z</time>
      </trkpt>
      <trkpt lat="46.48431" lon="-1.56061">
        <ele>18</ele>
        <time>2019-03-21T16:12:55Z</time>
      </trkpt>
      <trkpt lat="46.48429" lon="-1.56065">
        <ele>18</ele>
        <time>2019-03-21T16:12:57Z</time>
      </trkpt>
      <trkpt lat="46.48426" lon="-1.56067">
        <ele>18</ele>
        <time>2019-03-21T16:13:00Z</time>
      </trkpt>
      <trkpt lat="46.48422" lon="-1.56071">
        <ele>18</ele>
        <time>2019-03-21T16:13:03Z</time>
      </trkpt>
      <trkpt lat="46.48419" lon="-1.56072">
        <ele>18</ele>
        <time>2019-03-21T16:13:05Z</time>
      </trkpt>
      <trkpt lat="46.48416" lon="-1.56076">
        <ele>18</ele>
        <time>2019-03-21T16:13:08Z</time>
      </trkpt>
      <trkpt lat="46.48414" lon="-1.56078">
        <ele>18</ele>
        <time>2019-03-21T16:13:10Z</time>
      </trkpt>
      <trkpt lat="46.48411" lon="-1.56082">
        <ele>18</ele>
        <time>2019-03-21T16:13:13Z</time>
      </trkpt>
      <trkpt lat="46.48407" lon="-1.56086">
        <ele>18</ele>
        <time>2019-03-21T16:13:15Z</time>
      </trkpt>
      <trkpt lat="46.48405" lon="-1.56088">
        <ele>18</ele>
        <time>2019-03-21T16:13:18Z</time>
      </trkpt>
      <trkpt lat="46.48401" lon="-1.56091">
        <ele>18</ele>
        <time>2019-03-21T16:13:20Z</time>
      </trkpt>
      <trkpt lat="46.48399" lon="-1.56093">
        <ele>18</ele>
        <time>2019-03-21T16:13:23Z</time>
      </trkpt>
      <trkpt lat="46.48395" lon="-1.56096">
        <ele>19</ele>
        <time>2019-03-21T16:13:26Z</time>
      </trkpt>
      <trkpt lat="46.48392" lon="-1.56098">
        <ele>19</ele>
        <time>2019-03-21T16:13:28Z</time>
      </trkpt>
      <trkpt lat="46.4839" lon="-1.561">
        <ele>19</ele>
        <time>2019-03-21T16:13:31Z</time>
      </trkpt>
      <trkpt lat="46.48386" lon="-1.56103">
        <ele>19</ele>
        <time>2019-03-21T16:13:33Z</time>
      </trkpt>
      <trkpt lat="46.48384" lon="-1.56104">
        <ele>19</ele>
        <time>2019-03-21T16:13:36Z</time>
      </trkpt>
      <trkpt lat="46.4838" lon="-1.56107">
        <ele>19</ele>
        <time>2019-03-21T16:13:39Z</time>
      </trkpt>
      <trkpt lat="46.48376" lon="-1.5611">
        <ele>19</ele>
        <time>2019-03-21T16:13:41Z</time>
      </trkpt>
      <trkpt lat="46.48373" lon="-1.56112">
        <ele>19</ele>
        <time>2019-03-21T16:13:44Z</time>
      </trkpt>
      <trkpt lat="46.48369" lon="-1.56116">
        <ele>19</ele>
        <time>2019-03-21T16:13:46Z</time>
      </trkpt>
      <trkpt lat="46.48366" lon="-1.56118">
        <ele>19</ele>
        <time>2019-03-21T16:13:49Z</time>
      </trkpt>
      <trkpt lat="46.48363" lon="-1.56123">
        <ele>19</ele>
        <time>2019-03-21T16:13:51Z</time>
      </trkpt>
      <trkpt lat="46.48359" lon="-1.56126">
        <ele>19</ele>
        <time>2019-03-21T16:13:54Z</time>
      </trkpt>
      <trkpt lat="46.48356" lon="-1.56127">
        <ele>19</ele>
        <time>2019-03-21T16:13:57Z</time>
      </trkpt>
      <trkpt lat="46.48354" lon="-1.56129">
        <ele>19</ele>
        <time>2019-03-21T16:13:59Z</time>
      </trkpt>
      <trkpt lat="46.48352" lon="-1.56131">
        <ele>19</ele>
        <time>2019-03-21T16:14:02Z</time>
      </trkpt>
      <trkpt lat="46.4835" lon="-1.56133">
        <ele>19</ele>
        <time>2019-03-21T16:14:05Z</time>
      </trkpt>
      <trkpt lat="46.48348" lon="-1.56134">
        <ele>19</ele>
        <time>2019-03-21T16:14:07Z</time>
      </trkpt>
      <trkpt lat="46.48347" lon="-1.56135">
        <ele>19</ele>
        <time>2019-03-21T16:14:10Z</time>
      </trkpt>
      <trkpt lat="46.48345" lon="-1.56136">
        <ele>19</ele>
        <time>2019-03-21T16:14:13Z</time>
      </trkpt>
      <trkpt lat="46.48341" lon="-1.56137">
        <ele>19</ele>
        <time>2019-03-21T16:14:15Z</time>
      </trkpt>
      <trkpt lat="46.4834" lon="-1.56137">
        <ele>19</ele>
        <time>2019-03-21T16:14:18Z</time>
      </trkpt>
      <trkpt lat="46.48336" lon="-1.56137">
        <ele>20</ele>
        <time>2019-03-21T16:14:21Z</time>
      </trkpt>
      <trkpt lat="46.48333" lon="-1.56136">
        <ele>20</ele>
        <time>2019-03-21T16:14:23Z</time>
      </trkpt>
      <trkpt lat="46.48331" lon="-1.56137">
        <ele>20</ele>
        <time>2019-03-21T16:14:26Z</time>
      </trkpt>
      <trkpt lat="46.48328" lon="-1.56136">
        <ele>20</ele>
        <time>2019-03-21T16:14:28Z</time>
      </trkpt>
      <trkpt lat="46.48326" lon="-1.56137">
        <ele>20</ele>
        <time>2019-03-21T16:14:31Z</time>
      </trkpt>
      <trkpt lat="46.48323" lon="-1.56136">
        <ele>20</ele>
        <time>2019-03-21T16:14:34Z</time>
      </trkpt>
      <trkpt lat="46.48321" lon="-1.56136">
        <ele>20</ele>
        <time>2019-03-21T16:14:36Z</time>
      </trkpt>
      <trkpt lat="46.4832" lon="-1.56136">
        <ele>21</ele>
        <time>2019-03-21T16:14:39Z</time>
      </trkpt>
      <trkpt lat="46.48319" lon="-1.56135">
        <ele>21</ele>
        <time>2019-03-21T16:14:41Z</time>
      </trkpt>
      <trkpt lat="46.48317" lon="-1.56134">
        <ele>21</ele>
        <time>2019-03-21T16:14:44Z</time>
      </trkpt>
      <trkpt lat="46.48315" lon="-1.56133">
        <ele>21</ele>
        <time>2019-03-21T16:14:47Z</time>
      </trkpt>
      <trkpt lat="46.48314" lon="-1.56131">
        <ele>21</ele>
        <time>2019-03-21T16:14:49Z</time>
      </trkpt>
      <trkpt lat="46.48313" lon="-1.5613">
        <ele>21</ele>
        <time>2019-03-21T16:14:54Z</time>
      </trkpt>
      <trkpt lat="46.48313" lon="-1.56129">
        <ele>21</ele>
        <time>2019-03-21T16:14:57Z</time>
      </trkpt>
      <trkpt lat="46.48314" lon="-1.56129">
        <ele>21</ele>
        <time>2019-03-21T16:14:59Z</time>
      </trkpt>
      <trkpt lat="46.48314" lon="-1.56129">
        <ele>21</ele>
        <time>2019-03-21T16:15:02Z</time>
      </trkpt>
      <trkpt lat="46.48313" lon="-1.56127">
        <ele>21</ele>
        <time>2019-03-21T16:15:04Z</time>
      </trkpt>
      <trkpt lat="46.48312" lon="-1.56125">
        <ele>22</ele>
        <time>2019-03-21T16:15:07Z</time>
      </trkpt>
      <trkpt lat="46.48311" lon="-1.56124">
        <ele>22</ele>
        <time>2019-03-21T16:15:10Z</time>
      </trkpt>
      <trkpt lat="46.48308" lon="-1.56122">
        <ele>22</ele>
        <time>2019-03-21T16:15:12Z</time>
      </trkpt>
      <trkpt lat="46.48307" lon="-1.5612">
        <ele>22</ele>
        <time>2019-03-21T16:15:15Z</time>
      </trkpt>
      <trkpt lat="46.48305" lon="-1.56118">
        <ele>22</ele>
        <time>2019-03-21T16:15:17Z</time>
      </trkpt>
      <trkpt lat="46.48304" lon="-1.56117">
        <ele>22</ele>
        <time>2019-03-21T16:15:20Z</time>
      </trkpt>
      <trkpt lat="46.48302" lon="-1.56115">
        <ele>22</ele>
        <time>2019-03-21T16:15:23Z</time>
      </trkpt>
      <trkpt lat="46.483" lon="-1.56113">
        <ele>22</ele>
        <time>2019-03-21T16:15:25Z</time>
      </trkpt>
      <trkpt lat="46.48298" lon="-1.56112">
        <ele>22</ele>
        <time>2019-03-21T16:15:28Z</time>
      </trkpt>
      <trkpt lat="46.48296" lon="-1.5611">
        <ele>23</ele>
        <time>2019-03-21T16:15:30Z</time>
      </trkpt>
      <trkpt lat="46.48295" lon="-1.5611">
        <ele>23</ele>
        <time>2019-03-21T16:15:33Z</time>
      </trkpt>
      <trkpt lat="46.48292" lon="-1.56109">
        <ele>23</ele>
        <time>2019-03-21T16:15:36Z</time>
      </trkpt>
      <trkpt lat="46.4829" lon="-1.56107">
        <ele>23</ele>
        <time>2019-03-21T16:15:38Z</time>
      </trkpt>
      <trkpt lat="46.48287" lon="-1.56106">
        <ele>23</ele>
        <time>2019-03-21T16:15:41Z</time>
      </trkpt>
      <trkpt lat="46.48286" lon="-1.56105">
        <ele>23</ele>
        <time>2019-03-21T16:15:43Z</time>
      </trkpt>
      <trkpt lat="46.48282" lon="-1.56103">
        <ele>23</ele>
        <time>2019-03-21T16:15:46Z</time>
      </trkpt>
      <trkpt lat="46.4828" lon="-1.56102">
        <ele>23</ele>
        <time>2019-03-21T16:15:48Z</time>
      </trkpt>
      <trkpt lat="46.48278" lon="-1.56101">
        <ele>24</ele>
        <time>2019-03-21T16:15:51Z</time>
      </trkpt>
      <trkpt lat="46.48275" lon="-1.56099">
        <ele>24</ele>
        <time>2019-03-21T16:15:53Z</time>
      </trkpt>
      <trkpt lat="46.48273" lon="-1.56098">
        <ele>24</ele>
        <time>2019-03-21T16:15:56Z</time>
      </trkpt>
      <trkpt lat="46.48271" lon="-1.56096">
        <ele>24</ele>
        <time>2019-03-21T16:15:59Z</time>
      </trkpt>
      <trkpt lat="46.48269" lon="-1.56094">
        <ele>24</ele>
        <time>2019-03-21T16:16:01Z</time>
      </trkpt>
      <trkpt lat="46.48268" lon="-1.56093">
        <ele>24</ele>
        <time>2019-03-21T16:16:04Z</time>
      </trkpt>
      <trkpt lat="46.48266" lon="-1.56091">
        <ele>25</ele>
        <time>2019-03-21T16:16:06Z</time>
      </trkpt>
      <trkpt lat="46.48264" lon="-1.56089">
        <ele>25</ele>
        <time>2019-03-21T16:16:09Z</time>
      </trkpt>
      <trkpt lat="46.48262" lon="-1.56087">
        <ele>25</ele>
        <time>2019-03-21T16:16:12Z</time>
      </trkpt>
      <trkpt lat="46.48259" lon="-1.56086">
        <ele>25</ele>
        <time>2019-03-21T16:16:14Z</time>
      </trkpt>
      <trkpt lat="46.48256" lon="-1.56084">
        <ele>25</ele>
        <time>2019-03-21T16:16:17Z</time>
      </trkpt>
      <trkpt lat="46.48252" lon="-1.56082">
        <ele>26</ele>
        <time>2019-03-21T16:16:19Z</time>
      </trkpt>
      <trkpt lat="46.48249" lon="-1.5608">
        <ele>26</ele>
        <time>2019-03-21T16:16:22Z</time>
      </trkpt>
      <trkpt lat="46.48246" lon="-1.56078">
        <ele>26</ele>
        <time>2019-03-21T16:16:25Z</time>
      </trkpt>
      <trkpt lat="46.48242" lon="-1.56075">
        <ele>27</ele>
        <time>2019-03-21T16:16:27Z</time>
      </trkpt>
      <trkpt lat="46.4824" lon="-1.56073">
        <ele>27</ele>
        <time>2019-03-21T16:16:30Z</time>
      </trkpt>
      <trkpt lat="46.48237" lon="-1.5607">
        <ele>27</ele>
        <time>2019-03-21T16:16:32Z</time>
      </trkpt>
      <trkpt lat="46.48234" lon="-1.56069">
        <ele>27</ele>
        <time>2019-03-21T16:16:35Z</time>
      </trkpt>
      <trkpt lat="46.48231" lon="-1.56067">
        <ele>27</ele>
        <time>2019-03-21T16:16:38Z</time>
      </trkpt>
      <trkpt lat="46.48229" lon="-1.56066">
        <ele>27</ele>
        <time>2019-03-21T16:16:40Z</time>
      </trkpt>
      <trkpt lat="46.48227" lon="-1.56065">
        <ele>28</ele>
        <time>2019-03-21T16:16:43Z</time>
      </trkpt>
      <trkpt lat="46.48223" lon="-1.56062">
        <ele>28</ele>
        <time>2019-03-21T16:16:46Z</time>
      </trkpt>
      <trkpt lat="46.48219" lon="-1.5606">
        <ele>28</ele>
        <time>2019-03-21T16:16:48Z</time>
      </trkpt>
      <trkpt lat="46.48218" lon="-1.56059">
        <ele>28</ele>
        <time>2019-03-21T16:16:51Z</time>
      </trkpt>
      <trkpt lat="46.48214" lon="-1.56057">
        <ele>29</ele>
        <time>2019-03-21T16:16:54Z</time>
      </trkpt>
      <trkpt lat="46.4821" lon="-1.56054">
        <ele>29</ele>
        <time>2019-03-21T16:16:56Z</time>
      </trkpt>
      <trkpt lat="46.48207" lon="-1.56051">
        <ele>29</ele>
        <time>2019-03-21T16:16:59Z</time>
      </trkpt>
      <trkpt lat="46.48204" lon="-1.5605">
        <ele>29</ele>
        <time>2019-03-21T16:17:02Z</time>
      </trkpt>
      <trkpt lat="46.48202" lon="-1.56048">
        <ele>29</ele>
        <time>2019-03-21T16:17:04Z</time>
      </trkpt>
      <trkpt lat="46.48198" lon="-1.56046">
        <ele>29</ele>
        <time>2019-03-21T16:17:07Z</time>
      </trkpt>
      <trkpt lat="46.48196" lon="-1.56044">
        <ele>30</ele>
        <time>2019-03-21T16:17:10Z</time>
      </trkpt>
      <trkpt lat="46.48193" lon="-1.56041">
        <ele>30</ele>
        <time>2019-03-21T16:17:13Z</time>
      </trkpt>
      <trkpt lat="46.4819" lon="-1.56038">
        <ele>30</ele>
        <time>2019-03-21T16:17:15Z</time>
      </trkpt>
      <trkpt lat="46.48187" lon="-1.56037">
        <ele>30</ele>
        <time>2019-03-21T16:17:18Z</time>
      </trkpt>
      <trkpt lat="46.48183" lon="-1.56034">
        <ele>30</ele>
        <time>2019-03-21T16:17:21Z</time>
      </trkpt>
      <trkpt lat="46.4818" lon="-1.56032">
        <ele>30</ele>
        <time>2019-03-21T16:17:23Z</time>
      </trkpt>
      <trkpt lat="46.48178" lon="-1.56031">
        <ele>31</ele>
        <time>2019-03-21T16:17:26Z</time>
      </trkpt>
      <trkpt lat="46.48175" lon="-1.56029">
        <ele>31</ele>
        <time>2019-03-21T16:17:29Z</time>
      </trkpt>
      <trkpt lat="46.48171" lon="-1.56027">
        <ele>31</ele>
        <time>2019-03-21T16:17:31Z</time>
      </trkpt>
      <trkpt lat="46.48169" lon="-1.56026">
        <ele>31</ele>
        <time>2019-03-21T16:17:34Z</time>
      </trkpt>
      <trkpt lat="46.48165" lon="-1.56024">
        <ele>31</ele>
        <time>2019-03-21T16:17:37Z</time>
      </trkpt>
      <trkpt lat="46.48161" lon="-1.56021">
        <ele>31</ele>
        <time>2019-03-21T16:17:39Z</time>
      </trkpt>
      <trkpt lat="46.48157" lon="-1.56019">
        <ele>31</ele>
        <time>2019-03-21T16:17:42Z</time>
      </trkpt>
      <trkpt lat="46.48154" lon="-1.56017">
        <ele>31</ele>
        <time>2019-03-21T16:17:45Z</time>
      </trkpt>
      <trkpt lat="46.48151" lon="-1.56015">
        <ele>31</ele>
        <time>2019-03-21T16:17:47Z</time>
      </trkpt>
      <trkpt lat="46.48149" lon="-1.56013">
        <ele>32</ele>
        <time>2019-03-21T16:17:50Z</time>
      </trkpt>
      <trkpt lat="46.48143" lon="-1.56009">
        <ele>32</ele>
        <time>2019-03-21T16:17:55Z</time>
      </trkpt>
      <trkpt lat="46.48141" lon="-1.56007">
        <ele>32</ele>
        <time>2019-03-21T16:17:58Z</time>
      </trkpt>
      <trkpt lat="46.48137" lon="-1.56004">
        <ele>32</ele>
        <time>2019-03-21T16:18:00Z</time>
      </trkpt>
      <trkpt lat="46.48135" lon="-1.56002">
        <ele>32</ele>
        <time>2019-03-21T16:18:03Z</time>
      </trkpt>
      <trkpt lat="46.48133" lon="-1.56001">
        <ele>32</ele>
        <time>2019-03-21T16:18:06Z</time>
      </trkpt>
      <trkpt lat="46.4813" lon="-1.55999">
        <ele>32</ele>
        <time>2019-03-21T16:18:09Z</time>
      </trkpt>
      <trkpt lat="46.48126" lon="-1.55996">
        <ele>32</ele>
        <time>2019-03-21T16:18:11Z</time>
      </trkpt>
      <trkpt lat="46.48124" lon="-1.55994">
        <ele>32</ele>
        <time>2019-03-21T16:18:14Z</time>
      </trkpt>
      <trkpt lat="46.48123" lon="-1.55991">
        <ele>32</ele>
        <time>2019-03-21T16:18:17Z</time>
      </trkpt>
      <trkpt lat="46.48121" lon="-1.55989">
        <ele>32</ele>
        <time>2019-03-21T16:18:19Z</time>
      </trkpt>
      <trkpt lat="46.48122" lon="-1.55988">
        <ele>32</ele>
        <time>2019-03-21T16:18:22Z</time>
      </trkpt>
      <trkpt lat="46.48123" lon="-1.55986">
        <ele>32</ele>
        <time>2019-03-21T16:18:24Z</time>
      </trkpt>
      <trkpt lat="46.48123" lon="-1.55985">
        <ele>32</ele>
        <time>2019-03-21T16:18:27Z</time>
      </trkpt>
      <trkpt lat="46.48123" lon="-1.55984">
        <ele>32</ele>
        <time>2019-03-21T16:18:30Z</time>
      </trkpt>
      <trkpt lat="46.48123" lon="-1.55986">
        <ele>32</ele>
        <time>2019-03-21T16:18:32Z</time>
      </trkpt>
      <trkpt lat="46.48123" lon="-1.55986">
        <ele>32</ele>
        <time>2019-03-21T16:18:35Z</time>
      </trkpt>
      <trkpt lat="46.48122" lon="-1.55984">
        <ele>32</ele>
        <time>2019-03-21T16:18:38Z</time>
      </trkpt>
      <trkpt lat="46.48123" lon="-1.55985">
        <ele>32</ele>
        <time>2019-03-21T16:18:40Z</time>
      </trkpt>
      <trkpt lat="46.48122" lon="-1.55986">
        <ele>32</ele>
        <time>2019-03-21T16:18:43Z</time>
      </trkpt>
      <trkpt lat="46.48119" lon="-1.55987">
        <ele>32</ele>
        <time>2019-03-21T16:18:45Z</time>
      </trkpt>
      <trkpt lat="46.48115" lon="-1.55984">
        <ele>32</ele>
        <time>2019-03-21T16:18:48Z</time>
      </trkpt>
      <trkpt lat="46.48112" lon="-1.55983">
        <ele>32</ele>
        <time>2019-03-21T16:18:51Z</time>
      </trkpt>
      <trkpt lat="46.4811" lon="-1.55981">
        <ele>32</ele>
        <time>2019-03-21T16:18:53Z</time>
      </trkpt>
      <trkpt lat="46.48107" lon="-1.5598">
        <ele>32</ele>
        <time>2019-03-21T16:18:56Z</time>
      </trkpt>
      <trkpt lat="46.48103" lon="-1.55977">
        <ele>32</ele>
        <time>2019-03-21T16:18:59Z</time>
      </trkpt>
      <trkpt lat="46.48101" lon="-1.55974">
        <ele>32</ele>
        <time>2019-03-21T16:19:01Z</time>
      </trkpt>
      <trkpt lat="46.48098" lon="-1.55973">
        <ele>32</ele>
        <time>2019-03-21T16:19:04Z</time>
      </trkpt>
      <trkpt lat="46.48096" lon="-1.5597">
        <ele>32</ele>
        <time>2019-03-21T16:19:07Z</time>
      </trkpt>
      <trkpt lat="46.48092" lon="-1.55966">
        <ele>32</ele>
        <time>2019-03-21T16:19:09Z</time>
      </trkpt>
      <trkpt lat="46.4809" lon="-1.55963">
        <ele>32</ele>
        <time>2019-03-21T16:19:12Z</time>
      </trkpt>
      <trkpt lat="46.48087" lon="-1.55959">
        <ele>32</ele>
        <time>2019-03-21T16:19:15Z</time>
      </trkpt>
      <trkpt lat="46.48083" lon="-1.55955">
        <ele>32</ele>
        <time>2019-03-21T16:19:17Z</time>
      </trkpt>
      <trkpt lat="46.4808" lon="-1.55952">
        <ele>32</ele>
        <time>2019-03-21T16:19:20Z</time>
      </trkpt>
      <trkpt lat="46.48077" lon="-1.55949">
        <ele>32</ele>
        <time>2019-03-21T16:19:23Z</time>
      </trkpt>
      <trkpt lat="46.48075" lon="-1.55946">
        <ele>32</ele>
        <time>2019-03-21T16:19:25Z</time>
      </trkpt>
      <trkpt lat="46.48073" lon="-1.55943">
        <ele>32</ele>
        <time>2019-03-21T16:19:28Z</time>
      </trkpt>
      <trkpt lat="46.4807" lon="-1.5594">
        <ele>32</ele>
        <time>2019-03-21T16:19:30Z</time>
      </trkpt>
      <trkpt lat="46.48068" lon="-1.55937">
        <ele>32</ele>
        <time>2019-03-21T16:19:33Z</time>
      </trkpt>
      <trkpt lat="46.48066" lon="-1.55934">
        <ele>32</ele>
        <time>2019-03-21T16:19:36Z</time>
      </trkpt>
      <trkpt lat="46.48063" lon="-1.5593">
        <ele>32</ele>
        <time>2019-03-21T16:19:38Z</time>
      </trkpt>
      <trkpt lat="46.4806" lon="-1.55927">
        <ele>32</ele>
        <time>2019-03-21T16:19:41Z</time>
      </trkpt>
      <trkpt lat="46.48058" lon="-1.55924">
        <ele>32</ele>
        <time>2019-03-21T16:19:44Z</time>
      </trkpt>
      <trkpt lat="46.48055" lon="-1.55919">
        <ele>32</ele>
        <time>2019-03-21T16:19:46Z</time>
      </trkpt>
      <trkpt lat="46.48051" lon="-1.55914">
        <ele>32</ele>
        <time>2019-03-21T16:19:49Z</time>
      </trkpt>
      <trkpt lat="46.48049" lon="-1.55912">
        <ele>32</ele>
        <time>2019-03-21T16:19:52Z</time>
      </trkpt>
      <trkpt lat="46.48046" lon="-1.55908">
        <ele>32</ele>
        <time>2019-03-21T16:19:54Z</time>
      </trkpt>
      <trkpt lat="46.48043" lon="-1.55904">
        <ele>32</ele>
        <time>2019-03-21T16:19:57Z</time>
      </trkpt>
      <trkpt lat="46.48042" lon="-1.55902">
        <ele>32</ele>
        <time>2019-03-21T16:20:00Z</time>
      </trkpt>
      <trkpt lat="46.48038" lon="-1.55897">
        <ele>32</ele>
        <time>2019-03-21T16:20:02Z</time>
      </trkpt>
      <trkpt lat="46.48035" lon="-1.55892">
        <ele>32</ele>
        <time>2019-03-21T16:20:05Z</time>
      </trkpt>
      <trkpt lat="46.48033" lon="-1.55889">
        <ele>32</ele>
        <time>2019-03-21T16:20:08Z</time>
      </trkpt>
      <trkpt lat="46.4803" lon="-1.55885">
        <ele>31</ele>
        <time>2019-03-21T16:20:11Z</time>
      </trkpt>
      <trkpt lat="46.48027" lon="-1.55879">
        <ele>31</ele>
        <time>2019-03-21T16:20:13Z</time>
      </trkpt>
      <trkpt lat="46.48024" lon="-1.55876">
        <ele>31</ele>
        <time>2019-03-21T16:20:16Z</time>
      </trkpt>
      <trkpt lat="46.48021" lon="-1.55872">
        <ele>31</ele>
        <time>2019-03-21T16:20:19Z</time>
      </trkpt>
      <trkpt lat="46.48017" lon="-1.55867">
        <ele>31</ele>
        <time>2019-03-21T16:20:21Z</time>
      </trkpt>
      <trkpt lat="46.48015" lon="-1.55864">
        <ele>31</ele>
        <time>2019-03-21T16:20:24Z</time>
      </trkpt>
      <trkpt lat="46.48013" lon="-1.55859">
        <ele>31</ele>
        <time>2019-03-21T16:20:27Z</time>
      </trkpt>
      <trkpt lat="46.48012" lon="-1.55854">
        <ele>31</ele>
        <time>2019-03-21T16:20:29Z</time>
      </trkpt>
      <trkpt lat="46.48011" lon="-1.5585">
        <ele>30</ele>
        <time>2019-03-21T16:20:32Z</time>
      </trkpt>
      <trkpt lat="46.48009" lon="-1.55847">
        <ele>30</ele>
        <time>2019-03-21T16:20:35Z</time>
      </trkpt>
      <trkpt lat="46.48006" lon="-1.55842">
        <ele>30</ele>
        <time>2019-03-21T16:20:38Z</time>
      </trkpt>
      <trkpt lat="46.48003" lon="-1.55837">
        <ele>30</ele>
        <time>2019-03-21T16:20:40Z</time>
      </trkpt>
      <trkpt lat="46.48001" lon="-1.55833">
        <ele>29</ele>
        <time>2019-03-21T16:20:43Z</time>
      </trkpt>
      <trkpt lat="46.47998" lon="-1.55829">
        <ele>29</ele>
        <time>2019-03-21T16:20:46Z</time>
      </trkpt>
      <trkpt lat="46.47994" lon="-1.55823">
        <ele>29</ele>
        <time>2019-03-21T16:20:48Z</time>
      </trkpt>
      <trkpt lat="46.47992" lon="-1.55819">
        <ele>29</ele>
        <time>2019-03-21T16:20:51Z</time>
      </trkpt>
      <trkpt lat="46.47987" lon="-1.55813">
        <ele>28</ele>
        <time>2019-03-21T16:20:54Z</time>
      </trkpt>
      <trkpt lat="46.47982" lon="-1.55805">
        <ele>28</ele>
        <time>2019-03-21T16:20:59Z</time>
      </trkpt>
      <trkpt lat="46.4798" lon="-1.55802">
        <ele>28</ele>
        <time>2019-03-21T16:21:02Z</time>
      </trkpt>
      <trkpt lat="46.47977" lon="-1.55796">
        <ele>27</ele>
        <time>2019-03-21T16:21:04Z</time>
      </trkpt>
      <trkpt lat="46.47973" lon="-1.55791">
        <ele>27</ele>
        <time>2019-03-21T16:21:07Z</time>
      </trkpt>
      <trkpt lat="46.47972" lon="-1.55788">
        <ele>27</ele>
        <time>2019-03-21T16:21:10Z</time>
      </trkpt>
      <trkpt lat="46.47969" lon="-1.55784">
        <ele>27</ele>
        <time>2019-03-21T16:21:13Z</time>
      </trkpt>
      <trkpt lat="46.47966" lon="-1.5578">
        <ele>27</ele>
        <time>2019-03-21T16:21:15Z</time>
      </trkpt>
      <trkpt lat="46.47962" lon="-1.55775">
        <ele>26</ele>
        <time>2019-03-21T16:21:18Z</time>
      </trkpt>
      <trkpt lat="46.4796" lon="-1.55771">
        <ele>26</ele>
        <time>2019-03-21T16:21:21Z</time>
      </trkpt>
      <trkpt lat="46.47957" lon="-1.55767">
        <ele>26</ele>
        <time>2019-03-21T16:21:24Z</time>
      </trkpt>
      <trkpt lat="46.47954" lon="-1.55762">
        <ele>26</ele>
        <time>2019-03-21T16:21:26Z</time>
      </trkpt>
      <trkpt lat="46.47951" lon="-1.55758">
        <ele>26</ele>
        <time>2019-03-21T16:21:29Z</time>
      </trkpt>
      <trkpt lat="46.47947" lon="-1.55753">
        <ele>26</ele>
        <time>2019-03-21T16:21:32Z</time>
      </trkpt>
      <trkpt lat="46.47943" lon="-1.55748">
        <ele>25</ele>
        <time>2019-03-21T16:21:34Z</time>
      </trkpt>
      <trkpt lat="46.4794" lon="-1.55743">
        <ele>25</ele>
        <time>2019-03-21T16:21:37Z</time>
      </trkpt>
      <trkpt lat="46.47938" lon="-1.5574">
        <ele>25</ele>
        <time>2019-03-21T16:21:40Z</time>
      </trkpt>
      <trkpt lat="46.47936" lon="-1.55735">
        <ele>25</ele>
        <time>2019-03-21T16:21:42Z</time>
      </trkpt>
      <trkpt lat="46.47934" lon="-1.55732">
        <ele>25</ele>
        <time>2019-03-21T16:21:45Z</time>
      </trkpt>
      <trkpt lat="46.47932" lon="-1.55725">
        <ele>25</ele>
        <time>2019-03-21T16:21:48Z</time>
      </trkpt>
      <trkpt lat="46.4793" lon="-1.5572">
        <ele>25</ele>
        <time>2019-03-21T16:21:50Z</time>
      </trkpt>
      <trkpt lat="46.47927" lon="-1.55716">
        <ele>25</ele>
        <time>2019-03-21T16:21:53Z</time>
      </trkpt>
      <trkpt lat="46.47924" lon="-1.55711">
        <ele>26</ele>
        <time>2019-03-21T16:21:55Z</time>
      </trkpt>
      <trkpt lat="46.47923" lon="-1.55708">
        <ele>26</ele>
        <time>2019-03-21T16:21:58Z</time>
      </trkpt>
      <trkpt lat="46.47922" lon="-1.55703">
        <ele>26</ele>
        <time>2019-03-21T16:22:01Z</time>
      </trkpt>
      <trkpt lat="46.4792" lon="-1.55699">
        <ele>26</ele>
        <time>2019-03-21T16:22:03Z</time>
      </trkpt>
      <trkpt lat="46.47919" lon="-1.55695">
        <ele>26</ele>
        <time>2019-03-21T16:22:06Z</time>
      </trkpt>
      <trkpt lat="46.47917" lon="-1.55692">
        <ele>26</ele>
        <time>2019-03-21T16:22:08Z</time>
      </trkpt>
      <trkpt lat="46.47915" lon="-1.55689">
        <ele>26</ele>
        <time>2019-03-21T16:22:11Z</time>
      </trkpt>
      <trkpt lat="46.47913" lon="-1.55686">
        <ele>25</ele>
        <time>2019-03-21T16:22:14Z</time>
      </trkpt>
      <trkpt lat="46.47909" lon="-1.55682">
        <ele>25</ele>
        <time>2019-03-21T16:22:16Z</time>
      </trkpt>
      <trkpt lat="46.47908" lon="-1.55679">
        <ele>26</ele>
        <time>2019-03-21T16:22:19Z</time>
      </trkpt>
      <trkpt lat="46.47907" lon="-1.55675">
        <ele>25</ele>
        <time>2019-03-21T16:22:22Z</time>
      </trkpt>
      <trkpt lat="46.47906" lon="-1.55672">
        <ele>25</ele>
        <time>2019-03-21T16:22:24Z</time>
      </trkpt>
      <trkpt lat="46.47905" lon="-1.5567">
        <ele>25</ele>
        <time>2019-03-21T16:22:27Z</time>
      </trkpt>
      <trkpt lat="46.47904" lon="-1.55669">
        <ele>25</ele>
        <time>2019-03-21T16:22:29Z</time>
      </trkpt>
      <trkpt lat="46.47903" lon="-1.55668">
        <ele>25</ele>
        <time>2019-03-21T16:22:32Z</time>
      </trkpt>
      <trkpt lat="46.47901" lon="-1.55666">
        <ele>25</ele>
        <time>2019-03-21T16:22:35Z</time>
      </trkpt>
      <trkpt lat="46.47898" lon="-1.55661">
        <ele>25</ele>
        <time>2019-03-21T16:22:37Z</time>
      </trkpt>
      <trkpt lat="46.47897" lon="-1.55659">
        <ele>25</ele>
        <time>2019-03-21T16:22:40Z</time>
      </trkpt>
      <trkpt lat="46.47895" lon="-1.55655">
        <ele>25</ele>
        <time>2019-03-21T16:22:43Z</time>
      </trkpt>
      <trkpt lat="46.47894" lon="-1.55651">
        <ele>25</ele>
        <time>2019-03-21T16:22:45Z</time>
      </trkpt>
      <trkpt lat="46.47892" lon="-1.55648">
        <ele>25</ele>
        <time>2019-03-21T16:22:48Z</time>
      </trkpt>
      <trkpt lat="46.4789" lon="-1.55643">
        <ele>25</ele>
        <time>2019-03-21T16:22:50Z</time>
      </trkpt>
      <trkpt lat="46.47888" lon="-1.5564">
        <ele>25</ele>
        <time>2019-03-21T16:22:53Z</time>
      </trkpt>
      <trkpt lat="46.47886" lon="-1.55636">
        <ele>25</ele>
        <time>2019-03-21T16:22:56Z</time>
      </trkpt>
      <trkpt lat="46.47884" lon="-1.55631">
        <ele>25</ele>
        <time>2019-03-21T16:22:59Z</time>
      </trkpt>
      <trkpt lat="46.47882" lon="-1.55627">
        <ele>25</ele>
        <time>2019-03-21T16:23:01Z</time>
      </trkpt>
      <trkpt lat="46.47879" lon="-1.55624">
        <ele>25</ele>
        <time>2019-03-21T16:23:04Z</time>
      </trkpt>
      <trkpt lat="46.47877" lon="-1.5562">
        <ele>25</ele>
        <time>2019-03-21T16:23:06Z</time>
      </trkpt>
      <trkpt lat="46.47875" lon="-1.55617">
        <ele>25</ele>
        <time>2019-03-21T16:23:09Z</time>
      </trkpt>
      <trkpt lat="46.47875" lon="-1.55617">
        <ele>25</ele>
        <time>2019-03-21T16:23:12Z</time>
      </trkpt>
      <trkpt lat="46.47871" lon="-1.55618">
        <ele>25</ele>
        <time>2019-03-21T16:23:14Z</time>
      </trkpt>
      <trkpt lat="46.47869" lon="-1.55618">
        <ele>25</ele>
        <time>2019-03-21T16:23:17Z</time>
      </trkpt>
      <trkpt lat="46.47865" lon="-1.5562">
        <ele>25</ele>
        <time>2019-03-21T16:23:20Z</time>
      </trkpt>
      <trkpt lat="46.47862" lon="-1.5562">
        <ele>25</ele>
        <time>2019-03-21T16:23:22Z</time>
      </trkpt>
      <trkpt lat="46.47861" lon="-1.5562">
        <ele>25</ele>
        <time>2019-03-21T16:23:25Z</time>
      </trkpt>
      <trkpt lat="46.4786" lon="-1.55619">
        <ele>25</ele>
        <time>2019-03-21T16:23:28Z</time>
      </trkpt>
      <trkpt lat="46.4786" lon="-1.55618">
        <ele>25</ele>
        <time>2019-03-21T16:23:30Z</time>
      </trkpt>
      <trkpt lat="46.4786" lon="-1.55618">
        <ele>25</ele>
        <time>2019-03-21T16:23:33Z</time>
      </trkpt>
      <trkpt lat="46.4786" lon="-1.55617">
        <ele>25</ele>
        <time>2019-03-21T16:23:36Z</time>
      </trkpt>
      <trkpt lat="46.47861" lon="-1.55617">
        <ele>25</ele>
        <time>2019-03-21T16:23:38Z</time>
      </trkpt>
      <trkpt lat="46.47861" lon="-1.55617">
        <ele>25</ele>
        <time>2019-03-21T16:23:41Z</time>
      </trkpt>
      <trkpt lat="46.47861" lon="-1.55616">
        <ele>25</ele>
        <time>2019-03-21T16:23:43Z</time>
      </trkpt>
      <trkpt lat="46.47861" lon="-1.55616">
        <ele>25</ele>
        <time>2019-03-21T16:23:46Z</time>
      </trkpt>
      <trkpt lat="46.47861" lon="-1.55616">
        <ele>25</ele>
        <time>2019-03-21T16:23:49Z</time>
      </trkpt>
      <trkpt lat="46.47861" lon="-1.55616">
        <ele>25</ele>
        <time>2019-03-21T16:23:51Z</time>
      </trkpt>
      <trkpt lat="46.47861" lon="-1.55616">
        <ele>25</ele>
        <time>2019-03-21T16:23:54Z</time>
      </trkpt>
      <trkpt lat="46.47861" lon="-1.55615">
        <ele>25</ele>
        <time>2019-03-21T16:23:57Z</time>
      </trkpt>
      <trkpt lat="46.47862" lon="-1.55616">
        <ele>25</ele>
        <time>2019-03-21T16:24:02Z</time>
      </trkpt>
      <trkpt lat="46.47861" lon="-1.55617">
        <ele>25</ele>
        <time>2019-03-21T16:24:05Z</time>
      </trkpt>
      <trkpt lat="46.4786" lon="-1.55618">
        <ele>25</ele>
        <time>2019-03-21T16:24:07Z</time>
      </trkpt>
      <trkpt lat="46.47859" lon="-1.55618">
        <ele>25</ele>
        <time>2019-03-21T16:24:10Z</time>
      </trkpt>
      <trkpt lat="46.47857" lon="-1.55617">
        <ele>25</ele>
        <time>2019-03-21T16:24:12Z</time>
      </trkpt>
      <trkpt lat="46.47857" lon="-1.55617">
        <ele>25</ele>
        <time>2019-03-21T16:24:15Z</time>
      </trkpt>
      <trkpt lat="46.47855" lon="-1.55617">
        <ele>25</ele>
        <time>2019-03-21T16:24:18Z</time>
      </trkpt>
      <trkpt lat="46.47855" lon="-1.55616">
        <ele>25</ele>
        <time>2019-03-21T16:24:20Z</time>
      </trkpt>
      <trkpt lat="46.47854" lon="-1.55616">
        <ele>25</ele>
        <time>2019-03-21T16:24:23Z</time>
      </trkpt>
      <trkpt lat="46.47854" lon="-1.55616">
        <ele>25</ele>
        <time>2019-03-21T16:24:26Z</time>
      </trkpt>
      <trkpt lat="46.47854" lon="-1.55616">
        <ele>25</ele>
        <time>2019-03-21T16:24:28Z</time>
      </trkpt>
      <trkpt lat="46.47854" lon="-1.55616">
        <ele>25</ele>
        <time>2019-03-21T16:24:31Z</time>
      </trkpt>
      <trkpt lat="46.47853" lon="-1.55616">
        <ele>25</ele>
        <time>2019-03-21T16:24:34Z</time>
      </trkpt>
      <trkpt lat="46.47853" lon="-1.55616">
        <ele>25</ele>
        <time>2019-03-21T16:24:36Z</time>
      </trkpt>
      <trkpt lat="46.47852" lon="-1.55616">
        <ele>25</ele>
        <time>2019-03-21T16:24:39Z</time>
      </trkpt>
      <trkpt lat="46.47852" lon="-1.55616">
        <ele>25</ele>
        <time>2019-03-21T16:24:42Z</time>
      </trkpt>
      <trkpt lat="46.47852" lon="-1.55615">
        <ele>25</ele>
        <time>2019-03-21T16:24:44Z</time>
      </trkpt>
      <trkpt lat="46.47852" lon="-1.55615">
        <ele>25</ele>
        <time>2019-03-21T16:24:47Z</time>
      </trkpt>
      <trkpt lat="46.47853" lon="-1.55615">
        <ele>25</ele>
        <time>2019-03-21T16:24:50Z</time>
      </trkpt>
      <trkpt lat="46.47852" lon="-1.55614">
        <ele>25</ele>
        <time>2019-03-21T16:24:52Z</time>
      </trkpt>
      <trkpt lat="46.47851" lon="-1.55614">
        <ele>25</ele>
        <time>2019-03-21T16:24:55Z</time>
      </trkpt>
      <trkpt lat="46.4785" lon="-1.55613">
        <ele>25</ele>
        <time>2019-03-21T16:24:58Z</time>
      </trkpt>
      <trkpt lat="46.47848" lon="-1.55613">
        <ele>25</ele>
        <time>2019-03-21T16:25:00Z</time>
      </trkpt>
      <trkpt lat="46.47846" lon="-1.55614">
        <ele>25</ele>
        <time>2019-03-21T16:25:03Z</time>
      </trkpt>
      <trkpt lat="46.47845" lon="-1.55615">
        <ele>25</ele>
        <time>2019-03-21T16:25:06Z</time>
      </trkpt>
      <trkpt lat="46.47843" lon="-1.55617">
        <ele>25</ele>
        <time>2019-03-21T16:25:08Z</time>
      </trkpt>
      <trkpt lat="46.47843" lon="-1.55618">
        <ele>25</ele>
        <time>2019-03-21T16:25:11Z</time>
      </trkpt>
      <trkpt lat="46.47841" lon="-1.55619">
        <ele>25</ele>
        <time>2019-03-21T16:25:14Z</time>
      </trkpt>
      <trkpt lat="46.4784" lon="-1.5562">
        <ele>25</ele>
        <time>2019-03-21T16:25:16Z</time>
      </trkpt>
      <trkpt lat="46.47839" lon="-1.55622">
        <ele>25</ele>
        <time>2019-03-21T16:25:19Z</time>
      </trkpt>
      <trkpt lat="46.47837" lon="-1.55623">
        <ele>25</ele>
        <time>2019-03-21T16:25:22Z</time>
      </trkpt>
      <trkpt lat="46.47835" lon="-1.55625">
        <ele>25</ele>
        <time>2019-03-21T16:25:24Z</time>
      </trkpt>
      <trkpt lat="46.47834" lon="-1.55626">
        <ele>25</ele>
        <time>2019-03-21T16:25:27Z</time>
      </trkpt>
      <trkpt lat="46.47832" lon="-1.55627">
        <ele>25</ele>
        <time>2019-03-21T16:25:29Z</time>
      </trkpt>
      <trkpt lat="46.4783" lon="-1.55628">
        <ele>25</ele>
        <time>2019-03-21T16:25:32Z</time>
      </trkpt>
      <trkpt lat="46.47829" lon="-1.55628">
        <ele>25</ele>
        <time>2019-03-21T16:25:35Z</time>
      </trkpt>
      <trkpt lat="46.47827" lon="-1.55629">
        <ele>25</ele>
        <time>2019-03-21T16:25:37Z</time>
      </trkpt>
      <trkpt lat="46.47824" lon="-1.5563">
        <ele>25</ele>
        <time>2019-03-21T16:25:40Z</time>
      </trkpt>
      <trkpt lat="46.47822" lon="-1.55631">
        <ele>25</ele>
        <time>2019-03-21T16:25:43Z</time>
      </trkpt>
      <trkpt lat="46.4782" lon="-1.55632">
        <ele>25</ele>
        <time>2019-03-21T16:25:45Z</time>
      </trkpt>
      <trkpt lat="46.47818" lon="-1.55634">
        <ele>25</ele>
        <time>2019-03-21T16:25:48Z</time>
      </trkpt>
      <trkpt lat="46.47817" lon="-1.55636">
        <ele>25</ele>
        <time>2019-03-21T16:25:51Z</time>
      </trkpt>
      <trkpt lat="46.47815" lon="-1.55637">
        <ele>25</ele>
        <time>2019-03-21T16:25:53Z</time>
      </trkpt>
      <trkpt lat="46.47814" lon="-1.55638">
        <ele>25</ele>
        <time>2019-03-21T16:25:56Z</time>
      </trkpt>
      <trkpt lat="46.47812" lon="-1.55639">
        <ele>25</ele>
        <time>2019-03-21T16:25:59Z</time>
      </trkpt>
      <trkpt lat="46.4781" lon="-1.5564">
        <ele>25</ele>
        <time>2019-03-21T16:26:01Z</time>
      </trkpt>
      <trkpt lat="46.47809" lon="-1.55641">
        <ele>25</ele>
        <time>2019-03-21T16:26:04Z</time>
      </trkpt>
      <trkpt lat="46.47807" lon="-1.55642">
        <ele>25</ele>
        <time>2019-03-21T16:26:06Z</time>
      </trkpt>
      <trkpt lat="46.47805" lon="-1.55644">
        <ele>25</ele>
        <time>2019-03-21T16:26:09Z</time>
      </trkpt>
      <trkpt lat="46.47804" lon="-1.55645">
        <ele>25</ele>
        <time>2019-03-21T16:26:12Z</time>
      </trkpt>
      <trkpt lat="46.47803" lon="-1.55646">
        <ele>25</ele>
        <time>2019-03-21T16:26:14Z</time>
      </trkpt>
      <trkpt lat="46.47801" lon="-1.55648">
        <ele>25</ele>
        <time>2019-03-21T16:26:17Z</time>
      </trkpt>
      <trkpt lat="46.478" lon="-1.55649">
        <ele>25</ele>
        <time>2019-03-21T16:26:20Z</time>
      </trkpt>
      <trkpt lat="46.47798" lon="-1.5565">
        <ele>25</ele>
        <time>2019-03-21T16:26:22Z</time>
      </trkpt>
      <trkpt lat="46.47796" lon="-1.5565">
        <ele>25</ele>
        <time>2019-03-21T16:26:25Z</time>
      </trkpt>
      <trkpt lat="46.47795" lon="-1.55651">
        <ele>25</ele>
        <time>2019-03-21T16:26:28Z</time>
      </trkpt>
      <trkpt lat="46.47793" lon="-1.55651">
        <ele>25</ele>
        <time>2019-03-21T16:26:30Z</time>
      </trkpt>
      <trkpt lat="46.4779" lon="-1.55651">
        <ele>25</ele>
        <time>2019-03-21T16:26:33Z</time>
      </trkpt>
      <trkpt lat="46.47789" lon="-1.55652">
        <ele>25</ele>
        <time>2019-03-21T16:26:36Z</time>
      </trkpt>
      <trkpt lat="46.47787" lon="-1.55652">
        <ele>25</ele>
        <time>2019-03-21T16:26:38Z</time>
      </trkpt>
      <trkpt lat="46.47785" lon="-1.55653">
        <ele>25</ele>
        <time>2019-03-21T16:26:41Z</time>
      </trkpt>
      <trkpt lat="46.47784" lon="-1.55654">
        <ele>25</ele>
        <time>2019-03-21T16:26:44Z</time>
      </trkpt>
      <trkpt lat="46.47783" lon="-1.55655">
        <ele>25</ele>
        <time>2019-03-21T16:26:47Z</time>
      </trkpt>
      <trkpt lat="46.47782" lon="-1.55656">
        <ele>25</ele>
        <time>2019-03-21T16:26:49Z</time>
      </trkpt>
      <trkpt lat="46.4778" lon="-1.55657">
        <ele>25</ele>
        <time>2019-03-21T16:26:52Z</time>
      </trkpt>
      <trkpt lat="46.47778" lon="-1.55657">
        <ele>25</ele>
        <time>2019-03-21T16:26:54Z</time>
      </trkpt>
      <trkpt lat="46.47776" lon="-1.55657">
        <ele>24</ele>
        <time>2019-03-21T16:26:57Z</time>
      </trkpt>
      <trkpt lat="46.47773" lon="-1.55658">
        <ele>24</ele>
        <time>2019-03-21T16:27:00Z</time>
      </trkpt>
      <trkpt lat="46.47768" lon="-1.55659">
        <ele>24</ele>
        <time>2019-03-21T16:27:05Z</time>
      </trkpt>
      <trkpt lat="46.47767" lon="-1.55661">
        <ele>24</ele>
        <time>2019-03-21T16:27:08Z</time>
      </trkpt>
      <trkpt lat="46.47765" lon="-1.55662">
        <ele>24</ele>
        <time>2019-03-21T16:27:10Z</time>
      </trkpt>
      <trkpt lat="46.47763" lon="-1.55663">
        <ele>24</ele>
        <time>2019-03-21T16:27:13Z</time>
      </trkpt>
      <trkpt lat="46.47761" lon="-1.55663">
        <ele>24</ele>
        <time>2019-03-21T16:27:16Z</time>
      </trkpt>
      <trkpt lat="46.4776" lon="-1.55664">
        <ele>24</ele>
        <time>2019-03-21T16:27:19Z</time>
      </trkpt>
      <trkpt lat="46.47756" lon="-1.55664">
        <ele>24</ele>
        <time>2019-03-21T16:27:21Z</time>
      </trkpt>
      <trkpt lat="46.47754" lon="-1.55664">
        <ele>24</ele>
        <time>2019-03-21T16:27:24Z</time>
      </trkpt>
      <trkpt lat="46.47752" lon="-1.55664">
        <ele>24</ele>
        <time>2019-03-21T16:27:27Z</time>
      </trkpt>
      <trkpt lat="46.4775" lon="-1.55666">
        <ele>24</ele>
        <time>2019-03-21T16:27:29Z</time>
      </trkpt>
      <trkpt lat="46.47747" lon="-1.55667">
        <ele>24</ele>
        <time>2019-03-21T16:27:32Z</time>
      </trkpt>
      <trkpt lat="46.47746" lon="-1.55668">
        <ele>24</ele>
        <time>2019-03-21T16:27:35Z</time>
      </trkpt>
      <trkpt lat="46.47745" lon="-1.5567">
        <ele>24</ele>
        <time>2019-03-21T16:27:38Z</time>
      </trkpt>
      <trkpt lat="46.47743" lon="-1.55672">
        <ele>24</ele>
        <time>2019-03-21T16:27:40Z</time>
      </trkpt>
      <trkpt lat="46.47741" lon="-1.55673">
        <ele>24</ele>
        <time>2019-03-21T16:27:43Z</time>
      </trkpt>
      <trkpt lat="46.47738" lon="-1.55675">
        <ele>24</ele>
        <time>2019-03-21T16:27:46Z</time>
      </trkpt>
      <trkpt lat="46.47735" lon="-1.55677">
        <ele>24</ele>
        <time>2019-03-21T16:27:48Z</time>
      </trkpt>
      <trkpt lat="46.47734" lon="-1.55678">
        <ele>24</ele>
        <time>2019-03-21T16:27:51Z</time>
      </trkpt>
      <trkpt lat="46.47733" lon="-1.55679">
        <ele>24</ele>
        <time>2019-03-21T16:27:54Z</time>
      </trkpt>
      <trkpt lat="46.47732" lon="-1.5568">
        <ele>24</ele>
        <time>2019-03-21T16:27:56Z</time>
      </trkpt>
      <trkpt lat="46.47732" lon="-1.55681">
        <ele>24</ele>
        <time>2019-03-21T16:27:59Z</time>
      </trkpt>
      <trkpt lat="46.47731" lon="-1.55681">
        <ele>24</ele>
        <time>2019-03-21T16:28:01Z</time>
      </trkpt>
      <trkpt lat="46.4773" lon="-1.55682">
        <ele>24</ele>
        <time>2019-03-21T16:28:04Z</time>
      </trkpt>
      <trkpt lat="46.47729" lon="-1.55682">
        <ele>24</ele>
        <time>2019-03-21T16:28:07Z</time>
      </trkpt>
      <trkpt lat="46.47728" lon="-1.55682">
        <ele>24</ele>
        <time>2019-03-21T16:28:09Z</time>
      </trkpt>
      <trkpt lat="46.47727" lon="-1.55683">
        <ele>24</ele>
        <time>2019-03-21T16:28:12Z</time>
      </trkpt>
      <trkpt lat="46.47725" lon="-1.55684">
        <ele>24</ele>
        <time>2019-03-21T16:28:15Z</time>
      </trkpt>
      <trkpt lat="46.47721" lon="-1.55686">
        <ele>24</ele>
        <time>2019-03-21T16:28:17Z</time>
      </trkpt>
      <trkpt lat="46.47719" lon="-1.55687">
        <ele>24</ele>
        <time>2019-03-21T16:28:20Z</time>
      </trkpt>
      <trkpt lat="46.47718" lon="-1.55688">
        <ele>24</ele>
        <time>2019-03-21T16:28:23Z</time>
      </trkpt>
      <trkpt lat="46.47716" lon="-1.5569">
        <ele>24</ele>
        <time>2019-03-21T16:28:25Z</time>
      </trkpt>
      <trkpt lat="46.47713" lon="-1.55693">
        <ele>24</ele>
        <time>2019-03-21T16:28:28Z</time>
      </trkpt>
      <trkpt lat="46.47711" lon="-1.55694">
        <ele>24</ele>
        <time>2019-03-21T16:28:31Z</time>
      </trkpt>
      <trkpt lat="46.47709" lon="-1.55695">
        <ele>24</ele>
        <time>2019-03-21T16:28:34Z</time>
      </trkpt>
      <trkpt lat="46.47707" lon="-1.55696">
        <ele>24</ele>
        <time>2019-03-21T16:28:36Z</time>
      </trkpt>
      <trkpt lat="46.47706" lon="-1.55696">
        <ele>24</ele>
        <time>2019-03-21T16:28:39Z</time>
      </trkpt>
      <trkpt lat="46.47704" lon="-1.55697">
        <ele>24</ele>
        <time>2019-03-21T16:28:42Z</time>
      </trkpt>
      <trkpt lat="46.47702" lon="-1.55698">
        <ele>24</ele>
        <time>2019-03-21T16:28:44Z</time>
      </trkpt>
      <trkpt lat="46.47701" lon="-1.55698">
        <ele>24</ele>
        <time>2019-03-21T16:28:47Z</time>
      </trkpt>
      <trkpt lat="46.477" lon="-1.55699">
        <ele>24</ele>
        <time>2019-03-21T16:28:50Z</time>
      </trkpt>
      <trkpt lat="46.47699" lon="-1.557">
        <ele>24</ele>
        <time>2019-03-21T16:28:52Z</time>
      </trkpt>
      <trkpt lat="46.47699" lon="-1.55701">
        <ele>24</ele>
        <time>2019-03-21T16:28:55Z</time>
      </trkpt>
      <trkpt lat="46.47698" lon="-1.55702">
        <ele>24</ele>
        <time>2019-03-21T16:28:57Z</time>
      </trkpt>
      <trkpt lat="46.47698" lon="-1.55703">
        <ele>24</ele>
        <time>2019-03-21T16:29:00Z</time>
      </trkpt>
      <trkpt lat="46.47696" lon="-1.55703">
        <ele>24</ele>
        <time>2019-03-21T16:29:03Z</time>
      </trkpt>
      <trkpt lat="46.47696" lon="-1.55703">
        <ele>24</ele>
        <time>2019-03-21T16:29:05Z</time>
      </trkpt>
      <trkpt lat="46.47696" lon="-1.55704">
        <ele>24</ele>
        <time>2019-03-21T16:29:08Z</time>
      </trkpt>
      <trkpt lat="46.47696" lon="-1.55703">
        <ele>24</ele>
        <time>2019-03-21T16:29:11Z</time>
      </trkpt>
      <trkpt lat="46.47695" lon="-1.55703">
        <ele>24</ele>
        <time>2019-03-21T16:29:13Z</time>
      </trkpt>
      <trkpt lat="46.47696" lon="-1.55702">
        <ele>24</ele>
        <time>2019-03-21T16:29:16Z</time>
      </trkpt>
      <trkpt lat="46.47695" lon="-1.55701">
        <ele>24</ele>
        <time>2019-03-21T16:29:18Z</time>
      </trkpt>
      <trkpt lat="46.47695" lon="-1.55701">
        <ele>24</ele>
        <time>2019-03-21T16:29:21Z</time>
      </trkpt>
      <trkpt lat="46.47694" lon="-1.55701">
        <ele>24</ele>
        <time>2019-03-21T16:29:24Z</time>
      </trkpt>
      <trkpt lat="46.47694" lon="-1.557">
        <ele>24</ele>
        <time>2019-03-21T16:29:26Z</time>
      </trkpt>
      <trkpt lat="46.47693" lon="-1.557">
        <ele>24</ele>
        <time>2019-03-21T16:29:29Z</time>
      </trkpt>
      <trkpt lat="46.47691" lon="-1.55699">
        <ele>24</ele>
        <time>2019-03-21T16:29:32Z</time>
      </trkpt>
      <trkpt lat="46.47691" lon="-1.55698">
        <ele>24</ele>
        <time>2019-03-21T16:29:34Z</time>
      </trkpt>
      <trkpt lat="46.47691" lon="-1.55698">
        <ele>24</ele>
        <time>2019-03-21T16:29:37Z</time>
      </trkpt>
      <trkpt lat="46.47691" lon="-1.55697">
        <ele>24</ele>
        <time>2019-03-21T16:29:40Z</time>
      </trkpt>
      <trkpt lat="46.47692" lon="-1.55697">
        <ele>24</ele>
        <time>2019-03-21T16:29:42Z</time>
      </trkpt>
      <trkpt lat="46.47692" lon="-1.55697">
        <ele>24</ele>
        <time>2019-03-21T16:29:45Z</time>
      </trkpt>
      <trkpt lat="46.47691" lon="-1.55697">
        <ele>24</ele>
        <time>2019-03-21T16:29:47Z</time>
      </trkpt>
      <trkpt lat="46.47691" lon="-1.55696">
        <ele>24</ele>
        <time>2019-03-21T16:29:50Z</time>
      </trkpt>
      <trkpt lat="46.47691" lon="-1.55696">
        <ele>24</ele>
        <time>2019-03-21T16:29:53Z</time>
      </trkpt>
      <trkpt lat="46.47691" lon="-1.55696">
        <ele>24</ele>
        <time>2019-03-21T16:29:55Z</time>
      </trkpt>
      <trkpt lat="46.47689" lon="-1.55695">
        <ele>24</ele>
        <time>2019-03-21T16:29:58Z</time>
      </trkpt>
      <trkpt lat="46.47689" lon="-1.55695">
        <ele>24</ele>
        <time>2019-03-21T16:30:01Z</time>
      </trkpt>
      <trkpt lat="46.4769" lon="-1.55695">
        <ele>24</ele>
        <time>2019-03-21T16:30:06Z</time>
      </trkpt>
      <trkpt lat="46.4769" lon="-1.55695">
        <ele>24</ele>
        <time>2019-03-21T16:30:09Z</time>
      </trkpt>
      <trkpt lat="46.47691" lon="-1.55695">
        <ele>24</ele>
        <time>2019-03-21T16:30:11Z</time>
      </trkpt>
      <trkpt lat="46.47692" lon="-1.55696">
        <ele>24</ele>
        <time>2019-03-21T16:30:14Z</time>
      </trkpt>
      <trkpt lat="46.47692" lon="-1.55696">
        <ele>24</ele>
        <time>2019-03-21T16:30:17Z</time>
      </trkpt>
      <trkpt lat="46.47693" lon="-1.55696">
        <ele>24</ele>
        <time>2019-03-21T16:30:20Z</time>
      </trkpt>
      <trkpt lat="46.47693" lon="-1.55697">
        <ele>24</ele>
        <time>2019-03-21T16:30:22Z</time>
      </trkpt>
      <trkpt lat="46.47693" lon="-1.55697">
        <ele>24</ele>
        <time>2019-03-21T16:30:25Z</time>
      </trkpt>
      <trkpt lat="46.47692" lon="-1.55697">
        <ele>24</ele>
        <time>2019-03-21T16:30:28Z</time>
      </trkpt>
      <trkpt lat="46.47692" lon="-1.55696">
        <ele>24</ele>
        <time>2019-03-21T16:30:31Z</time>
      </trkpt>
      <trkpt lat="46.47691" lon="-1.55696">
        <ele>24</ele>
        <time>2019-03-21T16:30:33Z</time>
      </trkpt>
      <trkpt lat="46.47691" lon="-1.55696">
        <ele>24</ele>
        <time>2019-03-21T16:30:36Z</time>
      </trkpt>
      <trkpt lat="46.47691" lon="-1.55696">
        <ele>24</ele>
        <time>2019-03-21T16:30:39Z</time>
      </trkpt>
      <trkpt lat="46.4769" lon="-1.55695">
        <ele>24</ele>
        <time>2019-03-21T16:30:41Z</time>
      </trkpt>
      <trkpt lat="46.47689" lon="-1.55694">
        <ele>24</ele>
        <time>2019-03-21T16:30:44Z</time>
      </trkpt>
      <trkpt lat="46.47689" lon="-1.55694">
        <ele>24</ele>
        <time>2019-03-21T16:30:47Z</time>
      </trkpt>
      <trkpt lat="46.4769" lon="-1.55693">
        <ele>24</ele>
        <time>2019-03-21T16:30:49Z</time>
      </trkpt>
      <trkpt lat="46.47689" lon="-1.55692">
        <ele>24</ele>
        <time>2019-03-21T16:30:52Z</time>
      </trkpt>
      <trkpt lat="46.47687" lon="-1.55692">
        <ele>24</ele>
        <time>2019-03-21T16:30:55Z</time>
      </trkpt>
      <trkpt lat="46.47684" lon="-1.55693">
        <ele>24</ele>
        <time>2019-03-21T16:30:57Z</time>
      </trkpt>
      <trkpt lat="46.47681" lon="-1.55692">
        <ele>24</ele>
        <time>2019-03-21T16:31:00Z</time>
      </trkpt>
      <trkpt lat="46.47678" lon="-1.5569">
        <ele>24</ele>
        <time>2019-03-21T16:31:03Z</time>
      </trkpt>
      <trkpt lat="46.47676" lon="-1.5569">
        <ele>24</ele>
        <time>2019-03-21T16:31:05Z</time>
      </trkpt>
      <trkpt lat="46.47674" lon="-1.55691">
        <ele>24</ele>
        <time>2019-03-21T16:31:08Z</time>
      </trkpt>
      <trkpt lat="46.47672" lon="-1.55692">
        <ele>24</ele>
        <time>2019-03-21T16:31:11Z</time>
      </trkpt>
      <trkpt lat="46.47671" lon="-1.55693">
        <ele>24</ele>
        <time>2019-03-21T16:31:13Z</time>
      </trkpt>
      <trkpt lat="46.47668" lon="-1.55693">
        <ele>25</ele>
        <time>2019-03-21T16:31:16Z</time>
      </trkpt>
      <trkpt lat="46.47666" lon="-1.55694">
        <ele>25</ele>
        <time>2019-03-21T16:31:18Z</time>
      </trkpt>
      <trkpt lat="46.47664" lon="-1.55694">
        <ele>25</ele>
        <time>2019-03-21T16:31:21Z</time>
      </trkpt>
      <trkpt lat="46.47661" lon="-1.55694">
        <ele>25</ele>
        <time>2019-03-21T16:31:24Z</time>
      </trkpt>
      <trkpt lat="46.47659" lon="-1.55695">
        <ele>25</ele>
        <time>2019-03-21T16:31:26Z</time>
      </trkpt>
      <trkpt lat="46.47656" lon="-1.55695">
        <ele>25</ele>
        <time>2019-03-21T16:31:29Z</time>
      </trkpt>
      <trkpt lat="46.47654" lon="-1.55696">
        <ele>25</ele>
        <time>2019-03-21T16:31:32Z</time>
      </trkpt>
      <trkpt lat="46.47651" lon="-1.55697">
        <ele>25</ele>
        <time>2019-03-21T16:31:34Z</time>
      </trkpt>
      <trkpt lat="46.47649" lon="-1.55698">
        <ele>25</ele>
        <time>2019-03-21T16:31:37Z</time>
      </trkpt>
      <trkpt lat="46.47646" lon="-1.55699">
        <ele>25</ele>
        <time>2019-03-21T16:31:40Z</time>
      </trkpt>
      <trkpt lat="46.47642" lon="-1.55699">
        <ele>25</ele>
        <time>2019-03-21T16:31:42Z</time>
      </trkpt>
      <trkpt lat="46.4764" lon="-1.55699">
        <ele>25</ele>
        <time>2019-03-21T16:31:45Z</time>
      </trkpt>
      <trkpt lat="46.47637" lon="-1.55699">
        <ele>25</ele>
        <time>2019-03-21T16:31:47Z</time>
      </trkpt>
      <trkpt lat="46.47635" lon="-1.55701">
        <ele>25</ele>
        <time>2019-03-21T16:31:50Z</time>
      </trkpt>
      <trkpt lat="46.47634" lon="-1.55703">
        <ele>24</ele>
        <time>2019-03-21T16:31:53Z</time>
      </trkpt>
      <trkpt lat="46.47631" lon="-1.55703">
        <ele>24</ele>
        <time>2019-03-21T16:31:55Z</time>
      </trkpt>
      <trkpt lat="46.47628" lon="-1.55703">
        <ele>24</ele>
        <time>2019-03-21T16:31:58Z</time>
      </trkpt>
      <trkpt lat="46.47626" lon="-1.55703">
        <ele>24</ele>
        <time>2019-03-21T16:32:01Z</time>
      </trkpt>
      <trkpt lat="46.47623" lon="-1.55702">
        <ele>24</ele>
        <time>2019-03-21T16:32:04Z</time>
      </trkpt>
      <trkpt lat="46.47621" lon="-1.55702">
        <ele>24</ele>
        <time>2019-03-21T16:32:06Z</time>
      </trkpt>
      <trkpt lat="46.47619" lon="-1.55702">
        <ele>24</ele>
        <time>2019-03-21T16:32:09Z</time>
      </trkpt>
      <trkpt lat="46.47617" lon="-1.55702">
        <ele>24</ele>
        <time>2019-03-21T16:32:12Z</time>
      </trkpt>
      <trkpt lat="46.47615" lon="-1.55702">
        <ele>24</ele>
        <time>2019-03-21T16:32:14Z</time>
      </trkpt>
      <trkpt lat="46.47613" lon="-1.55702">
        <ele>24</ele>
        <time>2019-03-21T16:32:17Z</time>
      </trkpt>
      <trkpt lat="46.4761" lon="-1.55704">
        <ele>24</ele>
        <time>2019-03-21T16:32:20Z</time>
      </trkpt>
      <trkpt lat="46.47608" lon="-1.55705">
        <ele>24</ele>
        <time>2019-03-21T16:32:22Z</time>
      </trkpt>
      <trkpt lat="46.47606" lon="-1.55706">
        <ele>25</ele>
        <time>2019-03-21T16:32:25Z</time>
      </trkpt>
      <trkpt lat="46.47605" lon="-1.55706">
        <ele>25</ele>
        <time>2019-03-21T16:32:28Z</time>
      </trkpt>
      <trkpt lat="46.47602" lon="-1.55706">
        <ele>25</ele>
        <time>2019-03-21T16:32:30Z</time>
      </trkpt>
      <trkpt lat="46.47601" lon="-1.55706">
        <ele>25</ele>
        <time>2019-03-21T16:32:33Z</time>
      </trkpt>
      <trkpt lat="46.47599" lon="-1.55706">
        <ele>25</ele>
        <time>2019-03-21T16:32:36Z</time>
      </trkpt>
      <trkpt lat="46.47597" lon="-1.55708">
        <ele>25</ele>
        <time>2019-03-21T16:32:38Z</time>
      </trkpt>
      <trkpt lat="46.47596" lon="-1.5571">
        <ele>25</ele>
        <time>2019-03-21T16:32:41Z</time>
      </trkpt>
      <trkpt lat="46.47592" lon="-1.55709">
        <ele>25</ele>
        <time>2019-03-21T16:32:44Z</time>
      </trkpt>
      <trkpt lat="46.4759" lon="-1.55708">
        <ele>25</ele>
        <time>2019-03-21T16:32:46Z</time>
      </trkpt>
      <trkpt lat="46.47588" lon="-1.55708">
        <ele>25</ele>
        <time>2019-03-21T16:32:49Z</time>
      </trkpt>
      <trkpt lat="46.47585" lon="-1.55707">
        <ele>25</ele>
        <time>2019-03-21T16:32:52Z</time>
      </trkpt>
      <trkpt lat="46.47582" lon="-1.55707">
        <ele>25</ele>
        <time>2019-03-21T16:32:54Z</time>
      </trkpt>
      <trkpt lat="46.4758" lon="-1.55708">
        <ele>26</ele>
        <time>2019-03-21T16:32:57Z</time>
      </trkpt>
      <trkpt lat="46.47578" lon="-1.55709">
        <ele>26</ele>
        <time>2019-03-21T16:32:59Z</time>
      </trkpt>
      <trkpt lat="46.47577" lon="-1.55709">
        <ele>26</ele>
        <time>2019-03-21T16:33:02Z</time>
      </trkpt>
      <trkpt lat="46.47574" lon="-1.5571">
        <ele>26</ele>
        <time>2019-03-21T16:33:05Z</time>
      </trkpt>
      <trkpt lat="46.4757" lon="-1.55711">
        <ele>26</ele>
        <time>2019-03-21T16:33:10Z</time>
      </trkpt>
      <trkpt lat="46.47568" lon="-1.55712">
        <ele>26</ele>
        <time>2019-03-21T16:33:12Z</time>
      </trkpt>
      <trkpt lat="46.47566" lon="-1.55712">
        <ele>26</ele>
        <time>2019-03-21T16:33:15Z</time>
      </trkpt>
      <trkpt lat="46.47564" lon="-1.55714">
        <ele>26</ele>
        <time>2019-03-21T16:33:17Z</time>
      </trkpt>
      <trkpt lat="46.47563" lon="-1.55714">
        <ele>27</ele>
        <time>2019-03-21T16:33:20Z</time>
      </trkpt>
      <trkpt lat="46.4756" lon="-1.55714">
        <ele>26</ele>
        <time>2019-03-21T16:33:23Z</time>
      </trkpt>
      <trkpt lat="46.47558" lon="-1.55714">
        <ele>27</ele>
        <time>2019-03-21T16:33:25Z</time>
      </trkpt>
      <trkpt lat="46.47557" lon="-1.55714">
        <ele>27</ele>
        <time>2019-03-21T16:33:28Z</time>
      </trkpt>
      <trkpt lat="46.47554" lon="-1.55715">
        <ele>28</ele>
        <time>2019-03-21T16:33:30Z</time>
      </trkpt>
      <trkpt lat="46.47553" lon="-1.55714">
        <ele>28</ele>
        <time>2019-03-21T16:33:33Z</time>
      </trkpt>
      <trkpt lat="46.4755" lon="-1.55716">
        <ele>28</ele>
        <time>2019-03-21T16:33:35Z</time>
      </trkpt>
      <trkpt lat="46.47548" lon="-1.55718">
        <ele>28</ele>
        <time>2019-03-21T16:33:38Z</time>
      </trkpt>
      <trkpt lat="46.47546" lon="-1.5572">
        <ele>28</ele>
        <time>2019-03-21T16:33:41Z</time>
      </trkpt>
      <trkpt lat="46.47545" lon="-1.5572">
        <ele>28</ele>
        <time>2019-03-21T16:33:43Z</time>
      </trkpt>
      <trkpt lat="46.47541" lon="-1.55721">
        <ele>28</ele>
        <time>2019-03-21T16:33:46Z</time>
      </trkpt>
      <trkpt lat="46.47538" lon="-1.5572">
        <ele>29</ele>
        <time>2019-03-21T16:33:48Z</time>
      </trkpt>
      <trkpt lat="46.47536" lon="-1.5572">
        <ele>29</ele>
        <time>2019-03-21T16:33:51Z</time>
      </trkpt>
      <trkpt lat="46.47533" lon="-1.5572">
        <ele>29</ele>
        <time>2019-03-21T16:33:53Z</time>
      </trkpt>
      <trkpt lat="46.47531" lon="-1.5572">
        <ele>29</ele>
        <time>2019-03-21T16:33:56Z</time>
      </trkpt>
      <trkpt lat="46.47528" lon="-1.55721">
        <ele>29</ele>
        <time>2019-03-21T16:33:58Z</time>
      </trkpt>
      <trkpt lat="46.47525" lon="-1.55721">
        <ele>29</ele>
        <time>2019-03-21T16:34:01Z</time>
      </trkpt>
      <trkpt lat="46.47523" lon="-1.55721">
        <ele>29</ele>
        <time>2019-03-21T16:34:04Z</time>
      </trkpt>
      <trkpt lat="46.47521" lon="-1.55722">
        <ele>29</ele>
        <time>2019-03-21T16:34:06Z</time>
      </trkpt>
      <trkpt lat="46.47519" lon="-1.55722">
        <ele>29</ele>
        <time>2019-03-21T16:34:09Z</time>
      </trkpt>
      <trkpt lat="46.47517" lon="-1.55723">
        <ele>29</ele>
        <time>2019-03-21T16:34:11Z</time>
      </trkpt>
      <trkpt lat="46.47513" lon="-1.55724">
        <ele>29</ele>
        <time>2019-03-21T16:34:14Z</time>
      </trkpt>
      <trkpt lat="46.47511" lon="-1.55724">
        <ele>29</ele>
        <time>2019-03-21T16:34:17Z</time>
      </trkpt>
      <trkpt lat="46.47507" lon="-1.55724">
        <ele>29</ele>
        <time>2019-03-21T16:34:19Z</time>
      </trkpt>
      <trkpt lat="46.47505" lon="-1.55725">
        <ele>29</ele>
        <time>2019-03-21T16:34:22Z</time>
      </trkpt>
      <trkpt lat="46.47503" lon="-1.55727">
        <ele>29</ele>
        <time>2019-03-21T16:34:25Z</time>
      </trkpt>
      <trkpt lat="46.475" lon="-1.55729">
        <ele>29</ele>
        <time>2019-03-21T16:34:27Z</time>
      </trkpt>
      <trkpt lat="46.47499" lon="-1.55729">
        <ele>30</ele>
        <time>2019-03-21T16:34:30Z</time>
      </trkpt>
      <trkpt lat="46.47496" lon="-1.55729">
        <ele>30</ele>
        <time>2019-03-21T16:34:32Z</time>
      </trkpt>
      <trkpt lat="46.47494" lon="-1.55729">
        <ele>30</ele>
        <time>2019-03-21T16:34:35Z</time>
      </trkpt>
      <trkpt lat="46.47489" lon="-1.55731">
        <ele>30</ele>
        <time>2019-03-21T16:34:37Z</time>
      </trkpt>
      <trkpt lat="46.47487" lon="-1.55731">
        <ele>30</ele>
        <time>2019-03-21T16:34:40Z</time>
      </trkpt>
      <trkpt lat="46.47485" lon="-1.5573">
        <ele>30</ele>
        <time>2019-03-21T16:34:43Z</time>
      </trkpt>
      <trkpt lat="46.47484" lon="-1.5573">
        <ele>30</ele>
        <time>2019-03-21T16:34:45Z</time>
      </trkpt>
      <trkpt lat="46.47484" lon="-1.55731">
        <ele>30</ele>
        <time>2019-03-21T16:34:48Z</time>
      </trkpt>
      <trkpt lat="46.47483" lon="-1.55732">
        <ele>30</ele>
        <time>2019-03-21T16:34:50Z</time>
      </trkpt>
      <trkpt lat="46.47483" lon="-1.55732">
        <ele>30</ele>
        <time>2019-03-21T16:34:53Z</time>
      </trkpt>
      <trkpt lat="46.47482" lon="-1.55732">
        <ele>30</ele>
        <time>2019-03-21T16:34:56Z</time>
      </trkpt>
      <trkpt lat="46.47481" lon="-1.55732">
        <ele>30</ele>
        <time>2019-03-21T16:34:58Z</time>
      </trkpt>
      <trkpt lat="46.47481" lon="-1.55732">
        <ele>30</ele>
        <time>2019-03-21T16:35:01Z</time>
      </trkpt>
      <trkpt lat="46.47481" lon="-1.55732">
        <ele>30</ele>
        <time>2019-03-21T16:35:04Z</time>
      </trkpt>
      <trkpt lat="46.47481" lon="-1.55733">
        <ele>30</ele>
        <time>2019-03-21T16:35:06Z</time>
      </trkpt>
      <trkpt lat="46.4748" lon="-1.55734">
        <ele>30</ele>
        <time>2019-03-21T16:35:09Z</time>
      </trkpt>
      <trkpt lat="46.47478" lon="-1.55734">
        <ele>30</ele>
        <time>2019-03-21T16:35:11Z</time>
      </trkpt>
      <trkpt lat="46.47477" lon="-1.55734">
        <ele>30</ele>
        <time>2019-03-21T16:35:14Z</time>
      </trkpt>
      <trkpt lat="46.47477" lon="-1.55735">
        <ele>30</ele>
        <time>2019-03-21T16:35:17Z</time>
      </trkpt>
      <trkpt lat="46.47476" lon="-1.55738">
        <ele>30</ele>
        <time>2019-03-21T16:35:19Z</time>
      </trkpt>
      <trkpt lat="46.47474" lon="-1.55743">
        <ele>30</ele>
        <time>2019-03-21T16:35:22Z</time>
      </trkpt>
      <trkpt lat="46.47474" lon="-1.55746">
        <ele>30</ele>
        <time>2019-03-21T16:35:25Z</time>
      </trkpt>
      <trkpt lat="46.47473" lon="-1.5575">
        <ele>30</ele>
        <time>2019-03-21T16:35:27Z</time>
      </trkpt>
      <trkpt lat="46.47472" lon="-1.55756">
        <ele>30</ele>
        <time>2019-03-21T16:35:30Z</time>
      </trkpt>
      <trkpt lat="46.47472" lon="-1.5576">
        <ele>30</ele>
        <time>2019-03-21T16:35:33Z</time>
      </trkpt>
      <trkpt lat="46.47471" lon="-1.55765">
        <ele>30</ele>
        <time>2019-03-21T16:35:35Z</time>
      </trkpt>
      <trkpt lat="46.4747" lon="-1.55771">
        <ele>29</ele>
        <time>2019-03-21T16:35:38Z</time>
      </trkpt>
      <trkpt lat="46.47469" lon="-1.55775">
        <ele>29</ele>
        <time>2019-03-21T16:35:41Z</time>
      </trkpt>
      <trkpt lat="46.47469" lon="-1.55781">
        <ele>30</ele>
        <time>2019-03-21T16:35:43Z</time>
      </trkpt>
      <trkpt lat="46.47468" lon="-1.55786">
        <ele>30</ele>
        <time>2019-03-21T16:35:46Z</time>
      </trkpt>
      <trkpt lat="46.47467" lon="-1.55792">
        <ele>30</ele>
        <time>2019-03-21T16:35:48Z</time>
      </trkpt>
      <trkpt lat="46.47467" lon="-1.55797">
        <ele>30</ele>
        <time>2019-03-21T16:35:51Z</time>
      </trkpt>
      <trkpt lat="46.47467" lon="-1.55801">
        <ele>30</ele>
        <time>2019-03-21T16:35:54Z</time>
      </trkpt>
      <trkpt lat="46.47466" lon="-1.55803">
        <ele>30</ele>
        <time>2019-03-21T16:35:57Z</time>
      </trkpt>
      <trkpt lat="46.47466" lon="-1.55803">
        <ele>30</ele>
        <time>2019-03-21T16:35:59Z</time>
      </trkpt>
      <trkpt lat="46.47466" lon="-1.55803">
        <ele>30</ele>
        <time>2019-03-21T16:36:02Z</time>
      </trkpt>
      <trkpt lat="46.47466" lon="-1.55804">
        <ele>30</ele>
        <time>2019-03-21T16:36:04Z</time>
      </trkpt>
      <trkpt lat="46.47468" lon="-1.55801">
        <ele>30</ele>
        <time>2019-03-21T16:36:10Z</time>
      </trkpt>
      <trkpt lat="46.47468" lon="-1.55798">
        <ele>30</ele>
        <time>2019-03-21T16:36:12Z</time>
      </trkpt>
      <trkpt lat="46.47468" lon="-1.55798">
        <ele>30</ele>
        <time>2019-03-21T16:36:15Z</time>
      </trkpt>
      <trkpt lat="46.47466" lon="-1.55798">
        <ele>30</ele>
        <time>2019-03-21T16:36:17Z</time>
      </trkpt>
      <trkpt lat="46.47465" lon="-1.55801">
        <ele>30</ele>
        <time>2019-03-21T16:36:20Z</time>
      </trkpt>
      <trkpt lat="46.47465" lon="-1.55806">
        <ele>30</ele>
        <time>2019-03-21T16:36:23Z</time>
      </trkpt>
      <trkpt lat="46.47465" lon="-1.5581">
        <ele>30</ele>
        <time>2019-03-21T16:36:25Z</time>
      </trkpt>
      <trkpt lat="46.47463" lon="-1.55813">
        <ele>30</ele>
        <time>2019-03-21T16:36:28Z</time>
      </trkpt>
      <trkpt lat="46.47463" lon="-1.55816">
        <ele>30</ele>
        <time>2019-03-21T16:36:31Z</time>
      </trkpt>
      <trkpt lat="46.47462" lon="-1.5582">
        <ele>30</ele>
        <time>2019-03-21T16:36:33Z</time>
      </trkpt>
      <trkpt lat="46.47461" lon="-1.55823">
        <ele>30</ele>
        <time>2019-03-21T16:36:36Z</time>
      </trkpt>
      <trkpt lat="46.4746" lon="-1.55827">
        <ele>30</ele>
        <time>2019-03-21T16:36:39Z</time>
      </trkpt>
      <trkpt lat="46.47459" lon="-1.5583">
        <ele>30</ele>
        <time>2019-03-21T16:36:41Z</time>
      </trkpt>
      <trkpt lat="46.47458" lon="-1.55832">
        <ele>30</ele>
        <time>2019-03-21T16:36:44Z</time>
      </trkpt>
      <trkpt lat="46.47458" lon="-1.55837">
        <ele>30</ele>
        <time>2019-03-21T16:36:47Z</time>
      </trkpt>
      <trkpt lat="46.47457" lon="-1.55841">
        <ele>30</ele>
        <time>2019-03-21T16:36:49Z</time>
      </trkpt>
      <trkpt lat="46.47456" lon="-1.55844">
        <ele>30</ele>
        <time>2019-03-21T16:36:52Z</time>
      </trkpt>
      <trkpt lat="46.47456" lon="-1.55848">
        <ele>30</ele>
        <time>2019-03-21T16:36:54Z</time>
      </trkpt>
      <trkpt lat="46.47454" lon="-1.55853">
        <ele>30</ele>
        <time>2019-03-21T16:36:57Z</time>
      </trkpt>
      <trkpt lat="46.47454" lon="-1.55855">
        <ele>30</ele>
        <time>2019-03-21T16:37:00Z</time>
      </trkpt>
      <trkpt lat="46.47452" lon="-1.55859">
        <ele>30</ele>
        <time>2019-03-21T16:37:02Z</time>
      </trkpt>
      <trkpt lat="46.47452" lon="-1.55864">
        <ele>30</ele>
        <time>2019-03-21T16:37:05Z</time>
      </trkpt>
      <trkpt lat="46.47451" lon="-1.55867">
        <ele>30</ele>
        <time>2019-03-21T16:37:08Z</time>
      </trkpt>
      <trkpt lat="46.4745" lon="-1.55871">
        <ele>30</ele>
        <time>2019-03-21T16:37:10Z</time>
      </trkpt>
      <trkpt lat="46.47449" lon="-1.55876">
        <ele>30</ele>
        <time>2019-03-21T16:37:13Z</time>
      </trkpt>
      <trkpt lat="46.47447" lon="-1.55879">
        <ele>30</ele>
        <time>2019-03-21T16:37:16Z</time>
      </trkpt>
      <trkpt lat="46.47446" lon="-1.55883">
        <ele>30</ele>
        <time>2019-03-21T16:37:18Z</time>
      </trkpt>
      <trkpt lat="46.47446" lon="-1.55889">
        <ele>30</ele>
        <time>2019-03-21T16:37:21Z</time>
      </trkpt>
      <trkpt lat="46.47445" lon="-1.55892">
        <ele>30</ele>
        <time>2019-03-21T16:37:24Z</time>
      </trkpt>
      <trkpt lat="46.47444" lon="-1.55896">
        <ele>29</ele>
        <time>2019-03-21T16:37:26Z</time>
      </trkpt>
      <trkpt lat="46.47443" lon="-1.55901">
        <ele>29</ele>
        <time>2019-03-21T16:37:29Z</time>
      </trkpt>
      <trkpt lat="46.47442" lon="-1.55904">
        <ele>29</ele>
        <time>2019-03-21T16:37:32Z</time>
      </trkpt>
      <trkpt lat="46.47441" lon="-1.55909">
        <ele>29</ele>
        <time>2019-03-21T16:37:34Z</time>
      </trkpt>
      <trkpt lat="46.4744" lon="-1.55913">
        <ele>29</ele>
        <time>2019-03-21T16:37:37Z</time>
      </trkpt>
      <trkpt lat="46.4744" lon="-1.55916">
        <ele>29</ele>
        <time>2019-03-21T16:37:40Z</time>
      </trkpt>
      <trkpt lat="46.47439" lon="-1.55922">
        <ele>29</ele>
        <time>2019-03-21T16:37:42Z</time>
      </trkpt>
      <trkpt lat="46.47438" lon="-1.55925">
        <ele>29</ele>
        <time>2019-03-21T16:37:45Z</time>
      </trkpt>
      <trkpt lat="46.47438" lon="-1.5593">
        <ele>29</ele>
        <time>2019-03-21T16:37:48Z</time>
      </trkpt>
      <trkpt lat="46.47437" lon="-1.55935">
        <ele>29</ele>
        <time>2019-03-21T16:37:50Z</time>
      </trkpt>
      <trkpt lat="46.47436" lon="-1.55938">
        <ele>29</ele>
        <time>2019-03-21T16:37:53Z</time>
      </trkpt>
      <trkpt lat="46.47436" lon="-1.55943">
        <ele>29</ele>
        <time>2019-03-21T16:37:56Z</time>
      </trkpt>
      <trkpt lat="46.47434" lon="-1.55947">
        <ele>29</ele>
        <time>2019-03-21T16:37:58Z</time>
      </trkpt>
      <trkpt lat="46.47434" lon="-1.55949">
        <ele>29</ele>
        <time>2019-03-21T16:38:01Z</time>
      </trkpt>
      <trkpt lat="46.47432" lon="-1.55954">
        <ele>29</ele>
        <time>2019-03-21T16:38:03Z</time>
      </trkpt>
      <trkpt lat="46.47431" lon="-1.55958">
        <ele>29</ele>
        <time>2019-03-21T16:38:06Z</time>
      </trkpt>
      <trkpt lat="46.4743" lon="-1.55961">
        <ele>29</ele>
        <time>2019-03-21T16:38:09Z</time>
      </trkpt>
      <trkpt lat="46.47429" lon="-1.55965">
        <ele>29</ele>
        <time>2019-03-21T16:38:12Z</time>
      </trkpt>
      <trkpt lat="46.47427" lon="-1.5597">
        <ele>29</ele>
        <time>2019-03-21T16:38:14Z</time>
      </trkpt>
      <trkpt lat="46.47426" lon="-1.55974">
        <ele>29</ele>
        <time>2019-03-21T16:38:17Z</time>
      </trkpt>
      <trkpt lat="46.47425" lon="-1.55977">
        <ele>29</ele>
        <time>2019-03-21T16:38:20Z</time>
      </trkpt>
      <trkpt lat="46.47424" lon="-1.55981">
        <ele>29</ele>
        <time>2019-03-21T16:38:22Z</time>
      </trkpt>
      <trkpt lat="46.47422" lon="-1.55985">
        <ele>29</ele>
        <time>2019-03-21T16:38:25Z</time>
      </trkpt>
      <trkpt lat="46.4742" lon="-1.55989">
        <ele>29</ele>
        <time>2019-03-21T16:38:28Z</time>
      </trkpt>
      <trkpt lat="46.47419" lon="-1.55993">
        <ele>29</ele>
        <time>2019-03-21T16:38:31Z</time>
      </trkpt>
      <trkpt lat="46.47417" lon="-1.55997">
        <ele>29</ele>
        <time>2019-03-21T16:38:33Z</time>
      </trkpt>
      <trkpt lat="46.47416" lon="-1.56002">
        <ele>29</ele>
        <time>2019-03-21T16:38:36Z</time>
      </trkpt>
      <trkpt lat="46.47415" lon="-1.56004">
        <ele>29</ele>
        <time>2019-03-21T16:38:39Z</time>
      </trkpt>
      <trkpt lat="46.47413" lon="-1.56009">
        <ele>29</ele>
        <time>2019-03-21T16:38:41Z</time>
      </trkpt>
      <trkpt lat="46.47411" lon="-1.56013">
        <ele>29</ele>
        <time>2019-03-21T16:38:44Z</time>
      </trkpt>
      <trkpt lat="46.4741" lon="-1.56015">
        <ele>29</ele>
        <time>2019-03-21T16:38:47Z</time>
      </trkpt>
      <trkpt lat="46.47408" lon="-1.5602">
        <ele>29</ele>
        <time>2019-03-21T16:38:49Z</time>
      </trkpt>
      <trkpt lat="46.47406" lon="-1.56025">
        <ele>29</ele>
        <time>2019-03-21T16:38:52Z</time>
      </trkpt>
      <trkpt lat="46.47404" lon="-1.56028">
        <ele>29</ele>
        <time>2019-03-21T16:38:55Z</time>
      </trkpt>
      <trkpt lat="46.47402" lon="-1.56033">
        <ele>29</ele>
        <time>2019-03-21T16:38:57Z</time>
      </trkpt>
      <trkpt lat="46.47401" lon="-1.56037">
        <ele>29</ele>
        <time>2019-03-21T16:39:00Z</time>
      </trkpt>
      <trkpt lat="46.474" lon="-1.56039">
        <ele>29</ele>
        <time>2019-03-21T16:39:03Z</time>
      </trkpt>
      <trkpt lat="46.47398" lon="-1.56044">
        <ele>29</ele>
        <time>2019-03-21T16:39:05Z</time>
      </trkpt>
      <trkpt lat="46.47396" lon="-1.56048">
        <ele>29</ele>
        <time>2019-03-21T16:39:08Z</time>
      </trkpt>
      <trkpt lat="46.47392" lon="-1.56055">
        <ele>29</ele>
        <time>2019-03-21T16:39:13Z</time>
      </trkpt>
      <trkpt lat="46.47389" lon="-1.5606">
        <ele>29</ele>
        <time>2019-03-21T16:39:16Z</time>
      </trkpt>
      <trkpt lat="46.47388" lon="-1.56064">
        <ele>29</ele>
        <time>2019-03-21T16:39:19Z</time>
      </trkpt>
      <trkpt lat="46.47386" lon="-1.56069">
        <ele>29</ele>
        <time>2019-03-21T16:39:21Z</time>
      </trkpt>
      <trkpt lat="46.47384" lon="-1.56073">
        <ele>29</ele>
        <time>2019-03-21T16:39:24Z</time>
      </trkpt>
      <trkpt lat="46.47383" lon="-1.56077">
        <ele>29</ele>
        <time>2019-03-21T16:39:27Z</time>
      </trkpt>
      <trkpt lat="46.47382" lon="-1.56081">
        <ele>29</ele>
        <time>2019-03-21T16:39:29Z</time>
      </trkpt>
      <trkpt lat="46.47381" lon="-1.56085">
        <ele>29</ele>
        <time>2019-03-21T16:39:32Z</time>
      </trkpt>
      <trkpt lat="46.4738" lon="-1.56089">
        <ele>29</ele>
        <time>2019-03-21T16:39:35Z</time>
      </trkpt>
      <trkpt lat="46.47379" lon="-1.56093">
        <ele>29</ele>
        <time>2019-03-21T16:39:38Z</time>
      </trkpt>
      <trkpt lat="46.47379" lon="-1.56098">
        <ele>29</ele>
        <time>2019-03-21T16:39:40Z</time>
      </trkpt>
      <trkpt lat="46.47378" lon="-1.56101">
        <ele>29</ele>
        <time>2019-03-21T16:39:43Z</time>
      </trkpt>
      <trkpt lat="46.47378" lon="-1.56105">
        <ele>29</ele>
        <time>2019-03-21T16:39:46Z</time>
      </trkpt>
      <trkpt lat="46.47377" lon="-1.56109">
        <ele>29</ele>
        <time>2019-03-21T16:39:48Z</time>
      </trkpt>
      <trkpt lat="46.47375" lon="-1.56114">
        <ele>29</ele>
        <time>2019-03-21T16:39:51Z</time>
      </trkpt>
      <trkpt lat="46.47375" lon="-1.56117">
        <ele>29</ele>
        <time>2019-03-21T16:39:54Z</time>
      </trkpt>
      <trkpt lat="46.47373" lon="-1.56123">
        <ele>29</ele>
        <time>2019-03-21T16:39:56Z</time>
      </trkpt>
      <trkpt lat="46.47373" lon="-1.56129">
        <ele>29</ele>
        <time>2019-03-21T16:39:59Z</time>
      </trkpt>
      <trkpt lat="46.47373" lon="-1.56132">
        <ele>29</ele>
        <time>2019-03-21T16:40:02Z</time>
      </trkpt>
      <trkpt lat="46.47372" lon="-1.56138">
        <ele>29</ele>
        <time>2019-03-21T16:40:04Z</time>
      </trkpt>
      <trkpt lat="46.47371" lon="-1.56143">
        <ele>29</ele>
        <time>2019-03-21T16:40:07Z</time>
      </trkpt>
      <trkpt lat="46.4737" lon="-1.56146">
        <ele>29</ele>
        <time>2019-03-21T16:40:10Z</time>
      </trkpt>
      <trkpt lat="46.47368" lon="-1.5615">
        <ele>29</ele>
        <time>2019-03-21T16:40:13Z</time>
      </trkpt>
      <trkpt lat="46.47367" lon="-1.56154">
        <ele>29</ele>
        <time>2019-03-21T16:40:15Z</time>
      </trkpt>
      <trkpt lat="46.47367" lon="-1.56157">
        <ele>29</ele>
        <time>2019-03-21T16:40:18Z</time>
      </trkpt>
      <trkpt lat="46.47366" lon="-1.56161">
        <ele>29</ele>
        <time>2019-03-21T16:40:21Z</time>
      </trkpt>
      <trkpt lat="46.47365" lon="-1.56165">
        <ele>29</ele>
        <time>2019-03-21T16:40:23Z</time>
      </trkpt>
      <trkpt lat="46.47364" lon="-1.56169">
        <ele>29</ele>
        <time>2019-03-21T16:40:26Z</time>
      </trkpt>
      <trkpt lat="46.47364" lon="-1.56172">
        <ele>29</ele>
        <time>2019-03-21T16:40:29Z</time>
      </trkpt>
      <trkpt lat="46.47363" lon="-1.56176">
        <ele>29</ele>
        <time>2019-03-21T16:40:31Z</time>
      </trkpt>
      <trkpt lat="46.47363" lon="-1.5618">
        <ele>29</ele>
        <time>2019-03-21T16:40:34Z</time>
      </trkpt>
      <trkpt lat="46.47362" lon="-1.56183">
        <ele>29</ele>
        <time>2019-03-21T16:40:37Z</time>
      </trkpt>
      <trkpt lat="46.47361" lon="-1.56185">
        <ele>29</ele>
        <time>2019-03-21T16:40:40Z</time>
      </trkpt>
      <trkpt lat="46.4736" lon="-1.56191">
        <ele>30</ele>
        <time>2019-03-21T16:40:42Z</time>
      </trkpt>
      <trkpt lat="46.47359" lon="-1.56196">
        <ele>30</ele>
        <time>2019-03-21T16:40:45Z</time>
      </trkpt>
      <trkpt lat="46.47358" lon="-1.56199">
        <ele>30</ele>
        <time>2019-03-21T16:40:48Z</time>
      </trkpt>
      <trkpt lat="46.47357" lon="-1.56203">
        <ele>30</ele>
        <time>2019-03-21T16:40:50Z</time>
      </trkpt>
      <trkpt lat="46.47356" lon="-1.56208">
        <ele>30</ele>
        <time>2019-03-21T16:40:53Z</time>
      </trkpt>
      <trkpt lat="46.47355" lon="-1.56211">
        <ele>30</ele>
        <time>2019-03-21T16:40:56Z</time>
      </trkpt>
      <trkpt lat="46.47354" lon="-1.56215">
        <ele>30</ele>
        <time>2019-03-21T16:40:58Z</time>
      </trkpt>
      <trkpt lat="46.47353" lon="-1.5622">
        <ele>30</ele>
        <time>2019-03-21T16:41:01Z</time>
      </trkpt>
      <trkpt lat="46.47352" lon="-1.56223">
        <ele>30</ele>
        <time>2019-03-21T16:41:04Z</time>
      </trkpt>
      <trkpt lat="46.47352" lon="-1.56228">
        <ele>30</ele>
        <time>2019-03-21T16:41:07Z</time>
      </trkpt>
      <trkpt lat="46.47351" lon="-1.56232">
        <ele>30</ele>
        <time>2019-03-21T16:41:09Z</time>
      </trkpt>
      <trkpt lat="46.47349" lon="-1.56235">
        <ele>30</ele>
        <time>2019-03-21T16:41:12Z</time>
      </trkpt>
      <trkpt lat="46.47348" lon="-1.5624">
        <ele>30</ele>
        <time>2019-03-21T16:41:14Z</time>
      </trkpt>
      <trkpt lat="46.47347" lon="-1.56245">
        <ele>30</ele>
        <time>2019-03-21T16:41:17Z</time>
      </trkpt>
      <trkpt lat="46.47347" lon="-1.56248">
        <ele>30</ele>
        <time>2019-03-21T16:41:20Z</time>
      </trkpt>
      <trkpt lat="46.47347" lon="-1.56254">
        <ele>30</ele>
        <time>2019-03-21T16:41:22Z</time>
      </trkpt>
      <trkpt lat="46.47346" lon="-1.56259">
        <ele>30</ele>
        <time>2019-03-21T16:41:25Z</time>
      </trkpt>
      <trkpt lat="46.47346" lon="-1.56264">
        <ele>30</ele>
        <time>2019-03-21T16:41:28Z</time>
      </trkpt>
      <trkpt lat="46.47345" lon="-1.5627">
        <ele>30</ele>
        <time>2019-03-21T16:41:30Z</time>
      </trkpt>
      <trkpt lat="46.47343" lon="-1.56274">
        <ele>30</ele>
        <time>2019-03-21T16:41:33Z</time>
      </trkpt>
      <trkpt lat="46.47342" lon="-1.56277">
        <ele>30</ele>
        <time>2019-03-21T16:41:36Z</time>
      </trkpt>
      <trkpt lat="46.47342" lon="-1.56282">
        <ele>30</ele>
        <time>2019-03-21T16:41:38Z</time>
      </trkpt>
      <trkpt lat="46.4734" lon="-1.56288">
        <ele>30</ele>
        <time>2019-03-21T16:41:41Z</time>
      </trkpt>
      <trkpt lat="46.47341" lon="-1.56292">
        <ele>30</ele>
        <time>2019-03-21T16:41:44Z</time>
      </trkpt>
      <trkpt lat="46.4734" lon="-1.56297">
        <ele>30</ele>
        <time>2019-03-21T16:41:46Z</time>
      </trkpt>
      <trkpt lat="46.4734" lon="-1.56303">
        <ele>30</ele>
        <time>2019-03-21T16:41:49Z</time>
      </trkpt>
      <trkpt lat="46.47339" lon="-1.56307">
        <ele>30</ele>
        <time>2019-03-21T16:41:52Z</time>
      </trkpt>
      <trkpt lat="46.47338" lon="-1.56313">
        <ele>30</ele>
        <time>2019-03-21T16:41:55Z</time>
      </trkpt>
      <trkpt lat="46.47337" lon="-1.56319">
        <ele>30</ele>
        <time>2019-03-21T16:41:57Z</time>
      </trkpt>
      <trkpt lat="46.47337" lon="-1.56325">
        <ele>30</ele>
        <time>2019-03-21T16:42:00Z</time>
      </trkpt>
      <trkpt lat="46.47337" lon="-1.56329">
        <ele>30</ele>
        <time>2019-03-21T16:42:03Z</time>
      </trkpt>
      <trkpt lat="46.47335" lon="-1.56334">
        <ele>30</ele>
        <time>2019-03-21T16:42:05Z</time>
      </trkpt>
      <trkpt lat="46.47335" lon="-1.5634">
        <ele>30</ele>
        <time>2019-03-21T16:42:08Z</time>
      </trkpt>
      <trkpt lat="46.47335" lon="-1.56343">
        <ele>30</ele>
        <time>2019-03-21T16:42:11Z</time>
      </trkpt>
      <trkpt lat="46.47335" lon="-1.56349">
        <ele>30</ele>
        <time>2019-03-21T16:42:13Z</time>
      </trkpt>
      <trkpt lat="46.47335" lon="-1.56359">
        <ele>31</ele>
        <time>2019-03-21T16:42:19Z</time>
      </trkpt>
      <trkpt lat="46.47333" lon="-1.56364">
        <ele>31</ele>
        <time>2019-03-21T16:42:22Z</time>
      </trkpt>
      <trkpt lat="46.47333" lon="-1.56368">
        <ele>31</ele>
        <time>2019-03-21T16:42:24Z</time>
      </trkpt>
      <trkpt lat="46.47332" lon="-1.56374">
        <ele>31</ele>
        <time>2019-03-21T16:42:27Z</time>
      </trkpt>
      <trkpt lat="46.47332" lon="-1.56378">
        <ele>31</ele>
        <time>2019-03-21T16:42:30Z</time>
      </trkpt>
      <trkpt lat="46.47331" lon="-1.56384">
        <ele>31</ele>
        <time>2019-03-21T16:42:32Z</time>
      </trkpt>
      <trkpt lat="46.47331" lon="-1.56387">
        <ele>31</ele>
        <time>2019-03-21T16:42:35Z</time>
      </trkpt>
      <trkpt lat="46.47331" lon="-1.56391">
        <ele>31</ele>
        <time>2019-03-21T16:42:38Z</time>
      </trkpt>
      <trkpt lat="46.47329" lon="-1.56395">
        <ele>31</ele>
        <time>2019-03-21T16:42:41Z</time>
      </trkpt>
      <trkpt lat="46.47328" lon="-1.56399">
        <ele>31</ele>
        <time>2019-03-21T16:42:43Z</time>
      </trkpt>
      <trkpt lat="46.47327" lon="-1.56404">
        <ele>32</ele>
        <time>2019-03-21T16:42:46Z</time>
      </trkpt>
      <trkpt lat="46.47326" lon="-1.56407">
        <ele>32</ele>
        <time>2019-03-21T16:42:49Z</time>
      </trkpt>
      <trkpt lat="46.47326" lon="-1.5641">
        <ele>32</ele>
        <time>2019-03-21T16:42:52Z</time>
      </trkpt>
      <trkpt lat="46.47325" lon="-1.56414">
        <ele>32</ele>
        <time>2019-03-21T16:42:54Z</time>
      </trkpt>
      <trkpt lat="46.47323" lon="-1.5642">
        <ele>32</ele>
        <time>2019-03-21T16:42:57Z</time>
      </trkpt>
      <trkpt lat="46.47322" lon="-1.56424">
        <ele>32</ele>
        <time>2019-03-21T16:43:00Z</time>
      </trkpt>
      <trkpt lat="46.47321" lon="-1.56429">
        <ele>32</ele>
        <time>2019-03-21T16:43:03Z</time>
      </trkpt>
      <trkpt lat="46.47319" lon="-1.56434">
        <ele>32</ele>
        <time>2019-03-21T16:43:05Z</time>
      </trkpt>
      <trkpt lat="46.47319" lon="-1.56439">
        <ele>32</ele>
        <time>2019-03-21T16:43:08Z</time>
      </trkpt>
      <trkpt lat="46.47317" lon="-1.56442">
        <ele>32</ele>
        <time>2019-03-21T16:43:11Z</time>
      </trkpt>
      <trkpt lat="46.47316" lon="-1.56447">
        <ele>32</ele>
        <time>2019-03-21T16:43:13Z</time>
      </trkpt>
      <trkpt lat="46.47315" lon="-1.56451">
        <ele>32</ele>
        <time>2019-03-21T16:43:16Z</time>
      </trkpt>
      <trkpt lat="46.47315" lon="-1.56455">
        <ele>32</ele>
        <time>2019-03-21T16:43:19Z</time>
      </trkpt>
      <trkpt lat="46.47315" lon="-1.56461">
        <ele>32</ele>
        <time>2019-03-21T16:43:22Z</time>
      </trkpt>
      <trkpt lat="46.47313" lon="-1.56466">
        <ele>32</ele>
        <time>2019-03-21T16:43:24Z</time>
      </trkpt>
      <trkpt lat="46.47313" lon="-1.56471">
        <ele>32</ele>
        <time>2019-03-21T16:43:27Z</time>
      </trkpt>
      <trkpt lat="46.47312" lon="-1.56474">
        <ele>32</ele>
        <time>2019-03-21T16:43:30Z</time>
      </trkpt>
      <trkpt lat="46.47312" lon="-1.56479">
        <ele>32</ele>
        <time>2019-03-21T16:43:32Z</time>
      </trkpt>
      <trkpt lat="46.47312" lon="-1.56483">
        <ele>32</ele>
        <time>2019-03-21T16:43:35Z</time>
      </trkpt>
      <trkpt lat="46.47311" lon="-1.56488">
        <ele>32</ele>
        <time>2019-03-21T16:43:38Z</time>
      </trkpt>
      <trkpt lat="46.47311" lon="-1.56493">
        <ele>32</ele>
        <time>2019-03-21T16:43:40Z</time>
      </trkpt>
      <trkpt lat="46.47311" lon="-1.56498">
        <ele>32</ele>
        <time>2019-03-21T16:43:43Z</time>
      </trkpt>
      <trkpt lat="46.47311" lon="-1.56503">
        <ele>32</ele>
        <time>2019-03-21T16:43:46Z</time>
      </trkpt>
      <trkpt lat="46.4731" lon="-1.56508">
        <ele>32</ele>
        <time>2019-03-21T16:43:48Z</time>
      </trkpt>
      <trkpt lat="46.4731" lon="-1.56512">
        <ele>32</ele>
        <time>2019-03-21T16:43:51Z</time>
      </trkpt>
      <trkpt lat="46.47309" lon="-1.56518">
        <ele>32</ele>
        <time>2019-03-21T16:43:54Z</time>
      </trkpt>
      <trkpt lat="46.47309" lon="-1.56524">
        <ele>32</ele>
        <time>2019-03-21T16:43:56Z</time>
      </trkpt>
      <trkpt lat="46.47309" lon="-1.56529">
        <ele>32</ele>
        <time>2019-03-21T16:43:59Z</time>
      </trkpt>
      <trkpt lat="46.47309" lon="-1.56534">
        <ele>32</ele>
        <time>2019-03-21T16:44:02Z</time>
      </trkpt>
      <trkpt lat="46.47308" lon="-1.56538">
        <ele>32</ele>
        <time>2019-03-21T16:44:04Z</time>
      </trkpt>
      <trkpt lat="46.47308" lon="-1.56542">
        <ele>32</ele>
        <time>2019-03-21T16:44:07Z</time>
      </trkpt>
      <trkpt lat="46.47308" lon="-1.56548">
        <ele>32</ele>
        <time>2019-03-21T16:44:10Z</time>
      </trkpt>
      <trkpt lat="46.47308" lon="-1.56553">
        <ele>32</ele>
        <time>2019-03-21T16:44:12Z</time>
      </trkpt>
      <trkpt lat="46.47308" lon="-1.56556">
        <ele>32</ele>
        <time>2019-03-21T16:44:15Z</time>
      </trkpt>
      <trkpt lat="46.47308" lon="-1.56561">
        <ele>32</ele>
        <time>2019-03-21T16:44:17Z</time>
      </trkpt>
      <trkpt lat="46.47308" lon="-1.56565">
        <ele>32</ele>
        <time>2019-03-21T16:44:20Z</time>
      </trkpt>
      <trkpt lat="46.47308" lon="-1.56571">
        <ele>32</ele>
        <time>2019-03-21T16:44:22Z</time>
      </trkpt>
      <trkpt lat="46.47308" lon="-1.56577">
        <ele>32</ele>
        <time>2019-03-21T16:44:25Z</time>
      </trkpt>
      <trkpt lat="46.47307" lon="-1.5658">
        <ele>32</ele>
        <time>2019-03-21T16:44:28Z</time>
      </trkpt>
      <trkpt lat="46.47306" lon="-1.56586">
        <ele>32</ele>
        <time>2019-03-21T16:44:30Z</time>
      </trkpt>
      <trkpt lat="46.47305" lon="-1.5659">
        <ele>32</ele>
        <time>2019-03-21T16:44:33Z</time>
      </trkpt>
      <trkpt lat="46.47305" lon="-1.56596">
        <ele>32</ele>
        <time>2019-03-21T16:44:35Z</time>
      </trkpt>
      <trkpt lat="46.47306" lon="-1.56599">
        <ele>32</ele>
        <time>2019-03-21T16:44:38Z</time>
      </trkpt>
      <trkpt lat="46.47304" lon="-1.56604">
        <ele>32</ele>
        <time>2019-03-21T16:44:41Z</time>
      </trkpt>
      <trkpt lat="46.47303" lon="-1.56609">
        <ele>32</ele>
        <time>2019-03-21T16:44:43Z</time>
      </trkpt>
      <trkpt lat="46.47302" lon="-1.56612">
        <ele>32</ele>
        <time>2019-03-21T16:44:46Z</time>
      </trkpt>
      <trkpt lat="46.47302" lon="-1.56616">
        <ele>32</ele>
        <time>2019-03-21T16:44:48Z</time>
      </trkpt>
      <trkpt lat="46.47301" lon="-1.56619">
        <ele>32</ele>
        <time>2019-03-21T16:44:51Z</time>
      </trkpt>
      <trkpt lat="46.47301" lon="-1.56623">
        <ele>32</ele>
        <time>2019-03-21T16:44:53Z</time>
      </trkpt>
      <trkpt lat="46.473" lon="-1.56627">
        <ele>32</ele>
        <time>2019-03-21T16:44:56Z</time>
      </trkpt>
      <trkpt lat="46.47299" lon="-1.56632">
        <ele>32</ele>
        <time>2019-03-21T16:44:59Z</time>
      </trkpt>
      <trkpt lat="46.47297" lon="-1.56637">
        <ele>32</ele>
        <time>2019-03-21T16:45:01Z</time>
      </trkpt>
      <trkpt lat="46.47296" lon="-1.56641">
        <ele>32</ele>
        <time>2019-03-21T16:45:04Z</time>
      </trkpt>
      <trkpt lat="46.47294" lon="-1.56643">
        <ele>32</ele>
        <time>2019-03-21T16:45:06Z</time>
      </trkpt>
      <trkpt lat="46.47294" lon="-1.56643">
        <ele>32</ele>
        <time>2019-03-21T16:45:09Z</time>
      </trkpt>
      <trkpt lat="46.47293" lon="-1.56644">
        <ele>32</ele>
        <time>2019-03-21T16:45:11Z</time>
      </trkpt>
      <trkpt lat="46.47293" lon="-1.56644">
        <ele>32</ele>
        <time>2019-03-21T16:45:14Z</time>
      </trkpt>
      <trkpt lat="46.47294" lon="-1.56648">
        <ele>32</ele>
        <time>2019-03-21T16:45:19Z</time>
      </trkpt>
      <trkpt lat="46.47293" lon="-1.5665">
        <ele>32</ele>
        <time>2019-03-21T16:45:22Z</time>
      </trkpt>
      <trkpt lat="46.47292" lon="-1.56656">
        <ele>32</ele>
        <time>2019-03-21T16:45:24Z</time>
      </trkpt>
      <trkpt lat="46.47291" lon="-1.5666">
        <ele>32</ele>
        <time>2019-03-21T16:45:27Z</time>
      </trkpt>
      <trkpt lat="46.47289" lon="-1.56665">
        <ele>32</ele>
        <time>2019-03-21T16:45:30Z</time>
      </trkpt>
      <trkpt lat="46.47286" lon="-1.56671">
        <ele>32</ele>
        <time>2019-03-21T16:45:32Z</time>
      </trkpt>
      <trkpt lat="46.47286" lon="-1.56675">
        <ele>32</ele>
        <time>2019-03-21T16:45:35Z</time>
      </trkpt>
      <trkpt lat="46.47283" lon="-1.5668">
        <ele>32</ele>
        <time>2019-03-21T16:45:37Z</time>
      </trkpt>
      <trkpt lat="46.47282" lon="-1.56683">
        <ele>32</ele>
        <time>2019-03-21T16:45:40Z</time>
      </trkpt>
      <trkpt lat="46.4728" lon="-1.56688">
        <ele>32</ele>
        <time>2019-03-21T16:45:43Z</time>
      </trkpt>
      <trkpt lat="46.47281" lon="-1.56694">
        <ele>31</ele>
        <time>2019-03-21T16:45:45Z</time>
      </trkpt>
      <trkpt lat="46.47281" lon="-1.56698">
        <ele>31</ele>
        <time>2019-03-21T16:45:48Z</time>
      </trkpt>
      <trkpt lat="46.47279" lon="-1.56702">
        <ele>31</ele>
        <time>2019-03-21T16:45:50Z</time>
      </trkpt>
      <trkpt lat="46.47277" lon="-1.56706">
        <ele>31</ele>
        <time>2019-03-21T16:45:53Z</time>
      </trkpt>
      <trkpt lat="46.47276" lon="-1.5671">
        <ele>31</ele>
        <time>2019-03-21T16:45:56Z</time>
      </trkpt>
      <trkpt lat="46.47275" lon="-1.56716">
        <ele>31</ele>
        <time>2019-03-21T16:45:58Z</time>
      </trkpt>
      <trkpt lat="46.47274" lon="-1.56719">
        <ele>31</ele>
        <time>2019-03-21T16:46:01Z</time>
      </trkpt>
      <trkpt lat="46.47273" lon="-1.56723">
        <ele>31</ele>
        <time>2019-03-21T16:46:03Z</time>
      </trkpt>
      <trkpt lat="46.47273" lon="-1.56726">
        <ele>31</ele>
        <time>2019-03-21T16:46:06Z</time>
      </trkpt>
      <trkpt lat="46.47274" lon="-1.56731">
        <ele>31</ele>
        <time>2019-03-21T16:46:08Z</time>
      </trkpt>
      <trkpt lat="46.47274" lon="-1.56736">
        <ele>31</ele>
        <time>2019-03-21T16:46:11Z</time>
      </trkpt>
      <trkpt lat="46.47272" lon="-1.56739">
        <ele>31</ele>
        <time>2019-03-21T16:46:14Z</time>
      </trkpt>
      <trkpt lat="46.47269" lon="-1.56744">
        <ele>31</ele>
        <time>2019-03-21T16:46:16Z</time>
      </trkpt>
      <trkpt lat="46.47268" lon="-1.56748">
        <ele>31</ele>
        <time>2019-03-21T16:46:19Z</time>
      </trkpt>
      <trkpt lat="46.47269" lon="-1.56754">
        <ele>30</ele>
        <time>2019-03-21T16:46:22Z</time>
      </trkpt>
      <trkpt lat="46.47269" lon="-1.56761">
        <ele>30</ele>
        <time>2019-03-21T16:46:24Z</time>
      </trkpt>
      <trkpt lat="46.47268" lon="-1.56765">
        <ele>30</ele>
        <time>2019-03-21T16:46:27Z</time>
      </trkpt>
      <trkpt lat="46.47267" lon="-1.5677">
        <ele>30</ele>
        <time>2019-03-21T16:46:29Z</time>
      </trkpt>
      <trkpt lat="46.47266" lon="-1.56775">
        <ele>30</ele>
        <time>2019-03-21T16:46:32Z</time>
      </trkpt>
      <trkpt lat="46.47265" lon="-1.56779">
        <ele>30</ele>
        <time>2019-03-21T16:46:35Z</time>
      </trkpt>
      <trkpt lat="46.47263" lon="-1.56784">
        <ele>30</ele>
        <time>2019-03-21T16:46:37Z</time>
      </trkpt>
      <trkpt lat="46.47261" lon="-1.56787">
        <ele>30</ele>
        <time>2019-03-21T16:46:40Z</time>
      </trkpt>
      <trkpt lat="46.47259" lon="-1.56793">
        <ele>30</ele>
        <time>2019-03-21T16:46:43Z</time>
      </trkpt>
      <trkpt lat="46.47259" lon="-1.56798">
        <ele>30</ele>
        <time>2019-03-21T16:46:45Z</time>
      </trkpt>
      <trkpt lat="46.47259" lon="-1.56802">
        <ele>30</ele>
        <time>2019-03-21T16:46:48Z</time>
      </trkpt>
      <trkpt lat="46.47257" lon="-1.56808">
        <ele>29</ele>
        <time>2019-03-21T16:46:50Z</time>
      </trkpt>
      <trkpt lat="46.47257" lon="-1.56814">
        <ele>29</ele>
        <time>2019-03-21T16:46:53Z</time>
      </trkpt>
      <trkpt lat="46.47258" lon="-1.56817">
        <ele>29</ele>
        <time>2019-03-21T16:46:56Z</time>
      </trkpt>
      <trkpt lat="46.47258" lon="-1.56822">
        <ele>29</ele>
        <time>2019-03-21T16:46:58Z</time>
      </trkpt>
      <trkpt lat="46.47257" lon="-1.56825">
        <ele>29</ele>
        <time>2019-03-21T16:47:01Z</time>
      </trkpt>
      <trkpt lat="46.47256" lon="-1.5683">
        <ele>29</ele>
        <time>2019-03-21T16:47:04Z</time>
      </trkpt>
      <trkpt lat="46.47255" lon="-1.56836">
        <ele>29</ele>
        <time>2019-03-21T16:47:06Z</time>
      </trkpt>
      <trkpt lat="46.47254" lon="-1.56839">
        <ele>29</ele>
        <time>2019-03-21T16:47:09Z</time>
      </trkpt>
      <trkpt lat="46.47252" lon="-1.56845">
        <ele>29</ele>
        <time>2019-03-21T16:47:11Z</time>
      </trkpt>
      <trkpt lat="46.47251" lon="-1.56849">
        <ele>29</ele>
        <time>2019-03-21T16:47:14Z</time>
      </trkpt>
      <trkpt lat="46.47248" lon="-1.56854">
        <ele>29</ele>
        <time>2019-03-21T16:47:16Z</time>
      </trkpt>
      <trkpt lat="46.47245" lon="-1.5686">
        <ele>29</ele>
        <time>2019-03-21T16:47:19Z</time>
      </trkpt>
      <trkpt lat="46.47244" lon="-1.56864">
        <ele>29</ele>
        <time>2019-03-21T16:47:22Z</time>
      </trkpt>
      <trkpt lat="46.47243" lon="-1.5687">
        <ele>29</ele>
        <time>2019-03-21T16:47:24Z</time>
      </trkpt>
      <trkpt lat="46.47242" lon="-1.56876">
        <ele>29</ele>
        <time>2019-03-21T16:47:27Z</time>
      </trkpt>
      <trkpt lat="46.47241" lon="-1.5688">
        <ele>29</ele>
        <time>2019-03-21T16:47:30Z</time>
      </trkpt>
      <trkpt lat="46.47241" lon="-1.56885">
        <ele>29</ele>
        <time>2019-03-21T16:47:32Z</time>
      </trkpt>
      <trkpt lat="46.47241" lon="-1.56888">
        <ele>29</ele>
        <time>2019-03-21T16:47:35Z</time>
      </trkpt>
      <trkpt lat="46.4724" lon="-1.56893">
        <ele>29</ele>
        <time>2019-03-21T16:47:37Z</time>
      </trkpt>
      <trkpt lat="46.4724" lon="-1.56897">
        <ele>29</ele>
        <time>2019-03-21T16:47:40Z</time>
      </trkpt>
      <trkpt lat="46.4724" lon="-1.56898">
        <ele>29</ele>
        <time>2019-03-21T16:47:43Z</time>
      </trkpt>
      <trkpt lat="46.4724" lon="-1.56899">
        <ele>29</ele>
        <time>2019-03-21T16:47:45Z</time>
      </trkpt>
      <trkpt lat="46.47241" lon="-1.569">
        <ele>29</ele>
        <time>2019-03-21T16:47:48Z</time>
      </trkpt>
      <trkpt lat="46.47241" lon="-1.56901">
        <ele>29</ele>
        <time>2019-03-21T16:47:51Z</time>
      </trkpt>
      <trkpt lat="46.47241" lon="-1.56902">
        <ele>29</ele>
        <time>2019-03-21T16:47:53Z</time>
      </trkpt>
      <trkpt lat="46.47241" lon="-1.56903">
        <ele>29</ele>
        <time>2019-03-21T16:47:56Z</time>
      </trkpt>
      <trkpt lat="46.47241" lon="-1.56906">
        <ele>29</ele>
        <time>2019-03-21T16:47:59Z</time>
      </trkpt>
      <trkpt lat="46.47241" lon="-1.5691">
        <ele>29</ele>
        <time>2019-03-21T16:48:01Z</time>
      </trkpt>
      <trkpt lat="46.47241" lon="-1.56917">
        <ele>29</ele>
        <time>2019-03-21T16:48:04Z</time>
      </trkpt>
      <trkpt lat="46.47241" lon="-1.56922">
        <ele>29</ele>
        <time>2019-03-21T16:48:07Z</time>
      </trkpt>
      <trkpt lat="46.47239" lon="-1.56927">
        <ele>29</ele>
        <time>2019-03-21T16:48:09Z</time>
      </trkpt>
      <trkpt lat="46.47239" lon="-1.56933">
        <ele>29</ele>
        <time>2019-03-21T16:48:12Z</time>
      </trkpt>
      <trkpt lat="46.47237" lon="-1.56936">
        <ele>29</ele>
        <time>2019-03-21T16:48:15Z</time>
      </trkpt>
      <trkpt lat="46.47236" lon="-1.56949">
        <ele>29</ele>
        <time>2019-03-21T16:48:20Z</time>
      </trkpt>
      <trkpt lat="46.47235" lon="-1.56952">
        <ele>29</ele>
        <time>2019-03-21T16:48:23Z</time>
      </trkpt>
      <trkpt lat="46.47232" lon="-1.56957">
        <ele>28</ele>
        <time>2019-03-21T16:48:26Z</time>
      </trkpt>
      <trkpt lat="46.4723" lon="-1.56962">
        <ele>28</ele>
        <time>2019-03-21T16:48:28Z</time>
      </trkpt>
      <trkpt lat="46.4723" lon="-1.56965">
        <ele>28</ele>
        <time>2019-03-21T16:48:31Z</time>
      </trkpt>
      <trkpt lat="46.47228" lon="-1.5697">
        <ele>28</ele>
        <time>2019-03-21T16:48:34Z</time>
      </trkpt>
      <trkpt lat="46.47227" lon="-1.56975">
        <ele>28</ele>
        <time>2019-03-21T16:48:36Z</time>
      </trkpt>
      <trkpt lat="46.47226" lon="-1.56978">
        <ele>28</ele>
        <time>2019-03-21T16:48:39Z</time>
      </trkpt>
      <trkpt lat="46.47224" lon="-1.56983">
        <ele>28</ele>
        <time>2019-03-21T16:48:42Z</time>
      </trkpt>
      <trkpt lat="46.47222" lon="-1.56987">
        <ele>28</ele>
        <time>2019-03-21T16:48:44Z</time>
      </trkpt>
      <trkpt lat="46.47221" lon="-1.5699">
        <ele>28</ele>
        <time>2019-03-21T16:48:47Z</time>
      </trkpt>
      <trkpt lat="46.47219" lon="-1.56996">
        <ele>28</ele>
        <time>2019-03-21T16:48:50Z</time>
      </trkpt>
      <trkpt lat="46.47218" lon="-1.57002">
        <ele>28</ele>
        <time>2019-03-21T16:48:52Z</time>
      </trkpt>
      <trkpt lat="46.47216" lon="-1.57006">
        <ele>28</ele>
        <time>2019-03-21T16:48:55Z</time>
      </trkpt>
      <trkpt lat="46.47216" lon="-1.57013">
        <ele>28</ele>
        <time>2019-03-21T16:48:57Z</time>
      </trkpt>
      <trkpt lat="46.47214" lon="-1.57019">
        <ele>28</ele>
        <time>2019-03-21T16:49:00Z</time>
      </trkpt>
      <trkpt lat="46.47213" lon="-1.57023">
        <ele>28</ele>
        <time>2019-03-21T16:49:03Z</time>
      </trkpt>
      <trkpt lat="46.47211" lon="-1.57028">
        <ele>28</ele>
        <time>2019-03-21T16:49:05Z</time>
      </trkpt>
      <trkpt lat="46.4721" lon="-1.57032">
        <ele>28</ele>
        <time>2019-03-21T16:49:08Z</time>
      </trkpt>
      <trkpt lat="46.47208" lon="-1.57037">
        <ele>28</ele>
        <time>2019-03-21T16:49:11Z</time>
      </trkpt>
      <trkpt lat="46.47206" lon="-1.57042">
        <ele>28</ele>
        <time>2019-03-21T16:49:13Z</time>
      </trkpt>
      <trkpt lat="46.47205" lon="-1.57046">
        <ele>28</ele>
        <time>2019-03-21T16:49:16Z</time>
      </trkpt>
      <trkpt lat="46.47203" lon="-1.57051">
        <ele>28</ele>
        <time>2019-03-21T16:49:18Z</time>
      </trkpt>
      <trkpt lat="46.47201" lon="-1.57055">
        <ele>28</ele>
        <time>2019-03-21T16:49:21Z</time>
      </trkpt>
      <trkpt lat="46.472" lon="-1.57059">
        <ele>28</ele>
        <time>2019-03-21T16:49:24Z</time>
      </trkpt>
      <trkpt lat="46.47198" lon="-1.57065">
        <ele>27</ele>
        <time>2019-03-21T16:49:26Z</time>
      </trkpt>
      <trkpt lat="46.47198" lon="-1.5707">
        <ele>27</ele>
        <time>2019-03-21T16:49:29Z</time>
      </trkpt>
      <trkpt lat="46.47197" lon="-1.57074">
        <ele>27</ele>
        <time>2019-03-21T16:49:32Z</time>
      </trkpt>
      <trkpt lat="46.47196" lon="-1.57078">
        <ele>27</ele>
        <time>2019-03-21T16:49:34Z</time>
      </trkpt>
      <trkpt lat="46.47196" lon="-1.57082">
        <ele>27</ele>
        <time>2019-03-21T16:49:37Z</time>
      </trkpt>
      <trkpt lat="46.47196" lon="-1.57088">
        <ele>27</ele>
        <time>2019-03-21T16:49:40Z</time>
      </trkpt>
      <trkpt lat="46.47195" lon="-1.57093">
        <ele>27</ele>
        <time>2019-03-21T16:49:42Z</time>
      </trkpt>
      <trkpt lat="46.47194" lon="-1.57097">
        <ele>27</ele>
        <time>2019-03-21T16:49:45Z</time>
      </trkpt>
      <trkpt lat="46.47194" lon="-1.57102">
        <ele>27</ele>
        <time>2019-03-21T16:49:47Z</time>
      </trkpt>
      <trkpt lat="46.47194" lon="-1.57107">
        <ele>27</ele>
        <time>2019-03-21T16:49:50Z</time>
      </trkpt>
      <trkpt lat="46.47193" lon="-1.5711">
        <ele>27</ele>
        <time>2019-03-21T16:49:53Z</time>
      </trkpt>
      <trkpt lat="46.47192" lon="-1.57115">
        <ele>27</ele>
        <time>2019-03-21T16:49:55Z</time>
      </trkpt>
      <trkpt lat="46.47192" lon="-1.57119">
        <ele>28</ele>
        <time>2019-03-21T16:49:58Z</time>
      </trkpt>
      <trkpt lat="46.47191" lon="-1.57123">
        <ele>28</ele>
        <time>2019-03-21T16:50:01Z</time>
      </trkpt>
      <trkpt lat="46.4719" lon="-1.57129">
        <ele>28</ele>
        <time>2019-03-21T16:50:03Z</time>
      </trkpt>
      <trkpt lat="46.47188" lon="-1.57134">
        <ele>28</ele>
        <time>2019-03-21T16:50:06Z</time>
      </trkpt>
      <trkpt lat="46.47188" lon="-1.57138">
        <ele>28</ele>
        <time>2019-03-21T16:50:09Z</time>
      </trkpt>
      <trkpt lat="46.47185" lon="-1.57144">
        <ele>28</ele>
        <time>2019-03-21T16:50:11Z</time>
      </trkpt>
      <trkpt lat="46.47185" lon="-1.57151">
        <ele>28</ele>
        <time>2019-03-21T16:50:14Z</time>
      </trkpt>
      <trkpt lat="46.47185" lon="-1.57154">
        <ele>28</ele>
        <time>2019-03-21T16:50:17Z</time>
      </trkpt>
      <trkpt lat="46.47184" lon="-1.5716">
        <ele>28</ele>
        <time>2019-03-21T16:50:19Z</time>
      </trkpt>
      <trkpt lat="46.47184" lon="-1.57165">
        <ele>27</ele>
        <time>2019-03-21T16:50:22Z</time>
      </trkpt>
      <trkpt lat="46.47184" lon="-1.57168">
        <ele>27</ele>
        <time>2019-03-21T16:50:25Z</time>
      </trkpt>
      <trkpt lat="46.47185" lon="-1.57173">
        <ele>27</ele>
        <time>2019-03-21T16:50:27Z</time>
      </trkpt>
      <trkpt lat="46.47184" lon="-1.57178">
        <ele>27</ele>
        <time>2019-03-21T16:50:30Z</time>
      </trkpt>
      <trkpt lat="46.47185" lon="-1.57183">
        <ele>27</ele>
        <time>2019-03-21T16:50:33Z</time>
      </trkpt>
      <trkpt lat="46.47185" lon="-1.57188">
        <ele>27</ele>
        <time>2019-03-21T16:50:35Z</time>
      </trkpt>
      <trkpt lat="46.47184" lon="-1.57194">
        <ele>27</ele>
        <time>2019-03-21T16:50:38Z</time>
      </trkpt>
      <trkpt lat="46.47183" lon="-1.57198">
        <ele>27</ele>
        <time>2019-03-21T16:50:41Z</time>
      </trkpt>
      <trkpt lat="46.47183" lon="-1.57205">
        <ele>27</ele>
        <time>2019-03-21T16:50:43Z</time>
      </trkpt>
      <trkpt lat="46.47182" lon="-1.5721">
        <ele>27</ele>
        <time>2019-03-21T16:50:46Z</time>
      </trkpt>
      <trkpt lat="46.47181" lon="-1.57217">
        <ele>27</ele>
        <time>2019-03-21T16:50:49Z</time>
      </trkpt>
      <trkpt lat="46.47181" lon="-1.57224">
        <ele>27</ele>
        <time>2019-03-21T16:50:51Z</time>
      </trkpt>
      <trkpt lat="46.4718" lon="-1.57227">
        <ele>27</ele>
        <time>2019-03-21T16:50:54Z</time>
      </trkpt>
      <trkpt lat="46.47178" lon="-1.57229">
        <ele>27</ele>
        <time>2019-03-21T16:50:56Z</time>
      </trkpt>
      <trkpt lat="46.47178" lon="-1.5723">
        <ele>27</ele>
        <time>2019-03-21T16:50:59Z</time>
      </trkpt>
      <trkpt lat="46.47177" lon="-1.57231">
        <ele>27</ele>
        <time>2019-03-21T16:51:02Z</time>
      </trkpt>
      <trkpt lat="46.47177" lon="-1.57232">
        <ele>27</ele>
        <time>2019-03-21T16:51:04Z</time>
      </trkpt>
      <trkpt lat="46.47178" lon="-1.57233">
        <ele>27</ele>
        <time>2019-03-21T16:51:07Z</time>
      </trkpt>
      <trkpt lat="46.47178" lon="-1.57234">
        <ele>27</ele>
        <time>2019-03-21T16:51:10Z</time>
      </trkpt>
      <trkpt lat="46.47179" lon="-1.57234">
        <ele>27</ele>
        <time>2019-03-21T16:51:12Z</time>
      </trkpt>
      <trkpt lat="46.47179" lon="-1.57235">
        <ele>27</ele>
        <time>2019-03-21T16:51:15Z</time>
      </trkpt>
      <trkpt lat="46.47179" lon="-1.57235">
        <ele>27</ele>
        <time>2019-03-21T16:51:18Z</time>
      </trkpt>
      <trkpt lat="46.47177" lon="-1.57236">
        <ele>27</ele>
        <time>2019-03-21T16:51:23Z</time>
      </trkpt>
      <trkpt lat="46.47176" lon="-1.57236">
        <ele>27</ele>
        <time>2019-03-21T16:51:26Z</time>
      </trkpt>
      <trkpt lat="46.47175" lon="-1.57236">
        <ele>27</ele>
        <time>2019-03-21T16:51:28Z</time>
      </trkpt>
      <trkpt lat="46.47174" lon="-1.57236">
        <ele>27</ele>
        <time>2019-03-21T16:51:31Z</time>
      </trkpt>
      <trkpt lat="46.47173" lon="-1.57236">
        <ele>26</ele>
        <time>2019-03-21T16:51:34Z</time>
      </trkpt>
      <trkpt lat="46.47174" lon="-1.57237">
        <ele>26</ele>
        <time>2019-03-21T16:51:36Z</time>
      </trkpt>
      <trkpt lat="46.47175" lon="-1.57238">
        <ele>27</ele>
        <time>2019-03-21T16:51:39Z</time>
      </trkpt>
      <trkpt lat="46.47175" lon="-1.57238">
        <ele>27</ele>
        <time>2019-03-21T16:51:42Z</time>
      </trkpt>
      <trkpt lat="46.47175" lon="-1.57237">
        <ele>27</ele>
        <time>2019-03-21T16:51:44Z</time>
      </trkpt>
      <trkpt lat="46.47174" lon="-1.57238">
        <ele>26</ele>
        <time>2019-03-21T16:51:47Z</time>
      </trkpt>
      <trkpt lat="46.47173" lon="-1.57238">
        <ele>26</ele>
        <time>2019-03-21T16:51:50Z</time>
      </trkpt>
      <trkpt lat="46.47172" lon="-1.57237">
        <ele>26</ele>
        <time>2019-03-21T16:51:52Z</time>
      </trkpt>
      <trkpt lat="46.47172" lon="-1.57237">
        <ele>26</ele>
        <time>2019-03-21T16:51:55Z</time>
      </trkpt>
      <trkpt lat="46.47172" lon="-1.57237">
        <ele>26</ele>
        <time>2019-03-21T16:51:58Z</time>
      </trkpt>
      <trkpt lat="46.47171" lon="-1.57236">
        <ele>26</ele>
        <time>2019-03-21T16:52:00Z</time>
      </trkpt>
      <trkpt lat="46.47171" lon="-1.57236">
        <ele>26</ele>
        <time>2019-03-21T16:52:03Z</time>
      </trkpt>
      <trkpt lat="46.47171" lon="-1.57236">
        <ele>26</ele>
        <time>2019-03-21T16:52:06Z</time>
      </trkpt>
      <trkpt lat="46.47172" lon="-1.57236">
        <ele>26</ele>
        <time>2019-03-21T16:52:08Z</time>
      </trkpt>
      <trkpt lat="46.47171" lon="-1.57235">
        <ele>26</ele>
        <time>2019-03-21T16:52:11Z</time>
      </trkpt>
      <trkpt lat="46.47171" lon="-1.57235">
        <ele>26</ele>
        <time>2019-03-21T16:52:14Z</time>
      </trkpt>
      <trkpt lat="46.47169" lon="-1.57237">
        <ele>26</ele>
        <time>2019-03-21T16:52:17Z</time>
      </trkpt>
      <trkpt lat="46.47167" lon="-1.57238">
        <ele>26</ele>
        <time>2019-03-21T16:52:19Z</time>
      </trkpt>
      <trkpt lat="46.47166" lon="-1.57238">
        <ele>26</ele>
        <time>2019-03-21T16:52:22Z</time>
      </trkpt>
      <trkpt lat="46.47165" lon="-1.57239">
        <ele>26</ele>
        <time>2019-03-21T16:52:25Z</time>
      </trkpt>
      <trkpt lat="46.47163" lon="-1.5724">
        <ele>26</ele>
        <time>2019-03-21T16:52:27Z</time>
      </trkpt>
      <trkpt lat="46.47162" lon="-1.57241">
        <ele>26</ele>
        <time>2019-03-21T16:52:30Z</time>
      </trkpt>
      <trkpt lat="46.4716" lon="-1.57241">
        <ele>26</ele>
        <time>2019-03-21T16:52:33Z</time>
      </trkpt>
      <trkpt lat="46.47159" lon="-1.57241">
        <ele>26</ele>
        <time>2019-03-21T16:52:36Z</time>
      </trkpt>
      <trkpt lat="46.47156" lon="-1.57241">
        <ele>26</ele>
        <time>2019-03-21T16:52:38Z</time>
      </trkpt>
      <trkpt lat="46.47153" lon="-1.5724">
        <ele>26</ele>
        <time>2019-03-21T16:52:41Z</time>
      </trkpt>
      <trkpt lat="46.4715" lon="-1.57238">
        <ele>26</ele>
        <time>2019-03-21T16:52:44Z</time>
      </trkpt>
      <trkpt lat="46.47148" lon="-1.57238">
        <ele>26</ele>
        <time>2019-03-21T16:52:47Z</time>
      </trkpt>
      <trkpt lat="46.47145" lon="-1.57239">
        <ele>26</ele>
        <time>2019-03-21T16:52:49Z</time>
      </trkpt>
      <trkpt lat="46.47141" lon="-1.57239">
        <ele>26</ele>
        <time>2019-03-21T16:52:52Z</time>
      </trkpt>
      <trkpt lat="46.47139" lon="-1.57238">
        <ele>26</ele>
        <time>2019-03-21T16:52:55Z</time>
      </trkpt>
      <trkpt lat="46.47136" lon="-1.57238">
        <ele>26</ele>
        <time>2019-03-21T16:52:57Z</time>
      </trkpt>
      <trkpt lat="46.47132" lon="-1.57237">
        <ele>26</ele>
        <time>2019-03-21T16:53:00Z</time>
      </trkpt>
      <trkpt lat="46.4713" lon="-1.57236">
        <ele>26</ele>
        <time>2019-03-21T16:53:03Z</time>
      </trkpt>
      <trkpt lat="46.47126" lon="-1.57235">
        <ele>26</ele>
        <time>2019-03-21T16:53:06Z</time>
      </trkpt>
      <trkpt lat="46.47121" lon="-1.57235">
        <ele>26</ele>
        <time>2019-03-21T16:53:08Z</time>
      </trkpt>
      <trkpt lat="46.47118" lon="-1.57234">
        <ele>26</ele>
        <time>2019-03-21T16:53:11Z</time>
      </trkpt>
      <trkpt lat="46.47113" lon="-1.57233">
        <ele>26</ele>
        <time>2019-03-21T16:53:14Z</time>
      </trkpt>
      <trkpt lat="46.4711" lon="-1.57231">
        <ele>26</ele>
        <time>2019-03-21T16:53:16Z</time>
      </trkpt>
      <trkpt lat="46.47107" lon="-1.57231">
        <ele>26</ele>
        <time>2019-03-21T16:53:19Z</time>
      </trkpt>
      <trkpt lat="46.47105" lon="-1.5723">
        <ele>26</ele>
        <time>2019-03-21T16:53:22Z</time>
      </trkpt>
      <trkpt lat="46.471" lon="-1.57229">
        <ele>26</ele>
        <time>2019-03-21T16:53:25Z</time>
      </trkpt>
      <trkpt lat="46.47096" lon="-1.57228">
        <ele>26</ele>
        <time>2019-03-21T16:53:27Z</time>
      </trkpt>
      <trkpt lat="46.47093" lon="-1.57227">
        <ele>26</ele>
        <time>2019-03-21T16:53:30Z</time>
      </trkpt>
      <trkpt lat="46.4709" lon="-1.57227">
        <ele>25</ele>
        <time>2019-03-21T16:53:33Z</time>
      </trkpt>
      <trkpt lat="46.47086" lon="-1.57226">
        <ele>25</ele>
        <time>2019-03-21T16:53:35Z</time>
      </trkpt>
      <trkpt lat="46.47082" lon="-1.57224">
        <ele>26</ele>
        <time>2019-03-21T16:53:38Z</time>
      </trkpt>
      <trkpt lat="46.47078" lon="-1.57223">
        <ele>25</ele>
        <time>2019-03-21T16:53:41Z</time>
      </trkpt>
      <trkpt lat="46.47075" lon="-1.57222">
        <ele>25</ele>
        <time>2019-03-21T16:53:44Z</time>
      </trkpt>
      <trkpt lat="46.47071" lon="-1.57221">
        <ele>25</ele>
        <time>2019-03-21T16:53:46Z</time>
      </trkpt>
      <trkpt lat="46.47067" lon="-1.57221">
        <ele>25</ele>
        <time>2019-03-21T16:53:49Z</time>
      </trkpt>
      <trkpt lat="46.47064" lon="-1.5722">
        <ele>25</ele>
        <time>2019-03-21T16:53:52Z</time>
      </trkpt>
      <trkpt lat="46.47062" lon="-1.57218">
        <ele>25</ele>
        <time>2019-03-21T16:53:55Z</time>
      </trkpt>
      <trkpt lat="46.47059" lon="-1.57217">
        <ele>25</ele>
        <time>2019-03-21T16:53:57Z</time>
      </trkpt>
      <trkpt lat="46.47056" lon="-1.57216">
        <ele>25</ele>
        <time>2019-03-21T16:54:00Z</time>
      </trkpt>
      <trkpt lat="46.47053" lon="-1.57215">
        <ele>25</ele>
        <time>2019-03-21T16:54:03Z</time>
      </trkpt>
      <trkpt lat="46.47051" lon="-1.57214">
        <ele>25</ele>
        <time>2019-03-21T16:54:05Z</time>
      </trkpt>
      <trkpt lat="46.47047" lon="-1.57212">
        <ele>25</ele>
        <time>2019-03-21T16:54:08Z</time>
      </trkpt>
      <trkpt lat="46.47045" lon="-1.57211">
        <ele>25</ele>
        <time>2019-03-21T16:54:11Z</time>
      </trkpt>
      <trkpt lat="46.47041" lon="-1.5721">
        <ele>25</ele>
        <time>2019-03-21T16:54:14Z</time>
      </trkpt>
      <trkpt lat="46.47038" lon="-1.57209">
        <ele>25</ele>
        <time>2019-03-21T16:54:16Z</time>
      </trkpt>
      <trkpt lat="46.47033" lon="-1.57207">
        <ele>25</ele>
        <time>2019-03-21T16:54:19Z</time>
      </trkpt>
      <trkpt lat="46.47031" lon="-1.57207">
        <ele>25</ele>
        <time>2019-03-21T16:54:22Z</time>
      </trkpt>
      <trkpt lat="46.47027" lon="-1.57206">
        <ele>25</ele>
        <time>2019-03-21T16:54:24Z</time>
      </trkpt>
      <trkpt lat="46.47021" lon="-1.57204">
        <ele>24</ele>
        <time>2019-03-21T16:54:30Z</time>
      </trkpt>
      <trkpt lat="46.47017" lon="-1.57203">
        <ele>24</ele>
        <time>2019-03-21T16:54:33Z</time>
      </trkpt>
      <trkpt lat="46.47014" lon="-1.57202">
        <ele>24</ele>
        <time>2019-03-21T16:54:35Z</time>
      </trkpt>
      <trkpt lat="46.4701" lon="-1.57201">
        <ele>24</ele>
        <time>2019-03-21T16:54:38Z</time>
      </trkpt>
      <trkpt lat="46.47008" lon="-1.572">
        <ele>24</ele>
        <time>2019-03-21T16:54:41Z</time>
      </trkpt>
      <trkpt lat="46.47004" lon="-1.57199">
        <ele>24</ele>
        <time>2019-03-21T16:54:43Z</time>
      </trkpt>
      <trkpt lat="46.47001" lon="-1.57197">
        <ele>24</ele>
        <time>2019-03-21T16:54:46Z</time>
      </trkpt>
      <trkpt lat="46.46999" lon="-1.57197">
        <ele>24</ele>
        <time>2019-03-21T16:54:49Z</time>
      </trkpt>
      <trkpt lat="46.46995" lon="-1.57195">
        <ele>24</ele>
        <time>2019-03-21T16:54:52Z</time>
      </trkpt>
      <trkpt lat="46.46992" lon="-1.57194">
        <ele>24</ele>
        <time>2019-03-21T16:54:54Z</time>
      </trkpt>
      <trkpt lat="46.46988" lon="-1.57193">
        <ele>24</ele>
        <time>2019-03-21T16:54:57Z</time>
      </trkpt>
      <trkpt lat="46.46985" lon="-1.57193">
        <ele>24</ele>
        <time>2019-03-21T16:55:00Z</time>
      </trkpt>
      <trkpt lat="46.46981" lon="-1.57192">
        <ele>24</ele>
        <time>2019-03-21T16:55:02Z</time>
      </trkpt>
      <trkpt lat="46.46977" lon="-1.57191">
        <ele>24</ele>
        <time>2019-03-21T16:55:05Z</time>
      </trkpt>
      <trkpt lat="46.46974" lon="-1.5719">
        <ele>24</ele>
        <time>2019-03-21T16:55:08Z</time>
      </trkpt>
      <trkpt lat="46.4697" lon="-1.57189">
        <ele>24</ele>
        <time>2019-03-21T16:55:10Z</time>
      </trkpt>
      <trkpt lat="46.46967" lon="-1.57188">
        <ele>24</ele>
        <time>2019-03-21T16:55:13Z</time>
      </trkpt>
      <trkpt lat="46.46964" lon="-1.57187">
        <ele>24</ele>
        <time>2019-03-21T16:55:16Z</time>
      </trkpt>
      <trkpt lat="46.46961" lon="-1.57187">
        <ele>23</ele>
        <time>2019-03-21T16:55:18Z</time>
      </trkpt>
      <trkpt lat="46.46957" lon="-1.57185">
        <ele>23</ele>
        <time>2019-03-21T16:55:21Z</time>
      </trkpt>
      <trkpt lat="46.46954" lon="-1.57185">
        <ele>23</ele>
        <time>2019-03-21T16:55:24Z</time>
      </trkpt>
      <trkpt lat="46.4695" lon="-1.57183">
        <ele>23</ele>
        <time>2019-03-21T16:55:27Z</time>
      </trkpt>
      <trkpt lat="46.46948" lon="-1.57182">
        <ele>23</ele>
        <time>2019-03-21T16:55:29Z</time>
      </trkpt>
      <trkpt lat="46.46946" lon="-1.57182">
        <ele>23</ele>
        <time>2019-03-21T16:55:32Z</time>
      </trkpt>
      <trkpt lat="46.46943" lon="-1.5718">
        <ele>23</ele>
        <time>2019-03-21T16:55:35Z</time>
      </trkpt>
      <trkpt lat="46.46941" lon="-1.57179">
        <ele>23</ele>
        <time>2019-03-21T16:55:37Z</time>
      </trkpt>
      <trkpt lat="46.46939" lon="-1.57178">
        <ele>23</ele>
        <time>2019-03-21T16:55:40Z</time>
      </trkpt>
      <trkpt lat="46.46937" lon="-1.57177">
        <ele>23</ele>
        <time>2019-03-21T16:55:43Z</time>
      </trkpt>
      <trkpt lat="46.46932" lon="-1.57176">
        <ele>23</ele>
        <time>2019-03-21T16:55:45Z</time>
      </trkpt>
      <trkpt lat="46.46928" lon="-1.57174">
        <ele>23</ele>
        <time>2019-03-21T16:55:48Z</time>
      </trkpt>
      <trkpt lat="46.46924" lon="-1.57168">
        <ele>23</ele>
        <time>2019-03-21T16:55:51Z</time>
      </trkpt>
      <trkpt lat="46.46924" lon="-1.57166">
        <ele>23</ele>
        <time>2019-03-21T16:55:54Z</time>
      </trkpt>
      <trkpt lat="46.46923" lon="-1.57163">
        <ele>23</ele>
        <time>2019-03-21T16:55:56Z</time>
      </trkpt>
      <trkpt lat="46.46923" lon="-1.57159">
        <ele>23</ele>
        <time>2019-03-21T16:55:59Z</time>
      </trkpt>
      <trkpt lat="46.46923" lon="-1.57156">
        <ele>23</ele>
        <time>2019-03-21T16:56:02Z</time>
      </trkpt>
      <trkpt lat="46.46924" lon="-1.57155">
        <ele>23</ele>
        <time>2019-03-21T16:56:05Z</time>
      </trkpt>
      <trkpt lat="46.46924" lon="-1.57155">
        <ele>23</ele>
        <time>2019-03-21T16:56:08Z</time>
      </trkpt>
      <trkpt lat="46.46923" lon="-1.57155">
        <ele>23</ele>
        <time>2019-03-21T16:56:10Z</time>
      </trkpt>
      <trkpt lat="46.46921" lon="-1.57154">
        <ele>23</ele>
        <time>2019-03-21T16:56:13Z</time>
      </trkpt>
      <trkpt lat="46.4692" lon="-1.57154">
        <ele>23</ele>
        <time>2019-03-21T16:56:16Z</time>
      </trkpt>
      <trkpt lat="46.46919" lon="-1.57155">
        <ele>23</ele>
        <time>2019-03-21T16:56:19Z</time>
      </trkpt>
      <trkpt lat="46.46916" lon="-1.57154">
        <ele>23</ele>
        <time>2019-03-21T16:56:22Z</time>
      </trkpt>
      <trkpt lat="46.46913" lon="-1.57153">
        <ele>23</ele>
        <time>2019-03-21T16:56:24Z</time>
      </trkpt>
      <trkpt lat="46.46909" lon="-1.57152">
        <ele>23</ele>
        <time>2019-03-21T16:56:27Z</time>
      </trkpt>
      <trkpt lat="46.46907" lon="-1.57151">
        <ele>23</ele>
        <time>2019-03-21T16:56:30Z</time>
      </trkpt>
      <trkpt lat="46.46904" lon="-1.5715">
        <ele>23</ele>
        <time>2019-03-21T16:56:33Z</time>
      </trkpt>
      <trkpt lat="46.46902" lon="-1.5715">
        <ele>23</ele>
        <time>2019-03-21T16:56:35Z</time>
      </trkpt>
      <trkpt lat="46.46899" lon="-1.57149">
        <ele>23</ele>
        <time>2019-03-21T16:56:38Z</time>
      </trkpt>
      <trkpt lat="46.46896" lon="-1.57148">
        <ele>22</ele>
        <time>2019-03-21T16:56:41Z</time>
      </trkpt>
      <trkpt lat="46.46893" lon="-1.57147">
        <ele>22</ele>
        <time>2019-03-21T16:56:44Z</time>
      </trkpt>
      <trkpt lat="46.4689" lon="-1.57146">
        <ele>22</ele>
        <time>2019-03-21T16:56:46Z</time>
      </trkpt>
      <trkpt lat="46.46888" lon="-1.57146">
        <ele>22</ele>
        <time>2019-03-21T16:56:49Z</time>
      </trkpt>
      <trkpt lat="46.46886" lon="-1.57145">
        <ele>22</ele>
        <time>2019-03-21T16:56:52Z</time>
      </trkpt>
      <trkpt lat="46.46883" lon="-1.57144">
        <ele>22</ele>
        <time>2019-03-21T16:56:54Z</time>
      </trkpt>
      <trkpt lat="46.4688" lon="-1.57143">
        <ele>22</ele>
        <time>2019-03-21T16:56:57Z</time>
      </trkpt>
      <trkpt lat="46.46878" lon="-1.57143">
        <ele>22</ele>
        <time>2019-03-21T16:57:00Z</time>
      </trkpt>
      <trkpt lat="46.46874" lon="-1.57142">
        <ele>22</ele>
        <time>2019-03-21T16:57:02Z</time>
      </trkpt>
      <trkpt lat="46.4687" lon="-1.5714">
        <ele>22</ele>
        <time>2019-03-21T16:57:05Z</time>
      </trkpt>
      <trkpt lat="46.46868" lon="-1.5714">
        <ele>22</ele>
        <time>2019-03-21T16:57:08Z</time>
      </trkpt>
      <trkpt lat="46.46864" lon="-1.57139">
        <ele>22</ele>
        <time>2019-03-21T16:57:10Z</time>
      </trkpt>
      <trkpt lat="46.4686" lon="-1.57138">
        <ele>21</ele>
        <time>2019-03-21T16:57:13Z</time>
      </trkpt>
      <trkpt lat="46.46858" lon="-1.57138">
        <ele>21</ele>
        <time>2019-03-21T16:57:16Z</time>
      </trkpt>
      <trkpt lat="46.46855" lon="-1.57137">
        <ele>21</ele>
        <time>2019-03-21T16:57:18Z</time>
      </trkpt>
      <trkpt lat="46.46852" lon="-1.57135">
        <ele>21</ele>
        <time>2019-03-21T16:57:21Z</time>
      </trkpt>
      <trkpt lat="46.4685" lon="-1.57132">
        <ele>21</ele>
        <time>2019-03-21T16:57:24Z</time>
      </trkpt>
      <trkpt lat="46.4685" lon="-1.57127">
        <ele>21</ele>
        <time>2019-03-21T16:57:26Z</time>
      </trkpt>
      <trkpt lat="46.4685" lon="-1.57122">
        <ele>21</ele>
        <time>2019-03-21T16:57:29Z</time>
      </trkpt>
      <trkpt lat="46.4685" lon="-1.57122">
        <ele>21</ele>
        <time>2019-03-21T16:57:32Z</time>
      </trkpt>
    </trkseg>
  </trk>
</gpx>